<?xml version='1.0' encoding='UTF-8'?><gpx version="1.1" creator="JPX - https://github.com/jenetics/jpx" xmlns="http://www.topografix.com/GPX/1/1"><trk><trkseg><trkpt lat="43.373584917988936" lon="11.7914683977508"><ele>275.0</ele><time>2026-03-22T07:43:30.969Z</time></trkpt><trkpt lat="43.37356678540036" lon="11.791367573047145"><ele>275.0</ele><time>2026-03-22T07:43:32.969Z</time></trkpt><trkpt lat="43.37356851574489" lon="11.791267740442914"><ele>275.0</ele><time>2026-03-22T07:43:34.969Z</time></trkpt><trkpt lat="43.3735835089206" lon="11.791143386564098"><ele>275.0</ele><time>2026-03-22T07:43:36.969Z</time></trkpt><trkpt lat="43.37358458094865" lon="11.791042338315584"><ele>275.0</ele><time>2026-03-22T07:43:37.969Z</time></trkpt><trkpt lat="43.373577325462854" lon="11.790933622038027"><ele>275.0</ele><time>2026-03-22T07:43:38.969Z</time></trkpt><trkpt lat="43.37354962399788" lon="11.79083317013227"><ele>274.4</ele><time>2026-03-22T07:43:39.969Z</time></trkpt><trkpt lat="43.37351052783859" lon="11.790749407133857"><ele>273.8</ele><time>2026-03-22T07:43:40.969Z</time></trkpt><trkpt lat="43.37346444128216" lon="11.790688095631095"><ele>273.2</ele><time>2026-03-22T07:43:41.969Z</time></trkpt><trkpt lat="43.373384363297205" lon="11.790577180240222"><ele>272.6</ele><time>2026-03-22T07:43:43.969Z</time></trkpt><trkpt lat="43.37330474078274" lon="11.790460285409287"><ele>272.0</ele><time>2026-03-22T07:43:45.969Z</time></trkpt><trkpt lat="43.373223607294506" lon="11.790339066057069"><ele>272.0</ele><time>2026-03-22T07:43:47.969Z</time></trkpt><trkpt lat="43.37315181089187" lon="11.79022810299685"><ele>272.0</ele><time>2026-03-22T07:43:49.969Z</time></trkpt><trkpt lat="43.37306836964596" lon="11.790113120850982"><ele>272.0</ele><time>2026-03-22T07:43:51.969Z</time></trkpt><trkpt lat="43.37299431613193" lon="11.790003170442043"><ele>272.0</ele><time>2026-03-22T07:43:53.969Z</time></trkpt><trkpt lat="43.37296413651588" lon="11.789925765779905"><ele>272.0</ele><time>2026-03-22T07:43:54.969Z</time></trkpt><trkpt lat="43.37288561851411" lon="11.789846152523547"><ele>272.6</ele><time>2026-03-22T07:43:56.969Z</time></trkpt><trkpt lat="43.37279925365891" lon="11.789784935781388"><ele>273.2</ele><time>2026-03-22T07:43:58.969Z</time></trkpt><trkpt lat="43.37275215957948" lon="11.789724146880397"><ele>273.8</ele><time>2026-03-22T07:43:59.969Z</time></trkpt><trkpt lat="43.3726772805351" lon="11.78962055672"><ele>274.4</ele><time>2026-03-22T07:44:01.969Z</time></trkpt><trkpt lat="43.37260798496766" lon="11.789515625944825"><ele>275.0</ele><time>2026-03-22T07:44:03.969Z</time></trkpt><trkpt lat="43.372524665868305" lon="11.789399055512739"><ele>275.2</ele><time>2026-03-22T07:44:05.969Z</time></trkpt><trkpt lat="43.3724853016997" lon="11.789323576155736"><ele>275.4</ele><time>2026-03-22T07:44:06.968Z</time></trkpt><trkpt lat="43.37246233706894" lon="11.78924272411042"><ele>275.6</ele><time>2026-03-22T07:44:07.968Z</time></trkpt><trkpt lat="43.37245088607986" lon="11.789074330769626"><ele>275.8</ele><time>2026-03-22T07:44:09.968Z</time></trkpt><trkpt lat="43.37243443839445" lon="11.788911905591343"><ele>276.0</ele><time>2026-03-22T07:44:11.968Z</time></trkpt><trkpt lat="43.37241686049628" lon="11.788757700464032"><ele>276.0</ele><time>2026-03-22T07:44:13.968Z</time></trkpt><trkpt lat="43.37240075082677" lon="11.78860754361983"><ele>276.0</ele><time>2026-03-22T07:44:15.968Z</time></trkpt><trkpt lat="43.37238442280082" lon="11.78844790091169"><ele>276.0</ele><time>2026-03-22T07:44:17.968Z</time></trkpt><trkpt lat="43.372370889688504" lon="11.788297134162535"><ele>276.0</ele><time>2026-03-22T07:44:19.968Z</time></trkpt><trkpt lat="43.372345596472925" lon="11.788139155969494"><ele>276.0</ele><time>2026-03-22T07:44:21.968Z</time></trkpt><trkpt lat="43.372328510442046" lon="11.787976416744801"><ele>276.0</ele><time>2026-03-22T07:44:23.968Z</time></trkpt><trkpt lat="43.37231000269286" lon="11.787808613712738"><ele>276.0</ele><time>2026-03-22T07:44:25.968Z</time></trkpt><trkpt lat="43.37229372672792" lon="11.787643785964919"><ele>276.0</ele><time>2026-03-22T07:44:27.968Z</time></trkpt><trkpt lat="43.372270653270775" lon="11.787492531510667"><ele>276.0</ele><time>2026-03-22T07:44:29.968Z</time></trkpt><trkpt lat="43.372258869088554" lon="11.787329824595288"><ele>276.0</ele><time>2026-03-22T07:44:31.968Z</time></trkpt><trkpt lat="43.372248128407904" lon="11.787200311703653"><ele>276.0</ele><time>2026-03-22T07:44:33.968Z</time></trkpt><trkpt lat="43.3722374868924" lon="11.787113477589944"><ele>276.0</ele><time>2026-03-22T07:44:36.968Z</time></trkpt><trkpt lat="43.37230373401963" lon="11.787051535001169"><ele>276.0</ele><time>2026-03-22T07:44:40.97Z</time></trkpt><trkpt lat="43.37237727613409" lon="11.787071021139878"><ele>276.0</ele><time>2026-03-22T07:44:41.97Z</time></trkpt><trkpt lat="43.37245287102726" lon="11.787088483243652"><ele>276.0</ele><time>2026-03-22T07:44:42.969Z</time></trkpt><trkpt lat="43.372519489845594" lon="11.787097956288314"><ele>276.0</ele><time>2026-03-22T07:44:43.97Z</time></trkpt><trkpt lat="43.372638075907666" lon="11.787111674428731"><ele>276.0</ele><time>2026-03-22T07:44:45.97Z</time></trkpt><trkpt lat="43.37275876219104" lon="11.787132210261097"><ele>276.0</ele><time>2026-03-22T07:44:47.969Z</time></trkpt><trkpt lat="43.372887023177014" lon="11.787141920480561"><ele>276.0</ele><time>2026-03-22T07:44:49.969Z</time></trkpt><trkpt lat="43.37295488055593" lon="11.787147804064569"><ele>275.8571428571429</ele><time>2026-03-22T07:44:50.969Z</time></trkpt><trkpt lat="43.37302416714111" lon="11.787154508890561"><ele>275.7142857142857</ele><time>2026-03-22T07:44:51.97Z</time></trkpt><trkpt lat="43.3730916238242" lon="11.787160897031905"><ele>275.57142857142856</ele><time>2026-03-22T07:44:52.969Z</time></trkpt><trkpt lat="43.37315591777132" lon="11.787167643874614"><ele>275.42857142857144</ele><time>2026-03-22T07:44:53.969Z</time></trkpt><trkpt lat="43.373221347242286" lon="11.787175370013077"><ele>275.2857142857143</ele><time>2026-03-22T07:44:54.969Z</time></trkpt><trkpt lat="43.373288473287836" lon="11.787186408644065"><ele>275.14285714285717</ele><time>2026-03-22T07:44:55.969Z</time></trkpt><trkpt lat="43.37335745489698" lon="11.787196068828184"><ele>275.0</ele><time>2026-03-22T07:44:56.969Z</time></trkpt><trkpt lat="43.3734281818642" lon="11.787201841641734"><ele>275.0</ele><time>2026-03-22T07:44:57.969Z</time></trkpt><trkpt lat="43.373500104621996" lon="11.787210804343484"><ele>275.0</ele><time>2026-03-22T07:44:58.969Z</time></trkpt><trkpt lat="43.37357366512317" lon="11.78722118573398"><ele>275.0</ele><time>2026-03-22T07:44:59.969Z</time></trkpt><trkpt lat="43.37364852492438" lon="11.787232386662005"><ele>275.0</ele><time>2026-03-22T07:45:00.969Z</time></trkpt><trkpt lat="43.37372628669988" lon="11.787247320784692"><ele>275.0</ele><time>2026-03-22T07:45:01.969Z</time></trkpt><trkpt lat="43.373801684662446" lon="11.787254416707505"><ele>275.0</ele><time>2026-03-22T07:45:02.969Z</time></trkpt><trkpt lat="43.37387917360414" lon="11.787260931402297"><ele>275.1666666666667</ele><time>2026-03-22T07:45:03.969Z</time></trkpt><trkpt lat="43.373957405159786" lon="11.787272730430765"><ele>275.33333333333337</ele><time>2026-03-22T07:45:04.969Z</time></trkpt><trkpt lat="43.374034358349505" lon="11.78728080106214"><ele>275.5</ele><time>2026-03-22T07:45:05.969Z</time></trkpt><trkpt lat="43.374113420280416" lon="11.7872902546629"><ele>275.6666666666667</ele><time>2026-03-22T07:45:06.969Z</time></trkpt><trkpt lat="43.3741915396801" lon="11.787299600523163"><ele>275.8333333333333</ele><time>2026-03-22T07:45:07.969Z</time></trkpt><trkpt lat="43.374270595940075" lon="11.787308310982423"><ele>276.0</ele><time>2026-03-22T07:45:08.969Z</time></trkpt><trkpt lat="43.37434722425458" lon="11.787314988046962"><ele>276.0</ele><time>2026-03-22T07:45:09.969Z</time></trkpt><trkpt lat="43.37441814183823" lon="11.787325254187968"><ele>276.0</ele><time>2026-03-22T07:45:10.969Z</time></trkpt><trkpt lat="43.37449449350248" lon="11.787333875908091"><ele>276.0</ele><time>2026-03-22T07:45:11.969Z</time></trkpt><trkpt lat="43.374564357816844" lon="11.787332151725856"><ele>276.0</ele><time>2026-03-22T07:45:12.969Z</time></trkpt><trkpt lat="43.3746982974202" lon="11.787308042942906"><ele>276.0</ele><time>2026-03-22T07:45:14.969Z</time></trkpt><trkpt lat="43.37481076460372" lon="11.78725481819522"><ele>275.8571428571429</ele><time>2026-03-22T07:45:16.969Z</time></trkpt><trkpt lat="43.374880159314515" lon="11.787214874243107"><ele>275.7142857142857</ele><time>2026-03-22T07:45:17.968Z</time></trkpt><trkpt lat="43.37493904809142" lon="11.78715864568697"><ele>275.57142857142856</ele><time>2026-03-22T07:45:18.968Z</time></trkpt><trkpt lat="43.37499387664254" lon="11.787106240231767"><ele>275.42857142857144</ele><time>2026-03-22T07:45:19.968Z</time></trkpt><trkpt lat="43.375050467666284" lon="11.787042229284594"><ele>275.2857142857143</ele><time>2026-03-22T07:45:20.968Z</time></trkpt><trkpt lat="43.375105849477244" lon="11.786979480299074"><ele>275.14285714285717</ele><time>2026-03-22T07:45:21.968Z</time></trkpt><trkpt lat="43.37515685465774" lon="11.786919892899114"><ele>275.0</ele><time>2026-03-22T07:45:22.968Z</time></trkpt><trkpt lat="43.37520772881795" lon="11.786859319023874"><ele>275.0</ele><time>2026-03-22T07:45:23.968Z</time></trkpt><trkpt lat="43.3752570671561" lon="11.78680342720239"><ele>275.0</ele><time>2026-03-22T07:45:24.968Z</time></trkpt><trkpt lat="43.37534127795169" lon="11.786704054872919"><ele>275.0</ele><time>2026-03-22T07:45:26.968Z</time></trkpt><trkpt lat="43.37541522415232" lon="11.78670504365137"><ele>275.0</ele><time>2026-03-22T07:45:29.968Z</time></trkpt><trkpt lat="43.375420499390806" lon="11.786801906084916"><ele>275.0</ele><time>2026-03-22T07:45:31.968Z</time></trkpt><trkpt lat="43.37541178602544" lon="11.786917606467744"><ele>275.0</ele><time>2026-03-22T07:45:33.968Z</time></trkpt><trkpt lat="43.37540902986838" lon="11.787026281477988"><ele>275.0</ele><time>2026-03-22T07:45:35.968Z</time></trkpt><trkpt lat="43.3754201290344" lon="11.787133498905412"><ele>275.0</ele><time>2026-03-22T07:45:37.968Z</time></trkpt><trkpt lat="43.375414264730765" lon="11.787242343720102"><ele>275.0</ele><time>2026-03-22T07:45:39.968Z</time></trkpt><trkpt lat="43.375414053374946" lon="11.787343511277003"><ele>275.0</ele><time>2026-03-22T07:45:41.968Z</time></trkpt><trkpt lat="43.37541563199362" lon="11.787438404752493"><ele>275.0</ele><time>2026-03-22T07:45:44.968Z</time></trkpt><trkpt lat="43.375496711299824" lon="11.787463045099626"><ele>275.0</ele><time>2026-03-22T07:45:47.968Z</time></trkpt><trkpt lat="43.37558965482609" lon="11.787431948723631"><ele>274.6</ele><time>2026-03-22T07:45:49.968Z</time></trkpt><trkpt lat="43.375688151306285" lon="11.787438422854548"><ele>274.2</ele><time>2026-03-22T07:45:51.968Z</time></trkpt><trkpt lat="43.37578544667818" lon="11.787466182441344"><ele>273.8</ele><time>2026-03-22T07:45:53.968Z</time></trkpt><trkpt lat="43.37588651396297" lon="11.78748099046701"><ele>273.4</ele><time>2026-03-22T07:45:55.967Z</time></trkpt><trkpt lat="43.37597863630025" lon="11.787482551716414"><ele>273.0</ele><time>2026-03-22T07:45:57.967Z</time></trkpt><trkpt lat="43.37606311837068" lon="11.787482448023438"><ele>273.0</ele><time>2026-03-22T07:45:59.967Z</time></trkpt><trkpt lat="43.37614121351247" lon="11.787508357840188"><ele>273.0</ele><time>2026-03-22T07:46:01.967Z</time></trkpt><trkpt lat="43.376212458751134" lon="11.787539391829426"><ele>273.0</ele><time>2026-03-22T07:46:03.967Z</time></trkpt><trkpt lat="43.37627897766075" lon="11.787624491205328"><ele>273.0</ele><time>2026-03-22T07:46:06.967Z</time></trkpt><trkpt lat="43.376350508756474" lon="11.787619316696222"><ele>273.0</ele><time>2026-03-22T07:46:09.967Z</time></trkpt><trkpt lat="43.37639981409026" lon="11.787541999335202"><ele>273.0</ele><time>2026-03-22T07:46:12.967Z</time></trkpt><trkpt lat="43.37639049071116" lon="11.78744690445837"><ele>273.0</ele><time>2026-03-22T07:46:14.967Z</time></trkpt><trkpt lat="43.37633313257923" lon="11.787402378360044"><ele>273.0</ele><time>2026-03-22T07:46:16.967Z</time></trkpt><trkpt lat="43.37625512330206" lon="11.787375378740789"><ele>273.0</ele><time>2026-03-22T07:46:18.967Z</time></trkpt><trkpt lat="43.3761651102494" lon="11.787380136031294"><ele>273.0</ele><time>2026-03-22T07:46:20.967Z</time></trkpt><trkpt lat="43.37608761296616" lon="11.787405756150937"><ele>273.0</ele><time>2026-03-22T07:46:22.967Z</time></trkpt><trkpt lat="43.376010382394895" lon="11.787420442038796"><ele>273.0</ele><time>2026-03-22T07:46:24.967Z</time></trkpt><trkpt lat="43.375929928816426" lon="11.787407869294857"><ele>273.0</ele><time>2026-03-22T07:46:26.967Z</time></trkpt><trkpt lat="43.37584132394249" lon="11.787394068647089"><ele>273.0</ele><time>2026-03-22T07:46:28.967Z</time></trkpt><trkpt lat="43.37574949120282" lon="11.787402883963011"><ele>273.0</ele><time>2026-03-22T07:46:30.967Z</time></trkpt><trkpt lat="43.37564501575328" lon="11.787425062755153"><ele>273.0</ele><time>2026-03-22T07:46:32.967Z</time></trkpt><trkpt lat="43.375551704539966" lon="11.787448843387155"><ele>273.0</ele><time>2026-03-22T07:46:34.966Z</time></trkpt><trkpt lat="43.3754761960129" lon="11.787478071483935"><ele>273.3333333333333</ele><time>2026-03-22T07:46:36.966Z</time></trkpt><trkpt lat="43.375411532503044" lon="11.787430931397175"><ele>273.6666666666667</ele><time>2026-03-22T07:50:10.965Z</time></trkpt><trkpt lat="43.375396477895286" lon="11.787310300069851"><ele>274.0</ele><time>2026-03-22T07:50:12.965Z</time></trkpt><trkpt lat="43.375400788667584" lon="11.787153194006494"><ele>274.33333333333337</ele><time>2026-03-22T07:50:14.965Z</time></trkpt><trkpt lat="43.375407381497624" lon="11.787036619623093"><ele>274.6666666666667</ele><time>2026-03-22T07:50:16.965Z</time></trkpt><trkpt lat="43.37540377835607" lon="11.786933899978564"><ele>275.0</ele><time>2026-03-22T07:50:18.965Z</time></trkpt><trkpt lat="43.37540483718105" lon="11.786845721803646"><ele>275.2</ele><time>2026-03-22T07:50:19.965Z</time></trkpt><trkpt lat="43.37541388372914" lon="11.78669439757456"><ele>275.4</ele><time>2026-03-22T07:50:21.965Z</time></trkpt><trkpt lat="43.37545961128386" lon="11.786577038686971"><ele>275.6</ele><time>2026-03-22T07:50:23.964Z</time></trkpt><trkpt lat="43.375517820241946" lon="11.786508105045675"><ele>275.8</ele><time>2026-03-22T07:50:24.964Z</time></trkpt><trkpt lat="43.37561186235986" lon="11.786412432406333"><ele>276.0</ele><time>2026-03-22T07:50:25.964Z</time></trkpt><trkpt lat="43.37569753511504" lon="11.786319065791258"><ele>275.8</ele><time>2026-03-22T07:50:26.964Z</time></trkpt><trkpt lat="43.37576813041373" lon="11.786236300273712"><ele>275.6</ele><time>2026-03-22T07:50:27.964Z</time></trkpt><trkpt lat="43.37583992949067" lon="11.786154535989452"><ele>275.4</ele><time>2026-03-22T07:50:28.964Z</time></trkpt><trkpt lat="43.37590556008758" lon="11.786076188971595"><ele>275.2</ele><time>2026-03-22T07:50:29.964Z</time></trkpt><trkpt lat="43.37598467590802" lon="11.785983901344588"><ele>275.0</ele><time>2026-03-22T07:50:30.964Z</time></trkpt><trkpt lat="43.37606457398485" lon="11.785894536290527"><ele>275.0</ele><time>2026-03-22T07:50:31.964Z</time></trkpt><trkpt lat="43.376142048286916" lon="11.785809641376249"><ele>275.0</ele><time>2026-03-22T07:50:32.964Z</time></trkpt><trkpt lat="43.376212073500504" lon="11.785731873632892"><ele>275.0</ele><time>2026-03-22T07:50:33.964Z</time></trkpt><trkpt lat="43.3762783665274" lon="11.785658398806943"><ele>275.0</ele><time>2026-03-22T07:50:34.964Z</time></trkpt><trkpt lat="43.37634533478226" lon="11.785587431276028"><ele>275.0</ele><time>2026-03-22T07:50:35.964Z</time></trkpt><trkpt lat="43.376416782819156" lon="11.785489450801798"><ele>275.4</ele><time>2026-03-22T07:50:36.964Z</time></trkpt><trkpt lat="43.37649488651204" lon="11.785385276114246"><ele>275.8</ele><time>2026-03-22T07:50:37.964Z</time></trkpt><trkpt lat="43.37656243381093" lon="11.785279427230424"><ele>276.2</ele><time>2026-03-22T07:50:38.964Z</time></trkpt><trkpt lat="43.37662492505717" lon="11.785167778479495"><ele>276.6</ele><time>2026-03-22T07:50:39.964Z</time></trkpt><trkpt lat="43.3766856636435" lon="11.785065511328597"><ele>277.0</ele><time>2026-03-22T07:50:40.964Z</time></trkpt><trkpt lat="43.37674625624831" lon="11.784944040898752"><ele>277.0</ele><time>2026-03-22T07:50:41.964Z</time></trkpt><trkpt lat="43.376810669202214" lon="11.784827118823928"><ele>277.0</ele><time>2026-03-22T07:50:42.964Z</time></trkpt><trkpt lat="43.376869539991354" lon="11.78469505864138"><ele>277.0</ele><time>2026-03-22T07:50:43.964Z</time></trkpt><trkpt lat="43.376920797118466" lon="11.78455685541889"><ele>277.0</ele><time>2026-03-22T07:50:44.964Z</time></trkpt><trkpt lat="43.37697172167151" lon="11.784419262529521"><ele>277.0</ele><time>2026-03-22T07:50:45.964Z</time></trkpt><trkpt lat="43.37702585757094" lon="11.784276112448119"><ele>276.75</ele><time>2026-03-22T07:50:46.964Z</time></trkpt><trkpt lat="43.377073754511024" lon="11.784129815082958"><ele>276.5</ele><time>2026-03-22T07:50:47.964Z</time></trkpt><trkpt lat="43.37712234730089" lon="11.783966129245812"><ele>276.25</ele><time>2026-03-22T07:50:48.964Z</time></trkpt><trkpt lat="43.37718353909306" lon="11.78379446603772"><ele>276.0</ele><time>2026-03-22T07:50:49.964Z</time></trkpt><trkpt lat="43.37724328557604" lon="11.783637637920432"><ele>274.75</ele><time>2026-03-22T07:50:50.964Z</time></trkpt><trkpt lat="43.377301010741164" lon="11.783493260661606"><ele>273.5</ele><time>2026-03-22T07:50:51.964Z</time></trkpt><trkpt lat="43.37735180470797" lon="11.783350176001893"><ele>272.25</ele><time>2026-03-22T07:50:52.964Z</time></trkpt><trkpt lat="43.37740275554067" lon="11.783201857193953"><ele>271.0</ele><time>2026-03-22T07:50:53.964Z</time></trkpt><trkpt lat="43.37745502072918" lon="11.783052032050817"><ele>271.0</ele><time>2026-03-22T07:50:54.964Z</time></trkpt><trkpt lat="43.377508279464905" lon="11.782904614621657"><ele>271.0</ele><time>2026-03-22T07:50:55.964Z</time></trkpt><trkpt lat="43.377564877636495" lon="11.782751103773517"><ele>271.0</ele><time>2026-03-22T07:50:56.964Z</time></trkpt><trkpt lat="43.37761824706347" lon="11.782596778934154"><ele>271.0</ele><time>2026-03-22T07:50:57.966Z</time></trkpt><trkpt lat="43.377671113657726" lon="11.782442465287431"><ele>270.5</ele><time>2026-03-22T07:50:58.966Z</time></trkpt><trkpt lat="43.37771902528333" lon="11.782296756530965"><ele>270.0</ele><time>2026-03-22T07:50:59.966Z</time></trkpt><trkpt lat="43.37776137521809" lon="11.782159334314205"><ele>269.5</ele><time>2026-03-22T07:51:00.966Z</time></trkpt><trkpt lat="43.37781246393357" lon="11.782016734990549"><ele>269.0</ele><time>2026-03-22T07:51:01.966Z</time></trkpt><trkpt lat="43.37785749412253" lon="11.781874719798969"><ele>268.75</ele><time>2026-03-22T07:51:02.966Z</time></trkpt><trkpt lat="43.37790648707294" lon="11.781729167512477"><ele>268.5</ele><time>2026-03-22T07:51:03.967Z</time></trkpt><trkpt lat="43.37795516221225" lon="11.781585744315356"><ele>268.25</ele><time>2026-03-22T07:51:04.966Z</time></trkpt><trkpt lat="43.378003487154764" lon="11.781442746342757"><ele>268.0</ele><time>2026-03-22T07:51:05.966Z</time></trkpt><trkpt lat="43.378049187441576" lon="11.781302384598556"><ele>267.6</ele><time>2026-03-22T07:51:06.966Z</time></trkpt><trkpt lat="43.378097153394684" lon="11.781165410099332"><ele>267.20000000000005</ele><time>2026-03-22T07:51:07.966Z</time></trkpt><trkpt lat="43.37814413027617" lon="11.781023727989679"><ele>266.8</ele><time>2026-03-22T07:51:08.966Z</time></trkpt><trkpt lat="43.378188697126696" lon="11.780882597446809"><ele>266.40000000000003</ele><time>2026-03-22T07:51:09.966Z</time></trkpt><trkpt lat="43.37823677065766" lon="11.780741950565893"><ele>266.0</ele><time>2026-03-22T07:51:10.966Z</time></trkpt><trkpt lat="43.37828624453899" lon="11.78060376141436"><ele>266.0</ele><time>2026-03-22T07:51:11.966Z</time></trkpt><trkpt lat="43.37832587772301" lon="11.780472436621423"><ele>266.0</ele><time>2026-03-22T07:51:12.966Z</time></trkpt><trkpt lat="43.37836453507246" lon="11.780344070605421"><ele>266.0</ele><time>2026-03-22T07:51:13.966Z</time></trkpt><trkpt lat="43.378411785201884" lon="11.780220091527124"><ele>266.0</ele><time>2026-03-22T07:51:14.966Z</time></trkpt><trkpt lat="43.37845691893745" lon="11.780083772642342"><ele>266.0</ele><time>2026-03-22T07:51:15.966Z</time></trkpt><trkpt lat="43.378502552854954" lon="11.779943666345199"><ele>266.5</ele><time>2026-03-22T07:51:16.966Z</time></trkpt><trkpt lat="43.378552305200195" lon="11.779803808984218"><ele>267.0</ele><time>2026-03-22T07:51:17.966Z</time></trkpt><trkpt lat="43.37859979465301" lon="11.779660256339444"><ele>267.5</ele><time>2026-03-22T07:51:18.966Z</time></trkpt><trkpt lat="43.37864788209984" lon="11.779510997471634"><ele>268.0</ele><time>2026-03-22T07:51:19.966Z</time></trkpt><trkpt lat="43.37869389891995" lon="11.779363502461385"><ele>268.5</ele><time>2026-03-22T07:51:20.966Z</time></trkpt><trkpt lat="43.378747302635645" lon="11.77921739644437"><ele>269.0</ele><time>2026-03-22T07:51:21.966Z</time></trkpt><trkpt lat="43.37879964567298" lon="11.77907438064667"><ele>269.5</ele><time>2026-03-22T07:51:22.966Z</time></trkpt><trkpt lat="43.3788482478915" lon="11.778930356291006"><ele>270.0</ele><time>2026-03-22T07:51:23.966Z</time></trkpt><trkpt lat="43.378898708713606" lon="11.778800076182602"><ele>270.2</ele><time>2026-03-22T07:51:24.966Z</time></trkpt><trkpt lat="43.378942296608" lon="11.778665597022652"><ele>270.4</ele><time>2026-03-22T07:51:25.966Z</time></trkpt><trkpt lat="43.378987827283765" lon="11.778524381369222"><ele>270.6</ele><time>2026-03-22T07:51:26.966Z</time></trkpt><trkpt lat="43.37903467948447" lon="11.778382027963511"><ele>270.8</ele><time>2026-03-22T07:51:27.966Z</time></trkpt><trkpt lat="43.379082403464956" lon="11.778260117438801"><ele>271.0</ele><time>2026-03-22T07:51:28.966Z</time></trkpt><trkpt lat="43.37912049034995" lon="11.778131316342355"><ele>271.6</ele><time>2026-03-22T07:51:29.966Z</time></trkpt><trkpt lat="43.379171630346534" lon="11.777989511137024"><ele>272.20000000000005</ele><time>2026-03-22T07:51:30.966Z</time></trkpt><trkpt lat="43.379222878007404" lon="11.777848821766097"><ele>272.79999999999995</ele><time>2026-03-22T07:51:31.966Z</time></trkpt><trkpt lat="43.37926129414653" lon="11.777712797542762"><ele>273.4</ele><time>2026-03-22T07:51:32.966Z</time></trkpt><trkpt lat="43.37930748973976" lon="11.777575477030725"><ele>274.0</ele><time>2026-03-22T07:51:33.966Z</time></trkpt><trkpt lat="43.37935970967132" lon="11.777437257225563"><ele>274.4</ele><time>2026-03-22T07:51:34.966Z</time></trkpt><trkpt lat="43.37940395753021" lon="11.777296189569496"><ele>274.79999999999995</ele><time>2026-03-22T07:51:35.966Z</time></trkpt><trkpt lat="43.37944712651489" lon="11.777161107763487"><ele>275.20000000000005</ele><time>2026-03-22T07:51:36.966Z</time></trkpt><trkpt lat="43.37949076378349" lon="11.777022471975915"><ele>275.6</ele><time>2026-03-22T07:51:37.966Z</time></trkpt><trkpt lat="43.37952892174395" lon="11.776880996137756"><ele>276.0</ele><time>2026-03-22T07:51:38.966Z</time></trkpt><trkpt lat="43.37957355127178" lon="11.776746627976868"><ele>276.2</ele><time>2026-03-22T07:51:39.966Z</time></trkpt><trkpt lat="43.37961577838905" lon="11.776615387895092"><ele>276.40000000000003</ele><time>2026-03-22T07:51:40.966Z</time></trkpt><trkpt lat="43.37965940835397" lon="11.77648742566057"><ele>276.6</ele><time>2026-03-22T07:51:41.966Z</time></trkpt><trkpt lat="43.37970876903256" lon="11.776350601266014"><ele>276.8</ele><time>2026-03-22T07:51:42.966Z</time></trkpt><trkpt lat="43.3797555345473" lon="11.776208366716004"><ele>277.0</ele><time>2026-03-22T07:51:43.966Z</time></trkpt><trkpt lat="43.3797993345284" lon="11.776068931263298"><ele>277.0</ele><time>2026-03-22T07:51:44.966Z</time></trkpt><trkpt lat="43.379843194975415" lon="11.775929267619668"><ele>277.0</ele><time>2026-03-22T07:51:45.965Z</time></trkpt><trkpt lat="43.379887083146016" lon="11.77578866720581"><ele>277.0</ele><time>2026-03-22T07:51:46.965Z</time></trkpt><trkpt lat="43.379932271220866" lon="11.775651619202177"><ele>277.0</ele><time>2026-03-22T07:51:47.965Z</time></trkpt><trkpt lat="43.37997495894554" lon="11.775516761712545"><ele>277.0</ele><time>2026-03-22T07:51:48.965Z</time></trkpt><trkpt lat="43.38001746475599" lon="11.775395030680661"><ele>277.0</ele><time>2026-03-22T07:51:49.965Z</time></trkpt><trkpt lat="43.380058872133866" lon="11.775250397121345"><ele>277.0</ele><time>2026-03-22T07:51:50.965Z</time></trkpt><trkpt lat="43.380100604721115" lon="11.775111191896174"><ele>277.0</ele><time>2026-03-22T07:51:51.965Z</time></trkpt><trkpt lat="43.38015206938851" lon="11.774967870518063"><ele>277.0</ele><time>2026-03-22T07:51:52.965Z</time></trkpt><trkpt lat="43.38020359951516" lon="11.774828553758157"><ele>277.2</ele><time>2026-03-22T07:51:53.965Z</time></trkpt><trkpt lat="43.380250762079974" lon="11.774690474448828"><ele>277.4</ele><time>2026-03-22T07:51:54.965Z</time></trkpt><trkpt lat="43.38029620614504" lon="11.774555859891864"><ele>277.6</ele><time>2026-03-22T07:51:55.965Z</time></trkpt><trkpt lat="43.38033878291741" lon="11.774420264721137"><ele>277.8</ele><time>2026-03-22T07:51:56.965Z</time></trkpt><trkpt lat="43.380379156649155" lon="11.774286608280292"><ele>278.0</ele><time>2026-03-22T07:51:57.965Z</time></trkpt><trkpt lat="43.380414464405305" lon="11.774160451092724"><ele>278.1428571428571</ele><time>2026-03-22T07:51:58.965Z</time></trkpt><trkpt lat="43.38044951076786" lon="11.77405505595905"><ele>278.2857142857143</ele><time>2026-03-22T07:51:59.965Z</time></trkpt><trkpt lat="43.38048071200241" lon="11.77395581244977"><ele>278.42857142857144</ele><time>2026-03-22T07:52:00.965Z</time></trkpt><trkpt lat="43.38051040839728" lon="11.773861262087843"><ele>278.57142857142856</ele><time>2026-03-22T07:52:01.965Z</time></trkpt><trkpt lat="43.380537310474935" lon="11.77377556440701"><ele>278.7142857142857</ele><time>2026-03-22T07:52:02.965Z</time></trkpt><trkpt lat="43.38056362995149" lon="11.773686107893575"><ele>278.85714285714283</ele><time>2026-03-22T07:52:03.965Z</time></trkpt><trkpt lat="43.38058901160176" lon="11.773604445985244"><ele>279.0</ele><time>2026-03-22T07:52:04.965Z</time></trkpt><trkpt lat="43.380646403455586" lon="11.773460745622803"><ele>279.1666666666667</ele><time>2026-03-22T07:52:06.965Z</time></trkpt><trkpt lat="43.380704533341394" lon="11.773360789509061"><ele>279.3333333333333</ele><time>2026-03-22T07:52:08.965Z</time></trkpt><trkpt lat="43.380756616307025" lon="11.773282323860322"><ele>279.5</ele><time>2026-03-22T07:52:10.965Z</time></trkpt><trkpt lat="43.38079918874758" lon="11.77314368924942"><ele>279.66666666666663</ele><time>2026-03-22T07:52:12.965Z</time></trkpt><trkpt lat="43.38082014079027" lon="11.773051254858354"><ele>279.8333333333333</ele><time>2026-03-22T07:52:13.965Z</time></trkpt><trkpt lat="43.38083596205712" lon="11.772949832801869"><ele>280.0</ele><time>2026-03-22T07:52:14.965Z</time></trkpt><trkpt lat="43.380889398628966" lon="11.772773688049968"><ele>280.16666666666663</ele><time>2026-03-22T07:52:16.965Z</time></trkpt><trkpt lat="43.38093589284304" lon="11.772662965934495"><ele>280.3333333333333</ele><time>2026-03-22T07:52:17.965Z</time></trkpt><trkpt lat="43.380984478434456" lon="11.77254533887913"><ele>280.5</ele><time>2026-03-22T07:52:18.965Z</time></trkpt><trkpt lat="43.38102870559911" lon="11.772440274325554"><ele>280.6666666666667</ele><time>2026-03-22T07:52:19.965Z</time></trkpt><trkpt lat="43.381071027930105" lon="11.772336747400784"><ele>280.83333333333337</ele><time>2026-03-22T07:52:20.965Z</time></trkpt><trkpt lat="43.381111195199004" lon="11.772241620591195"><ele>281.0</ele><time>2026-03-22T07:52:21.965Z</time></trkpt><trkpt lat="43.381147481485286" lon="11.772156482161423"><ele>281.0</ele><time>2026-03-22T07:52:22.965Z</time></trkpt><trkpt lat="43.38118701791315" lon="11.772046720809103"><ele>281.0</ele><time>2026-03-22T07:52:23.964Z</time></trkpt><trkpt lat="43.381234273767035" lon="11.771936193078858"><ele>281.0</ele><time>2026-03-22T07:52:24.964Z</time></trkpt><trkpt lat="43.38128344787903" lon="11.771824726146091"><ele>281.0</ele><time>2026-03-22T07:52:25.964Z</time></trkpt><trkpt lat="43.38132993965913" lon="11.77171275319201"><ele>281.0</ele><time>2026-03-22T07:52:26.964Z</time></trkpt><trkpt lat="43.381368906767236" lon="11.771601117426625"><ele>280.6666666666667</ele><time>2026-03-22T07:52:27.964Z</time></trkpt><trkpt lat="43.38140857674555" lon="11.771499680227091"><ele>280.33333333333337</ele><time>2026-03-22T07:52:28.964Z</time></trkpt><trkpt lat="43.38144898751776" lon="11.771402772995053"><ele>280.0</ele><time>2026-03-22T07:52:29.964Z</time></trkpt><trkpt lat="43.38149629463589" lon="11.771298026876579"><ele>279.6666666666667</ele><time>2026-03-22T07:52:30.964Z</time></trkpt><trkpt lat="43.381543750748264" lon="11.771183754200955"><ele>279.3333333333333</ele><time>2026-03-22T07:52:31.964Z</time></trkpt><trkpt lat="43.38158339015398" lon="11.771086470559304"><ele>279.0</ele><time>2026-03-22T07:52:32.964Z</time></trkpt><trkpt lat="43.38162933910356" lon="11.770978579574992"><ele>278.8333333333333</ele><time>2026-03-22T07:52:33.964Z</time></trkpt><trkpt lat="43.38167357287535" lon="11.770869679461702"><ele>278.6666666666667</ele><time>2026-03-22T07:52:34.964Z</time></trkpt><trkpt lat="43.38171614872192" lon="11.770772351207434"><ele>278.5</ele><time>2026-03-22T07:52:35.964Z</time></trkpt><trkpt lat="43.38175845371402" lon="11.770674953892412"><ele>278.33333333333337</ele><time>2026-03-22T07:52:36.964Z</time></trkpt><trkpt lat="43.38180208386041" lon="11.77056891540868"><ele>278.1666666666667</ele><time>2026-03-22T07:52:37.964Z</time></trkpt><trkpt lat="43.38184332348971" lon="11.770461963050023"><ele>278.0</ele><time>2026-03-22T07:52:38.964Z</time></trkpt><trkpt lat="43.38189119280965" lon="11.770349533920928"><ele>278.0</ele><time>2026-03-22T07:52:39.964Z</time></trkpt><trkpt lat="43.38194020963717" lon="11.770229345038656"><ele>278.0</ele><time>2026-03-22T07:52:40.964Z</time></trkpt><trkpt lat="43.38198589610463" lon="11.770116829418853"><ele>278.0</ele><time>2026-03-22T07:52:41.964Z</time></trkpt><trkpt lat="43.382030830473155" lon="11.770010863040657"><ele>278.0</ele><time>2026-03-22T07:52:42.964Z</time></trkpt><trkpt lat="43.38207073228034" lon="11.769911348621864"><ele>278.0</ele><time>2026-03-22T07:52:43.964Z</time></trkpt><trkpt lat="43.382107854687824" lon="11.769817183873874"><ele>278.0</ele><time>2026-03-22T07:52:44.964Z</time></trkpt><trkpt lat="43.382140925880385" lon="11.769733023742784"><ele>277.8</ele><time>2026-03-22T07:52:45.964Z</time></trkpt><trkpt lat="43.382174581723866" lon="11.769652564347144"><ele>277.6</ele><time>2026-03-22T07:52:46.964Z</time></trkpt><trkpt lat="43.38223774632513" lon="11.769527029992078"><ele>277.4</ele><time>2026-03-22T07:52:48.964Z</time></trkpt><trkpt lat="43.382286138594495" lon="11.769457495500085"><ele>277.2</ele><time>2026-03-22T07:52:49.964Z</time></trkpt><trkpt lat="43.3823487933673" lon="11.769353523351048"><ele>277.0</ele><time>2026-03-22T07:52:50.964Z</time></trkpt><trkpt lat="43.382442153458626" lon="11.76923272992158"><ele>277.66666666666663</ele><time>2026-03-22T07:52:51.964Z</time></trkpt><trkpt lat="43.382557551504874" lon="11.76911514777697"><ele>278.3333333333333</ele><time>2026-03-22T07:52:52.964Z</time></trkpt><trkpt lat="43.38268033658982" lon="11.76898969150875"><ele>279.0</ele><time>2026-03-22T07:52:53.964Z</time></trkpt><trkpt lat="43.38281772922918" lon="11.76885428098638"><ele>279.0</ele><time>2026-03-22T07:52:54.964Z</time></trkpt><trkpt lat="43.382965702680174" lon="11.768707174010915"><ele>279.0</ele><time>2026-03-22T07:52:55.964Z</time></trkpt><trkpt lat="43.383115604131525" lon="11.76854831872273"><ele>279.0</ele><time>2026-03-22T07:52:56.964Z</time></trkpt><trkpt lat="43.38327374811759" lon="11.768386783854782"><ele>280.0</ele><time>2026-03-22T07:52:57.964Z</time></trkpt><trkpt lat="43.38344186128829" lon="11.768219378028867"><ele>281.0</ele><time>2026-03-22T07:52:58.964Z</time></trkpt><trkpt lat="43.38361336799838" lon="11.768036559452124"><ele>282.0</ele><time>2026-03-22T07:52:59.964Z</time></trkpt><trkpt lat="43.383801135967296" lon="11.767840781314247"><ele>281.3333333333333</ele><time>2026-03-22T07:53:00.963Z</time></trkpt><trkpt lat="43.38397876961711" lon="11.767665899055563"><ele>280.66666666666663</ele><time>2026-03-22T07:53:01.963Z</time></trkpt><trkpt lat="43.38412893405514" lon="11.767506612416614"><ele>280.0</ele><time>2026-03-22T07:53:02.963Z</time></trkpt><trkpt lat="43.38426633489327" lon="11.767361581757449"><ele>280.0</ele><time>2026-03-22T07:53:03.965Z</time></trkpt><trkpt lat="43.3843991141838" lon="11.767233289767898"><ele>280.0</ele><time>2026-03-22T07:53:04.965Z</time></trkpt><trkpt lat="43.3845235036244" lon="11.76710237427122"><ele>280.0</ele><time>2026-03-22T07:53:05.965Z</time></trkpt><trkpt lat="43.38463526679858" lon="11.766986516630038"><ele>279.75</ele><time>2026-03-22T07:53:06.965Z</time></trkpt><trkpt lat="43.384744021963314" lon="11.766879291065733"><ele>279.5</ele><time>2026-03-22T07:53:07.965Z</time></trkpt><trkpt lat="43.38484656710274" lon="11.76677270374546"><ele>279.25</ele><time>2026-03-22T07:53:08.965Z</time></trkpt><trkpt lat="43.38494851650052" lon="11.766667266954077"><ele>279.0</ele><time>2026-03-22T07:53:09.965Z</time></trkpt><trkpt lat="43.38505047093728" lon="11.766559357099924"><ele>279.0</ele><time>2026-03-22T07:53:10.965Z</time></trkpt><trkpt lat="43.38515546169593" lon="11.766448221902555"><ele>279.0</ele><time>2026-03-22T07:53:11.965Z</time></trkpt><trkpt lat="43.38526161181977" lon="11.7663361124718"><ele>279.0</ele><time>2026-03-22T07:53:12.965Z</time></trkpt><trkpt lat="43.38536955760448" lon="11.766226120803752"><ele>279.0</ele><time>2026-03-22T07:53:13.965Z</time></trkpt><trkpt lat="43.385472636465515" lon="11.766119548464511"><ele>279.0</ele><time>2026-03-22T07:53:14.965Z</time></trkpt><trkpt lat="43.38557297681015" lon="11.766008852988042"><ele>279.0</ele><time>2026-03-22T07:53:15.966Z</time></trkpt><trkpt lat="43.385674732062434" lon="11.765898816990024"><ele>279.0</ele><time>2026-03-22T07:53:16.965Z</time></trkpt><trkpt lat="43.385777390843636" lon="11.765793265013404"><ele>279.0</ele><time>2026-03-22T07:53:17.965Z</time></trkpt><trkpt lat="43.385877640428426" lon="11.76568938336349"><ele>279.0</ele><time>2026-03-22T07:53:18.965Z</time></trkpt><trkpt lat="43.38597468542281" lon="11.765589225589954"><ele>279.0</ele><time>2026-03-22T07:53:19.965Z</time></trkpt><trkpt lat="43.38607101203089" lon="11.76548585701952"><ele>279.0</ele><time>2026-03-22T07:53:20.965Z</time></trkpt><trkpt lat="43.38616459167854" lon="11.765376865656634"><ele>279.0</ele><time>2026-03-22T07:53:21.965Z</time></trkpt><trkpt lat="43.38625312760099" lon="11.765266102343263"><ele>279.25</ele><time>2026-03-22T07:53:22.965Z</time></trkpt><trkpt lat="43.38632677374885" lon="11.76515140088629"><ele>279.5</ele><time>2026-03-22T07:53:23.965Z</time></trkpt><trkpt lat="43.38640055877619" lon="11.765035885477346"><ele>279.75</ele><time>2026-03-22T07:53:24.965Z</time></trkpt><trkpt lat="43.386474082273494" lon="11.764914491218585"><ele>280.0</ele><time>2026-03-22T07:53:25.965Z</time></trkpt><trkpt lat="43.38655407830606" lon="11.764791657314412"><ele>280.0</ele><time>2026-03-22T07:53:26.965Z</time></trkpt><trkpt lat="43.386654424792674" lon="11.764673601014364"><ele>280.0</ele><time>2026-03-22T07:53:27.965Z</time></trkpt><trkpt lat="43.38673897979918" lon="11.764540820526978"><ele>280.0</ele><time>2026-03-22T07:53:28.965Z</time></trkpt><trkpt lat="43.386810012120826" lon="11.764394736528258"><ele>280.0</ele><time>2026-03-22T07:53:29.965Z</time></trkpt><trkpt lat="43.38690591484709" lon="11.76426850135736"><ele>280.0</ele><time>2026-03-22T07:53:30.965Z</time></trkpt><trkpt lat="43.38699002315481" lon="11.764131809554982"><ele>280.0</ele><time>2026-03-22T07:53:31.965Z</time></trkpt><trkpt lat="43.38707855375057" lon="11.764003848486137"><ele>280.0</ele><time>2026-03-22T07:53:32.965Z</time></trkpt><trkpt lat="43.38715993533671" lon="11.763877934979611"><ele>280.0</ele><time>2026-03-22T07:53:33.965Z</time></trkpt><trkpt lat="43.38724175569379" lon="11.763741754148064"><ele>279.5</ele><time>2026-03-22T07:53:34.965Z</time></trkpt><trkpt lat="43.38733094023061" lon="11.763609632948926"><ele>279.0</ele><time>2026-03-22T07:53:35.965Z</time></trkpt><trkpt lat="43.387411962966716" lon="11.76348010554581"><ele>278.5</ele><time>2026-03-22T07:53:36.965Z</time></trkpt><trkpt lat="43.38749638231158" lon="11.763350918360564"><ele>278.0</ele><time>2026-03-22T07:53:37.965Z</time></trkpt><trkpt lat="43.38757672775962" lon="11.763225259104196"><ele>278.0</ele><time>2026-03-22T07:53:38.965Z</time></trkpt><trkpt lat="43.38765966251048" lon="11.763098846068866"><ele>278.0</ele><time>2026-03-22T07:53:39.965Z</time></trkpt><trkpt lat="43.387740755249524" lon="11.76297165517692"><ele>278.0</ele><time>2026-03-22T07:53:40.965Z</time></trkpt><trkpt lat="43.387825504898274" lon="11.76283784892362"><ele>278.0</ele><time>2026-03-22T07:53:41.965Z</time></trkpt><trkpt lat="43.38791393101393" lon="11.76269561003753"><ele>278.0</ele><time>2026-03-22T07:53:42.965Z</time></trkpt><trkpt lat="43.388001875208545" lon="11.762556775087823"><ele>278.0</ele><time>2026-03-22T07:53:43.965Z</time></trkpt><trkpt lat="43.388091916334126" lon="11.762420823005769"><ele>278.0</ele><time>2026-03-22T07:53:44.965Z</time></trkpt><trkpt lat="43.388186633761244" lon="11.762274553928961"><ele>278.0</ele><time>2026-03-22T07:53:45.965Z</time></trkpt><trkpt lat="43.388277141807066" lon="11.762127808681754"><ele>277.75</ele><time>2026-03-22T07:53:46.964Z</time></trkpt><trkpt lat="43.38836793312891" lon="11.761990507924198"><ele>277.5</ele><time>2026-03-22T07:53:47.964Z</time></trkpt><trkpt lat="43.38846309913948" lon="11.76184680022354"><ele>277.25</ele><time>2026-03-22T07:53:48.964Z</time></trkpt><trkpt lat="43.388559477246574" lon="11.761694062715474"><ele>277.0</ele><time>2026-03-22T07:53:49.964Z</time></trkpt><trkpt lat="43.388659678647635" lon="11.761530121031452"><ele>277.0</ele><time>2026-03-22T07:53:50.964Z</time></trkpt><trkpt lat="43.38875804208062" lon="11.76137156741552"><ele>277.0</ele><time>2026-03-22T07:53:51.964Z</time></trkpt><trkpt lat="43.38885914152747" lon="11.761218950418698"><ele>277.0</ele><time>2026-03-22T07:53:52.964Z</time></trkpt><trkpt lat="43.3889589999232" lon="11.761065298614731"><ele>277.75</ele><time>2026-03-22T07:53:53.964Z</time></trkpt><trkpt lat="43.38905471294669" lon="11.760914466690956"><ele>278.5</ele><time>2026-03-22T07:53:54.964Z</time></trkpt><trkpt lat="43.389150274898796" lon="11.76076351964601"><ele>279.25</ele><time>2026-03-22T07:53:55.964Z</time></trkpt><trkpt lat="43.38924356260026" lon="11.760613666543446"><ele>280.0</ele><time>2026-03-22T07:53:56.964Z</time></trkpt><trkpt lat="43.38933492380708" lon="11.76047108447645"><ele>280.0</ele><time>2026-03-22T07:53:57.964Z</time></trkpt><trkpt lat="43.389426212715584" lon="11.760330251728057"><ele>280.0</ele><time>2026-03-22T07:53:58.964Z</time></trkpt><trkpt lat="43.389513062521985" lon="11.760196917413264"><ele>280.0</ele><time>2026-03-22T07:53:59.964Z</time></trkpt><trkpt lat="43.38959349096607" lon="11.76007166089159"><ele>280.0</ele><time>2026-03-22T07:54:00.964Z</time></trkpt><trkpt lat="43.389663627456756" lon="11.759958407512066"><ele>280.0</ele><time>2026-03-22T07:54:01.964Z</time></trkpt><trkpt lat="43.389730947984106" lon="11.7598487623308"><ele>280.0</ele><time>2026-03-22T07:54:02.964Z</time></trkpt><trkpt lat="43.38978929431034" lon="11.759754531358661"><ele>280.0</ele><time>2026-03-22T07:54:03.964Z</time></trkpt><trkpt lat="43.389846184792056" lon="11.759670083386219"><ele>280.0</ele><time>2026-03-22T07:54:04.964Z</time></trkpt><trkpt lat="43.389897817252596" lon="11.759597677405692"><ele>280.0</ele><time>2026-03-22T07:54:05.964Z</time></trkpt><trkpt lat="43.38997229294324" lon="11.75950661729831"><ele>280.0</ele><time>2026-03-22T07:54:07.964Z</time></trkpt><trkpt lat="43.3900426533452" lon="11.759441945992274"><ele>280.0</ele><time>2026-03-22T07:54:09.964Z</time></trkpt><trkpt lat="43.38998503099064" lon="11.759271557748471"><ele>280.0</ele><time>2026-03-22T07:54:10.964Z</time></trkpt><trkpt lat="43.389930733736946" lon="11.759163548449685"><ele>280.0</ele><time>2026-03-22T07:54:11.964Z</time></trkpt><trkpt lat="43.3898676818811" lon="11.75904443067441"><ele>280.0</ele><time>2026-03-22T07:54:12.964Z</time></trkpt><trkpt lat="43.389807666742094" lon="11.758931653836042"><ele>280.2</ele><time>2026-03-22T07:54:13.964Z</time></trkpt><trkpt lat="43.38975645976585" lon="11.758823313233474"><ele>280.4</ele><time>2026-03-22T07:54:14.964Z</time></trkpt><trkpt lat="43.38970443906358" lon="11.758719072363538"><ele>280.6</ele><time>2026-03-22T07:54:15.964Z</time></trkpt><trkpt lat="43.38965449595549" lon="11.758612676639604"><ele>280.8</ele><time>2026-03-22T07:54:16.964Z</time></trkpt><trkpt lat="43.38960394957025" lon="11.758505589774138"><ele>281.0</ele><time>2026-03-22T07:54:17.964Z</time></trkpt><trkpt lat="43.3895471904389" lon="11.75839613897735"><ele>281.6</ele><time>2026-03-22T07:54:18.964Z</time></trkpt><trkpt lat="43.3894929996081" lon="11.75828698649473"><ele>282.20000000000005</ele><time>2026-03-22T07:54:19.964Z</time></trkpt><trkpt lat="43.389441355295475" lon="11.75818150957761"><ele>282.79999999999995</ele><time>2026-03-22T07:54:20.964Z</time></trkpt><trkpt lat="43.389390110128154" lon="11.758079315870642"><ele>283.4</ele><time>2026-03-22T07:54:21.964Z</time></trkpt><trkpt lat="43.389342479297575" lon="11.757976413460936"><ele>284.0</ele><time>2026-03-22T07:54:22.964Z</time></trkpt><trkpt lat="43.38929586092253" lon="11.7578711911959"><ele>284.0</ele><time>2026-03-22T07:54:23.964Z</time></trkpt><trkpt lat="43.38924282279011" lon="11.757756903374172"><ele>284.0</ele><time>2026-03-22T07:54:24.963Z</time></trkpt><trkpt lat="43.389196210733935" lon="11.757634223640055"><ele>284.0</ele><time>2026-03-22T07:54:25.963Z</time></trkpt><trkpt lat="43.38915853994741" lon="11.757511204247354"><ele>284.0</ele><time>2026-03-22T07:54:26.963Z</time></trkpt><trkpt lat="43.389127637053065" lon="11.757381346506271"><ele>284.0</ele><time>2026-03-22T07:54:27.963Z</time></trkpt><trkpt lat="43.3891050863623" lon="11.757249809041383"><ele>284.0</ele><time>2026-03-22T07:54:28.963Z</time></trkpt><trkpt lat="43.3890912066419" lon="11.757120471156252"><ele>284.0</ele><time>2026-03-22T07:54:29.963Z</time></trkpt><trkpt lat="43.389083073594655" lon="11.756988321616907"><ele>284.0</ele><time>2026-03-22T07:54:30.963Z</time></trkpt><trkpt lat="43.389081027285435" lon="11.75685826082989"><ele>284.0</ele><time>2026-03-22T07:54:31.963Z</time></trkpt><trkpt lat="43.389079310557605" lon="11.75672867563818"><ele>284.0</ele><time>2026-03-22T07:54:32.963Z</time></trkpt><trkpt lat="43.38907945306808" lon="11.756604233091148"><ele>284.1666666666667</ele><time>2026-03-22T07:54:33.963Z</time></trkpt><trkpt lat="43.38908116508848" lon="11.75648301787033"><ele>284.33333333333337</ele><time>2026-03-22T07:54:34.963Z</time></trkpt><trkpt lat="43.389079515727055" lon="11.756364395201205"><ele>284.5</ele><time>2026-03-22T07:54:35.963Z</time></trkpt><trkpt lat="43.389080420944936" lon="11.756239671192695"><ele>284.6666666666667</ele><time>2026-03-22T07:54:36.963Z</time></trkpt><trkpt lat="43.389084784119575" lon="11.756112963566988"><ele>284.8333333333333</ele><time>2026-03-22T07:54:37.963Z</time></trkpt><trkpt lat="43.389097074970046" lon="11.755987944737013"><ele>285.0</ele><time>2026-03-22T07:54:38.963Z</time></trkpt><trkpt lat="43.389123358559154" lon="11.755878320720159"><ele>285.0</ele><time>2026-03-22T07:54:39.963Z</time></trkpt><trkpt lat="43.389151933772375" lon="11.755765037294449"><ele>285.0</ele><time>2026-03-22T07:54:40.963Z</time></trkpt><trkpt lat="43.38917611157265" lon="11.755670635493487"><ele>285.0</ele><time>2026-03-22T07:54:41.963Z</time></trkpt><trkpt lat="43.389177046545605" lon="11.755552333439812"><ele>285.0</ele><time>2026-03-22T07:54:43.963Z</time></trkpt><trkpt lat="43.38916310283201" lon="11.755422259665725"><ele>285.0</ele><time>2026-03-22T07:54:45.963Z</time></trkpt><trkpt lat="43.38902413077531" lon="11.755321703676874"><ele>285.0</ele><time>2026-03-22T07:54:47.963Z</time></trkpt><trkpt lat="43.388942752682226" lon="11.75527849300597"><ele>285.0</ele><time>2026-03-22T07:54:48.963Z</time></trkpt><trkpt lat="43.388863412469206" lon="11.75522242524575"><ele>285.0</ele><time>2026-03-22T07:54:49.963Z</time></trkpt><trkpt lat="43.3887821927847" lon="11.755153048243226"><ele>285.0</ele><time>2026-03-22T07:54:50.963Z</time></trkpt><trkpt lat="43.388694723603074" lon="11.755078388306586"><ele>285.0</ele><time>2026-03-22T07:54:51.963Z</time></trkpt><trkpt lat="43.38860338451082" lon="11.754998503130198"><ele>285.0</ele><time>2026-03-22T07:54:52.963Z</time></trkpt><trkpt lat="43.38851222056434" lon="11.754919600096873"><ele>285.0</ele><time>2026-03-22T07:54:53.963Z</time></trkpt><trkpt lat="43.388418460524605" lon="11.754842573569492"><ele>285.0</ele><time>2026-03-22T07:54:54.963Z</time></trkpt><trkpt lat="43.38832647932496" lon="11.754755374705365"><ele>285.0</ele><time>2026-03-22T07:54:55.963Z</time></trkpt><trkpt lat="43.38823087770294" lon="11.754665130519706"><ele>285.0</ele><time>2026-03-22T07:54:56.963Z</time></trkpt><trkpt lat="43.3881356460969" lon="11.754572876652341"><ele>285.0</ele><time>2026-03-22T07:54:57.963Z</time></trkpt><trkpt lat="43.388037007073684" lon="11.75448019729222"><ele>285.0</ele><time>2026-03-22T07:54:58.963Z</time></trkpt><trkpt lat="43.38793889093544" lon="11.754391000897348"><ele>285.0</ele><time>2026-03-22T07:54:59.963Z</time></trkpt><trkpt lat="43.38784330060037" lon="11.754305829175786"><ele>285.0</ele><time>2026-03-22T07:55:00.963Z</time></trkpt><trkpt lat="43.38774522241921" lon="11.754220459138129"><ele>285.2</ele><time>2026-03-22T07:55:01.963Z</time></trkpt><trkpt lat="43.387649088546006" lon="11.754136199585659"><ele>285.4</ele><time>2026-03-22T07:55:02.962Z</time></trkpt><trkpt lat="43.38755801635704" lon="11.754051971126671"><ele>285.6</ele><time>2026-03-22T07:55:03.962Z</time></trkpt><trkpt lat="43.38747378092324" lon="11.753972929069832"><ele>285.8</ele><time>2026-03-22T07:55:04.962Z</time></trkpt><trkpt lat="43.3873937783614" lon="11.753891850920539"><ele>286.0</ele><time>2026-03-22T07:55:05.962Z</time></trkpt><trkpt lat="43.387315453613596" lon="11.75379013163014"><ele>286.0</ele><time>2026-03-22T07:55:06.962Z</time></trkpt><trkpt lat="43.38724069512513" lon="11.75367531460612"><ele>286.0</ele><time>2026-03-22T07:55:07.962Z</time></trkpt><trkpt lat="43.38717731806501" lon="11.753557068218187"><ele>286.0</ele><time>2026-03-22T07:55:08.962Z</time></trkpt><trkpt lat="43.38711680050193" lon="11.753426312898554"><ele>286.0</ele><time>2026-03-22T07:55:09.965Z</time></trkpt><trkpt lat="43.387050806124" lon="11.753293390038952"><ele>286.0</ele><time>2026-03-22T07:55:10.964Z</time></trkpt><trkpt lat="43.386985828090445" lon="11.753160315583658"><ele>285.25</ele><time>2026-03-22T07:55:11.964Z</time></trkpt><trkpt lat="43.38692176080969" lon="11.753022557207387"><ele>284.5</ele><time>2026-03-22T07:55:12.965Z</time></trkpt><trkpt lat="43.38685783164645" lon="11.752889526548032"><ele>283.75</ele><time>2026-03-22T07:55:13.964Z</time></trkpt><trkpt lat="43.386794080546615" lon="11.75276037972271"><ele>283.0</ele><time>2026-03-22T07:55:14.964Z</time></trkpt><trkpt lat="43.38672980861074" lon="11.752641861630519"><ele>282.2</ele><time>2026-03-22T07:55:15.964Z</time></trkpt><trkpt lat="43.38666799296812" lon="11.752531527953208"><ele>281.4</ele><time>2026-03-22T07:55:16.964Z</time></trkpt><trkpt lat="43.38660987006504" lon="11.752424543926029"><ele>280.59999999999997</ele><time>2026-03-22T07:55:17.964Z</time></trkpt><trkpt lat="43.38655066948701" lon="11.752313978064779"><ele>279.8</ele><time>2026-03-22T07:55:18.964Z</time></trkpt><trkpt lat="43.386494781062446" lon="11.752224130370163"><ele>279.0</ele><time>2026-03-22T07:55:19.964Z</time></trkpt><trkpt lat="43.38644191839934" lon="11.752122487162094"><ele>279.0</ele><time>2026-03-22T07:55:20.964Z</time></trkpt><trkpt lat="43.386388795212454" lon="11.752018411696834"><ele>279.0</ele><time>2026-03-22T07:55:21.964Z</time></trkpt><trkpt lat="43.386337745584136" lon="11.751905666120678"><ele>279.0</ele><time>2026-03-22T07:55:22.964Z</time></trkpt><trkpt lat="43.38628165119561" lon="11.75180669817891"><ele>279.0</ele><time>2026-03-22T07:55:23.964Z</time></trkpt><trkpt lat="43.386217897455325" lon="11.751682327868373"><ele>279.0</ele><time>2026-03-22T07:55:24.964Z</time></trkpt><trkpt lat="43.38615532711639" lon="11.751556559272917"><ele>278.0</ele><time>2026-03-22T07:55:25.964Z</time></trkpt><trkpt lat="43.38609435988032" lon="11.751437273625063"><ele>277.0</ele><time>2026-03-22T07:55:26.964Z</time></trkpt><trkpt lat="43.386035913103" lon="11.751308537577573"><ele>276.0</ele><time>2026-03-22T07:55:27.964Z</time></trkpt><trkpt lat="43.3859763914567" lon="11.751188730544458"><ele>275.0</ele><time>2026-03-22T07:55:28.964Z</time></trkpt><trkpt lat="43.38591948613425" lon="11.751074450375693"><ele>274.0</ele><time>2026-03-22T07:55:29.964Z</time></trkpt><trkpt lat="43.38586306027291" lon="11.750964563686592"><ele>273.66666666666663</ele><time>2026-03-22T07:55:30.963Z</time></trkpt><trkpt lat="43.38580940177394" lon="11.750856463008816"><ele>273.3333333333333</ele><time>2026-03-22T07:55:31.962Z</time></trkpt><trkpt lat="43.385755442298056" lon="11.750754832159346"><ele>273.0</ele><time>2026-03-22T07:55:32.961Z</time></trkpt><trkpt lat="43.38570620410747" lon="11.750657525700134"><ele>272.6666666666667</ele><time>2026-03-22T07:55:33.96Z</time></trkpt><trkpt lat="43.385658254413464" lon="11.75056704604441"><ele>272.33333333333337</ele><time>2026-03-22T07:55:34.959Z</time></trkpt><trkpt lat="43.3856108090298" lon="11.750479496409234"><ele>272.0</ele><time>2026-03-22T07:55:35.958Z</time></trkpt><trkpt lat="43.38556625916535" lon="11.750393848369463"><ele>272.0</ele><time>2026-03-22T07:55:36.957Z</time></trkpt><trkpt lat="43.38552427217967" lon="11.75031397520586"><ele>272.0</ele><time>2026-03-22T07:55:37.956Z</time></trkpt><trkpt lat="43.38548681047248" lon="11.750236887587437"><ele>272.0</ele><time>2026-03-22T07:55:38.956Z</time></trkpt><trkpt lat="43.38542385008034" lon="11.750114537578694"><ele>272.0</ele><time>2026-03-22T07:55:40.954Z</time></trkpt><trkpt lat="43.38542840262345" lon="11.750006051072736"><ele>272.0</ele><time>2026-03-22T07:55:43.953Z</time></trkpt><trkpt lat="43.38555326430412" lon="11.749917458502171"><ele>272.0</ele><time>2026-03-22T07:55:47.951Z</time></trkpt><trkpt lat="43.38562634903076" lon="11.749863972623103"><ele>272.0</ele><time>2026-03-22T07:55:49.95Z</time></trkpt><trkpt lat="43.38570587550447" lon="11.749809996562057"><ele>272.0</ele><time>2026-03-22T07:55:51.95Z</time></trkpt><trkpt lat="43.38578808295747" lon="11.749746322753111"><ele>272.0</ele><time>2026-03-22T07:55:53.949Z</time></trkpt><trkpt lat="43.3858728931536" lon="11.749689530944513"><ele>272.0</ele><time>2026-03-22T07:55:55.949Z</time></trkpt><trkpt lat="43.385961561199885" lon="11.749639594192509"><ele>272.0</ele><time>2026-03-22T07:55:57.948Z</time></trkpt><trkpt lat="43.386049803906175" lon="11.749588566604737"><ele>272.0</ele><time>2026-03-22T07:55:59.948Z</time></trkpt><trkpt lat="43.38617953335841" lon="11.749530883093751"><ele>272.0</ele><time>2026-03-22T07:56:01.947Z</time></trkpt><trkpt lat="43.38628966896426" lon="11.74948074750616"><ele>272.0</ele><time>2026-03-22T07:56:02.947Z</time></trkpt><trkpt lat="43.38643657607391" lon="11.749412642939774"><ele>272.33333333333337</ele><time>2026-03-22T07:56:03.947Z</time></trkpt><trkpt lat="43.3866065499208" lon="11.749335661016175"><ele>272.6666666666667</ele><time>2026-03-22T07:56:04.947Z</time></trkpt><trkpt lat="43.38680703203064" lon="11.749232674510878"><ele>273.0</ele><time>2026-03-22T07:56:05.947Z</time></trkpt><trkpt lat="43.38702199453107" lon="11.749115650400066"><ele>273.0</ele><time>2026-03-22T07:56:06.947Z</time></trkpt><trkpt lat="43.38725375492542" lon="11.74898805919764"><ele>273.0</ele><time>2026-03-22T07:56:07.946Z</time></trkpt><trkpt lat="43.387481190053066" lon="11.748872625431476"><ele>273.0</ele><time>2026-03-22T07:56:08.946Z</time></trkpt><trkpt lat="43.387687852498026" lon="11.748778394606886"><ele>273.0</ele><time>2026-03-22T07:56:09.946Z</time></trkpt><trkpt lat="43.387881642776655" lon="11.748692152349292"><ele>273.0</ele><time>2026-03-22T07:56:10.946Z</time></trkpt><trkpt lat="43.3880572717045" lon="11.748612852095649"><ele>273.6666666666667</ele><time>2026-03-22T07:56:11.946Z</time></trkpt><trkpt lat="43.38821766890292" lon="11.74853957835535"><ele>274.33333333333337</ele><time>2026-03-22T07:56:12.946Z</time></trkpt><trkpt lat="43.388367478044984" lon="11.748479265246724"><ele>275.0</ele><time>2026-03-22T07:56:13.946Z</time></trkpt><trkpt lat="43.388507827837394" lon="11.748429780495947"><ele>275.0</ele><time>2026-03-22T07:56:14.946Z</time></trkpt><trkpt lat="43.38863500556737" lon="11.748394299746531"><ele>275.0</ele><time>2026-03-22T07:56:15.946Z</time></trkpt><trkpt lat="43.38875643481387" lon="11.748368376586669"><ele>275.0</ele><time>2026-03-22T07:56:16.945Z</time></trkpt><trkpt lat="43.38886560308098" lon="11.748353242848207"><ele>275.0</ele><time>2026-03-22T07:56:17.945Z</time></trkpt><trkpt lat="43.3889651123819" lon="11.748333887975994"><ele>275.33333333333337</ele><time>2026-03-22T07:56:18.945Z</time></trkpt><trkpt lat="43.3890550150749" lon="11.748311288674516"><ele>275.6666666666667</ele><time>2026-03-22T07:56:19.945Z</time></trkpt><trkpt lat="43.389143204010495" lon="11.748294773338944"><ele>276.0</ele><time>2026-03-22T07:56:20.945Z</time></trkpt><trkpt lat="43.389217293424466" lon="11.748277906334781"><ele>276.3333333333333</ele><time>2026-03-22T07:56:21.945Z</time></trkpt><trkpt lat="43.38927848716886" lon="11.7482490796616"><ele>276.66666666666663</ele><time>2026-03-22T07:56:22.945Z</time></trkpt><trkpt lat="43.389374497550214" lon="11.748198558900322"><ele>277.0</ele><time>2026-03-22T07:56:24.945Z</time></trkpt><trkpt lat="43.38944706096055" lon="11.748171536312082"><ele>277.0</ele><time>2026-03-22T07:56:25.945Z</time></trkpt><trkpt lat="43.38953533112251" lon="11.748132673833826"><ele>277.0</ele><time>2026-03-22T07:56:26.945Z</time></trkpt><trkpt lat="43.38964376773917" lon="11.748098482384005"><ele>277.0</ele><time>2026-03-22T07:56:27.945Z</time></trkpt><trkpt lat="43.389763186979266" lon="11.748052174211926"><ele>277.0</ele><time>2026-03-22T07:56:28.945Z</time></trkpt><trkpt lat="43.389892996634984" lon="11.74800326948564"><ele>276.3333333333333</ele><time>2026-03-22T07:56:29.945Z</time></trkpt><trkpt lat="43.3900305489247" lon="11.747951157277376"><ele>275.6666666666667</ele><time>2026-03-22T07:56:30.944Z</time></trkpt><trkpt lat="43.39018423505396" lon="11.747890887073499"><ele>275.0</ele><time>2026-03-22T07:56:31.944Z</time></trkpt><trkpt lat="43.39033487075643" lon="11.747838098992831"><ele>275.0</ele><time>2026-03-22T07:56:32.944Z</time></trkpt><trkpt lat="43.39047992188341" lon="11.747782587437667"><ele>275.0</ele><time>2026-03-22T07:56:33.944Z</time></trkpt><trkpt lat="43.39061922467592" lon="11.747736724151816"><ele>275.0</ele><time>2026-03-22T07:56:34.944Z</time></trkpt><trkpt lat="43.39074484063085" lon="11.747692458393805"><ele>275.0</ele><time>2026-03-22T07:56:35.944Z</time></trkpt><trkpt lat="43.39086470307924" lon="11.74765191307221"><ele>275.25</ele><time>2026-03-22T07:56:36.944Z</time></trkpt><trkpt lat="43.39097990222956" lon="11.747613870137458"><ele>275.5</ele><time>2026-03-22T07:56:37.944Z</time></trkpt><trkpt lat="43.39109516218553" lon="11.747581502759422"><ele>275.75</ele><time>2026-03-22T07:56:38.944Z</time></trkpt><trkpt lat="43.39121160893398" lon="11.74755643227039"><ele>276.0</ele><time>2026-03-22T07:56:39.944Z</time></trkpt><trkpt lat="43.3913293713368" lon="11.747538167019167"><ele>276.25</ele><time>2026-03-22T07:56:40.944Z</time></trkpt><trkpt lat="43.39144433989309" lon="11.747519916425606"><ele>276.5</ele><time>2026-03-22T07:56:41.944Z</time></trkpt><trkpt lat="43.39155965976104" lon="11.747499912546504"><ele>276.75</ele><time>2026-03-22T07:56:42.944Z</time></trkpt><trkpt lat="43.39167205674758" lon="11.747480401155968"><ele>277.0</ele><time>2026-03-22T07:56:43.944Z</time></trkpt><trkpt lat="43.391788008604344" lon="11.747456965652027"><ele>277.0</ele><time>2026-03-22T07:56:44.944Z</time></trkpt><trkpt lat="43.39190226557933" lon="11.747431563768524"><ele>277.0</ele><time>2026-03-22T07:56:45.944Z</time></trkpt><trkpt lat="43.39201908709712" lon="11.747397868894284"><ele>277.0</ele><time>2026-03-22T07:56:46.944Z</time></trkpt><trkpt lat="43.39213345886479" lon="11.747362141282233"><ele>277.0</ele><time>2026-03-22T07:56:47.944Z</time></trkpt><trkpt lat="43.39223738065202" lon="11.74733283318186"><ele>277.4</ele><time>2026-03-22T07:56:48.944Z</time></trkpt><trkpt lat="43.392340287096424" lon="11.747305788820396"><ele>277.79999999999995</ele><time>2026-03-22T07:56:49.944Z</time></trkpt><trkpt lat="43.392443810031075" lon="11.74727346289989"><ele>278.2</ele><time>2026-03-22T07:56:50.944Z</time></trkpt><trkpt lat="43.3925550688609" lon="11.747244556240853"><ele>278.59999999999997</ele><time>2026-03-22T07:56:51.944Z</time></trkpt><trkpt lat="43.39266659817339" lon="11.747224528963718"><ele>279.0</ele><time>2026-03-22T07:56:52.944Z</time></trkpt><trkpt lat="43.39277848223035" lon="11.747200687967378"><ele>279.0</ele><time>2026-03-22T07:56:53.944Z</time></trkpt><trkpt lat="43.39288985351206" lon="11.747176420181779"><ele>279.0</ele><time>2026-03-22T07:56:54.943Z</time></trkpt><trkpt lat="43.393000228213246" lon="11.747154600524812"><ele>279.0</ele><time>2026-03-22T07:56:55.943Z</time></trkpt><trkpt lat="43.39311025562607" lon="11.747134624746455"><ele>279.0</ele><time>2026-03-22T07:56:56.943Z</time></trkpt><trkpt lat="43.39322049409009" lon="11.747108582838527"><ele>279.0</ele><time>2026-03-22T07:56:57.943Z</time></trkpt><trkpt lat="43.393328869845725" lon="11.747083655229302"><ele>278.8</ele><time>2026-03-22T07:56:58.943Z</time></trkpt><trkpt lat="43.393437863862694" lon="11.747058598292254"><ele>278.59999999999997</ele><time>2026-03-22T07:56:59.943Z</time></trkpt><trkpt lat="43.39354755974064" lon="11.747031631511927"><ele>278.4</ele><time>2026-03-22T07:57:00.943Z</time></trkpt><trkpt lat="43.393655860479065" lon="11.74699210669383"><ele>278.2</ele><time>2026-03-22T07:57:01.943Z</time></trkpt><trkpt lat="43.393761859124375" lon="11.746948524325656"><ele>278.0</ele><time>2026-03-22T07:57:02.943Z</time></trkpt><trkpt lat="43.39386658115819" lon="11.746906902860195"><ele>278.2</ele><time>2026-03-22T07:57:03.943Z</time></trkpt><trkpt lat="43.393971827720655" lon="11.746864967710245"><ele>278.4</ele><time>2026-03-22T07:57:04.943Z</time></trkpt><trkpt lat="43.394078626993085" lon="11.74682591459347"><ele>278.59999999999997</ele><time>2026-03-22T07:57:05.943Z</time></trkpt><trkpt lat="43.39418234563154" lon="11.746785774468762"><ele>278.8</ele><time>2026-03-22T07:57:06.943Z</time></trkpt><trkpt lat="43.394282926916645" lon="11.746747134647231"><ele>279.0</ele><time>2026-03-22T07:57:07.943Z</time></trkpt><trkpt lat="43.394375972455606" lon="11.7467116788401"><ele>279.0</ele><time>2026-03-22T07:57:08.943Z</time></trkpt><trkpt lat="43.394459781455595" lon="11.746677465810732"><ele>279.0</ele><time>2026-03-22T07:57:09.943Z</time></trkpt><trkpt lat="43.39453932089816" lon="11.746646668929104"><ele>279.0</ele><time>2026-03-22T07:57:10.943Z</time></trkpt><trkpt lat="43.39461135902354" lon="11.746618736440611"><ele>279.0</ele><time>2026-03-22T07:57:11.943Z</time></trkpt><trkpt lat="43.39467743848961" lon="11.746594903961894"><ele>279.0</ele><time>2026-03-22T07:57:12.943Z</time></trkpt><trkpt lat="43.39478876419386" lon="11.746543964234295"><ele>279.0</ele><time>2026-03-22T07:57:14.943Z</time></trkpt><trkpt lat="43.394894397061016" lon="11.746527878325363"><ele>279.25</ele><time>2026-03-22T07:57:16.945Z</time></trkpt><trkpt lat="43.394985517405814" lon="11.746544845505737"><ele>279.5</ele><time>2026-03-22T07:57:18.945Z</time></trkpt><trkpt lat="43.39512723272586" lon="11.74641519841618"><ele>279.75</ele><time>2026-03-22T07:57:20.944Z</time></trkpt><trkpt lat="43.39524844331894" lon="11.746356993742312"><ele>280.0</ele><time>2026-03-22T07:57:21.945Z</time></trkpt><trkpt lat="43.39538789938571" lon="11.746289954749335"><ele>279.66666666666663</ele><time>2026-03-22T07:57:22.945Z</time></trkpt><trkpt lat="43.395542470529406" lon="11.746212005914781"><ele>279.3333333333333</ele><time>2026-03-22T07:57:23.945Z</time></trkpt><trkpt lat="43.395702317878566" lon="11.74613267844249"><ele>279.0</ele><time>2026-03-22T07:57:24.945Z</time></trkpt><trkpt lat="43.395842149021874" lon="11.746065357361061"><ele>279.25</ele><time>2026-03-22T07:57:25.944Z</time></trkpt><trkpt lat="43.39597299089224" lon="11.746003914631752"><ele>279.5</ele><time>2026-03-22T07:57:26.944Z</time></trkpt><trkpt lat="43.396094153433594" lon="11.745945269508342"><ele>279.75</ele><time>2026-03-22T07:57:27.945Z</time></trkpt><trkpt lat="43.396220374924084" lon="11.745904379021187"><ele>280.0</ele><time>2026-03-22T07:57:28.945Z</time></trkpt><trkpt lat="43.396343029581736" lon="11.745847979761866"><ele>280.25</ele><time>2026-03-22T07:57:29.945Z</time></trkpt><trkpt lat="43.39646417357245" lon="11.745786024564485"><ele>280.5</ele><time>2026-03-22T07:57:30.945Z</time></trkpt><trkpt lat="43.39658309273229" lon="11.74573174589721"><ele>280.75</ele><time>2026-03-22T07:57:31.945Z</time></trkpt><trkpt lat="43.39669654398936" lon="11.745676038227726"><ele>281.0</ele><time>2026-03-22T07:57:32.945Z</time></trkpt><trkpt lat="43.39681567866292" lon="11.74561185028702"><ele>281.0</ele><time>2026-03-22T07:57:33.945Z</time></trkpt><trkpt lat="43.39693778531885" lon="11.745554857400494"><ele>281.0</ele><time>2026-03-22T07:57:34.945Z</time></trkpt><trkpt lat="43.39705736640762" lon="11.745500413847735"><ele>281.0</ele><time>2026-03-22T07:57:35.945Z</time></trkpt><trkpt lat="43.39717376082219" lon="11.74544467114729"><ele>281.0</ele><time>2026-03-22T07:57:36.945Z</time></trkpt><trkpt lat="43.397286722491195" lon="11.745391912105287"><ele>281.0</ele><time>2026-03-22T07:57:37.945Z</time></trkpt><trkpt lat="43.39739802863427" lon="11.74533891760301"><ele>281.0</ele><time>2026-03-22T07:57:38.945Z</time></trkpt><trkpt lat="43.397506096506085" lon="11.745287226798514"><ele>281.0</ele><time>2026-03-22T07:57:39.945Z</time></trkpt><trkpt lat="43.39760471329004" lon="11.745238409345808"><ele>281.0</ele><time>2026-03-22T07:57:40.945Z</time></trkpt><trkpt lat="43.39769588345628" lon="11.74519383350211"><ele>281.0</ele><time>2026-03-22T07:57:41.944Z</time></trkpt><trkpt lat="43.39777972414177" lon="11.745152404875332"><ele>281.00000000000006</ele><time>2026-03-22T07:57:42.944Z</time></trkpt><trkpt lat="43.39785848456164" lon="11.74511428704988"><ele>281.0</ele><time>2026-03-22T07:57:43.944Z</time></trkpt><trkpt lat="43.39793049254041" lon="11.745079249022355"><ele>281.0</ele><time>2026-03-22T07:57:44.944Z</time></trkpt><trkpt lat="43.397994817009874" lon="11.74505430308731"><ele>281.0</ele><time>2026-03-22T07:57:45.944Z</time></trkpt><trkpt lat="43.39805886079442" lon="11.745029657824539"><ele>281.0</ele><time>2026-03-22T07:57:46.944Z</time></trkpt><trkpt lat="43.39812648439798" lon="11.744991775957326"><ele>281.00000000000006</ele><time>2026-03-22T07:57:47.944Z</time></trkpt><trkpt lat="43.39819497194089" lon="11.744948936655861"><ele>281.0</ele><time>2026-03-22T07:57:48.944Z</time></trkpt><trkpt lat="43.39825940595929" lon="11.744908994613636"><ele>281.14285714285717</ele><time>2026-03-22T07:57:49.944Z</time></trkpt><trkpt lat="43.39832508943274" lon="11.744869609624006"><ele>281.2857142857143</ele><time>2026-03-22T07:57:50.944Z</time></trkpt><trkpt lat="43.398396531176736" lon="11.744828763350096"><ele>281.42857142857144</ele><time>2026-03-22T07:57:51.944Z</time></trkpt><trkpt lat="43.3984667224499" lon="11.744790365801206"><ele>281.57142857142856</ele><time>2026-03-22T07:57:52.944Z</time></trkpt><trkpt lat="43.398536627888426" lon="11.744746736258705"><ele>281.7142857142857</ele><time>2026-03-22T07:57:53.944Z</time></trkpt><trkpt lat="43.39860491954224" lon="11.744708383623381"><ele>281.8571428571429</ele><time>2026-03-22T07:57:54.944Z</time></trkpt><trkpt lat="43.39867361108217" lon="11.74467343300614"><ele>282.0</ele><time>2026-03-22T07:57:55.944Z</time></trkpt><trkpt lat="43.398735164534294" lon="11.744641803431973"><ele>281.8333333333333</ele><time>2026-03-22T07:57:56.944Z</time></trkpt><trkpt lat="43.39884699346839" lon="11.744569549868876"><ele>281.6666666666667</ele><time>2026-03-22T07:57:58.944Z</time></trkpt><trkpt lat="43.398905871177384" lon="11.744525830606214"><ele>281.5</ele><time>2026-03-22T07:57:59.944Z</time></trkpt><trkpt lat="43.398963996830034" lon="11.744487772119138"><ele>281.33333333333337</ele><time>2026-03-22T07:58:00.944Z</time></trkpt><trkpt lat="43.399079842732775" lon="11.74443409765445"><ele>281.1666666666667</ele><time>2026-03-22T07:58:02.944Z</time></trkpt><trkpt lat="43.39914360061151" lon="11.744397117534975"><ele>281.0</ele><time>2026-03-22T07:58:03.944Z</time></trkpt><trkpt lat="43.39920849085422" lon="11.7443575073778"><ele>281.28571428571433</ele><time>2026-03-22T07:58:04.944Z</time></trkpt><trkpt lat="43.39927067177584" lon="11.744318977329566"><ele>281.57142857142856</ele><time>2026-03-22T07:58:05.944Z</time></trkpt><trkpt lat="43.399336185531254" lon="11.74428023816661"><ele>281.8571428571429</ele><time>2026-03-22T07:58:06.944Z</time></trkpt><trkpt lat="43.399399280694766" lon="11.74424679986868"><ele>282.14285714285717</ele><time>2026-03-22T07:58:07.944Z</time></trkpt><trkpt lat="43.39946567826011" lon="11.744212892965983"><ele>282.42857142857144</ele><time>2026-03-22T07:58:08.944Z</time></trkpt><trkpt lat="43.39953238501718" lon="11.744173307137913"><ele>282.7142857142857</ele><time>2026-03-22T07:58:09.944Z</time></trkpt><trkpt lat="43.39959906024759" lon="11.744130298234603"><ele>283.0</ele><time>2026-03-22T07:58:10.944Z</time></trkpt><trkpt lat="43.399667834130454" lon="11.744089535196048"><ele>283.0</ele><time>2026-03-22T07:58:11.944Z</time></trkpt><trkpt lat="43.39973709242262" lon="11.744044800869732"><ele>283.0</ele><time>2026-03-22T07:58:12.944Z</time></trkpt><trkpt lat="43.39981006193773" lon="11.744012563040771"><ele>283.0</ele><time>2026-03-22T07:58:13.943Z</time></trkpt><trkpt lat="43.39988344766146" lon="11.743979679112664"><ele>283.0</ele><time>2026-03-22T07:58:14.943Z</time></trkpt><trkpt lat="43.39994945888618" lon="11.743938967581244"><ele>283.0</ele><time>2026-03-22T07:58:15.943Z</time></trkpt><trkpt lat="43.40006570849164" lon="11.743883132604019"><ele>283.0</ele><time>2026-03-22T07:58:17.943Z</time></trkpt><trkpt lat="43.40017621085229" lon="11.74383989975334"><ele>283.0</ele><time>2026-03-22T07:58:19.943Z</time></trkpt><trkpt lat="43.400305373854756" lon="11.743769586984097"><ele>283.0</ele><time>2026-03-22T07:58:21.943Z</time></trkpt><trkpt lat="43.40037873140456" lon="11.743728526978813"><ele>283.0</ele><time>2026-03-22T07:58:22.943Z</time></trkpt><trkpt lat="43.40045299052975" lon="11.743687259390338"><ele>283.0</ele><time>2026-03-22T07:58:23.943Z</time></trkpt><trkpt lat="43.40053264904507" lon="11.743642455011898"><ele>283.0</ele><time>2026-03-22T07:58:24.943Z</time></trkpt><trkpt lat="43.400614086956104" lon="11.743594804700487"><ele>283.16666666666663</ele><time>2026-03-22T07:58:25.943Z</time></trkpt><trkpt lat="43.400691048701525" lon="11.743571409010807"><ele>283.3333333333333</ele><time>2026-03-22T07:58:26.943Z</time></trkpt><trkpt lat="43.400771684090245" lon="11.743529324310638"><ele>283.5</ele><time>2026-03-22T07:58:27.943Z</time></trkpt><trkpt lat="43.40085280399042" lon="11.743485347206478"><ele>283.6666666666667</ele><time>2026-03-22T07:58:28.943Z</time></trkpt><trkpt lat="43.40093180111933" lon="11.743438208153798"><ele>283.83333333333337</ele><time>2026-03-22T07:58:29.943Z</time></trkpt><trkpt lat="43.40100817029386" lon="11.74338479177676"><ele>284.0</ele><time>2026-03-22T07:58:30.943Z</time></trkpt><trkpt lat="43.40108775442658" lon="11.743349160732237"><ele>284.0</ele><time>2026-03-22T07:58:31.943Z</time></trkpt><trkpt lat="43.40116748326768" lon="11.743302751904075"><ele>284.0</ele><time>2026-03-22T07:58:32.943Z</time></trkpt><trkpt lat="43.401251429184406" lon="11.743245035298193"><ele>284.0</ele><time>2026-03-22T07:58:33.943Z</time></trkpt><trkpt lat="43.40133287153317" lon="11.743190509763842"><ele>284.0</ele><time>2026-03-22T07:58:34.943Z</time></trkpt><trkpt lat="43.40141120641726" lon="11.74313839737164"><ele>284.0</ele><time>2026-03-22T07:58:35.943Z</time></trkpt><trkpt lat="43.40148708971195" lon="11.743087053128422"><ele>284.0</ele><time>2026-03-22T07:58:36.943Z</time></trkpt><trkpt lat="43.40156663473953" lon="11.743034353345317"><ele>284.0</ele><time>2026-03-22T07:58:37.943Z</time></trkpt><trkpt lat="43.40165694181877" lon="11.743002071435438"><ele>284.0</ele><time>2026-03-22T07:58:38.943Z</time></trkpt><trkpt lat="43.40173331893662" lon="11.742953588906154"><ele>284.0</ele><time>2026-03-22T07:58:39.943Z</time></trkpt><trkpt lat="43.401819301999595" lon="11.742898347065578"><ele>284.0</ele><time>2026-03-22T07:58:40.943Z</time></trkpt><trkpt lat="43.4019029583199" lon="11.742843621620825"><ele>284.0</ele><time>2026-03-22T07:58:41.943Z</time></trkpt><trkpt lat="43.40198692771194" lon="11.742788691372144"><ele>284.0</ele><time>2026-03-22T07:58:42.943Z</time></trkpt><trkpt lat="43.40206977063837" lon="11.74273449801338"><ele>284.0</ele><time>2026-03-22T07:58:43.943Z</time></trkpt><trkpt lat="43.40214808654136" lon="11.742683266099535"><ele>284.0</ele><time>2026-03-22T07:58:44.943Z</time></trkpt><trkpt lat="43.40222391539045" lon="11.742633661134569"><ele>284.0</ele><time>2026-03-22T07:58:45.942Z</time></trkpt><trkpt lat="43.402303798486685" lon="11.7425814040221"><ele>284.0</ele><time>2026-03-22T07:58:46.942Z</time></trkpt><trkpt lat="43.40237538331134" lon="11.742509381795813"><ele>284.0</ele><time>2026-03-22T07:58:47.942Z</time></trkpt><trkpt lat="43.40245207742467" lon="11.742465642334576"><ele>284.33333333333337</ele><time>2026-03-22T07:58:48.942Z</time></trkpt><trkpt lat="43.402529801488384" lon="11.742415039754638"><ele>284.6666666666667</ele><time>2026-03-22T07:58:49.942Z</time></trkpt><trkpt lat="43.40259599680288" lon="11.742368164629582"><ele>285.0</ele><time>2026-03-22T07:58:50.942Z</time></trkpt><trkpt lat="43.40266968865022" lon="11.742322401093217"><ele>285.3333333333333</ele><time>2026-03-22T07:58:51.942Z</time></trkpt><trkpt lat="43.402744873906805" lon="11.742278666073924"><ele>285.66666666666663</ele><time>2026-03-22T07:58:52.942Z</time></trkpt><trkpt lat="43.402820348020285" lon="11.742231024453291"><ele>286.0</ele><time>2026-03-22T07:58:53.942Z</time></trkpt><trkpt lat="43.402894219011195" lon="11.74218528345786"><ele>286.0</ele><time>2026-03-22T07:58:54.942Z</time></trkpt><trkpt lat="43.402967268527235" lon="11.742139101436862"><ele>286.0</ele><time>2026-03-22T07:58:55.942Z</time></trkpt><trkpt lat="43.40303693386608" lon="11.742091963442826"><ele>286.0</ele><time>2026-03-22T07:58:56.942Z</time></trkpt><trkpt lat="43.40310285180322" lon="11.742042572139207"><ele>286.0</ele><time>2026-03-22T07:58:57.942Z</time></trkpt><trkpt lat="43.40317122844908" lon="11.741991602985012"><ele>286.0</ele><time>2026-03-22T07:58:58.942Z</time></trkpt><trkpt lat="43.40324268091212" lon="11.741939283236418"><ele>286.0</ele><time>2026-03-22T07:58:59.942Z</time></trkpt><trkpt lat="43.4033096550251" lon="11.74188432133013"><ele>286.16666666666663</ele><time>2026-03-22T07:59:00.942Z</time></trkpt><trkpt lat="43.403380890691274" lon="11.741832721129578"><ele>286.3333333333333</ele><time>2026-03-22T07:59:01.942Z</time></trkpt><trkpt lat="43.40345449935557" lon="11.741776509226378"><ele>286.5</ele><time>2026-03-22T07:59:02.942Z</time></trkpt><trkpt lat="43.403527503157925" lon="11.74171243890524"><ele>286.6666666666667</ele><time>2026-03-22T07:59:03.942Z</time></trkpt><trkpt lat="43.40359950221734" lon="11.741646379117011"><ele>286.83333333333337</ele><time>2026-03-22T07:59:04.942Z</time></trkpt><trkpt lat="43.40367363312803" lon="11.74158843205288"><ele>287.0</ele><time>2026-03-22T07:59:05.942Z</time></trkpt><trkpt lat="43.40373921655577" lon="11.7415186596142"><ele>287.0</ele><time>2026-03-22T07:59:06.942Z</time></trkpt><trkpt lat="43.40381580044874" lon="11.741473156452676"><ele>287.0</ele><time>2026-03-22T07:59:07.942Z</time></trkpt><trkpt lat="43.403881380777925" lon="11.741411404088204"><ele>287.0</ele><time>2026-03-22T07:59:08.942Z</time></trkpt><trkpt lat="43.40394732153646" lon="11.741349312577789"><ele>287.0</ele><time>2026-03-22T07:59:09.942Z</time></trkpt><trkpt lat="43.40402348282445" lon="11.741277597357474"><ele>287.0</ele><time>2026-03-22T07:59:10.942Z</time></trkpt><trkpt lat="43.404098638330524" lon="11.741183222643938"><ele>287.0</ele><time>2026-03-22T07:59:11.942Z</time></trkpt><trkpt lat="43.40418480073422" lon="11.741116956900303"><ele>287.1666666666667</ele><time>2026-03-22T07:59:12.942Z</time></trkpt><trkpt lat="43.40427305474415" lon="11.74105396071109"><ele>287.33333333333337</ele><time>2026-03-22T07:59:13.942Z</time></trkpt><trkpt lat="43.404361286524384" lon="11.740986847457082"><ele>287.5</ele><time>2026-03-22T07:59:14.942Z</time></trkpt><trkpt lat="43.40444012886472" lon="11.740923592080453"><ele>287.6666666666667</ele><time>2026-03-22T07:59:15.942Z</time></trkpt><trkpt lat="43.40450969132453" lon="11.74085993697773"><ele>287.8333333333333</ele><time>2026-03-22T07:59:16.942Z</time></trkpt><trkpt lat="43.404554773655306" lon="11.740797451618654"><ele>288.0</ele><time>2026-03-22T07:59:17.941Z</time></trkpt><trkpt lat="43.40461654678741" lon="11.740758811981712"><ele>288.0</ele><time>2026-03-22T07:59:19.941Z</time></trkpt><trkpt lat="43.40456307388531" lon="11.740568711306452"><ele>288.0</ele><time>2026-03-22T07:59:20.941Z</time></trkpt><trkpt lat="43.404597631186334" lon="11.740441709261908"><ele>288.0</ele><time>2026-03-22T07:59:21.944Z</time></trkpt><trkpt lat="43.40465271849749" lon="11.740299184128828"><ele>288.0</ele><time>2026-03-22T07:59:22.943Z</time></trkpt><trkpt lat="43.4046828096485" lon="11.740131930411977"><ele>288.5</ele><time>2026-03-22T07:59:23.943Z</time></trkpt><trkpt lat="43.40470240127515" lon="11.739964094576857"><ele>289.0</ele><time>2026-03-22T07:59:24.943Z</time></trkpt><trkpt lat="43.40470125203213" lon="11.739787704522366"><ele>289.5</ele><time>2026-03-22T07:59:25.943Z</time></trkpt><trkpt lat="43.40468875369854" lon="11.739627652695283"><ele>290.0</ele><time>2026-03-22T07:59:26.943Z</time></trkpt><trkpt lat="43.40466985682587" lon="11.739468623407857"><ele>290.0</ele><time>2026-03-22T07:59:27.943Z</time></trkpt><trkpt lat="43.4046521138668" lon="11.739322462290732"><ele>290.0</ele><time>2026-03-22T07:59:28.943Z</time></trkpt><trkpt lat="43.40468270234126" lon="11.73917489887369"><ele>290.0</ele><time>2026-03-22T07:59:29.943Z</time></trkpt><trkpt lat="43.404738619486814" lon="11.73902662339964"><ele>290.0</ele><time>2026-03-22T07:59:30.943Z</time></trkpt><trkpt lat="43.40480236341071" lon="11.73887105814607"><ele>290.0</ele><time>2026-03-22T07:59:31.943Z</time></trkpt><trkpt lat="43.40486291845315" lon="11.73870774911114"><ele>290.0</ele><time>2026-03-22T07:59:32.943Z</time></trkpt><trkpt lat="43.40494292822326" lon="11.738565750557957"><ele>290.0</ele><time>2026-03-22T07:59:33.944Z</time></trkpt><trkpt lat="43.40501342490309" lon="11.73841066520218"><ele>290.0</ele><time>2026-03-22T07:59:34.943Z</time></trkpt><trkpt lat="43.40508371509228" lon="11.738259793971546"><ele>290.75</ele><time>2026-03-22T07:59:35.943Z</time></trkpt><trkpt lat="43.40514001321516" lon="11.738100313869547"><ele>291.5</ele><time>2026-03-22T07:59:36.943Z</time></trkpt><trkpt lat="43.40521272396167" lon="11.737957204458978"><ele>292.25</ele><time>2026-03-22T07:59:37.943Z</time></trkpt><trkpt lat="43.40528345792643" lon="11.737818032992829"><ele>293.0</ele><time>2026-03-22T07:59:38.943Z</time></trkpt><trkpt lat="43.40535344593355" lon="11.737685476370945"><ele>293.6</ele><time>2026-03-22T07:59:39.943Z</time></trkpt><trkpt lat="43.40541716599704" lon="11.737567932509348"><ele>294.20000000000005</ele><time>2026-03-22T07:59:40.943Z</time></trkpt><trkpt lat="43.40548153364722" lon="11.73745457591314"><ele>294.8</ele><time>2026-03-22T07:59:41.943Z</time></trkpt><trkpt lat="43.40554583269255" lon="11.737352066450237"><ele>295.40000000000003</ele><time>2026-03-22T07:59:42.943Z</time></trkpt><trkpt lat="43.405609729608884" lon="11.737262180032344"><ele>296.0</ele><time>2026-03-22T07:59:43.942Z</time></trkpt><trkpt lat="43.40566562767573" lon="11.737171932556969"><ele>296.0</ele><time>2026-03-22T07:59:44.942Z</time></trkpt><trkpt lat="43.40571228503329" lon="11.73708901762899"><ele>296.0</ele><time>2026-03-22T07:59:45.942Z</time></trkpt><trkpt lat="43.40577434127917" lon="11.737033034583412"><ele>296.0</ele><time>2026-03-22T07:59:46.942Z</time></trkpt><trkpt lat="43.40582497198603" lon="11.736970959311373"><ele>296.0</ele><time>2026-03-22T07:59:47.942Z</time></trkpt><trkpt lat="43.405911146377356" lon="11.7368883748688"><ele>296.0</ele><time>2026-03-22T07:59:49.942Z</time></trkpt><trkpt lat="43.405860305512974" lon="11.736698178196518"><ele>296.2</ele><time>2026-03-22T07:59:50.942Z</time></trkpt><trkpt lat="43.40582774410918" lon="11.73657176102063"><ele>296.40000000000003</ele><time>2026-03-22T07:59:51.942Z</time></trkpt><trkpt lat="43.40579700075329" lon="11.736431763679407"><ele>296.6</ele><time>2026-03-22T07:59:52.942Z</time></trkpt><trkpt lat="43.40576851692646" lon="11.736287762531774"><ele>296.8</ele><time>2026-03-22T07:59:53.942Z</time></trkpt><trkpt lat="43.405765312275925" lon="11.736164617008887"><ele>297.0</ele><time>2026-03-22T07:59:54.942Z</time></trkpt><trkpt lat="43.40575010249474" lon="11.736047707212668"><ele>297.3333333333333</ele><time>2026-03-22T07:59:55.942Z</time></trkpt><trkpt lat="43.40573727947539" lon="11.735926431868771"><ele>297.6666666666667</ele><time>2026-03-22T07:59:56.942Z</time></trkpt><trkpt lat="43.40572559827943" lon="11.735815689890389"><ele>298.0</ele><time>2026-03-22T07:59:57.942Z</time></trkpt><trkpt lat="43.405712483147816" lon="11.735698797544883"><ele>298.33333333333337</ele><time>2026-03-22T07:59:58.942Z</time></trkpt><trkpt lat="43.40568447121394" lon="11.735595704233294"><ele>298.6666666666667</ele><time>2026-03-22T07:59:59.942Z</time></trkpt><trkpt lat="43.40567332724671" lon="11.735491858421891"><ele>299.0</ele><time>2026-03-22T08:00:00.942Z</time></trkpt><trkpt lat="43.4056560130159" lon="11.735373947203263"><ele>299.0</ele><time>2026-03-22T08:00:01.942Z</time></trkpt><trkpt lat="43.40563597945534" lon="11.735251115580223"><ele>299.0</ele><time>2026-03-22T08:00:02.942Z</time></trkpt><trkpt lat="43.40561536691359" lon="11.735135395768658"><ele>299.0</ele><time>2026-03-22T08:00:03.942Z</time></trkpt><trkpt lat="43.40559425837324" lon="11.735010866444194"><ele>299.0</ele><time>2026-03-22T08:00:04.942Z</time></trkpt><trkpt lat="43.4055741805058" lon="11.734888961909899"><ele>299.0</ele><time>2026-03-22T08:00:05.942Z</time></trkpt><trkpt lat="43.40557234306309" lon="11.734771533010619"><ele>299.0</ele><time>2026-03-22T08:00:06.942Z</time></trkpt><trkpt lat="43.40555591398746" lon="11.734664888436342"><ele>300.0</ele><time>2026-03-22T08:00:07.942Z</time></trkpt><trkpt lat="43.40552471872385" lon="11.734555220291789"><ele>301.0</ele><time>2026-03-22T08:00:08.942Z</time></trkpt><trkpt lat="43.405508586210445" lon="11.734433684154439"><ele>302.0</ele><time>2026-03-22T08:00:09.942Z</time></trkpt><trkpt lat="43.405490724061224" lon="11.734326930860615"><ele>303.0</ele><time>2026-03-22T08:00:10.942Z</time></trkpt><trkpt lat="43.405476976194265" lon="11.734225706777734"><ele>304.0</ele><time>2026-03-22T08:00:11.942Z</time></trkpt><trkpt lat="43.405459367986055" lon="11.734106993237368"><ele>305.0</ele><time>2026-03-22T08:00:12.942Z</time></trkpt><trkpt lat="43.405439315068094" lon="11.733986521613243"><ele>306.6</ele><time>2026-03-22T08:00:13.942Z</time></trkpt><trkpt lat="43.40542091269126" lon="11.733871001759834"><ele>308.2</ele><time>2026-03-22T08:00:14.942Z</time></trkpt><trkpt lat="43.405403591983564" lon="11.733732455388006"><ele>309.8</ele><time>2026-03-22T08:00:15.941Z</time></trkpt><trkpt lat="43.40538926161337" lon="11.733603549519145"><ele>311.4</ele><time>2026-03-22T08:00:16.941Z</time></trkpt><trkpt lat="43.4053720003963" lon="11.733479660302828"><ele>313.0</ele><time>2026-03-22T08:00:17.941Z</time></trkpt><trkpt lat="43.40535527911776" lon="11.733367705735338"><ele>313.8333333333333</ele><time>2026-03-22T08:00:18.941Z</time></trkpt><trkpt lat="43.40533553743114" lon="11.733257799134371"><ele>314.66666666666663</ele><time>2026-03-22T08:00:19.941Z</time></trkpt><trkpt lat="43.40530807028913" lon="11.733153790837047"><ele>315.5</ele><time>2026-03-22T08:00:20.941Z</time></trkpt><trkpt lat="43.4052839131267" lon="11.733025927700815"><ele>316.3333333333333</ele><time>2026-03-22T08:00:21.941Z</time></trkpt><trkpt lat="43.405284261234115" lon="11.732896979028324"><ele>317.1666666666667</ele><time>2026-03-22T08:00:22.941Z</time></trkpt><trkpt lat="43.40527428698894" lon="11.732779044675864"><ele>318.0</ele><time>2026-03-22T08:00:23.941Z</time></trkpt><trkpt lat="43.40526521588423" lon="11.732661224889071"><ele>319.5</ele><time>2026-03-22T08:00:24.941Z</time></trkpt><trkpt lat="43.40525797964852" lon="11.7325446822699"><ele>321.0</ele><time>2026-03-22T08:00:25.941Z</time></trkpt><trkpt lat="43.405251457514424" lon="11.73243236074785"><ele>322.5</ele><time>2026-03-22T08:00:26.941Z</time></trkpt><trkpt lat="43.4052293653114" lon="11.732330776037506"><ele>324.0</ele><time>2026-03-22T08:00:27.941Z</time></trkpt><trkpt lat="43.40523873384428" lon="11.732226923510225"><ele>325.5</ele><time>2026-03-22T08:00:28.941Z</time></trkpt><trkpt lat="43.405231794038336" lon="11.732121892240983"><ele>327.0</ele><time>2026-03-22T08:00:29.941Z</time></trkpt><trkpt lat="43.40522263154077" lon="11.732015139092047"><ele>327.0</ele><time>2026-03-22T08:00:30.941Z</time></trkpt><trkpt lat="43.40520495842963" lon="11.731917626363378"><ele>327.0</ele><time>2026-03-22T08:00:31.941Z</time></trkpt><trkpt lat="43.40517718946305" lon="11.731823499884156"><ele>327.0</ele><time>2026-03-22T08:00:32.941Z</time></trkpt><trkpt lat="43.40512396913965" lon="11.731680336280563"><ele>327.0</ele><time>2026-03-22T08:00:34.941Z</time></trkpt><trkpt lat="43.40507892056317" lon="11.731555463018749"><ele>327.0</ele><time>2026-03-22T08:00:36.941Z</time></trkpt><trkpt lat="43.40492687957156" lon="11.73146617048905"><ele>329.0</ele><time>2026-03-22T08:00:38.941Z</time></trkpt><trkpt lat="43.40484671769089" lon="11.731453775513739"><ele>331.0</ele><time>2026-03-22T08:00:40.941Z</time></trkpt><trkpt lat="43.40476050845429" lon="11.731425460652323"><ele>333.0</ele><time>2026-03-22T08:00:44.941Z</time></trkpt><trkpt lat="43.404720406382864" lon="11.73103094307797"><ele>334.1666666666667</ele><time>2026-03-22T08:00:48.94Z</time></trkpt><trkpt lat="43.404717440192755" lon="11.730856408892485"><ele>335.3333333333333</ele><time>2026-03-22T08:00:50.94Z</time></trkpt><trkpt lat="43.40472866535027" lon="11.730750619007676"><ele>336.5</ele><time>2026-03-22T08:00:51.94Z</time></trkpt><trkpt lat="43.404744846998256" lon="11.730647058143425"><ele>337.66666666666663</ele><time>2026-03-22T08:00:52.94Z</time></trkpt><trkpt lat="43.404756378154424" lon="11.730557464547251"><ele>338.8333333333333</ele><time>2026-03-22T08:00:53.94Z</time></trkpt><trkpt lat="43.40474689700355" lon="11.73045817541647"><ele>340.0</ele><time>2026-03-22T08:00:54.94Z</time></trkpt><trkpt lat="43.40474512902467" lon="11.730290289327451"><ele>341.6</ele><time>2026-03-22T08:00:56.94Z</time></trkpt><trkpt lat="43.40476450682803" lon="11.730143183228371"><ele>343.2</ele><time>2026-03-22T08:00:58.94Z</time></trkpt><trkpt lat="43.4047667703176" lon="11.729973974268868"><ele>344.79999999999995</ele><time>2026-03-22T08:01:00.94Z</time></trkpt><trkpt lat="43.40476401863588" lon="11.72982144985498"><ele>346.4</ele><time>2026-03-22T08:01:02.94Z</time></trkpt><trkpt lat="43.404765304885224" lon="11.729711964891893"><ele>348.0</ele><time>2026-03-22T08:01:04.94Z</time></trkpt><trkpt lat="43.40476791431533" lon="11.729591208756846"><ele>348.0</ele><time>2026-03-22T08:01:06.94Z</time></trkpt><trkpt lat="43.404796444152254" lon="11.729429451599591"><ele>348.0</ele><time>2026-03-22T08:01:08.94Z</time></trkpt><trkpt lat="43.40480971229593" lon="11.729332960293828"><ele>348.0</ele><time>2026-03-22T08:01:09.94Z</time></trkpt><trkpt lat="43.404822258328295" lon="11.729247089000072"><ele>348.0</ele><time>2026-03-22T08:01:10.94Z</time></trkpt><trkpt lat="43.40483889948445" lon="11.729071539158356"><ele>348.0</ele><time>2026-03-22T08:01:12.94Z</time></trkpt><trkpt lat="43.40480804509671" lon="11.728991867904298"><ele>348.0</ele><time>2026-03-22T08:01:15.94Z</time></trkpt><trkpt lat="43.404799887035104" lon="11.729078890135662"><ele>348.0</ele><time>2026-03-22T08:01:23.939Z</time></trkpt><trkpt lat="43.40473941319197" lon="11.72917965576151"><ele>348.0</ele><time>2026-03-22T08:01:26.939Z</time></trkpt><trkpt lat="43.404718588435756" lon="11.72927157272925"><ele>348.0</ele><time>2026-03-22T08:01:28.942Z</time></trkpt><trkpt lat="43.40469246435558" lon="11.729351596446714"><ele>348.0</ele><time>2026-03-22T08:01:30.942Z</time></trkpt><trkpt lat="43.40466749963484" lon="11.72945236802438"><ele>348.0</ele><time>2026-03-22T08:01:33.941Z</time></trkpt><trkpt lat="43.404631695803076" lon="11.7295417143767"><ele>348.0</ele><time>2026-03-22T08:01:36.941Z</time></trkpt><trkpt lat="43.404590825047784" lon="11.729650480106237"><ele>349.5</ele><time>2026-03-22T08:01:39.941Z</time></trkpt><trkpt lat="43.404542909994724" lon="11.729738601987387"><ele>351.0</ele><time>2026-03-22T08:01:42.941Z</time></trkpt><trkpt lat="43.404492450533176" lon="11.729815585678844"><ele>352.5</ele><time>2026-03-22T08:01:45.941Z</time></trkpt><trkpt lat="43.404402704479516" lon="11.729897076334908"><ele>354.0</ele><time>2026-03-22T08:02:28.94Z</time></trkpt><trkpt lat="43.40431989434355" lon="11.729878138390282"><ele>355.5</ele><time>2026-03-22T08:02:41.939Z</time></trkpt><trkpt lat="43.404270418416964" lon="11.729810849804599"><ele>357.0</ele><time>2026-03-22T08:02:43.939Z</time></trkpt><trkpt lat="43.4042931077262" lon="11.729651717507712"><ele>357.0</ele><time>2026-03-22T08:02:46.939Z</time></trkpt><trkpt lat="43.40431050972075" lon="11.729525354549157"><ele>357.0</ele><time>2026-03-22T08:02:48.939Z</time></trkpt><trkpt lat="43.404364657632236" lon="11.729403657334647"><ele>357.0</ele><time>2026-03-22T08:02:50.939Z</time></trkpt><trkpt lat="43.40439927454409" lon="11.729331138007934"><ele>357.0</ele><time>2026-03-22T08:02:51.939Z</time></trkpt><trkpt lat="43.40442010322202" lon="11.729196528792066"><ele>357.0</ele><time>2026-03-22T08:02:53.939Z</time></trkpt><trkpt lat="43.40428996073956" lon="11.729172565413375"><ele>360.8</ele><time>2026-03-22T08:02:56.939Z</time></trkpt><trkpt lat="43.40419218336554" lon="11.729151304403835"><ele>364.6</ele><time>2026-03-22T08:02:58.939Z</time></trkpt><trkpt lat="43.40405639783256" lon="11.729120967523095"><ele>368.40000000000003</ele><time>2026-03-22T08:03:00.939Z</time></trkpt><trkpt lat="43.40398898176149" lon="11.729106326744626"><ele>372.20000000000005</ele><time>2026-03-22T08:03:01.939Z</time></trkpt><trkpt lat="43.403919698355125" lon="11.729075055449595"><ele>376.0</ele><time>2026-03-22T08:03:02.939Z</time></trkpt><trkpt lat="43.403846546583964" lon="11.729043849767436"><ele>376.75</ele><time>2026-03-22T08:03:03.939Z</time></trkpt><trkpt lat="43.40370122512526" lon="11.728955552839441"><ele>377.5</ele><time>2026-03-22T08:03:05.938Z</time></trkpt><trkpt lat="43.40361444667072" lon="11.72887655019437"><ele>378.25</ele><time>2026-03-22T08:03:07.938Z</time></trkpt><trkpt lat="43.40357340226548" lon="11.728755338283607"><ele>379.0</ele><time>2026-03-22T08:03:09.938Z</time></trkpt><trkpt lat="43.40355613922375" lon="11.72861893350586"><ele>382.4</ele><time>2026-03-22T08:03:11.938Z</time></trkpt><trkpt lat="43.40357533884707" lon="11.728499814883397"><ele>385.79999999999995</ele><time>2026-03-22T08:03:13.938Z</time></trkpt><trkpt lat="43.40362647342057" lon="11.728341747566185"><ele>389.20000000000005</ele><time>2026-03-22T08:03:15.938Z</time></trkpt><trkpt lat="43.403619057926385" lon="11.728176713265924"><ele>392.6</ele><time>2026-03-22T08:03:17.938Z</time></trkpt><trkpt lat="43.40360248538594" lon="11.728090146726487"><ele>396.0</ele><time>2026-03-22T08:03:18.938Z</time></trkpt><trkpt lat="43.40359915648602" lon="11.727953551821903"><ele>396.0</ele><time>2026-03-22T08:03:20.938Z</time></trkpt><trkpt lat="43.40360495252852" lon="11.727847729166168"><ele>396.0</ele><time>2026-03-22T08:03:22.938Z</time></trkpt><trkpt lat="43.403598812078776" lon="11.72774569725749"><ele>396.0</ele><time>2026-03-22T08:03:24.938Z</time></trkpt><trkpt lat="43.40356854172815" lon="11.7275954735849"><ele>396.0</ele><time>2026-03-22T08:03:26.938Z</time></trkpt><trkpt lat="43.40355954762405" lon="11.72745261648406"><ele>396.0</ele><time>2026-03-22T08:03:28.938Z</time></trkpt><trkpt lat="43.40352161418416" lon="11.727336329352601"><ele>399.0</ele><time>2026-03-22T08:03:30.938Z</time></trkpt><trkpt lat="43.40341523711483" lon="11.727261398401318"><ele>402.0</ele><time>2026-03-22T08:03:32.938Z</time></trkpt><trkpt lat="43.403331675679055" lon="11.727217660636198"><ele>405.0</ele><time>2026-03-22T08:03:34.94Z</time></trkpt><trkpt lat="43.403241864518805" lon="11.727203666915203"><ele>408.0</ele><time>2026-03-22T08:03:36.94Z</time></trkpt><trkpt lat="43.40317686683948" lon="11.727298624746252"><ele>411.0</ele><time>2026-03-22T08:03:39.94Z</time></trkpt><trkpt lat="43.40314133284786" lon="11.727400476579854"><ele>411.0</ele><time>2026-03-22T08:03:41.94Z</time></trkpt><trkpt lat="43.403078508732676" lon="11.727488752107813"><ele>411.0</ele><time>2026-03-22T08:03:43.939Z</time></trkpt><trkpt lat="43.40301482668456" lon="11.727525474239549"><ele>411.0</ele><time>2026-03-22T08:03:44.939Z</time></trkpt><trkpt lat="43.402938040427564" lon="11.727558832925384"><ele>411.0</ele><time>2026-03-22T08:03:45.94Z</time></trkpt><trkpt lat="43.40286867379582" lon="11.727567764068283"><ele>411.0</ele><time>2026-03-22T08:03:46.94Z</time></trkpt><trkpt lat="43.40279896045121" lon="11.727578197107649"><ele>411.0</ele><time>2026-03-22T08:03:47.94Z</time></trkpt><trkpt lat="43.40274135736762" lon="11.727528701660129"><ele>411.0</ele><time>2026-03-22T08:03:49.94Z</time></trkpt><trkpt lat="43.40266573840921" lon="11.727436535527266"><ele>411.8</ele><time>2026-03-22T08:03:51.94Z</time></trkpt><trkpt lat="43.40256317868011" lon="11.72732115354237"><ele>412.6</ele><time>2026-03-22T08:03:53.94Z</time></trkpt><trkpt lat="43.40252282251993" lon="11.727224158027706"><ele>413.4</ele><time>2026-03-22T08:03:54.94Z</time></trkpt><trkpt lat="43.40249602820341" lon="11.72714065808298"><ele>414.2</ele><time>2026-03-22T08:03:55.939Z</time></trkpt><trkpt lat="43.40245300851093" lon="11.727004532946827"><ele>415.0</ele><time>2026-03-22T08:03:57.939Z</time></trkpt><trkpt lat="43.402388634464785" lon="11.72688305040452"><ele>417.6</ele><time>2026-03-22T08:03:59.939Z</time></trkpt><trkpt lat="43.4023388446506" lon="11.726788449494718"><ele>420.2</ele><time>2026-03-22T08:04:01.939Z</time></trkpt><trkpt lat="43.40230040435426" lon="11.726654938472072"><ele>422.79999999999995</ele><time>2026-03-22T08:04:03.939Z</time></trkpt><trkpt lat="43.40229138603618" lon="11.726502307313673"><ele>425.4</ele><time>2026-03-22T08:04:05.939Z</time></trkpt><trkpt lat="43.402275374338096" lon="11.726394906688455"><ele>428.0</ele><time>2026-03-22T08:04:07.939Z</time></trkpt><trkpt lat="43.40221711557026" lon="11.726292714829114"><ele>428.0</ele><time>2026-03-22T08:04:09.939Z</time></trkpt><trkpt lat="43.4022329025975" lon="11.726173186194245"><ele>427.99999999999994</ele><time>2026-03-22T08:04:11.939Z</time></trkpt><trkpt lat="43.40216002203471" lon="11.726030602320787"><ele>427.99999999999994</ele><time>2026-03-22T08:04:13.939Z</time></trkpt><trkpt lat="43.40211093754202" lon="11.72594782342894"><ele>428.0</ele><time>2026-03-22T08:04:14.939Z</time></trkpt><trkpt lat="43.40207432519963" lon="11.7258199056473"><ele>428.0</ele><time>2026-03-22T08:04:16.939Z</time></trkpt><trkpt lat="43.402035061767734" lon="11.725733078493844"><ele>430.0</ele><time>2026-03-22T08:04:17.939Z</time></trkpt><trkpt lat="43.40200543568505" lon="11.72561627573277"><ele>431.99999999999994</ele><time>2026-03-22T08:04:18.939Z</time></trkpt><trkpt lat="43.40197741053883" lon="11.72553719391796"><ele>433.99999999999994</ele><time>2026-03-22T08:04:19.939Z</time></trkpt><trkpt lat="43.40189462060857" lon="11.725457810599163"><ele>436.0</ele><time>2026-03-22T08:04:21.939Z</time></trkpt><trkpt lat="43.40180594997287" lon="11.72534936270247"><ele>438.0</ele><time>2026-03-22T08:04:23.939Z</time></trkpt><trkpt lat="43.4017133983737" lon="11.725229069086618"><ele>440.0</ele><time>2026-03-22T08:04:25.939Z</time></trkpt><trkpt lat="43.40165935165321" lon="11.725179076264448"><ele>442.0</ele><time>2026-03-22T08:04:26.939Z</time></trkpt><trkpt lat="43.401603634853196" lon="11.725132316784237"><ele>444.0</ele><time>2026-03-22T08:04:27.938Z</time></trkpt><trkpt lat="43.401537257378756" lon="11.725037962726642"><ele>446.0</ele><time>2026-03-22T08:04:29.938Z</time></trkpt><trkpt lat="43.401525046338335" lon="11.724943519547196"><ele>448.0</ele><time>2026-03-22T08:04:45.938Z</time></trkpt><trkpt lat="43.401455566300676" lon="11.724931383727355"><ele>450.0</ele><time>2026-03-22T08:04:47.938Z</time></trkpt><trkpt lat="43.40134957357724" lon="11.724950266919908"><ele>449.1666666666667</ele><time>2026-03-22T08:04:49.938Z</time></trkpt><trkpt lat="43.401279575843326" lon="11.724973989062192"><ele>448.33333333333337</ele><time>2026-03-22T08:04:50.938Z</time></trkpt><trkpt lat="43.401183544788076" lon="11.724993497415388"><ele>447.5</ele><time>2026-03-22T08:04:51.938Z</time></trkpt><trkpt lat="43.40109629920325" lon="11.724943309614748"><ele>446.6666666666667</ele><time>2026-03-22T08:04:52.938Z</time></trkpt><trkpt lat="43.4010160435604" lon="11.724954560883006"><ele>445.83333333333337</ele><time>2026-03-22T08:04:53.938Z</time></trkpt><trkpt lat="43.40092732771821" lon="11.724964563332712"><ele>445.0</ele><time>2026-03-22T08:04:54.938Z</time></trkpt><trkpt lat="43.400835744728006" lon="11.72497488905276"><ele>445.0</ele><time>2026-03-22T08:04:55.938Z</time></trkpt><trkpt lat="43.40074129413394" lon="11.724983522518873"><ele>445.0</ele><time>2026-03-22T08:04:56.938Z</time></trkpt><trkpt lat="43.40064335752082" lon="11.724990049478766"><ele>445.0</ele><time>2026-03-22T08:04:57.938Z</time></trkpt><trkpt lat="43.40053499252905" lon="11.724997271432267"><ele>445.0</ele><time>2026-03-22T08:04:58.938Z</time></trkpt><trkpt lat="43.40043458939764" lon="11.725006471429209"><ele>445.0</ele><time>2026-03-22T08:04:59.938Z</time></trkpt><trkpt lat="43.400344994046094" lon="11.725032685324292"><ele>445.00000000000006</ele><time>2026-03-22T08:05:00.937Z</time></trkpt><trkpt lat="43.400256282451934" lon="11.72503097886103"><ele>445.0</ele><time>2026-03-22T08:05:01.937Z</time></trkpt><trkpt lat="43.40017285711271" lon="11.725065964731314"><ele>445.0</ele><time>2026-03-22T08:05:02.937Z</time></trkpt><trkpt lat="43.40008251147413" lon="11.725073584940732"><ele>445.0</ele><time>2026-03-22T08:05:03.937Z</time></trkpt><trkpt lat="43.40000999878697" lon="11.725122983582839"><ele>445.00000000000006</ele><time>2026-03-22T08:05:04.937Z</time></trkpt><trkpt lat="43.399936266073766" lon="11.725153469302938"><ele>445.0</ele><time>2026-03-22T08:05:05.937Z</time></trkpt><trkpt lat="43.399845890221755" lon="11.72515877123226"><ele>445.0</ele><time>2026-03-22T08:05:07.937Z</time></trkpt><trkpt lat="43.39986107337332" lon="11.724948198071685"><ele>445.0</ele><time>2026-03-22T08:05:10.937Z</time></trkpt><trkpt lat="43.399890906498946" lon="11.724847222563735"><ele>445.0</ele><time>2026-03-22T08:05:11.937Z</time></trkpt><trkpt lat="43.39993874499809" lon="11.724764521687845"><ele>445.0</ele><time>2026-03-22T08:05:12.937Z</time></trkpt><trkpt lat="43.39999699725577" lon="11.72468745608948"><ele>445.0</ele><time>2026-03-22T08:05:13.937Z</time></trkpt><trkpt lat="43.400048090220515" lon="11.724629918835127"><ele>445.0</ele><time>2026-03-22T08:05:14.937Z</time></trkpt><trkpt lat="43.400101703372464" lon="11.724516203394037"><ele>445.0</ele><time>2026-03-22T08:05:16.937Z</time></trkpt><trkpt lat="43.40015454334606" lon="11.724457373564814"><ele>445.0</ele><time>2026-03-22T08:05:18.937Z</time></trkpt><trkpt lat="43.40015906004886" lon="11.724367508762926"><ele>445.0</ele><time>2026-03-22T08:05:20.937Z</time></trkpt><trkpt lat="43.40095120700205" lon="11.724437968165669"><ele>445.00000000000006</ele><time>2026-03-22T08:05:27.937Z</time></trkpt><trkpt lat="43.401026323588376" lon="11.724424412838824"><ele>445.0</ele><time>2026-03-22T08:05:28.937Z</time></trkpt><trkpt lat="43.40112285137673" lon="11.724393167977558"><ele>445.0</ele><time>2026-03-22T08:05:30.937Z</time></trkpt><trkpt lat="43.40118142141164" lon="11.72435260859364"><ele>445.0</ele><time>2026-03-22T08:05:33.936Z</time></trkpt><trkpt lat="43.401297442313" lon="11.724278388101299"><ele>445.00000000000006</ele><time>2026-03-22T08:05:35.936Z</time></trkpt><trkpt lat="43.40136128255651" lon="11.724245573989359"><ele>445.0</ele><time>2026-03-22T08:05:36.936Z</time></trkpt><trkpt lat="43.40141332375821" lon="11.72418762224636"><ele>446.6666666666667</ele><time>2026-03-22T08:05:37.936Z</time></trkpt><trkpt lat="43.40146769852827" lon="11.724113603028044"><ele>448.33333333333337</ele><time>2026-03-22T08:05:47.938Z</time></trkpt><trkpt lat="43.401534328252175" lon="11.724043108715529"><ele>450.0</ele><time>2026-03-22T08:05:49.938Z</time></trkpt><trkpt lat="43.401570729397896" lon="11.723971131530897"><ele>451.66666666666663</ele><time>2026-03-22T08:05:50.938Z</time></trkpt><trkpt lat="43.40161955801253" lon="11.723899723048792"><ele>453.3333333333333</ele><time>2026-03-22T08:05:51.937Z</time></trkpt><trkpt lat="43.40167754612615" lon="11.723814142058313"><ele>455.0</ele><time>2026-03-22T08:05:52.937Z</time></trkpt><trkpt lat="43.401735013201225" lon="11.723720220051616"><ele>454.99999999999994</ele><time>2026-03-22T08:05:53.937Z</time></trkpt><trkpt lat="43.40180712747196" lon="11.723648861223305"><ele>455.0</ele><time>2026-03-22T08:05:54.937Z</time></trkpt><trkpt lat="43.40188014534016" lon="11.723571289952707"><ele>455.0</ele><time>2026-03-22T08:05:55.937Z</time></trkpt><trkpt lat="43.401959667752294" lon="11.723491458870127"><ele>455.0</ele><time>2026-03-22T08:05:56.937Z</time></trkpt><trkpt lat="43.40203026477349" lon="11.723457099686122"><ele>454.99999999999994</ele><time>2026-03-22T08:05:57.937Z</time></trkpt><trkpt lat="43.40209975136225" lon="11.723477884218418"><ele>455.0</ele><time>2026-03-22T08:05:58.937Z</time></trkpt><trkpt lat="43.40216777205213" lon="11.723524946394681"><ele>456.4</ele><time>2026-03-22T08:05:59.937Z</time></trkpt><trkpt lat="43.40226172526871" lon="11.72358986175048"><ele>457.8</ele><time>2026-03-22T08:06:00.937Z</time></trkpt><trkpt lat="43.40237689935994" lon="11.72365589922329"><ele>459.20000000000005</ele><time>2026-03-22T08:06:01.937Z</time></trkpt><trkpt lat="43.402465109747624" lon="11.723705272475561"><ele>460.6</ele><time>2026-03-22T08:06:02.937Z</time></trkpt><trkpt lat="43.40253851114492" lon="11.723733051595236"><ele>462.0</ele><time>2026-03-22T08:06:03.937Z</time></trkpt><trkpt lat="43.40265940575288" lon="11.723800114904499"><ele>462.0</ele><time>2026-03-22T08:06:05.937Z</time></trkpt><trkpt lat="43.402721003759076" lon="11.723761752339843"><ele>462.00000000000006</ele><time>2026-03-22T08:06:07.937Z</time></trkpt><trkpt lat="43.40270376017569" lon="11.723606981188105"><ele>462.00000000000006</ele><time>2026-03-22T08:06:09.937Z</time></trkpt><trkpt lat="43.40265837558201" lon="11.723486671246922"><ele>462.0</ele><time>2026-03-22T08:06:10.937Z</time></trkpt><trkpt lat="43.402600707234654" lon="11.723357851948176"><ele>462.0</ele><time>2026-03-22T08:06:11.937Z</time></trkpt><trkpt lat="43.40255654039041" lon="11.723236010008792"><ele>461.40000000000003</ele><time>2026-03-22T08:06:12.937Z</time></trkpt><trkpt lat="43.40248242222685" lon="11.723102760543632"><ele>460.80000000000007</ele><time>2026-03-22T08:06:13.937Z</time></trkpt><trkpt lat="43.402425789281" lon="11.722984876336989"><ele>460.2</ele><time>2026-03-22T08:06:14.937Z</time></trkpt><trkpt lat="43.40239681965461" lon="11.722852515373463"><ele>459.6</ele><time>2026-03-22T08:06:15.937Z</time></trkpt><trkpt lat="43.40237982580985" lon="11.722756608524481"><ele>459.0</ele><time>2026-03-22T08:06:16.937Z</time></trkpt><trkpt lat="43.4023822389841" lon="11.722654410643006"><ele>458.6</ele><time>2026-03-22T08:06:17.937Z</time></trkpt><trkpt lat="43.40235515951643" lon="11.722549726875261"><ele>458.2</ele><time>2026-03-22T08:06:18.937Z</time></trkpt><trkpt lat="43.40231533430601" lon="11.722387254094313"><ele>457.80000000000007</ele><time>2026-03-22T08:06:19.937Z</time></trkpt><trkpt lat="43.40230102954019" lon="11.722233344239095"><ele>457.40000000000003</ele><time>2026-03-22T08:06:20.937Z</time></trkpt><trkpt lat="43.402307527575594" lon="11.722135116623566"><ele>457.0</ele><time>2026-03-22T08:06:21.937Z</time></trkpt><trkpt lat="43.40239167196265" lon="11.721995515130839"><ele>457.0</ele><time>2026-03-22T08:06:23.936Z</time></trkpt><trkpt lat="43.40250848938819" lon="11.721934163120554"><ele>457.00000000000006</ele><time>2026-03-22T08:06:25.936Z</time></trkpt><trkpt lat="43.4025901421404" lon="11.72193091640981"><ele>457.00000000000006</ele><time>2026-03-22T08:06:26.936Z</time></trkpt><trkpt lat="43.40266126817103" lon="11.721910978330504"><ele>457.0</ele><time>2026-03-22T08:06:27.936Z</time></trkpt><trkpt lat="43.402776468034766" lon="11.721853383738852"><ele>457.0</ele><time>2026-03-22T08:06:28.936Z</time></trkpt><trkpt lat="43.4028865529339" lon="11.721796673121732"><ele>456.0</ele><time>2026-03-22T08:06:29.936Z</time></trkpt><trkpt lat="43.40300723372247" lon="11.721713423168842"><ele>455.00000000000006</ele><time>2026-03-22T08:06:31.936Z</time></trkpt><trkpt lat="43.40303625754821" lon="11.721624868145962"><ele>454.00000000000006</ele><time>2026-03-22T08:06:33.936Z</time></trkpt><trkpt lat="43.402940835455986" lon="11.721514003072942"><ele>453.0</ele><time>2026-03-22T08:06:35.936Z</time></trkpt><trkpt lat="43.402847521728965" lon="11.721450317908834"><ele>452.0</ele><time>2026-03-22T08:06:36.936Z</time></trkpt><trkpt lat="43.40275272577438" lon="11.721359161115958"><ele>452.0</ele><time>2026-03-22T08:06:37.936Z</time></trkpt><trkpt lat="43.402672298655965" lon="11.72123709430056"><ele>452.0</ele><time>2026-03-22T08:06:38.936Z</time></trkpt><trkpt lat="43.402569775898506" lon="11.7211246172089"><ele>452.0</ele><time>2026-03-22T08:06:39.936Z</time></trkpt><trkpt lat="43.402490934060644" lon="11.721022621096282"><ele>452.0</ele><time>2026-03-22T08:06:40.936Z</time></trkpt><trkpt lat="43.40243567814304" lon="11.720912058570152"><ele>453.40000000000003</ele><time>2026-03-22T08:06:41.936Z</time></trkpt><trkpt lat="43.402365496048304" lon="11.720833550930283"><ele>454.80000000000007</ele><time>2026-03-22T08:06:42.936Z</time></trkpt><trkpt lat="43.40228418968254" lon="11.720753883914082"><ele>456.2</ele><time>2026-03-22T08:06:43.936Z</time></trkpt><trkpt lat="43.40218975427337" lon="11.720673640047542"><ele>457.6</ele><time>2026-03-22T08:06:44.936Z</time></trkpt><trkpt lat="43.402083397432705" lon="11.720570657497635"><ele>459.0</ele><time>2026-03-22T08:06:45.936Z</time></trkpt><trkpt lat="43.40200750036077" lon="11.720472111977065"><ele>457.6666666666667</ele><time>2026-03-22T08:06:46.936Z</time></trkpt><trkpt lat="43.40193701028305" lon="11.720361835251078"><ele>456.33333333333337</ele><time>2026-03-22T08:06:47.936Z</time></trkpt><trkpt lat="43.4018779808864" lon="11.720262202402665"><ele>455.0</ele><time>2026-03-22T08:06:48.936Z</time></trkpt><trkpt lat="43.401825215664225" lon="11.72017877901301"><ele>453.6666666666667</ele><time>2026-03-22T08:06:49.936Z</time></trkpt><trkpt lat="43.401774355240555" lon="11.720100047408035"><ele>452.33333333333337</ele><time>2026-03-22T08:06:50.936Z</time></trkpt><trkpt lat="43.401724265819496" lon="11.720032245816212"><ele>451.0</ele><time>2026-03-22T08:06:51.936Z</time></trkpt><trkpt lat="43.40167530403019" lon="11.719961963316798"><ele>451.00000000000006</ele><time>2026-03-22T08:06:52.936Z</time></trkpt><trkpt lat="43.40163377734625" lon="11.719891017269795"><ele>451.0</ele><time>2026-03-22T08:06:53.936Z</time></trkpt><trkpt lat="43.40157131855783" lon="11.719822087297375"><ele>451.0</ele><time>2026-03-22T08:06:54.935Z</time></trkpt><trkpt lat="43.401500155490176" lon="11.719740422880514"><ele>451.0</ele><time>2026-03-22T08:06:55.935Z</time></trkpt><trkpt lat="43.401443799224324" lon="11.719655203862677"><ele>451.00000000000006</ele><time>2026-03-22T08:06:56.935Z</time></trkpt><trkpt lat="43.40139227795156" lon="11.7195779372891"><ele>451.0</ele><time>2026-03-22T08:06:57.935Z</time></trkpt><trkpt lat="43.40130494822516" lon="11.71946411554142"><ele>451.4</ele><time>2026-03-22T08:06:59.935Z</time></trkpt><trkpt lat="43.401210311071345" lon="11.719350244956168"><ele>451.8</ele><time>2026-03-22T08:07:01.935Z</time></trkpt><trkpt lat="43.401158371184025" lon="11.71929697526569"><ele>452.19999999999993</ele><time>2026-03-22T08:07:02.935Z</time></trkpt><trkpt lat="43.401103094069065" lon="11.719244363272681"><ele>452.59999999999997</ele><time>2026-03-22T08:07:03.935Z</time></trkpt><trkpt lat="43.40097168612602" lon="11.719150763493136"><ele>453.0</ele><time>2026-03-22T08:07:05.935Z</time></trkpt><trkpt lat="43.4009045608437" lon="11.719110855168134"><ele>453.0</ele><time>2026-03-22T08:07:06.935Z</time></trkpt><trkpt lat="43.400829584491234" lon="11.71906964386528"><ele>453.0</ele><time>2026-03-22T08:07:07.935Z</time></trkpt><trkpt lat="43.40075471886733" lon="11.71902805251894"><ele>453.0</ele><time>2026-03-22T08:07:08.935Z</time></trkpt><trkpt lat="43.40067776685369" lon="11.718985325237922"><ele>453.0</ele><time>2026-03-22T08:07:09.935Z</time></trkpt><trkpt lat="43.400601549575526" lon="11.71894601584006"><ele>453.0</ele><time>2026-03-22T08:07:10.935Z</time></trkpt><trkpt lat="43.400533280951976" lon="11.718892266198292"><ele>453.0</ele><time>2026-03-22T08:07:11.935Z</time></trkpt><trkpt lat="43.400465982432166" lon="11.71883751089208"><ele>452.5</ele><time>2026-03-22T08:07:12.935Z</time></trkpt><trkpt lat="43.40039938705747" lon="11.718781819740704"><ele>452.0</ele><time>2026-03-22T08:07:13.935Z</time></trkpt><trkpt lat="43.40033514103277" lon="11.718726320967546"><ele>451.5</ele><time>2026-03-22T08:07:14.935Z</time></trkpt><trkpt lat="43.40027778149294" lon="11.718669930396644"><ele>451.0</ele><time>2026-03-22T08:07:15.935Z</time></trkpt><trkpt lat="43.4002130655333" lon="11.718604913558545"><ele>450.5</ele><time>2026-03-22T08:07:16.935Z</time></trkpt><trkpt lat="43.400149409633514" lon="11.71854386729077"><ele>450.0</ele><time>2026-03-22T08:07:17.935Z</time></trkpt><trkpt lat="43.40008950540224" lon="11.718478780249445"><ele>451.3333333333333</ele><time>2026-03-22T08:07:18.935Z</time></trkpt><trkpt lat="43.40003020916605" lon="11.71841076704322"><ele>452.66666666666663</ele><time>2026-03-22T08:07:19.935Z</time></trkpt><trkpt lat="43.39996119604238" lon="11.718342733266896"><ele>454.0</ele><time>2026-03-22T08:07:20.935Z</time></trkpt><trkpt lat="43.39989607437705" lon="11.718278924505467"><ele>455.3333333333333</ele><time>2026-03-22T08:07:21.935Z</time></trkpt><trkpt lat="43.39982821831149" lon="11.718211775053199"><ele>456.66666666666663</ele><time>2026-03-22T08:07:22.935Z</time></trkpt><trkpt lat="43.39976103101119" lon="11.718147433067566"><ele>458.0</ele><time>2026-03-22T08:07:23.935Z</time></trkpt><trkpt lat="43.39968591964896" lon="11.718098083839681"><ele>456.3333333333333</ele><time>2026-03-22T08:07:24.935Z</time></trkpt><trkpt lat="43.399609566171684" lon="11.71805867783841"><ele>454.66666666666663</ele><time>2026-03-22T08:07:25.935Z</time></trkpt><trkpt lat="43.39953404661175" lon="11.718023793111362"><ele>453.0</ele><time>2026-03-22T08:07:26.934Z</time></trkpt><trkpt lat="43.39945694449098" lon="11.718000240762484"><ele>451.33333333333337</ele><time>2026-03-22T08:07:27.934Z</time></trkpt><trkpt lat="43.39937251307819" lon="11.717972346223416"><ele>449.6666666666667</ele><time>2026-03-22T08:07:28.934Z</time></trkpt><trkpt lat="43.39929768735285" lon="11.717939219611411"><ele>448.0</ele><time>2026-03-22T08:07:29.934Z</time></trkpt><trkpt lat="43.399211930190134" lon="11.71789774707551"><ele>448.00000000000006</ele><time>2026-03-22T08:07:30.934Z</time></trkpt><trkpt lat="43.39912467756628" lon="11.717856866376794"><ele>448.0</ele><time>2026-03-22T08:07:31.934Z</time></trkpt><trkpt lat="43.39903778473418" lon="11.717816948646052"><ele>448.0</ele><time>2026-03-22T08:07:32.934Z</time></trkpt><trkpt lat="43.39895622645177" lon="11.717780805440508"><ele>448.0</ele><time>2026-03-22T08:07:33.934Z</time></trkpt><trkpt lat="43.398875311148736" lon="11.717748323450438"><ele>448.00000000000006</ele><time>2026-03-22T08:07:34.934Z</time></trkpt><trkpt lat="43.39879303047591" lon="11.71772028440982"><ele>448.0</ele><time>2026-03-22T08:07:35.934Z</time></trkpt><trkpt lat="43.39870997084534" lon="11.717689792463016"><ele>448.50000000000006</ele><time>2026-03-22T08:07:36.934Z</time></trkpt><trkpt lat="43.398639016470895" lon="11.717659432895603"><ele>449.0</ele><time>2026-03-22T08:07:37.934Z</time></trkpt><trkpt lat="43.398560468875246" lon="11.717622756210305"><ele>449.5</ele><time>2026-03-22T08:07:38.934Z</time></trkpt><trkpt lat="43.39848732614251" lon="11.717595635550216"><ele>450.0</ele><time>2026-03-22T08:07:39.934Z</time></trkpt><trkpt lat="43.39841364966403" lon="11.717551583701821"><ele>450.50000000000006</ele><time>2026-03-22T08:07:40.934Z</time></trkpt><trkpt lat="43.3983352914934" lon="11.717505069412208"><ele>451.0</ele><time>2026-03-22T08:07:41.934Z</time></trkpt><trkpt lat="43.398257571875725" lon="11.717454519092412"><ele>451.00000000000006</ele><time>2026-03-22T08:07:42.934Z</time></trkpt><trkpt lat="43.39817701982304" lon="11.717411483965245"><ele>451.0</ele><time>2026-03-22T08:07:43.934Z</time></trkpt><trkpt lat="43.39809816824511" lon="11.717373374276837"><ele>451.0</ele><time>2026-03-22T08:07:44.937Z</time></trkpt><trkpt lat="43.3980172204432" lon="11.717354558003885"><ele>451.0</ele><time>2026-03-22T08:07:45.937Z</time></trkpt><trkpt lat="43.39793523824584" lon="11.717335693195079"><ele>451.00000000000006</ele><time>2026-03-22T08:07:46.937Z</time></trkpt><trkpt lat="43.39785151196022" lon="11.717318720238532"><ele>451.0</ele><time>2026-03-22T08:07:47.936Z</time></trkpt><trkpt lat="43.39777154532137" lon="11.71731116825342"><ele>450.1666666666667</ele><time>2026-03-22T08:07:48.937Z</time></trkpt><trkpt lat="43.39770096071149" lon="11.717306740285595"><ele>449.33333333333337</ele><time>2026-03-22T08:07:49.937Z</time></trkpt><trkpt lat="43.397621666395764" lon="11.71731117266935"><ele>448.5</ele><time>2026-03-22T08:07:50.937Z</time></trkpt><trkpt lat="43.397553249427006" lon="11.717320876969474"><ele>447.66666666666663</ele><time>2026-03-22T08:07:51.937Z</time></trkpt><trkpt lat="43.39746900278854" lon="11.717392904095256"><ele>446.8333333333333</ele><time>2026-03-22T08:07:53.937Z</time></trkpt><trkpt lat="43.39745810121251" lon="11.717515506992655"><ele>446.0</ele><time>2026-03-22T08:07:55.936Z</time></trkpt><trkpt lat="43.39749076964188" lon="11.717655904585936"><ele>444.16666666666663</ele><time>2026-03-22T08:07:57.936Z</time></trkpt><trkpt lat="43.39753303702944" lon="11.717744674033431"><ele>442.3333333333333</ele><time>2026-03-22T08:07:59.936Z</time></trkpt><trkpt lat="43.39754759424841" lon="11.717876602438169"><ele>440.5</ele><time>2026-03-22T08:08:01.936Z</time></trkpt><trkpt lat="43.397520947567685" lon="11.717972177780707"><ele>438.66666666666663</ele><time>2026-03-22T08:08:03.936Z</time></trkpt><trkpt lat="43.39745112508377" lon="11.717992780634232"><ele>436.8333333333333</ele><time>2026-03-22T08:08:04.936Z</time></trkpt><trkpt lat="43.397360930684904" lon="11.718010946688501"><ele>435.0</ele><time>2026-03-22T08:08:05.936Z</time></trkpt><trkpt lat="43.39725428664194" lon="11.718031653666543"><ele>435.0</ele><time>2026-03-22T08:08:06.936Z</time></trkpt><trkpt lat="43.39717589353661" lon="11.718042403419284"><ele>435.0</ele><time>2026-03-22T08:08:07.936Z</time></trkpt><trkpt lat="43.39708455877096" lon="11.718058587540503"><ele>435.0</ele><time>2026-03-22T08:08:08.936Z</time></trkpt><trkpt lat="43.39700843554019" lon="11.718078810577754"><ele>435.0</ele><time>2026-03-22T08:08:09.936Z</time></trkpt><trkpt lat="43.39694285740177" lon="11.718097194512493"><ele>435.0</ele><time>2026-03-22T08:08:10.936Z</time></trkpt><trkpt lat="43.39681332248979" lon="11.71812710049354"><ele>435.0</ele><time>2026-03-22T08:08:12.936Z</time></trkpt><trkpt lat="43.39672860481642" lon="11.718159461430213"><ele>435.4</ele><time>2026-03-22T08:08:13.936Z</time></trkpt><trkpt lat="43.39662336785587" lon="11.718185583345505"><ele>435.8</ele><time>2026-03-22T08:08:14.936Z</time></trkpt><trkpt lat="43.396525383461544" lon="11.718208437670151"><ele>436.20000000000005</ele><time>2026-03-22T08:08:15.936Z</time></trkpt><trkpt lat="43.396431105427254" lon="11.718227413681204"><ele>436.6</ele><time>2026-03-22T08:08:16.936Z</time></trkpt><trkpt lat="43.39635033038669" lon="11.718235506528146"><ele>437.0</ele><time>2026-03-22T08:08:17.936Z</time></trkpt><trkpt lat="43.39626365714189" lon="11.71825540850509"><ele>436.99999999999994</ele><time>2026-03-22T08:08:18.936Z</time></trkpt><trkpt lat="43.39618123530557" lon="11.718275531964538"><ele>437.0</ele><time>2026-03-22T08:08:19.936Z</time></trkpt><trkpt lat="43.3960968021983" lon="11.718281977512785"><ele>437.0</ele><time>2026-03-22T08:08:20.936Z</time></trkpt><trkpt lat="43.39601412291936" lon="11.718277706453177"><ele>437.0</ele><time>2026-03-22T08:08:21.936Z</time></trkpt><trkpt lat="43.395930632864" lon="11.718270175414968"><ele>436.99999999999994</ele><time>2026-03-22T08:08:22.936Z</time></trkpt><trkpt lat="43.39585249310549" lon="11.718233547507964"><ele>437.0</ele><time>2026-03-22T08:08:23.935Z</time></trkpt><trkpt lat="43.39576410819798" lon="11.718208358868832"><ele>436.99999999999994</ele><time>2026-03-22T08:08:24.935Z</time></trkpt><trkpt lat="43.39567586633983" lon="11.718186551004433"><ele>437.0</ele><time>2026-03-22T08:08:25.935Z</time></trkpt><trkpt lat="43.39560224257971" lon="11.718173800796531"><ele>437.0</ele><time>2026-03-22T08:08:26.935Z</time></trkpt><trkpt lat="43.39553218793914" lon="11.718158342209637"><ele>437.0</ele><time>2026-03-22T08:08:27.935Z</time></trkpt><trkpt lat="43.395468532976196" lon="11.718140510091832"><ele>436.99999999999994</ele><time>2026-03-22T08:08:28.935Z</time></trkpt><trkpt lat="43.39535047665582" lon="11.718099122919106"><ele>437.0</ele><time>2026-03-22T08:08:30.935Z</time></trkpt><trkpt lat="43.39527908550663" lon="11.718095375986186"><ele>435.6</ele><time>2026-03-22T08:08:31.935Z</time></trkpt><trkpt lat="43.39518694923132" lon="11.718096399277137"><ele>434.20000000000005</ele><time>2026-03-22T08:08:32.935Z</time></trkpt><trkpt lat="43.3950993379443" lon="11.718091755775147"><ele>432.8</ele><time>2026-03-22T08:08:33.935Z</time></trkpt><trkpt lat="43.39499884767232" lon="11.718073463327013"><ele>431.4</ele><time>2026-03-22T08:08:34.935Z</time></trkpt><trkpt lat="43.394903259281634" lon="11.718081303577653"><ele>430.0</ele><time>2026-03-22T08:08:35.935Z</time></trkpt><trkpt lat="43.394818022917136" lon="11.718087057830127"><ele>430.00000000000006</ele><time>2026-03-22T08:08:36.935Z</time></trkpt><trkpt lat="43.39474917896534" lon="11.718102901285649"><ele>430.0</ele><time>2026-03-22T08:08:37.935Z</time></trkpt><trkpt lat="43.3946859880545" lon="11.718094142292381"><ele>430.0</ele><time>2026-03-22T08:08:38.935Z</time></trkpt><trkpt lat="43.39462502989366" lon="11.718066932408272"><ele>430.0</ele><time>2026-03-22T08:08:39.935Z</time></trkpt><trkpt lat="43.39452530839719" lon="11.718046479678788"><ele>430.00000000000006</ele><time>2026-03-22T08:08:41.935Z</time></trkpt><trkpt lat="43.39441748962238" lon="11.718052135378604"><ele>430.0</ele><time>2026-03-22T08:08:43.935Z</time></trkpt><trkpt lat="43.394355508824376" lon="11.71803648396695"><ele>428.6666666666667</ele><time>2026-03-22T08:08:44.935Z</time></trkpt><trkpt lat="43.394300589367774" lon="11.71799292800279"><ele>427.33333333333337</ele><time>2026-03-22T08:08:45.935Z</time></trkpt><trkpt lat="43.39418839331413" lon="11.717926993125953"><ele>426.0</ele><time>2026-03-22T08:08:47.935Z</time></trkpt><trkpt lat="43.3941239770495" lon="11.71792525409634"><ele>424.66666666666663</ele><time>2026-03-22T08:08:48.935Z</time></trkpt><trkpt lat="43.39405810278816" lon="11.7179225453242"><ele>423.3333333333333</ele><time>2026-03-22T08:08:49.935Z</time></trkpt><trkpt lat="43.393997253693215" lon="11.717896064438136"><ele>422.0</ele><time>2026-03-22T08:08:50.935Z</time></trkpt><trkpt lat="43.39392857114205" lon="11.717865516523732"><ele>420.8</ele><time>2026-03-22T08:08:51.935Z</time></trkpt><trkpt lat="43.393811647341664" lon="11.717825515207702"><ele>419.6</ele><time>2026-03-22T08:08:53.935Z</time></trkpt><trkpt lat="43.39368297292577" lon="11.717772432041166"><ele>418.40000000000003</ele><time>2026-03-22T08:08:55.934Z</time></trkpt><trkpt lat="43.39362237035565" lon="11.71774260560014"><ele>417.20000000000005</ele><time>2026-03-22T08:08:56.934Z</time></trkpt><trkpt lat="43.39351714788678" lon="11.717709490806069"><ele>416.0</ele><time>2026-03-22T08:08:58.934Z</time></trkpt><trkpt lat="43.39339276627935" lon="11.717762182701636"><ele>415.99999999999994</ele><time>2026-03-22T08:09:00.934Z</time></trkpt><trkpt lat="43.39331986869097" lon="11.71778518465199"><ele>416.0</ele><time>2026-03-22T08:09:01.934Z</time></trkpt><trkpt lat="43.39325431833006" lon="11.717742791718699"><ele>416.0</ele><time>2026-03-22T08:09:03.934Z</time></trkpt><trkpt lat="43.39316292251518" lon="11.717711707572896"><ele>416.0</ele><time>2026-03-22T08:09:05.934Z</time></trkpt><trkpt lat="43.39305508574748" lon="11.717748122576648"><ele>415.99999999999994</ele><time>2026-03-22T08:09:07.934Z</time></trkpt><trkpt lat="43.39299153347994" lon="11.717753288920937"><ele>416.0</ele><time>2026-03-22T08:09:08.934Z</time></trkpt><trkpt lat="43.39286763863446" lon="11.717761735123393"><ele>416.4</ele><time>2026-03-22T08:09:10.934Z</time></trkpt><trkpt lat="43.39274911827867" lon="11.71780268052322"><ele>416.8</ele><time>2026-03-22T08:09:12.934Z</time></trkpt><trkpt lat="43.39263271980551" lon="11.71782871487578"><ele>417.2</ele><time>2026-03-22T08:09:14.934Z</time></trkpt><trkpt lat="43.39252821773891" lon="11.717854063637335"><ele>417.59999999999997</ele><time>2026-03-22T08:09:16.934Z</time></trkpt><trkpt lat="43.3924607071041" lon="11.717895862848746"><ele>418.0</ele><time>2026-03-22T08:09:18.934Z</time></trkpt><trkpt lat="43.39246329875137" lon="11.718014732804198"><ele>418.0</ele><time>2026-03-22T08:09:20.934Z</time></trkpt><trkpt lat="43.392445809962275" lon="11.718109580946438"><ele>418.0</ele><time>2026-03-22T08:09:22.934Z</time></trkpt><trkpt lat="43.392271214036185" lon="11.718211935535454"><ele>418.0</ele><time>2026-03-22T08:09:32.933Z</time></trkpt><trkpt lat="43.392179669501836" lon="11.718209808489865"><ele>418.0</ele><time>2026-03-22T08:09:33.933Z</time></trkpt><trkpt lat="43.39210854424472" lon="11.718213467240737"><ele>418.0</ele><time>2026-03-22T08:09:34.933Z</time></trkpt><trkpt lat="43.392044831249684" lon="11.718227963818862"><ele>417.33333333333337</ele><time>2026-03-22T08:09:35.933Z</time></trkpt><trkpt lat="43.39192866400608" lon="11.71823106096473"><ele>416.6666666666667</ele><time>2026-03-22T08:09:37.933Z</time></trkpt><trkpt lat="43.391860649504935" lon="11.718246951626519"><ele>416.0</ele><time>2026-03-22T08:09:38.933Z</time></trkpt><trkpt lat="43.39180451311885" lon="11.718298887650196"><ele>415.33333333333337</ele><time>2026-03-22T08:09:42.933Z</time></trkpt><trkpt lat="43.39178879023608" lon="11.718416163090998"><ele>414.6666666666667</ele><time>2026-03-22T08:09:45.933Z</time></trkpt><trkpt lat="43.391799637573094" lon="11.718516749781235"><ele>414.0</ele><time>2026-03-22T08:09:47.933Z</time></trkpt><trkpt lat="43.39182759321665" lon="11.718619504716774"><ele>414.0</ele><time>2026-03-22T08:09:49.933Z</time></trkpt><trkpt lat="43.3917816997781" lon="11.718703162670845"><ele>414.0</ele><time>2026-03-22T08:09:51.935Z</time></trkpt><trkpt lat="43.3917449486743" lon="11.718777345261024"><ele>414.0</ele><time>2026-03-22T08:09:52.935Z</time></trkpt><trkpt lat="43.39170469556616" lon="11.718847276905258"><ele>414.0</ele><time>2026-03-22T08:09:53.935Z</time></trkpt><trkpt lat="43.39166527855071" lon="11.718920346644959"><ele>414.0</ele><time>2026-03-22T08:09:54.934Z</time></trkpt><trkpt lat="43.39162294294899" lon="11.718995201721267"><ele>414.0</ele><time>2026-03-22T08:09:55.934Z</time></trkpt><trkpt lat="43.39159389936153" lon="11.719171228662391"><ele>414.0</ele><time>2026-03-22T08:09:57.935Z</time></trkpt><trkpt lat="43.391570872441356" lon="11.719265777013787"><ele>414.0</ele><time>2026-03-22T08:09:58.935Z</time></trkpt><trkpt lat="43.3915127626443" lon="11.719348466199948"><ele>414.0</ele><time>2026-03-22T08:10:00.935Z</time></trkpt><trkpt lat="43.391427019817684" lon="11.719410414993156"><ele>414.0</ele><time>2026-03-22T08:10:02.934Z</time></trkpt><trkpt lat="43.39136860020547" lon="11.71945660350977"><ele>414.0</ele><time>2026-03-22T08:10:03.935Z</time></trkpt><trkpt lat="43.39129471483335" lon="11.719497896569608"><ele>414.0</ele><time>2026-03-22T08:10:04.935Z</time></trkpt><trkpt lat="43.391231943972514" lon="11.719529018951244"><ele>412.6666666666667</ele><time>2026-03-22T08:10:05.935Z</time></trkpt><trkpt lat="43.39117251910724" lon="11.719572534744717"><ele>411.33333333333337</ele><time>2026-03-22T08:10:06.935Z</time></trkpt><trkpt lat="43.391091320274256" lon="11.719611336515769"><ele>410.0</ele><time>2026-03-22T08:10:07.935Z</time></trkpt><trkpt lat="43.391013602415754" lon="11.719647207220905"><ele>408.6666666666667</ele><time>2026-03-22T08:10:08.935Z</time></trkpt><trkpt lat="43.390930883199346" lon="11.719676257801707"><ele>407.33333333333337</ele><time>2026-03-22T08:10:09.935Z</time></trkpt><trkpt lat="43.390868845753076" lon="11.719716213050045"><ele>406.0</ele><time>2026-03-22T08:10:10.935Z</time></trkpt><trkpt lat="43.39080660710058" lon="11.719739456140355"><ele>406.0</ele><time>2026-03-22T08:10:11.935Z</time></trkpt><trkpt lat="43.39068727248266" lon="11.719733621697063"><ele>406.0</ele><time>2026-03-22T08:10:13.935Z</time></trkpt><trkpt lat="43.390599749742925" lon="11.719614969584732"><ele>406.0</ele><time>2026-03-22T08:10:15.935Z</time></trkpt><trkpt lat="43.39055760985477" lon="11.719532365601188"><ele>406.0</ele><time>2026-03-22T08:10:16.935Z</time></trkpt><trkpt lat="43.39048442600094" lon="11.719369303767625"><ele>407.6</ele><time>2026-03-22T08:10:18.935Z</time></trkpt><trkpt lat="43.39042670045608" lon="11.719265750567745"><ele>409.20000000000005</ele><time>2026-03-22T08:10:19.935Z</time></trkpt><trkpt lat="43.39037127639779" lon="11.719160620644049"><ele>410.79999999999995</ele><time>2026-03-22T08:10:20.935Z</time></trkpt><trkpt lat="43.39031402542547" lon="11.719059360213183"><ele>412.4</ele><time>2026-03-22T08:10:21.935Z</time></trkpt><trkpt lat="43.39025397617834" lon="11.718946167761562"><ele>414.0</ele><time>2026-03-22T08:10:22.935Z</time></trkpt><trkpt lat="43.39021086474143" lon="11.71884626161758"><ele>414.0</ele><time>2026-03-22T08:10:23.935Z</time></trkpt><trkpt lat="43.390146194031324" lon="11.718732585325128"><ele>414.0</ele><time>2026-03-22T08:10:25.935Z</time></trkpt><trkpt lat="43.39012223280527" lon="11.718600316234735"><ele>414.0</ele><time>2026-03-22T08:10:27.935Z</time></trkpt><trkpt lat="43.3901720091463" lon="11.718546508457212"><ele>414.0</ele><time>2026-03-22T08:10:28.935Z</time></trkpt><trkpt lat="43.3902413772941" lon="11.718460203020438"><ele>414.0</ele><time>2026-03-22T08:10:30.934Z</time></trkpt><trkpt lat="43.39022335894004" lon="11.71829655669705"><ele>414.6666666666667</ele><time>2026-03-22T08:10:32.934Z</time></trkpt><trkpt lat="43.39021172713729" lon="11.718200535497601"><ele>415.33333333333337</ele><time>2026-03-22T08:10:33.934Z</time></trkpt><trkpt lat="43.3902117637131" lon="11.718095260032044"><ele>416.0</ele><time>2026-03-22T08:10:34.934Z</time></trkpt><trkpt lat="43.39019639620773" lon="11.717971730022748"><ele>416.6666666666667</ele><time>2026-03-22T08:10:35.934Z</time></trkpt><trkpt lat="43.39016833213793" lon="11.717854799233978"><ele>417.33333333333337</ele><time>2026-03-22T08:10:36.934Z</time></trkpt><trkpt lat="43.39015014204634" lon="11.717763158244702"><ele>418.0</ele><time>2026-03-22T08:10:37.934Z</time></trkpt><trkpt lat="43.39016847522408" lon="11.717637780172813"><ele>418.4</ele><time>2026-03-22T08:10:39.934Z</time></trkpt><trkpt lat="43.390301079769834" lon="11.71756851656359"><ele>418.79999999999995</ele><time>2026-03-22T08:10:41.934Z</time></trkpt><trkpt lat="43.39040883654339" lon="11.717529289377016"><ele>419.2</ele><time>2026-03-22T08:10:43.934Z</time></trkpt><trkpt lat="43.39051095963967" lon="11.717569853723406"><ele>419.6</ele><time>2026-03-22T08:10:45.934Z</time></trkpt><trkpt lat="43.3905915834555" lon="11.717563489801927"><ele>420.0</ele><time>2026-03-22T08:10:47.934Z</time></trkpt><trkpt lat="43.390693840080104" lon="11.717565483775704"><ele>421.0</ele><time>2026-03-22T08:10:49.934Z</time></trkpt><trkpt lat="43.39079003072192" lon="11.717523986514362"><ele>422.0</ele><time>2026-03-22T08:10:51.934Z</time></trkpt><trkpt lat="43.39090173224008" lon="11.717491406185882"><ele>423.0</ele><time>2026-03-22T08:10:53.934Z</time></trkpt><trkpt lat="43.39098439368039" lon="11.717440376732544"><ele>424.0</ele><time>2026-03-22T08:10:54.934Z</time></trkpt><trkpt lat="43.391069313272084" lon="11.717357361320017"><ele>425.0</ele><time>2026-03-22T08:10:55.933Z</time></trkpt><trkpt lat="43.391139565803826" lon="11.71727423871203"><ele>425.0</ele><time>2026-03-22T08:10:56.93Z</time></trkpt><trkpt lat="43.391203987926204" lon="11.717223158898994"><ele>425.0</ele><time>2026-03-22T08:10:57.928Z</time></trkpt><trkpt lat="43.39127647314176" lon="11.717188977159084"><ele>425.0</ele><time>2026-03-22T08:10:58.926Z</time></trkpt><trkpt lat="43.39136841217471" lon="11.717103709505912"><ele>425.0</ele><time>2026-03-22T08:11:00.922Z</time></trkpt><trkpt lat="43.391437281271656" lon="11.717029601648234"><ele>425.0</ele><time>2026-03-22T08:11:03.917Z</time></trkpt><trkpt lat="43.391581827892765" lon="11.71695052635819"><ele>424.8</ele><time>2026-03-22T08:11:05.914Z</time></trkpt><trkpt lat="43.39166016611569" lon="11.71689292606498"><ele>424.6</ele><time>2026-03-22T08:11:06.913Z</time></trkpt><trkpt lat="43.39174027120562" lon="11.716820528242785"><ele>424.4</ele><time>2026-03-22T08:11:07.912Z</time></trkpt><trkpt lat="43.391812194770864" lon="11.716735276617367"><ele>424.2</ele><time>2026-03-22T08:11:08.911Z</time></trkpt><trkpt lat="43.39190182990895" lon="11.716654373036725"><ele>424.0</ele><time>2026-03-22T08:11:09.91Z</time></trkpt><trkpt lat="43.39196770427881" lon="11.716623188000156"><ele>424.0</ele><time>2026-03-22T08:11:10.909Z</time></trkpt><trkpt lat="43.39207850648013" lon="11.716699829247421"><ele>424.0</ele><time>2026-03-22T08:11:12.907Z</time></trkpt><trkpt lat="43.392123551040676" lon="11.716767729707092"><ele>424.0</ele><time>2026-03-22T08:11:13.906Z</time></trkpt><trkpt lat="43.392301309202054" lon="11.716605817866274"><ele>424.0</ele><time>2026-03-22T08:11:18.902Z</time></trkpt><trkpt lat="43.392330098573765" lon="11.716497511788928"><ele>424.1666666666667</ele><time>2026-03-22T08:11:19.902Z</time></trkpt><trkpt lat="43.39236445292392" lon="11.716374570265575"><ele>424.33333333333337</ele><time>2026-03-22T08:11:20.901Z</time></trkpt><trkpt lat="43.39240213562518" lon="11.716273103314876"><ele>424.5</ele><time>2026-03-22T08:11:21.901Z</time></trkpt><trkpt lat="43.392454646493626" lon="11.716176121039052"><ele>424.66666666666663</ele><time>2026-03-22T08:11:22.9Z</time></trkpt><trkpt lat="43.39251585652874" lon="11.716106532144122"><ele>424.8333333333333</ele><time>2026-03-22T08:11:23.9Z</time></trkpt><trkpt lat="43.39258582430051" lon="11.71603907344882"><ele>425.0</ele><time>2026-03-22T08:11:24.899Z</time></trkpt><trkpt lat="43.39266002279717" lon="11.71597086397342"><ele>425.0</ele><time>2026-03-22T08:11:25.899Z</time></trkpt><trkpt lat="43.39270753829792" lon="11.71590489999325"><ele>425.0</ele><time>2026-03-22T08:11:26.899Z</time></trkpt><trkpt lat="43.392751458897465" lon="11.715820899098668"><ele>425.0</ele><time>2026-03-22T08:11:27.898Z</time></trkpt><trkpt lat="43.392773504284285" lon="11.71573224516203"><ele>425.0</ele><time>2026-03-22T08:11:28.898Z</time></trkpt><trkpt lat="43.392804205592036" lon="11.715593474267383"><ele>425.0</ele><time>2026-03-22T08:11:30.897Z</time></trkpt><trkpt lat="43.392774650630855" lon="11.71535257348318"><ele>425.0</ele><time>2026-03-22T08:11:46.894Z</time></trkpt><trkpt lat="43.392771462982026" lon="11.715239174400516"><ele>425.0</ele><time>2026-03-22T08:11:47.894Z</time></trkpt><trkpt lat="43.39274817616468" lon="11.715080563369252"><ele>425.0</ele><time>2026-03-22T08:11:48.894Z</time></trkpt><trkpt lat="43.392721646054895" lon="11.71490132819091"><ele>425.0</ele><time>2026-03-22T08:11:49.894Z</time></trkpt><trkpt lat="43.39270781304498" lon="11.714760870513455"><ele>425.0</ele><time>2026-03-22T08:11:50.894Z</time></trkpt><trkpt lat="43.3927278739201" lon="11.71463621601623"><ele>425.3333333333333</ele><time>2026-03-22T08:11:51.894Z</time></trkpt><trkpt lat="43.39276672444595" lon="11.714518102027423"><ele>425.66666666666663</ele><time>2026-03-22T08:11:52.893Z</time></trkpt><trkpt lat="43.39279103406345" lon="11.714405309159519"><ele>426.0</ele><time>2026-03-22T08:11:53.893Z</time></trkpt><trkpt lat="43.392797499764754" lon="11.71431353340042"><ele>426.33333333333337</ele><time>2026-03-22T08:11:54.893Z</time></trkpt><trkpt lat="43.39280873703732" lon="11.714197097236397"><ele>426.6666666666667</ele><time>2026-03-22T08:11:56.895Z</time></trkpt><trkpt lat="43.392783304176056" lon="11.714090377600984"><ele>427.0</ele><time>2026-03-22T08:12:01.895Z</time></trkpt><trkpt lat="43.39272301865817" lon="11.714023522248816"><ele>427.40000000000003</ele><time>2026-03-22T08:12:02.894Z</time></trkpt><trkpt lat="43.392647549209535" lon="11.713948396006085"><ele>427.80000000000007</ele><time>2026-03-22T08:12:03.895Z</time></trkpt><trkpt lat="43.39255926725833" lon="11.713849953609593"><ele>428.2</ele><time>2026-03-22T08:12:04.895Z</time></trkpt><trkpt lat="43.392461503082" lon="11.713741821677166"><ele>428.6</ele><time>2026-03-22T08:12:05.894Z</time></trkpt><trkpt lat="43.39237194699959" lon="11.713650071122764"><ele>429.0</ele><time>2026-03-22T08:12:06.894Z</time></trkpt><trkpt lat="43.39229641051082" lon="11.713564144846071"><ele>429.14285714285717</ele><time>2026-03-22T08:12:07.894Z</time></trkpt><trkpt lat="43.39222708963397" lon="11.713491014841233"><ele>429.28571428571433</ele><time>2026-03-22T08:12:08.894Z</time></trkpt><trkpt lat="43.39216523602008" lon="11.713418908611692"><ele>429.42857142857144</ele><time>2026-03-22T08:12:09.895Z</time></trkpt><trkpt lat="43.39211363642121" lon="11.71334787566179"><ele>429.57142857142856</ele><time>2026-03-22T08:12:10.895Z</time></trkpt><trkpt lat="43.39206845065653" lon="11.713284944516447"><ele>429.7142857142857</ele><time>2026-03-22T08:12:11.894Z</time></trkpt><trkpt lat="43.39202843619726" lon="11.71321067845353"><ele>429.85714285714283</ele><time>2026-03-22T08:12:12.894Z</time></trkpt><trkpt lat="43.39199149651343" lon="11.713138913759847"><ele>430.0</ele><time>2026-03-22T08:12:13.894Z</time></trkpt><trkpt lat="43.39190978966525" lon="11.713010101775312"><ele>430.0</ele><time>2026-03-22T08:12:15.894Z</time></trkpt><trkpt lat="43.391822407592834" lon="11.712897862531891"><ele>430.0</ele><time>2026-03-22T08:12:17.894Z</time></trkpt><trkpt lat="43.391724860344716" lon="11.712778035928844"><ele>430.0</ele><time>2026-03-22T08:12:19.894Z</time></trkpt><trkpt lat="43.39167997169459" lon="11.712715169124214"><ele>430.0</ele><time>2026-03-22T08:12:20.894Z</time></trkpt><trkpt lat="43.3916345156952" lon="11.712652120756873"><ele>430.0</ele><time>2026-03-22T08:12:21.894Z</time></trkpt><trkpt lat="43.39157627326809" lon="11.712590722765446"><ele>430.00000000000006</ele><time>2026-03-22T08:12:22.894Z</time></trkpt><trkpt lat="43.39151744521604" lon="11.712527499848527"><ele>430.0</ele><time>2026-03-22T08:12:23.894Z</time></trkpt><trkpt lat="43.39145481519287" lon="11.712468283963931"><ele>430.0</ele><time>2026-03-22T08:12:24.894Z</time></trkpt><trkpt lat="43.39138995078978" lon="11.712408817117327"><ele>430.0</ele><time>2026-03-22T08:12:25.894Z</time></trkpt><trkpt lat="43.39131960390952" lon="11.712355447061997"><ele>430.00000000000006</ele><time>2026-03-22T08:12:26.894Z</time></trkpt><trkpt lat="43.39123643272734" lon="11.712297854651428"><ele>430.0</ele><time>2026-03-22T08:12:27.894Z</time></trkpt><trkpt lat="43.391163181355125" lon="11.712244040711976"><ele>429.6666666666667</ele><time>2026-03-22T08:12:28.894Z</time></trkpt><trkpt lat="43.39109198993244" lon="11.712193565462009"><ele>429.33333333333337</ele><time>2026-03-22T08:12:29.894Z</time></trkpt><trkpt lat="43.39101871989411" lon="11.712143949979687"><ele>429.0</ele><time>2026-03-22T08:12:30.894Z</time></trkpt><trkpt lat="43.3909481759973" lon="11.71209003709767"><ele>428.66666666666663</ele><time>2026-03-22T08:12:31.893Z</time></trkpt><trkpt lat="43.390887893775975" lon="11.712030997969343"><ele>428.3333333333333</ele><time>2026-03-22T08:12:32.893Z</time></trkpt><trkpt lat="43.39081866482899" lon="11.711975231080643"><ele>428.0</ele><time>2026-03-22T08:12:33.893Z</time></trkpt><trkpt lat="43.39075325213513" lon="11.711926742830604"><ele>427.8333333333333</ele><time>2026-03-22T08:12:34.893Z</time></trkpt><trkpt lat="43.39068756093659" lon="11.711863578876802"><ele>427.66666666666663</ele><time>2026-03-22T08:12:35.893Z</time></trkpt><trkpt lat="43.39061769005319" lon="11.711801713963448"><ele>427.5</ele><time>2026-03-22T08:12:36.893Z</time></trkpt><trkpt lat="43.39054179473091" lon="11.711751202139244"><ele>427.33333333333337</ele><time>2026-03-22T08:12:37.893Z</time></trkpt><trkpt lat="43.39046897010505" lon="11.71170413749656"><ele>427.1666666666667</ele><time>2026-03-22T08:12:38.893Z</time></trkpt><trkpt lat="43.39040401290066" lon="11.711690533231918"><ele>427.0</ele><time>2026-03-22T08:12:39.893Z</time></trkpt><trkpt lat="43.390324248972455" lon="11.711683953578449"><ele>426.50000000000006</ele><time>2026-03-22T08:12:40.893Z</time></trkpt><trkpt lat="43.39025009749316" lon="11.711691268566423"><ele>426.0</ele><time>2026-03-22T08:12:41.893Z</time></trkpt><trkpt lat="43.39016822921375" lon="11.711698459008046"><ele>425.5</ele><time>2026-03-22T08:12:42.893Z</time></trkpt><trkpt lat="43.39008316601036" lon="11.711700074836868"><ele>425.0</ele><time>2026-03-22T08:12:43.893Z</time></trkpt><trkpt lat="43.389998550896124" lon="11.711690928980628"><ele>424.50000000000006</ele><time>2026-03-22T08:12:44.893Z</time></trkpt><trkpt lat="43.389910774956114" lon="11.711667147554591"><ele>424.0</ele><time>2026-03-22T08:12:45.893Z</time></trkpt><trkpt lat="43.38981704468628" lon="11.711631460540229"><ele>424.0</ele><time>2026-03-22T08:12:46.893Z</time></trkpt><trkpt lat="43.38973582667736" lon="11.711585642997951"><ele>424.0</ele><time>2026-03-22T08:12:47.893Z</time></trkpt><trkpt lat="43.38965537099634" lon="11.711537475059789"><ele>424.0</ele><time>2026-03-22T08:12:48.893Z</time></trkpt><trkpt lat="43.389571615665" lon="11.711481096301153"><ele>424.0</ele><time>2026-03-22T08:12:49.893Z</time></trkpt><trkpt lat="43.389487215847254" lon="11.711415209061405"><ele>424.0</ele><time>2026-03-22T08:12:50.893Z</time></trkpt><trkpt lat="43.38940231929924" lon="11.711361661486178"><ele>425.0</ele><time>2026-03-22T08:12:51.893Z</time></trkpt><trkpt lat="43.38931594762553" lon="11.711300375165923"><ele>426.0</ele><time>2026-03-22T08:12:52.893Z</time></trkpt><trkpt lat="43.389232144988526" lon="11.711227195150636"><ele>427.0</ele><time>2026-03-22T08:12:53.893Z</time></trkpt><trkpt lat="43.389155456626725" lon="11.711152339319739"><ele>428.0</ele><time>2026-03-22T08:12:54.892Z</time></trkpt><trkpt lat="43.38907663236704" lon="11.711069252520993"><ele>429.0</ele><time>2026-03-22T08:12:55.892Z</time></trkpt><trkpt lat="43.389002975144784" lon="11.710985475724552"><ele>429.0</ele><time>2026-03-22T08:12:56.892Z</time></trkpt><trkpt lat="43.38894486175584" lon="11.710909972033479"><ele>429.0</ele><time>2026-03-22T08:12:57.892Z</time></trkpt><trkpt lat="43.388886414313006" lon="11.71083841760322"><ele>429.0</ele><time>2026-03-22T08:12:58.892Z</time></trkpt><trkpt lat="43.38881477635827" lon="11.710775395982479"><ele>429.0</ele><time>2026-03-22T08:12:59.892Z</time></trkpt><trkpt lat="43.388757374412556" lon="11.710707383468026"><ele>429.0</ele><time>2026-03-22T08:13:00.892Z</time></trkpt><trkpt lat="43.388703229588955" lon="11.710630492978936"><ele>429.0</ele><time>2026-03-22T08:13:01.892Z</time></trkpt><trkpt lat="43.388665360226945" lon="11.710546399896025"><ele>427.3333333333333</ele><time>2026-03-22T08:13:02.892Z</time></trkpt><trkpt lat="43.388636800462095" lon="11.710454113944355"><ele>425.66666666666663</ele><time>2026-03-22T08:13:03.892Z</time></trkpt><trkpt lat="43.38861550512709" lon="11.710347329458683"><ele>424.0</ele><time>2026-03-22T08:13:04.892Z</time></trkpt><trkpt lat="43.38860269157825" lon="11.710249544102899"><ele>422.3333333333333</ele><time>2026-03-22T08:13:05.892Z</time></trkpt><trkpt lat="43.38856258183429" lon="11.710159853826843"><ele>420.66666666666663</ele><time>2026-03-22T08:13:06.892Z</time></trkpt><trkpt lat="43.38850210935813" lon="11.710104018169694"><ele>419.0</ele><time>2026-03-22T08:13:07.892Z</time></trkpt><trkpt lat="43.38842755924257" lon="11.71005409822334"><ele>418.99999999999994</ele><time>2026-03-22T08:13:08.892Z</time></trkpt><trkpt lat="43.388356291595635" lon="11.70997896909247"><ele>419.0</ele><time>2026-03-22T08:13:09.892Z</time></trkpt><trkpt lat="43.388291714539044" lon="11.709887007105493"><ele>419.0</ele><time>2026-03-22T08:13:10.892Z</time></trkpt><trkpt lat="43.388242391698256" lon="11.70977760471073"><ele>419.0</ele><time>2026-03-22T08:13:11.892Z</time></trkpt><trkpt lat="43.388198086220854" lon="11.70968987360388"><ele>418.99999999999994</ele><time>2026-03-22T08:13:12.892Z</time></trkpt><trkpt lat="43.38813897128257" lon="11.709622254668139"><ele>419.0</ele><time>2026-03-22T08:13:13.892Z</time></trkpt><trkpt lat="43.3880612389468" lon="11.70956954711163"><ele>417.2</ele><time>2026-03-22T08:13:14.892Z</time></trkpt><trkpt lat="43.387968915346725" lon="11.709527316361836"><ele>415.4</ele><time>2026-03-22T08:13:15.892Z</time></trkpt><trkpt lat="43.38788374076438" lon="11.709498341461446"><ele>413.6</ele><time>2026-03-22T08:13:16.892Z</time></trkpt><trkpt lat="43.38779977111883" lon="11.70947324998776"><ele>411.8</ele><time>2026-03-22T08:13:17.892Z</time></trkpt><trkpt lat="43.38770133521754" lon="11.709445426617638"><ele>410.0</ele><time>2026-03-22T08:13:18.892Z</time></trkpt><trkpt lat="43.3876101017897" lon="11.709441316572413"><ele>410.0</ele><time>2026-03-22T08:13:19.891Z</time></trkpt><trkpt lat="43.38753355655505" lon="11.709456258636814"><ele>410.0</ele><time>2026-03-22T08:13:20.891Z</time></trkpt><trkpt lat="43.387446067689694" lon="11.709479922408846"><ele>410.0</ele><time>2026-03-22T08:13:21.891Z</time></trkpt><trkpt lat="43.387344877787456" lon="11.709486384173436"><ele>410.0</ele><time>2026-03-22T08:13:22.891Z</time></trkpt><trkpt lat="43.387229197652644" lon="11.70949417111267"><ele>410.0</ele><time>2026-03-22T08:13:23.891Z</time></trkpt><trkpt lat="43.387113879307904" lon="11.709497213287401"><ele>409.6</ele><time>2026-03-22T08:13:24.891Z</time></trkpt><trkpt lat="43.387006520008626" lon="11.709492345391789"><ele>409.2</ele><time>2026-03-22T08:13:25.891Z</time></trkpt><trkpt lat="43.38690369800379" lon="11.709473697086322"><ele>408.79999999999995</ele><time>2026-03-22T08:13:26.891Z</time></trkpt><trkpt lat="43.386799423223" lon="11.709416804904555"><ele>408.4</ele><time>2026-03-22T08:13:27.891Z</time></trkpt><trkpt lat="43.386688826999155" lon="11.70935627537993"><ele>408.0</ele><time>2026-03-22T08:13:28.891Z</time></trkpt><trkpt lat="43.386587568827125" lon="11.709296104696183"><ele>410.0</ele><time>2026-03-22T08:13:29.891Z</time></trkpt><trkpt lat="43.38648360020762" lon="11.709235937827247"><ele>412.0</ele><time>2026-03-22T08:13:30.891Z</time></trkpt><trkpt lat="43.38637446784899" lon="11.70919183940878"><ele>414.0</ele><time>2026-03-22T08:13:31.891Z</time></trkpt><trkpt lat="43.386254735782835" lon="11.709140156695579"><ele>416.0</ele><time>2026-03-22T08:13:32.891Z</time></trkpt><trkpt lat="43.38614182292517" lon="11.709089427555178"><ele>416.25</ele><time>2026-03-22T08:13:33.891Z</time></trkpt><trkpt lat="43.38602664679247" lon="11.709041010439654"><ele>416.5</ele><time>2026-03-22T08:13:34.891Z</time></trkpt><trkpt lat="43.38590433514278" lon="11.708982990661367"><ele>416.75</ele><time>2026-03-22T08:13:35.891Z</time></trkpt><trkpt lat="43.385794560089316" lon="11.708914869953485"><ele>417.0</ele><time>2026-03-22T08:13:36.891Z</time></trkpt><trkpt lat="43.38568760799011" lon="11.708843809391928"><ele>417.0</ele><time>2026-03-22T08:13:37.891Z</time></trkpt><trkpt lat="43.38558517956641" lon="11.708785690479408"><ele>417.0</ele><time>2026-03-22T08:13:38.891Z</time></trkpt><trkpt lat="43.385482376497976" lon="11.708745589379982"><ele>417.0</ele><time>2026-03-22T08:13:39.891Z</time></trkpt><trkpt lat="43.38539862713426" lon="11.70872016367069"><ele>417.0</ele><time>2026-03-22T08:13:40.891Z</time></trkpt><trkpt lat="43.38530595335158" lon="11.708700266316505"><ele>417.0</ele><time>2026-03-22T08:13:41.891Z</time></trkpt><trkpt lat="43.38521961468323" lon="11.708699327578808"><ele>417.0</ele><time>2026-03-22T08:13:42.891Z</time></trkpt><trkpt lat="43.38513854650093" lon="11.708711507121471"><ele>417.0</ele><time>2026-03-22T08:13:43.891Z</time></trkpt><trkpt lat="43.3850570113297" lon="11.708729954335809"><ele>417.0</ele><time>2026-03-22T08:13:44.89Z</time></trkpt><trkpt lat="43.38497335663547" lon="11.708751389952235"><ele>417.0</ele><time>2026-03-22T08:13:45.89Z</time></trkpt><trkpt lat="43.3848926917712" lon="11.708781640419353"><ele>417.0</ele><time>2026-03-22T08:13:46.89Z</time></trkpt><trkpt lat="43.38482340613554" lon="11.708810169498477"><ele>417.0</ele><time>2026-03-22T08:13:47.89Z</time></trkpt><trkpt lat="43.38475265844816" lon="11.708825309508436"><ele>416.5</ele><time>2026-03-22T08:13:48.89Z</time></trkpt><trkpt lat="43.38467946405199" lon="11.708844896379823"><ele>416.0</ele><time>2026-03-22T08:13:49.89Z</time></trkpt><trkpt lat="43.384593002897205" lon="11.70883647631908"><ele>415.5</ele><time>2026-03-22T08:13:50.89Z</time></trkpt><trkpt lat="43.384507713579154" lon="11.708789164390272"><ele>415.0</ele><time>2026-03-22T08:13:51.89Z</time></trkpt><trkpt lat="43.38443095930149" lon="11.708725159084869"><ele>414.5</ele><time>2026-03-22T08:13:52.89Z</time></trkpt><trkpt lat="43.3843632435652" lon="11.708671509826848"><ele>414.0</ele><time>2026-03-22T08:13:53.89Z</time></trkpt><trkpt lat="43.38430199131643" lon="11.708616416887459"><ele>415.6666666666667</ele><time>2026-03-22T08:13:54.89Z</time></trkpt><trkpt lat="43.38424739444081" lon="11.708570280337755"><ele>417.33333333333337</ele><time>2026-03-22T08:13:55.89Z</time></trkpt><trkpt lat="43.38417172686201" lon="11.70844339434566"><ele>419.0</ele><time>2026-03-22T08:13:57.89Z</time></trkpt><trkpt lat="43.384178533458766" lon="11.70829262555096"><ele>420.6666666666667</ele><time>2026-03-22T08:13:59.89Z</time></trkpt><trkpt lat="43.384195788644" lon="11.708195407396238"><ele>422.33333333333337</ele><time>2026-03-22T08:14:00.89Z</time></trkpt><trkpt lat="43.3842120224499" lon="11.708103558435068"><ele>424.0</ele><time>2026-03-22T08:14:01.89Z</time></trkpt><trkpt lat="43.38422189929597" lon="11.708004081089948"><ele>424.0</ele><time>2026-03-22T08:14:03.891Z</time></trkpt><trkpt lat="43.384234754120484" lon="11.707918623467897"><ele>424.0</ele><time>2026-03-22T08:14:05.892Z</time></trkpt><trkpt lat="43.384265783944734" lon="11.707798242808986"><ele>424.0</ele><time>2026-03-22T08:14:07.89Z</time></trkpt><trkpt lat="43.38431196698339" lon="11.707685898910382"><ele>424.0</ele><time>2026-03-22T08:14:09.891Z</time></trkpt><trkpt lat="43.384379566476554" lon="11.707572044074883"><ele>424.0</ele><time>2026-03-22T08:14:11.891Z</time></trkpt><trkpt lat="43.38448238758011" lon="11.707559935272485"><ele>422.6666666666667</ele><time>2026-03-22T08:14:13.891Z</time></trkpt><trkpt lat="43.384538580519624" lon="11.707481934187712"><ele>421.33333333333337</ele><time>2026-03-22T08:14:15.891Z</time></trkpt><trkpt lat="43.384498475121326" lon="11.707371166492186"><ele>420.0</ele><time>2026-03-22T08:14:17.89Z</time></trkpt><trkpt lat="43.38440892269799" lon="11.70731758912612"><ele>418.66666666666663</ele><time>2026-03-22T08:14:19.89Z</time></trkpt><trkpt lat="43.38434369023933" lon="11.707285932821755"><ele>417.3333333333333</ele><time>2026-03-22T08:14:21.89Z</time></trkpt><trkpt lat="43.38426268046896" lon="11.707252590829585"><ele>416.0</ele><time>2026-03-22T08:14:23.89Z</time></trkpt><trkpt lat="43.38419331879591" lon="11.707274354084857"><ele>416.0</ele><time>2026-03-22T08:14:25.89Z</time></trkpt><trkpt lat="43.384114941490274" lon="11.70733728212892"><ele>416.0</ele><time>2026-03-22T08:14:27.89Z</time></trkpt><trkpt lat="43.38406730726518" lon="11.707220579239376"><ele>416.0</ele><time>2026-03-22T08:14:30.89Z</time></trkpt><trkpt lat="43.3841400301004" lon="11.707126591631795"><ele>416.0</ele><time>2026-03-22T08:14:32.89Z</time></trkpt><trkpt lat="43.384205663512496" lon="11.707010213081126"><ele>416.0</ele><time>2026-03-22T08:14:34.89Z</time></trkpt><trkpt lat="43.38428059445379" lon="11.706926724495423"><ele>411.8</ele><time>2026-03-22T08:14:36.89Z</time></trkpt><trkpt lat="43.38435218433417" lon="11.706886519838841"><ele>407.6</ele><time>2026-03-22T08:14:38.89Z</time></trkpt><trkpt lat="43.38443831131729" lon="11.706829782868738"><ele>403.4</ele><time>2026-03-22T08:14:40.89Z</time></trkpt><trkpt lat="43.38452905614089" lon="11.70676607493342"><ele>399.2</ele><time>2026-03-22T08:14:42.889Z</time></trkpt><trkpt lat="43.384622648418826" lon="11.706719540138929"><ele>395.0</ele><time>2026-03-22T08:14:44.889Z</time></trkpt><trkpt lat="43.384705044053526" lon="11.706697314360408"><ele>393.6</ele><time>2026-03-22T08:14:46.889Z</time></trkpt><trkpt lat="43.38473723267014" lon="11.706619530407757"><ele>392.2</ele><time>2026-03-22T08:14:48.889Z</time></trkpt><trkpt lat="43.38472084990107" lon="11.706492315748463"><ele>390.79999999999995</ele><time>2026-03-22T08:14:50.889Z</time></trkpt><trkpt lat="43.38470614967968" lon="11.706330012672524"><ele>389.4</ele><time>2026-03-22T08:14:52.889Z</time></trkpt><trkpt lat="43.38476139715196" lon="11.706214499799856"><ele>388.0</ele><time>2026-03-22T08:14:54.889Z</time></trkpt><trkpt lat="43.38484048915179" lon="11.706165527480263"><ele>385.59999999999997</ele><time>2026-03-22T08:14:57.889Z</time></trkpt><trkpt lat="43.38485017949848" lon="11.706077611895129"><ele>383.2</ele><time>2026-03-22T08:14:59.889Z</time></trkpt><trkpt lat="43.38480937780772" lon="11.705962205499576"><ele>380.8</ele><time>2026-03-22T08:15:01.889Z</time></trkpt><trkpt lat="43.38470480253384" lon="11.705889971281369"><ele>378.4</ele><time>2026-03-22T08:15:03.889Z</time></trkpt><trkpt lat="43.38468045638341" lon="11.705751293332767"><ele>376.0</ele><time>2026-03-22T08:15:05.889Z</time></trkpt><trkpt lat="43.38478363369974" lon="11.70566905737727"><ele>376.0</ele><time>2026-03-22T08:15:07.888Z</time></trkpt><trkpt lat="43.38490257477494" lon="11.705692446315167"><ele>376.0</ele><time>2026-03-22T08:15:09.888Z</time></trkpt><trkpt lat="43.38497820226262" lon="11.705629115760948"><ele>376.0</ele><time>2026-03-22T08:15:11.888Z</time></trkpt><trkpt lat="43.38495603421007" lon="11.70546725913548"><ele>376.0</ele><time>2026-03-22T08:15:13.888Z</time></trkpt><trkpt lat="43.38489201178572" lon="11.705324632253246"><ele>374.16666666666663</ele><time>2026-03-22T08:15:15.888Z</time></trkpt><trkpt lat="43.38482374855849" lon="11.705194971955315"><ele>372.3333333333333</ele><time>2026-03-22T08:15:17.888Z</time></trkpt><trkpt lat="43.384835470283356" lon="11.705069401976356"><ele>370.5</ele><time>2026-03-22T08:15:19.888Z</time></trkpt><trkpt lat="43.384911589561376" lon="11.705060542564194"><ele>368.6666666666667</ele><time>2026-03-22T08:15:21.888Z</time></trkpt><trkpt lat="43.384996581803485" lon="11.705063631396069"><ele>366.83333333333337</ele><time>2026-03-22T08:15:23.888Z</time></trkpt><trkpt lat="43.38505431052829" lon="11.704989866362821"><ele>365.0</ele><time>2026-03-22T08:15:25.888Z</time></trkpt><trkpt lat="43.385104636582255" lon="11.704880397348068"><ele>365.0</ele><time>2026-03-22T08:15:27.888Z</time></trkpt><trkpt lat="43.38515249034491" lon="11.704797039562086"><ele>365.0</ele><time>2026-03-22T08:15:29.888Z</time></trkpt><trkpt lat="43.38519665542369" lon="11.704695963605582"><ele>365.0</ele><time>2026-03-22T08:15:32.887Z</time></trkpt><trkpt lat="43.385232952069714" lon="11.704593155503376"><ele>365.0</ele><time>2026-03-22T08:15:35.887Z</time></trkpt><trkpt lat="43.38527981296204" lon="11.70444818831386"><ele>365.0</ele><time>2026-03-22T08:15:37.887Z</time></trkpt><trkpt lat="43.38529650949332" lon="11.704363549693689"><ele>365.0</ele><time>2026-03-22T08:15:38.887Z</time></trkpt><trkpt lat="43.385300434658355" lon="11.704193551169274"><ele>362.0</ele><time>2026-03-22T08:15:40.887Z</time></trkpt><trkpt lat="43.385280207586376" lon="11.70411105418585"><ele>359.0</ele><time>2026-03-22T08:15:41.887Z</time></trkpt><trkpt lat="43.38519538476993" lon="11.703994080379937"><ele>356.0</ele><time>2026-03-22T08:15:43.887Z</time></trkpt><trkpt lat="43.38512743526884" lon="11.70398913038236"><ele>353.0</ele><time>2026-03-22T08:15:44.887Z</time></trkpt><trkpt lat="43.38506372132295" lon="11.703973735253504"><ele>350.0</ele><time>2026-03-22T08:15:45.887Z</time></trkpt><trkpt lat="43.385006345626714" lon="11.703892250892832"><ele>347.0</ele><time>2026-03-22T08:15:47.887Z</time></trkpt><trkpt lat="43.38507854775689" lon="11.703763321774908"><ele>347.0</ele><time>2026-03-22T08:15:49.887Z</time></trkpt><trkpt lat="43.38514729369642" lon="11.703723133452561"><ele>347.0</ele><time>2026-03-22T08:15:51.887Z</time></trkpt><trkpt lat="43.38521545743875" lon="11.703714482380809"><ele>347.0</ele><time>2026-03-22T08:15:54.887Z</time></trkpt><trkpt lat="43.38528446538143" lon="11.703724409322914"><ele>347.0</ele><time>2026-03-22T08:15:56.886Z</time></trkpt><trkpt lat="43.38537445846967" lon="11.703731609508594"><ele>347.0</ele><time>2026-03-22T08:15:58.886Z</time></trkpt><trkpt lat="43.38544205699626" lon="11.703644266368793"><ele>347.0</ele><time>2026-03-22T08:16:00.886Z</time></trkpt><trkpt lat="43.38535321054509" lon="11.703535651731361"><ele>344.33333333333337</ele><time>2026-03-22T08:16:02.886Z</time></trkpt><trkpt lat="43.385272999105595" lon="11.703439222443135"><ele>341.6666666666667</ele><time>2026-03-22T08:16:04.886Z</time></trkpt><trkpt lat="43.38520759230529" lon="11.703347072113559"><ele>339.0</ele><time>2026-03-22T08:16:06.886Z</time></trkpt><trkpt lat="43.38513623092888" lon="11.703283228864523"><ele>336.3333333333333</ele><time>2026-03-22T08:16:09.888Z</time></trkpt><trkpt lat="43.385081804441676" lon="11.703233355962562"><ele>333.66666666666663</ele><time>2026-03-22T08:16:11.888Z</time></trkpt><trkpt lat="43.38499656201154" lon="11.703188272783564"><ele>331.0</ele><time>2026-03-22T08:16:13.888Z</time></trkpt><trkpt lat="43.384927105268694" lon="11.703183430651869"><ele>331.0</ele><time>2026-03-22T08:16:15.888Z</time></trkpt><trkpt lat="43.38485758639809" lon="11.703133201539446"><ele>331.0</ele><time>2026-03-22T08:16:17.888Z</time></trkpt><trkpt lat="43.38489540147822" lon="11.70300610206321"><ele>331.0</ele><time>2026-03-22T08:16:19.888Z</time></trkpt><trkpt lat="43.384936547773506" lon="11.70293930700077"><ele>331.0</ele><time>2026-03-22T08:16:29.887Z</time></trkpt><trkpt lat="43.38501816753985" lon="11.702884811932172"><ele>331.0</ele><time>2026-03-22T08:16:31.887Z</time></trkpt><trkpt lat="43.38511460993059" lon="11.70283553802242"><ele>331.0</ele><time>2026-03-22T08:16:33.887Z</time></trkpt><trkpt lat="43.38520970910344" lon="11.702814514481085"><ele>331.0</ele><time>2026-03-22T08:16:35.887Z</time></trkpt><trkpt lat="43.385282818985864" lon="11.702831724781534"><ele>331.0</ele><time>2026-03-22T08:16:37.887Z</time></trkpt><trkpt lat="43.38534574678682" lon="11.7028421736146"><ele>331.0</ele><time>2026-03-22T08:16:38.887Z</time></trkpt><trkpt lat="43.385412870585185" lon="11.702858130555782"><ele>331.0</ele><time>2026-03-22T08:16:39.887Z</time></trkpt><trkpt lat="43.38553107819663" lon="11.70285807035855"><ele>331.0</ele><time>2026-03-22T08:16:41.887Z</time></trkpt><trkpt lat="43.38562890483649" lon="11.702903015626486"><ele>331.0</ele><time>2026-03-22T08:16:43.887Z</time></trkpt><trkpt lat="43.38572575762954" lon="11.702952562477215"><ele>329.8333333333333</ele><time>2026-03-22T08:16:45.887Z</time></trkpt><trkpt lat="43.38579180464642" lon="11.703007348503528"><ele>328.66666666666663</ele><time>2026-03-22T08:16:47.886Z</time></trkpt><trkpt lat="43.38586022826849" lon="11.70302434605146"><ele>327.5</ele><time>2026-03-22T08:16:49.886Z</time></trkpt><trkpt lat="43.38593270273443" lon="11.703054658738658"><ele>326.3333333333333</ele><time>2026-03-22T08:16:51.886Z</time></trkpt><trkpt lat="43.386014301637594" lon="11.703081073689182"><ele>325.1666666666667</ele><time>2026-03-22T08:16:53.886Z</time></trkpt><trkpt lat="43.38612842951055" lon="11.703131507984278"><ele>324.0</ele><time>2026-03-22T08:17:15.885Z</time></trkpt><trkpt lat="43.386244423117994" lon="11.703154009419746"><ele>324.0</ele><time>2026-03-22T08:18:01.883Z</time></trkpt><trkpt lat="43.38631564152718" lon="11.703232670804098"><ele>324.0</ele><time>2026-03-22T08:18:03.883Z</time></trkpt><trkpt lat="43.386376681320854" lon="11.703296647339808"><ele>324.0</ele><time>2026-03-22T08:18:04.883Z</time></trkpt><trkpt lat="43.38644216989468" lon="11.703324433503452"><ele>324.0</ele><time>2026-03-22T08:18:05.883Z</time></trkpt><trkpt lat="43.38654119507099" lon="11.703357311713928"><ele>324.0</ele><time>2026-03-22T08:18:06.883Z</time></trkpt><trkpt lat="43.38665780424132" lon="11.703383527592946"><ele>323.79999999999995</ele><time>2026-03-22T08:18:07.883Z</time></trkpt><trkpt lat="43.386724731441305" lon="11.703391278271187"><ele>323.59999999999997</ele><time>2026-03-22T08:18:08.883Z</time></trkpt><trkpt lat="43.38680907488069" lon="11.7034127743319"><ele>323.4</ele><time>2026-03-22T08:18:10.883Z</time></trkpt><trkpt lat="43.3869471135654" lon="11.703366809736448"><ele>323.2</ele><time>2026-03-22T08:18:12.883Z</time></trkpt><trkpt lat="43.38708075642945" lon="11.703343215289387"><ele>323.0</ele><time>2026-03-22T08:18:13.883Z</time></trkpt><trkpt lat="43.38721805081493" lon="11.703347432832446"><ele>323.0</ele><time>2026-03-22T08:18:14.886Z</time></trkpt><trkpt lat="43.38730334426478" lon="11.703354622139775"><ele>323.0</ele><time>2026-03-22T08:18:15.886Z</time></trkpt><trkpt lat="43.387378888271215" lon="11.703356922939738"><ele>323.0</ele><time>2026-03-22T08:18:16.886Z</time></trkpt><trkpt lat="43.387450072792966" lon="11.703359943352734"><ele>323.0</ele><time>2026-03-22T08:18:17.886Z</time></trkpt><trkpt lat="43.38750906850702" lon="11.703319997888181"><ele>323.0</ele><time>2026-03-22T08:18:18.886Z</time></trkpt><trkpt lat="43.38759229397986" lon="11.703291799737215"><ele>323.0</ele><time>2026-03-22T08:18:19.886Z</time></trkpt><trkpt lat="43.38766388407351" lon="11.70328586540369"><ele>323.0</ele><time>2026-03-22T08:18:20.886Z</time></trkpt><trkpt lat="43.38780633924792" lon="11.70338971274572"><ele>323.0</ele><time>2026-03-22T08:18:22.886Z</time></trkpt><trkpt lat="43.38791082904799" lon="11.703488413327994"><ele>323.0</ele><time>2026-03-22T08:18:23.886Z</time></trkpt><trkpt lat="43.38799436946166" lon="11.703567189519232"><ele>323.0</ele><time>2026-03-22T08:18:24.885Z</time></trkpt><trkpt lat="43.388052239700166" lon="11.703648002660008"><ele>325.0</ele><time>2026-03-22T08:18:25.885Z</time></trkpt><trkpt lat="43.38815701029729" lon="11.703717764134806"><ele>327.0</ele><time>2026-03-22T08:18:27.885Z</time></trkpt><trkpt lat="43.38823935039875" lon="11.703732988635755"><ele>329.0</ele><time>2026-03-22T08:18:28.885Z</time></trkpt><trkpt lat="43.388334089208094" lon="11.703752907596627"><ele>331.0</ele><time>2026-03-22T08:18:29.885Z</time></trkpt><trkpt lat="43.38843278861362" lon="11.703816041659227"><ele>333.0</ele><time>2026-03-22T08:18:30.885Z</time></trkpt><trkpt lat="43.388521557270984" lon="11.70389752151975"><ele>333.0</ele><time>2026-03-22T08:18:31.885Z</time></trkpt><trkpt lat="43.38859126924089" lon="11.703940017817951"><ele>333.0</ele><time>2026-03-22T08:18:32.885Z</time></trkpt><trkpt lat="43.38865732117391" lon="11.703960631120976"><ele>333.0</ele><time>2026-03-22T08:18:33.885Z</time></trkpt><trkpt lat="43.38872315917495" lon="11.703965686108836"><ele>333.0</ele><time>2026-03-22T08:18:34.885Z</time></trkpt><trkpt lat="43.38884052120171" lon="11.70397912781564"><ele>333.0</ele><time>2026-03-22T08:18:36.885Z</time></trkpt><trkpt lat="43.388924351727816" lon="11.704005075981936"><ele>333.0</ele><time>2026-03-22T08:18:37.885Z</time></trkpt><trkpt lat="43.38902507855991" lon="11.704013890410778"><ele>332.3333333333333</ele><time>2026-03-22T08:18:38.885Z</time></trkpt><trkpt lat="43.38912518020119" lon="11.704006405710999"><ele>331.6666666666667</ele><time>2026-03-22T08:18:39.885Z</time></trkpt><trkpt lat="43.389201214270635" lon="11.704010712852357"><ele>331.0</ele><time>2026-03-22T08:18:40.885Z</time></trkpt><trkpt lat="43.38931044749161" lon="11.704078333737327"><ele>330.33333333333337</ele><time>2026-03-22T08:18:42.885Z</time></trkpt><trkpt lat="43.38935164454657" lon="11.704146488236603"><ele>329.6666666666667</ele><time>2026-03-22T08:18:43.885Z</time></trkpt><trkpt lat="43.38940404161422" lon="11.704220593600864"><ele>329.0</ele><time>2026-03-22T08:18:44.885Z</time></trkpt><trkpt lat="43.38948651975006" lon="11.704269973173787"><ele>329.0</ele><time>2026-03-22T08:18:46.884Z</time></trkpt><trkpt lat="43.389599377825604" lon="11.704324351961095"><ele>329.0</ele><time>2026-03-22T08:18:48.884Z</time></trkpt><trkpt lat="43.38966092550361" lon="11.70436220871411"><ele>329.0</ele><time>2026-03-22T08:18:49.884Z</time></trkpt><trkpt lat="43.38971988276776" lon="11.704410333761244"><ele>329.0</ele><time>2026-03-22T08:18:50.884Z</time></trkpt><trkpt lat="43.38978981470652" lon="11.704469513369398"><ele>329.0</ele><time>2026-03-22T08:18:51.884Z</time></trkpt><trkpt lat="43.38987102891713" lon="11.704530941883155"><ele>329.0</ele><time>2026-03-22T08:18:52.884Z</time></trkpt><trkpt lat="43.38994138974355" lon="11.704581284635319"><ele>330.79999999999995</ele><time>2026-03-22T08:18:53.884Z</time></trkpt><trkpt lat="43.390007389031254" lon="11.704627683657884"><ele>332.59999999999997</ele><time>2026-03-22T08:18:54.884Z</time></trkpt><trkpt lat="43.39007117440346" lon="11.704673482110026"><ele>334.4</ele><time>2026-03-22T08:18:55.884Z</time></trkpt><trkpt lat="43.390164224129485" lon="11.704748508423211"><ele>336.2</ele><time>2026-03-22T08:18:57.884Z</time></trkpt><trkpt lat="43.39024017141" lon="11.704838729069497"><ele>338.0</ele><time>2026-03-22T08:19:01.884Z</time></trkpt><trkpt lat="43.390329150141184" lon="11.704929928556648"><ele>338.0</ele><time>2026-03-22T08:19:03.884Z</time></trkpt><trkpt lat="43.3904262559732" lon="11.705029236172992"><ele>338.0</ele><time>2026-03-22T08:19:05.884Z</time></trkpt><trkpt lat="43.39049581165177" lon="11.705088924622132"><ele>338.0</ele><time>2026-03-22T08:19:06.884Z</time></trkpt><trkpt lat="43.39057048502434" lon="11.70512270289735"><ele>338.0</ele><time>2026-03-22T08:19:07.884Z</time></trkpt><trkpt lat="43.390660467209734" lon="11.705150203086934"><ele>338.0</ele><time>2026-03-22T08:19:08.884Z</time></trkpt><trkpt lat="43.39076297325326" lon="11.7051813926421"><ele>337.59999999999997</ele><time>2026-03-22T08:19:10.884Z</time></trkpt><trkpt lat="43.39085887926288" lon="11.70518997295566"><ele>337.2</ele><time>2026-03-22T08:19:35.883Z</time></trkpt><trkpt lat="43.39092699401006" lon="11.705246300884548"><ele>336.8</ele><time>2026-03-22T08:19:59.882Z</time></trkpt><trkpt lat="43.39098732730836" lon="11.705324865191065"><ele>336.4</ele><time>2026-03-22T08:20:01.881Z</time></trkpt><trkpt lat="43.391064488941204" lon="11.705426455325727"><ele>336.0</ele><time>2026-03-22T08:20:03.881Z</time></trkpt><trkpt lat="43.39114674689173" lon="11.705516076362725"><ele>336.6</ele><time>2026-03-22T08:20:05.881Z</time></trkpt><trkpt lat="43.39122194888794" lon="11.705618444804688"><ele>337.20000000000005</ele><time>2026-03-22T08:20:07.881Z</time></trkpt><trkpt lat="43.39129742924869" lon="11.705638260649154"><ele>337.79999999999995</ele><time>2026-03-22T08:20:09.881Z</time></trkpt><trkpt lat="43.39136149013789" lon="11.705641135428001"><ele>338.4</ele><time>2026-03-22T08:20:10.881Z</time></trkpt><trkpt lat="43.39145934786093" lon="11.705675932463182"><ele>339.0</ele><time>2026-03-22T08:20:12.881Z</time></trkpt><trkpt lat="43.39157005848686" lon="11.70578644359216"><ele>339.0</ele><time>2026-03-22T08:20:14.881Z</time></trkpt><trkpt lat="43.391639191775525" lon="11.705915757189018"><ele>339.0</ele><time>2026-03-22T08:20:16.881Z</time></trkpt><trkpt lat="43.39168235548951" lon="11.706006994655846"><ele>339.0</ele><time>2026-03-22T08:20:17.881Z</time></trkpt><trkpt lat="43.391689036357405" lon="11.70610664414618"><ele>339.0</ele><time>2026-03-22T08:20:18.881Z</time></trkpt><trkpt lat="43.391690766955506" lon="11.70624078585417"><ele>339.0</ele><time>2026-03-22T08:20:19.881Z</time></trkpt><trkpt lat="43.391708850661296" lon="11.706371882479896"><ele>341.0</ele><time>2026-03-22T08:20:20.883Z</time></trkpt><trkpt lat="43.39173709788248" lon="11.70651309982717"><ele>343.0</ele><time>2026-03-22T08:20:21.883Z</time></trkpt><trkpt lat="43.39175772523431" lon="11.706614652566769"><ele>345.0</ele><time>2026-03-22T08:20:22.883Z</time></trkpt><trkpt lat="43.39177840703028" lon="11.706741389318493"><ele>347.0</ele><time>2026-03-22T08:20:24.883Z</time></trkpt><trkpt lat="43.39181034470606" lon="11.706837262701747"><ele>349.0</ele><time>2026-03-22T08:20:26.883Z</time></trkpt><trkpt lat="43.39186393936749" lon="11.706967002774046"><ele>352.0</ele><time>2026-03-22T08:20:28.883Z</time></trkpt><trkpt lat="43.39193189300909" lon="11.707101958735011"><ele>355.0</ele><time>2026-03-22T08:20:30.882Z</time></trkpt><trkpt lat="43.39198869708599" lon="11.707226053408927"><ele>358.0</ele><time>2026-03-22T08:20:32.883Z</time></trkpt><trkpt lat="43.39204537655296" lon="11.707365382744825"><ele>361.0</ele><time>2026-03-22T08:20:34.883Z</time></trkpt><trkpt lat="43.39210212604192" lon="11.707415490140102"><ele>364.0</ele><time>2026-03-22T08:20:44.882Z</time></trkpt><trkpt lat="43.392130118406115" lon="11.707506812920688"><ele>361.5</ele><time>2026-03-22T08:20:47.882Z</time></trkpt><trkpt lat="43.392173272705264" lon="11.707579775183493"><ele>359.0</ele><time>2026-03-22T08:20:49.882Z</time></trkpt><trkpt lat="43.39222146295086" lon="11.707661401352667"><ele>356.5</ele><time>2026-03-22T08:20:50.882Z</time></trkpt><trkpt lat="43.39227735215071" lon="11.707721863926668"><ele>354.0</ele><time>2026-03-22T08:20:51.882Z</time></trkpt><trkpt lat="43.39238603794984" lon="11.707765390956709"><ele>351.5</ele><time>2026-03-22T08:20:53.882Z</time></trkpt><trkpt lat="43.39245068358568" lon="11.707781743538748"><ele>349.0</ele><time>2026-03-22T08:20:54.882Z</time></trkpt><trkpt lat="43.39254506823803" lon="11.70781944238926"><ele>349.0</ele><time>2026-03-22T08:20:55.882Z</time></trkpt><trkpt lat="43.392618927334695" lon="11.707857204898383"><ele>349.0</ele><time>2026-03-22T08:20:56.882Z</time></trkpt><trkpt lat="43.39268283735306" lon="11.707889333592744"><ele>349.0</ele><time>2026-03-22T08:20:57.882Z</time></trkpt><trkpt lat="43.39275285861702" lon="11.707964286703643"><ele>349.0</ele><time>2026-03-22T08:20:59.882Z</time></trkpt><trkpt lat="43.39288293720928" lon="11.707990110005838"><ele>349.0</ele><time>2026-03-22T08:21:21.881Z</time></trkpt><trkpt lat="43.3929508348131" lon="11.708054156291237"><ele>349.0</ele><time>2026-03-22T08:21:23.881Z</time></trkpt><trkpt lat="43.39297734621705" lon="11.708133125697827"><ele>348.16666666666663</ele><time>2026-03-22T08:21:25.881Z</time></trkpt><trkpt lat="43.393007813516974" lon="11.708220399999306"><ele>347.3333333333333</ele><time>2026-03-22T08:21:37.88Z</time></trkpt><trkpt lat="43.39313019188759" lon="11.708250311560404"><ele>346.5</ele><time>2026-03-22T08:21:42.88Z</time></trkpt><trkpt lat="43.39319766021773" lon="11.708274029067725"><ele>345.6666666666667</ele><time>2026-03-22T08:21:44.88Z</time></trkpt><trkpt lat="43.393270315593284" lon="11.708313599369035"><ele>344.83333333333337</ele><time>2026-03-22T08:21:47.88Z</time></trkpt><trkpt lat="43.39333350083807" lon="11.70834446390467"><ele>344.0</ele><time>2026-03-22T08:21:53.879Z</time></trkpt><trkpt lat="43.39339782211679" lon="11.70837096724597"><ele>344.0</ele><time>2026-03-22T08:22:02.879Z</time></trkpt><trkpt lat="43.393474378155844" lon="11.708422659070918"><ele>344.0</ele><time>2026-03-22T08:23:04.878Z</time></trkpt><trkpt lat="43.39351370601287" lon="11.708528807395243"><ele>344.0</ele><time>2026-03-22T08:23:07.878Z</time></trkpt><trkpt lat="43.393601539804685" lon="11.708604303821987"><ele>344.0</ele><time>2026-03-22T08:23:09.878Z</time></trkpt><trkpt lat="43.39367839620852" lon="11.708685651021867"><ele>344.0</ele><time>2026-03-22T08:23:11.878Z</time></trkpt><trkpt lat="43.393771368622076" lon="11.70875445689007"><ele>347.33333333333337</ele><time>2026-03-22T08:23:13.878Z</time></trkpt><trkpt lat="43.393847220741165" lon="11.708810844645217"><ele>350.6666666666667</ele><time>2026-03-22T08:23:15.878Z</time></trkpt><trkpt lat="43.39390636617601" lon="11.708875536871162"><ele>354.0</ele><time>2026-03-22T08:23:17.878Z</time></trkpt><trkpt lat="43.39398635948809" lon="11.708912825512868"><ele>357.3333333333333</ele><time>2026-03-22T08:23:19.878Z</time></trkpt><trkpt lat="43.394058064376104" lon="11.708974839684082"><ele>360.66666666666663</ele><time>2026-03-22T08:23:21.878Z</time></trkpt><trkpt lat="43.39400389783834" lon="11.708926050703356"><ele>364.0</ele><time>2026-03-22T08:24:46.877Z</time></trkpt><trkpt lat="43.393941006614064" lon="11.708880405966706"><ele>364.0</ele><time>2026-03-22T08:24:51.876Z</time></trkpt><trkpt lat="43.39389081467448" lon="11.708822877135818"><ele>364.0</ele><time>2026-03-22T08:24:54.876Z</time></trkpt><trkpt lat="43.3938390917283" lon="11.708771655363254"><ele>364.0</ele><time>2026-03-22T08:24:57.876Z</time></trkpt><trkpt lat="43.39378185499894" lon="11.708685945816862"><ele>364.0</ele><time>2026-03-22T08:25:01.876Z</time></trkpt><trkpt lat="43.39373260309974" lon="11.708628718275769"><ele>364.0</ele><time>2026-03-22T08:25:04.876Z</time></trkpt><trkpt lat="43.39368170269665" lon="11.708570796793623"><ele>364.0</ele><time>2026-03-22T08:25:15.875Z</time></trkpt><trkpt lat="43.393585812840676" lon="11.70847722246579"><ele>360.0</ele><time>2026-03-22T08:26:10.873Z</time></trkpt><trkpt lat="43.39349586224249" lon="11.708450389517937"><ele>356.0</ele><time>2026-03-22T08:26:37.872Z</time></trkpt><trkpt lat="43.3935882986788" lon="11.708528037087817"><ele>352.0</ele><time>2026-03-22T08:27:48.872Z</time></trkpt><trkpt lat="43.393532601337924" lon="11.70848373624113"><ele>348.0</ele><time>2026-03-22T08:30:39.868Z</time></trkpt><trkpt lat="43.393666106903616" lon="11.708421035285681"><ele>344.0</ele><time>2026-03-22T08:31:39.868Z</time></trkpt><trkpt lat="43.393781924680205" lon="11.708375876898856"><ele>346.33333333333337</ele><time>2026-03-22T08:31:40.868Z</time></trkpt><trkpt lat="43.39393793940068" lon="11.708291766421821"><ele>348.6666666666667</ele><time>2026-03-22T08:31:41.868Z</time></trkpt><trkpt lat="43.39409617375876" lon="11.708191894921033"><ele>351.0</ele><time>2026-03-22T08:31:42.868Z</time></trkpt><trkpt lat="43.394240585883765" lon="11.708108818459356"><ele>351.0</ele><time>2026-03-22T08:31:43.868Z</time></trkpt><trkpt lat="43.39436374639441" lon="11.708069718081724"><ele>351.0</ele><time>2026-03-22T08:31:44.868Z</time></trkpt><trkpt lat="43.39449458175764" lon="11.70803994982786"><ele>351.0</ele><time>2026-03-22T08:31:45.868Z</time></trkpt><trkpt lat="43.394623661490115" lon="11.708006204567294"><ele>351.0</ele><time>2026-03-22T08:31:46.868Z</time></trkpt><trkpt lat="43.394737727669295" lon="11.70799868414291"><ele>354.0</ele><time>2026-03-22T08:31:47.868Z</time></trkpt><trkpt lat="43.394838909535316" lon="11.707976749430902"><ele>357.0</ele><time>2026-03-22T08:31:48.867Z</time></trkpt><trkpt lat="43.394953954172784" lon="11.707942464907944"><ele>360.0</ele><time>2026-03-22T08:31:49.867Z</time></trkpt><trkpt lat="43.39511396673429" lon="11.70790948469974"><ele>363.0</ele><time>2026-03-22T08:31:50.867Z</time></trkpt><trkpt lat="43.39527113312447" lon="11.70783807785333"><ele>363.0</ele><time>2026-03-22T08:31:51.867Z</time></trkpt><trkpt lat="43.39542291978604" lon="11.707772356826732"><ele>363.0</ele><time>2026-03-22T08:31:52.867Z</time></trkpt><trkpt lat="43.39553833166608" lon="11.707707696492598"><ele>363.0</ele><time>2026-03-22T08:31:53.867Z</time></trkpt><trkpt lat="43.39561915688517" lon="11.707597162593473"><ele>363.0</ele><time>2026-03-22T08:31:54.867Z</time></trkpt><trkpt lat="43.39571875019781" lon="11.707510126697763"><ele>361.2</ele><time>2026-03-22T08:31:55.867Z</time></trkpt><trkpt lat="43.39580488129955" lon="11.707458431759578"><ele>359.4</ele><time>2026-03-22T08:31:56.867Z</time></trkpt><trkpt lat="43.39588181970333" lon="11.707427021797699"><ele>357.59999999999997</ele><time>2026-03-22T08:31:57.867Z</time></trkpt><trkpt lat="43.39600126578772" lon="11.707421208030603"><ele>355.79999999999995</ele><time>2026-03-22T08:31:58.867Z</time></trkpt><trkpt lat="43.39613004161161" lon="11.707411634927979"><ele>354.0</ele><time>2026-03-22T08:31:59.867Z</time></trkpt><trkpt lat="43.39626524377232" lon="11.70742581851477"><ele>355.0</ele><time>2026-03-22T08:32:00.867Z</time></trkpt><trkpt lat="43.396375959641354" lon="11.707468398252725"><ele>356.0</ele><time>2026-03-22T08:32:01.867Z</time></trkpt><trkpt lat="43.39647777637388" lon="11.707534468350397"><ele>357.0</ele><time>2026-03-22T08:32:02.867Z</time></trkpt><trkpt lat="43.396575585511066" lon="11.707630083680264"><ele>358.0</ele><time>2026-03-22T08:32:03.867Z</time></trkpt><trkpt lat="43.39668234062853" lon="11.707702985455068"><ele>361.2</ele><time>2026-03-22T08:32:04.867Z</time></trkpt><trkpt lat="43.396777066695364" lon="11.707767624792428"><ele>364.4</ele><time>2026-03-22T08:32:05.867Z</time></trkpt><trkpt lat="43.39687264152013" lon="11.707828582563904"><ele>367.59999999999997</ele><time>2026-03-22T08:32:06.867Z</time></trkpt><trkpt lat="43.39695186534971" lon="11.707868556137246"><ele>370.79999999999995</ele><time>2026-03-22T08:32:07.867Z</time></trkpt><trkpt lat="43.39703773983166" lon="11.707874696734006"><ele>374.0</ele><time>2026-03-22T08:32:08.867Z</time></trkpt><trkpt lat="43.39711120458025" lon="11.707892851250099"><ele>372.0</ele><time>2026-03-22T08:32:09.867Z</time></trkpt><trkpt lat="43.397214695504104" lon="11.707926146740691"><ele>370.0</ele><time>2026-03-22T08:32:11.867Z</time></trkpt><trkpt lat="43.3972966569581" lon="11.707952845356884"><ele>368.0</ele><time>2026-03-22T08:32:13.866Z</time></trkpt><trkpt lat="43.39739600119727" lon="11.70805538815571"><ele>366.0</ele><time>2026-03-22T08:32:15.866Z</time></trkpt><trkpt lat="43.39754663405255" lon="11.708025312205018"><ele>366.0</ele><time>2026-03-22T08:32:20.866Z</time></trkpt><trkpt lat="43.397640627020394" lon="11.708040815971673"><ele>366.0</ele><time>2026-03-22T08:32:22.866Z</time></trkpt><trkpt lat="43.39776293910269" lon="11.708061132734764"><ele>366.0</ele><time>2026-03-22T08:32:24.866Z</time></trkpt><trkpt lat="43.39787178280606" lon="11.708024755408305"><ele>366.0</ele><time>2026-03-22T08:32:26.866Z</time></trkpt><trkpt lat="43.397937468243455" lon="11.708056929441797"><ele>366.0</ele><time>2026-03-22T08:32:28.866Z</time></trkpt><trkpt lat="43.39801719198927" lon="11.708110390643274"><ele>365.8</ele><time>2026-03-22T08:32:49.865Z</time></trkpt><trkpt lat="43.398146591886814" lon="11.708134199806507"><ele>365.6</ele><time>2026-03-22T08:32:53.865Z</time></trkpt><trkpt lat="43.398239957041" lon="11.708141583870484"><ele>365.4</ele><time>2026-03-22T08:32:54.865Z</time></trkpt><trkpt lat="43.39835554875095" lon="11.708141285537936"><ele>365.2</ele><time>2026-03-22T08:32:55.865Z</time></trkpt><trkpt lat="43.3984591661467" lon="11.708115720453433"><ele>365.0</ele><time>2026-03-22T08:32:56.867Z</time></trkpt><trkpt lat="43.39855026713387" lon="11.708117728371889"><ele>365.0</ele><time>2026-03-22T08:32:57.867Z</time></trkpt><trkpt lat="43.39864959711886" lon="11.708134226070941"><ele>365.0</ele><time>2026-03-22T08:32:58.867Z</time></trkpt><trkpt lat="43.398747197448166" lon="11.70816174033216"><ele>365.0</ele><time>2026-03-22T08:32:59.867Z</time></trkpt><trkpt lat="43.39884242317861" lon="11.708196723227863"><ele>365.0</ele><time>2026-03-22T08:33:00.866Z</time></trkpt><trkpt lat="43.39893782042149" lon="11.708256684951577"><ele>365.0</ele><time>2026-03-22T08:33:01.866Z</time></trkpt><trkpt lat="43.39905559233444" lon="11.708331507034972"><ele>364.75</ele><time>2026-03-22T08:33:02.866Z</time></trkpt><trkpt lat="43.39919210840845" lon="11.708431638521812"><ele>364.5</ele><time>2026-03-22T08:33:03.867Z</time></trkpt><trkpt lat="43.399321319597355" lon="11.70848070464813"><ele>364.25</ele><time>2026-03-22T08:33:04.867Z</time></trkpt><trkpt lat="43.3994470540783" lon="11.708507094290866"><ele>364.0</ele><time>2026-03-22T08:33:05.867Z</time></trkpt><trkpt lat="43.399538262114206" lon="11.708526657633369"><ele>364.0</ele><time>2026-03-22T08:33:06.866Z</time></trkpt><trkpt lat="43.39963372067442" lon="11.708539017456705"><ele>364.0</ele><time>2026-03-22T08:33:07.866Z</time></trkpt><trkpt lat="43.39972845847158" lon="11.708538240398468"><ele>364.0</ele><time>2026-03-22T08:33:08.866Z</time></trkpt><trkpt lat="43.39985326295558" lon="11.708551712034449"><ele>364.0</ele><time>2026-03-22T08:33:09.866Z</time></trkpt><trkpt lat="43.39998587623982" lon="11.708554171103403"><ele>364.0</ele><time>2026-03-22T08:33:10.866Z</time></trkpt><trkpt lat="43.40010607741698" lon="11.708554065873287"><ele>364.66666666666663</ele><time>2026-03-22T08:33:11.866Z</time></trkpt><trkpt lat="43.40019936610267" lon="11.708551542943844"><ele>365.3333333333333</ele><time>2026-03-22T08:33:12.866Z</time></trkpt><trkpt lat="43.40026454576316" lon="11.708561387540746"><ele>366.0</ele><time>2026-03-22T08:33:13.866Z</time></trkpt><trkpt lat="43.40032814157231" lon="11.70862999182867"><ele>366.6666666666667</ele><time>2026-03-22T08:33:49.864Z</time></trkpt><trkpt lat="43.40039625249626" lon="11.708625162249646"><ele>367.33333333333337</ele><time>2026-03-22T08:33:51.864Z</time></trkpt><trkpt lat="43.40049129047798" lon="11.70857724479218"><ele>368.0</ele><time>2026-03-22T08:33:53.864Z</time></trkpt><trkpt lat="43.40057538362555" lon="11.708521781857893"><ele>368.83333333333337</ele><time>2026-03-22T08:33:54.864Z</time></trkpt><trkpt lat="43.400673777764524" lon="11.70849245716851"><ele>369.6666666666667</ele><time>2026-03-22T08:33:55.864Z</time></trkpt><trkpt lat="43.40075763908407" lon="11.708446453399489"><ele>370.5</ele><time>2026-03-22T08:33:56.864Z</time></trkpt><trkpt lat="43.40082904617632" lon="11.708416467318743"><ele>371.3333333333333</ele><time>2026-03-22T08:33:57.864Z</time></trkpt><trkpt lat="43.40089928345215" lon="11.708396342442917"><ele>372.16666666666663</ele><time>2026-03-22T08:33:58.864Z</time></trkpt><trkpt lat="43.400970667015976" lon="11.708374800006125"><ele>373.0</ele><time>2026-03-22T08:33:59.864Z</time></trkpt><trkpt lat="43.40105784425379" lon="11.708357368664837"><ele>373.0</ele><time>2026-03-22T08:34:00.864Z</time></trkpt><trkpt lat="43.40112940806814" lon="11.708332892436646"><ele>373.0</ele><time>2026-03-22T08:34:01.864Z</time></trkpt><trkpt lat="43.40125094033387" lon="11.708264753977083"><ele>373.0</ele><time>2026-03-22T08:34:03.864Z</time></trkpt><trkpt lat="43.401348473389994" lon="11.708209011872771"><ele>373.0</ele><time>2026-03-22T08:34:04.864Z</time></trkpt><trkpt lat="43.401448620858645" lon="11.708156323902864"><ele>373.0</ele><time>2026-03-22T08:34:05.863Z</time></trkpt><trkpt lat="43.401540737934674" lon="11.708096430359692"><ele>374.16666666666663</ele><time>2026-03-22T08:34:06.863Z</time></trkpt><trkpt lat="43.40160900904158" lon="11.708012947160604"><ele>375.3333333333333</ele><time>2026-03-22T08:34:07.863Z</time></trkpt><trkpt lat="43.40167625420121" lon="11.707946245142377"><ele>376.5</ele><time>2026-03-22T08:34:08.863Z</time></trkpt><trkpt lat="43.40174215274461" lon="11.707895373510858"><ele>377.6666666666667</ele><time>2026-03-22T08:34:09.863Z</time></trkpt><trkpt lat="43.40179749364063" lon="11.707825489137328"><ele>378.83333333333337</ele><time>2026-03-22T08:34:10.863Z</time></trkpt><trkpt lat="43.40187258724012" lon="11.707718098358944"><ele>380.0</ele><time>2026-03-22T08:34:12.863Z</time></trkpt><trkpt lat="43.4018965369855" lon="11.707623639217655"><ele>380.5</ele><time>2026-03-22T08:34:13.863Z</time></trkpt><trkpt lat="43.40197541020406" lon="11.707498610819314"><ele>381.0</ele><time>2026-03-22T08:34:15.863Z</time></trkpt><trkpt lat="43.40206955415979" lon="11.707442229068368"><ele>381.5</ele><time>2026-03-22T08:34:17.863Z</time></trkpt><trkpt lat="43.40220607571946" lon="11.707396948042245"><ele>382.0</ele><time>2026-03-22T08:34:19.863Z</time></trkpt><trkpt lat="43.40229143908392" lon="11.70733737317358"><ele>382.0</ele><time>2026-03-22T08:34:20.863Z</time></trkpt><trkpt lat="43.40238090675482" lon="11.70728544896316"><ele>382.0</ele><time>2026-03-22T08:34:22.863Z</time></trkpt><trkpt lat="43.40246632228537" lon="11.707328240704584"><ele>382.0</ele><time>2026-03-22T08:34:24.863Z</time></trkpt><trkpt lat="43.40256056819754" lon="11.707302346454988"><ele>382.0</ele><time>2026-03-22T08:34:26.863Z</time></trkpt><trkpt lat="43.40264098864106" lon="11.707244359739416"><ele>382.0</ele><time>2026-03-22T08:34:27.863Z</time></trkpt><trkpt lat="43.402762237050034" lon="11.70720624856762"><ele>382.0</ele><time>2026-03-22T08:34:28.863Z</time></trkpt><trkpt lat="43.402840809475826" lon="11.707200018649969"><ele>382.0</ele><time>2026-03-22T08:34:29.863Z</time></trkpt><trkpt lat="43.40290369553394" lon="11.707169731158942"><ele>382.0</ele><time>2026-03-22T08:34:30.862Z</time></trkpt><trkpt lat="43.40296006288845" lon="11.707124575377488"><ele>382.0</ele><time>2026-03-22T08:34:31.862Z</time></trkpt><trkpt lat="43.4030857626435" lon="11.70712697019494"><ele>382.0</ele><time>2026-03-22T08:34:33.862Z</time></trkpt><trkpt lat="43.4031904992252" lon="11.707174856302345"><ele>382.0</ele><time>2026-03-22T08:34:34.862Z</time></trkpt><trkpt lat="43.40329375536431" lon="11.707198431447939"><ele>383.0</ele><time>2026-03-22T08:34:35.862Z</time></trkpt><trkpt lat="43.40337250626983" lon="11.707189002979579"><ele>384.0</ele><time>2026-03-22T08:34:36.862Z</time></trkpt><trkpt lat="43.403437402279366" lon="11.70716183702861"><ele>385.0</ele><time>2026-03-22T08:34:37.862Z</time></trkpt><trkpt lat="43.403498465649015" lon="11.707115039524984"><ele>386.0</ele><time>2026-03-22T08:34:38.862Z</time></trkpt><trkpt lat="43.40354900487779" lon="11.707057699278183"><ele>387.00000000000006</ele><time>2026-03-22T08:34:39.862Z</time></trkpt><trkpt lat="43.40359468231918" lon="11.70696987908624"><ele>388.0</ele><time>2026-03-22T08:34:40.862Z</time></trkpt><trkpt lat="43.403616149800605" lon="11.706816644596215"><ele>388.0</ele><time>2026-03-22T08:34:41.862Z</time></trkpt><trkpt lat="43.403621915676126" lon="11.706660356429357"><ele>388.0</ele><time>2026-03-22T08:34:42.862Z</time></trkpt><trkpt lat="43.403621224999725" lon="11.706535154869467"><ele>388.0</ele><time>2026-03-22T08:34:43.862Z</time></trkpt><trkpt lat="43.40360546320671" lon="11.706392085967813"><ele>388.0</ele><time>2026-03-22T08:34:45.862Z</time></trkpt><trkpt lat="43.40367103729059" lon="11.706442049482149"><ele>388.0</ele><time>2026-03-22T08:35:32.863Z</time></trkpt><trkpt lat="43.40374483117704" lon="11.70640680461151"><ele>387.4</ele><time>2026-03-22T08:35:34.863Z</time></trkpt><trkpt lat="43.40384907173481" lon="11.706429273897275"><ele>386.79999999999995</ele><time>2026-03-22T08:35:36.863Z</time></trkpt><trkpt lat="43.403934000243964" lon="11.706450106745804"><ele>386.2</ele><time>2026-03-22T08:35:38.863Z</time></trkpt><trkpt lat="43.40401085001883" lon="11.706530043108346"><ele>385.6</ele><time>2026-03-22T08:35:40.862Z</time></trkpt><trkpt lat="43.40410813173216" lon="11.706642002581093"><ele>385.0</ele><time>2026-03-22T08:35:41.862Z</time></trkpt><trkpt lat="43.40418127984944" lon="11.706743976328804"><ele>385.0</ele><time>2026-03-22T08:35:42.862Z</time></trkpt><trkpt lat="43.40426164886526" lon="11.706775090279455"><ele>385.0</ele><time>2026-03-22T08:35:44.862Z</time></trkpt><trkpt lat="43.404347519777495" lon="11.706692208611917"><ele>385.0</ele><time>2026-03-22T08:35:46.862Z</time></trkpt><trkpt lat="43.40440063951611" lon="11.706581832950091"><ele>385.0</ele><time>2026-03-22T08:35:48.862Z</time></trkpt><trkpt lat="43.4044607069442" lon="11.706428076209855"><ele>385.0</ele><time>2026-03-22T08:35:51.862Z</time></trkpt><trkpt lat="43.40450179123444" lon="11.706354914456417"><ele>385.0</ele><time>2026-03-22T08:35:52.862Z</time></trkpt><trkpt lat="43.40458179735224" lon="11.706310448587576"><ele>385.0</ele><time>2026-03-22T08:35:55.862Z</time></trkpt><trkpt lat="43.404717710978574" lon="11.706383567128317"><ele>385.0</ele><time>2026-03-22T08:35:57.862Z</time></trkpt><trkpt lat="43.40483243382032" lon="11.706420824455266"><ele>385.0</ele><time>2026-03-22T08:35:58.862Z</time></trkpt><trkpt lat="43.40494095815986" lon="11.706429701204206"><ele>387.1666666666667</ele><time>2026-03-22T08:35:59.862Z</time></trkpt><trkpt lat="43.40504495481598" lon="11.706421399794985"><ele>389.33333333333337</ele><time>2026-03-22T08:36:00.862Z</time></trkpt><trkpt lat="43.40512648659332" lon="11.706411048747329"><ele>391.5</ele><time>2026-03-22T08:36:01.862Z</time></trkpt><trkpt lat="43.405199426208966" lon="11.706348523689764"><ele>393.66666666666663</ele><time>2026-03-22T08:36:02.862Z</time></trkpt><trkpt lat="43.40525809551802" lon="11.706259549382624"><ele>395.8333333333333</ele><time>2026-03-22T08:36:03.862Z</time></trkpt><trkpt lat="43.40532534567982" lon="11.706180759766035"><ele>398.0</ele><time>2026-03-22T08:36:04.862Z</time></trkpt><trkpt lat="43.40541030407757" lon="11.706128167364064"><ele>398.0</ele><time>2026-03-22T08:36:05.861Z</time></trkpt><trkpt lat="43.40548595758408" lon="11.70609793023646"><ele>398.0</ele><time>2026-03-22T08:36:06.861Z</time></trkpt><trkpt lat="43.40557875727035" lon="11.706059824975533"><ele>398.0</ele><time>2026-03-22T08:36:08.861Z</time></trkpt><trkpt lat="43.40569810998684" lon="11.70612510453879"><ele>398.0</ele><time>2026-03-22T08:36:10.861Z</time></trkpt><trkpt lat="43.405781069963126" lon="11.70622869050459"><ele>398.0</ele><time>2026-03-22T08:36:11.861Z</time></trkpt><trkpt lat="43.405839094400065" lon="11.706282232563614"><ele>398.5</ele><time>2026-03-22T08:36:12.861Z</time></trkpt><trkpt lat="43.40596076944393" lon="11.706303776703383"><ele>399.0</ele><time>2026-03-22T08:36:14.861Z</time></trkpt><trkpt lat="43.40605509440827" lon="11.706226574038462"><ele>399.5</ele><time>2026-03-22T08:36:15.861Z</time></trkpt><trkpt lat="43.406149241725466" lon="11.70612479659847"><ele>400.0</ele><time>2026-03-22T08:36:16.861Z</time></trkpt><trkpt lat="43.40622411340868" lon="11.705996192895432"><ele>400.00000000000006</ele><time>2026-03-22T08:36:17.861Z</time></trkpt><trkpt lat="43.406277221907274" lon="11.705896819899266"><ele>400.0</ele><time>2026-03-22T08:36:18.861Z</time></trkpt><trkpt lat="43.40633887954171" lon="11.705841696720485"><ele>400.0</ele><time>2026-03-22T08:36:19.861Z</time></trkpt><trkpt lat="43.406420363442166" lon="11.705835254413682"><ele>400.0</ele><time>2026-03-22T08:36:21.861Z</time></trkpt><trkpt lat="43.40651722647698" lon="11.705894125078018"><ele>400.00000000000006</ele><time>2026-03-22T08:36:23.861Z</time></trkpt><trkpt lat="43.40660374063551" lon="11.70590611166608"><ele>400.0</ele><time>2026-03-22T08:36:24.861Z</time></trkpt><trkpt lat="43.40669404771695" lon="11.705893586995138"><ele>400.4</ele><time>2026-03-22T08:36:25.861Z</time></trkpt><trkpt lat="43.40679331045365" lon="11.705881184210671"><ele>400.8</ele><time>2026-03-22T08:36:26.861Z</time></trkpt><trkpt lat="43.40688174277131" lon="11.705884323490652"><ele>401.20000000000005</ele><time>2026-03-22T08:36:27.861Z</time></trkpt><trkpt lat="43.40697811320182" lon="11.70582982037451"><ele>401.6</ele><time>2026-03-22T08:36:30.86Z</time></trkpt><trkpt lat="43.407053229394215" lon="11.705756330208407"><ele>402.0</ele><time>2026-03-22T08:36:32.86Z</time></trkpt><trkpt lat="43.40714878408585" lon="11.70580710986554"><ele>402.5</ele><time>2026-03-22T08:36:34.86Z</time></trkpt><trkpt lat="43.40721860497824" lon="11.70586493611006"><ele>403.0</ele><time>2026-03-22T08:37:11.861Z</time></trkpt><trkpt lat="43.40729098995403" lon="11.70581236818201"><ele>403.5</ele><time>2026-03-22T08:37:15.861Z</time></trkpt><trkpt lat="43.40732456696605" lon="11.705725048806206"><ele>404.0</ele><time>2026-03-22T08:37:18.861Z</time></trkpt><trkpt lat="43.407371306457634" lon="11.705666666841834"><ele>404.5</ele><time>2026-03-22T08:37:27.861Z</time></trkpt><trkpt lat="43.40740947348128" lon="11.70555460812536"><ele>405.0</ele><time>2026-03-22T08:37:31.861Z</time></trkpt><trkpt lat="43.40748369721279" lon="11.705581423581409"><ele>405.0</ele><time>2026-03-22T08:37:35.861Z</time></trkpt><trkpt lat="43.40752889360287" lon="11.705645642892355"><ele>405.0</ele><time>2026-03-22T08:37:40.86Z</time></trkpt><trkpt lat="43.4076096605056" lon="11.705611318740736"><ele>405.0</ele><time>2026-03-22T08:37:44.86Z</time></trkpt><trkpt lat="43.40766741823572" lon="11.705536953826917"><ele>405.0</ele><time>2026-03-22T08:37:47.86Z</time></trkpt><trkpt lat="43.40771456640073" lon="11.705421802918737"><ele>405.0</ele><time>2026-03-22T08:37:50.86Z</time></trkpt><trkpt lat="43.40775842441974" lon="11.705352514345211"><ele>405.0</ele><time>2026-03-22T08:37:52.86Z</time></trkpt><trkpt lat="43.407863572020645" lon="11.705268182943799"><ele>405.6666666666667</ele><time>2026-03-22T08:37:54.86Z</time></trkpt><trkpt lat="43.407923681861696" lon="11.705233458701015"><ele>406.33333333333337</ele><time>2026-03-22T08:37:55.86Z</time></trkpt><trkpt lat="43.408010149435995" lon="11.705175836739064"><ele>407.0</ele><time>2026-03-22T08:37:57.86Z</time></trkpt><trkpt lat="43.40808417514636" lon="11.705115189934702"><ele>407.6666666666667</ele><time>2026-03-22T08:37:59.86Z</time></trkpt><trkpt lat="43.408130986005006" lon="11.705004414877157"><ele>408.33333333333337</ele><time>2026-03-22T08:38:01.86Z</time></trkpt><trkpt lat="43.40819614020361" lon="11.704964970845252"><ele>409.0</ele><time>2026-03-22T08:38:03.86Z</time></trkpt><trkpt lat="43.40849045094012" lon="11.70481392261119"><ele>412.2</ele><time>2026-03-22T08:38:05.859Z</time></trkpt><trkpt lat="43.40856190987964" lon="11.704780398822495"><ele>415.4</ele><time>2026-03-22T08:38:06.859Z</time></trkpt><trkpt lat="43.408631920128514" lon="11.70474161705332"><ele>418.6</ele><time>2026-03-22T08:38:07.859Z</time></trkpt><trkpt lat="43.408699229354816" lon="11.704720873258244"><ele>421.8</ele><time>2026-03-22T08:38:08.859Z</time></trkpt><trkpt lat="43.40881695401217" lon="11.704719116648162"><ele>425.0</ele><time>2026-03-22T08:38:10.859Z</time></trkpt><trkpt lat="43.40893680429233" lon="11.70475684471274"><ele>427.49999999999994</ele><time>2026-03-22T08:38:12.859Z</time></trkpt><trkpt lat="43.40899932949011" lon="11.704794510554215"><ele>430.0</ele><time>2026-03-22T08:38:13.859Z</time></trkpt><trkpt lat="43.40912702850326" lon="11.704767623607633"><ele>432.5</ele><time>2026-03-22T08:38:15.86Z</time></trkpt><trkpt lat="43.409192520907" lon="11.70473349693785"><ele>435.0</ele><time>2026-03-22T08:38:16.86Z</time></trkpt><trkpt lat="43.409249267237946" lon="11.704636396106412"><ele>437.49999999999994</ele><time>2026-03-22T08:38:18.86Z</time></trkpt><trkpt lat="43.40923923227908" lon="11.7045481785498"><ele>440.0</ele><time>2026-03-22T08:38:19.86Z</time></trkpt><trkpt lat="43.40925549059796" lon="11.704456083407276"><ele>441.2</ele><time>2026-03-22T08:38:20.86Z</time></trkpt><trkpt lat="43.409282199249645" lon="11.70437566495946"><ele>442.4</ele><time>2026-03-22T08:38:21.86Z</time></trkpt><trkpt lat="43.40933801803373" lon="11.704215385376838"><ele>443.6</ele><time>2026-03-22T08:38:23.861Z</time></trkpt><trkpt lat="43.40944608302907" lon="11.704121998213736"><ele>444.8</ele><time>2026-03-22T08:38:26.861Z</time></trkpt><trkpt lat="43.409522182402895" lon="11.704066915227807"><ele>446.0</ele><time>2026-03-22T08:38:27.861Z</time></trkpt><trkpt lat="43.40955715301475" lon="11.703992252230115"><ele>445.99999999999994</ele><time>2026-03-22T08:38:28.861Z</time></trkpt><trkpt lat="43.409608405602675" lon="11.703883566667137"><ele>446.0</ele><time>2026-03-22T08:38:29.861Z</time></trkpt><trkpt lat="43.40965776928875" lon="11.703794073913931"><ele>446.0</ele><time>2026-03-22T08:38:30.861Z</time></trkpt><trkpt lat="43.40972282216598" lon="11.703745804330358"><ele>446.0</ele><time>2026-03-22T08:38:31.861Z</time></trkpt><trkpt lat="43.4097908833672" lon="11.703708752024152"><ele>445.99999999999994</ele><time>2026-03-22T08:38:32.861Z</time></trkpt><trkpt lat="43.40984248001783" lon="11.703655667620147"><ele>446.0</ele><time>2026-03-22T08:38:33.861Z</time></trkpt><trkpt lat="43.40989458028509" lon="11.703582037841095"><ele>449.99999999999994</ele><time>2026-03-22T08:38:34.861Z</time></trkpt><trkpt lat="43.40993036033557" lon="11.70350423640877"><ele>454.0</ele><time>2026-03-22T08:38:35.861Z</time></trkpt><trkpt lat="43.410032615026104" lon="11.703385634010678"><ele>458.0</ele><time>2026-03-22T08:38:37.861Z</time></trkpt><trkpt lat="43.41008830556831" lon="11.703338985280313"><ele>462.0</ele><time>2026-03-22T08:38:38.861Z</time></trkpt><trkpt lat="43.410203438431225" lon="11.70335753839784"><ele>465.99999999999994</ele><time>2026-03-22T08:38:40.861Z</time></trkpt><trkpt lat="43.41024713835948" lon="11.703424518265455"><ele>470.0</ele><time>2026-03-22T08:38:41.861Z</time></trkpt><trkpt lat="43.41030777561701" lon="11.703461341137197"><ele>469.99999999999994</ele><time>2026-03-22T08:38:42.861Z</time></trkpt><trkpt lat="43.41038690209796" lon="11.703499668959354"><ele>470.0</ele><time>2026-03-22T08:38:43.861Z</time></trkpt><trkpt lat="43.41047338600264" lon="11.7035515437798"><ele>470.0</ele><time>2026-03-22T08:38:44.861Z</time></trkpt><trkpt lat="43.410554283158035" lon="11.703595401613656"><ele>470.0</ele><time>2026-03-22T08:38:45.861Z</time></trkpt><trkpt lat="43.41063265100815" lon="11.703643218168358"><ele>469.99999999999994</ele><time>2026-03-22T08:38:46.861Z</time></trkpt><trkpt lat="43.41070851108497" lon="11.70366410881502"><ele>470.0</ele><time>2026-03-22T08:38:47.861Z</time></trkpt><trkpt lat="43.41078789730507" lon="11.703693947419616"><ele>471.99999999999994</ele><time>2026-03-22T08:38:48.861Z</time></trkpt><trkpt lat="43.410851739515046" lon="11.703713480029332"><ele>474.0</ele><time>2026-03-22T08:38:49.861Z</time></trkpt><trkpt lat="43.410949616521854" lon="11.70369521697058"><ele>476.0</ele><time>2026-03-22T08:38:51.861Z</time></trkpt><trkpt lat="43.41106903822557" lon="11.703684685634778"><ele>478.0</ele><time>2026-03-22T08:38:53.861Z</time></trkpt><trkpt lat="43.411132784402" lon="11.703697406847905"><ele>479.99999999999994</ele><time>2026-03-22T08:38:54.861Z</time></trkpt><trkpt lat="43.41119368268921" lon="11.703724753631013"><ele>482.0</ele><time>2026-03-22T08:38:55.861Z</time></trkpt><trkpt lat="43.411313308217544" lon="11.70375492351265"><ele>484.99999999999994</ele><time>2026-03-22T08:38:57.861Z</time></trkpt><trkpt lat="43.41139011742326" lon="11.703777909990098"><ele>488.0</ele><time>2026-03-22T08:38:58.861Z</time></trkpt><trkpt lat="43.41146300063558" lon="11.703794507999289"><ele>491.0</ele><time>2026-03-22T08:38:59.861Z</time></trkpt><trkpt lat="43.41154676439778" lon="11.703824060649902"><ele>494.0</ele><time>2026-03-22T08:39:00.861Z</time></trkpt><trkpt lat="43.41163714703379" lon="11.7038471431556"><ele>496.99999999999994</ele><time>2026-03-22T08:39:01.861Z</time></trkpt><trkpt lat="43.41172074059177" lon="11.703852147801216"><ele>500.0</ele><time>2026-03-22T08:39:02.861Z</time></trkpt><trkpt lat="43.41179765644562" lon="11.703842424603781"><ele>499.99999999999994</ele><time>2026-03-22T08:39:03.861Z</time></trkpt><trkpt lat="43.41188195618928" lon="11.703755786772676"><ele>500.0</ele><time>2026-03-22T08:39:06.861Z</time></trkpt><trkpt lat="43.41192795341283" lon="11.70382132305078"><ele>500.0</ele><time>2026-03-22T08:39:08.861Z</time></trkpt><trkpt lat="43.411978343398445" lon="11.703875740323994"><ele>500.0</ele><time>2026-03-22T08:39:09.861Z</time></trkpt><trkpt lat="43.412057137668576" lon="11.70395904868722"><ele>499.99999999999994</ele><time>2026-03-22T08:39:11.86Z</time></trkpt><trkpt lat="43.41214217958513" lon="11.70406378980739"><ele>500.0</ele><time>2026-03-22T08:39:13.86Z</time></trkpt><trkpt lat="43.41220336803447" lon="11.70413082338849"><ele>499.99999999999994</ele><time>2026-03-22T08:39:15.862Z</time></trkpt><trkpt lat="43.41221142822644" lon="11.704278893106522"><ele>500.0</ele><time>2026-03-22T08:42:00.858Z</time></trkpt><trkpt lat="43.4122214158024" lon="11.70419141444947"><ele>500.0</ele><time>2026-03-22T08:47:22.851Z</time></trkpt><trkpt lat="43.41228718587958" lon="11.704140264379854"><ele>500.0</ele><time>2026-03-22T08:50:43.848Z</time></trkpt><trkpt lat="43.41221579513851" lon="11.704056258654829"><ele>499.99999999999994</ele><time>2026-03-22T08:50:46.848Z</time></trkpt><trkpt lat="43.41213833058033" lon="11.704011328913914"><ele>500.0</ele><time>2026-03-22T08:50:47.848Z</time></trkpt><trkpt lat="43.41207685437408" lon="11.70395359933062"><ele>500.0</ele><time>2026-03-22T08:50:48.848Z</time></trkpt><trkpt lat="43.41202234712931" lon="11.70389558691487"><ele>500.0</ele><time>2026-03-22T08:50:49.848Z</time></trkpt><trkpt lat="43.412045311218826" lon="11.703730761567158"><ele>500.0</ele><time>2026-03-22T08:50:50.848Z</time></trkpt><trkpt lat="43.411983075323626" lon="11.703684375747736"><ele>500.0</ele><time>2026-03-22T08:50:51.848Z</time></trkpt><trkpt lat="43.411899409678476" lon="11.703622639662626"><ele>500.0</ele><time>2026-03-22T08:50:53.848Z</time></trkpt><trkpt lat="43.4117831067686" lon="11.703779071767608"><ele>500.0</ele><time>2026-03-22T08:50:54.848Z</time></trkpt><trkpt lat="43.41168234574693" lon="11.70366791484636"><ele>500.0</ele><time>2026-03-22T08:50:56.847Z</time></trkpt><trkpt lat="43.41162545035099" lon="11.703602732808513"><ele>500.0</ele><time>2026-03-22T08:50:57.847Z</time></trkpt><trkpt lat="43.41156853623981" lon="11.703526613821532"><ele>500.0</ele><time>2026-03-22T08:50:58.847Z</time></trkpt><trkpt lat="43.41147452381895" lon="11.703442679296703"><ele>500.0</ele><time>2026-03-22T08:51:00.847Z</time></trkpt><trkpt lat="43.411404353051005" lon="11.703393589924804"><ele>498.6</ele><time>2026-03-22T08:51:01.847Z</time></trkpt><trkpt lat="43.41131259473549" lon="11.703331351966971"><ele>497.2</ele><time>2026-03-22T08:51:02.847Z</time></trkpt><trkpt lat="43.41124326890555" lon="11.703268373267964"><ele>495.79999999999995</ele><time>2026-03-22T08:51:03.847Z</time></trkpt><trkpt lat="43.411179857103555" lon="11.70311018683409"><ele>494.4</ele><time>2026-03-22T08:51:05.847Z</time></trkpt><trkpt lat="43.411154647302666" lon="11.703014421611742"><ele>493.0</ele><time>2026-03-22T08:51:06.847Z</time></trkpt><trkpt lat="43.41114300279085" lon="11.702917972502114"><ele>493.00000000000006</ele><time>2026-03-22T08:51:07.847Z</time></trkpt><trkpt lat="43.411115688554744" lon="11.702829320409641"><ele>493.0</ele><time>2026-03-22T08:51:08.847Z</time></trkpt><trkpt lat="43.4110972341445" lon="11.702738400790993"><ele>493.0</ele><time>2026-03-22T08:51:09.847Z</time></trkpt><trkpt lat="43.411067808438744" lon="11.70259221294204"><ele>493.0</ele><time>2026-03-22T08:51:11.847Z</time></trkpt><trkpt lat="43.41103451036618" lon="11.70251477385791"><ele>493.00000000000006</ele><time>2026-03-22T08:51:12.847Z</time></trkpt><trkpt lat="43.410993980808" lon="11.702440910942528"><ele>493.0</ele><time>2026-03-22T08:51:13.847Z</time></trkpt><trkpt lat="43.410987357991786" lon="11.702281524900188"><ele>494.00000000000006</ele><time>2026-03-22T08:51:15.847Z</time></trkpt><trkpt lat="43.41099225107295" lon="11.702142408442473"><ele>495.0</ele><time>2026-03-22T08:51:16.847Z</time></trkpt><trkpt lat="43.411015995868766" lon="11.702013159160593"><ele>496.0</ele><time>2026-03-22T08:51:17.847Z</time></trkpt><trkpt lat="43.411056744306656" lon="11.70194509456351"><ele>497.0</ele><time>2026-03-22T08:51:18.847Z</time></trkpt><trkpt lat="43.411070009874656" lon="11.70180600252105"><ele>498.00000000000006</ele><time>2026-03-22T08:51:20.847Z</time></trkpt><trkpt lat="43.41105631131791" lon="11.701690245325182"><ele>499.0</ele><time>2026-03-22T08:51:21.846Z</time></trkpt><trkpt lat="43.41102990208283" lon="11.701564540264053"><ele>499.50000000000006</ele><time>2026-03-22T08:51:22.846Z</time></trkpt><trkpt lat="43.41100641676622" lon="11.701466303319936"><ele>500.0</ele><time>2026-03-22T08:51:23.846Z</time></trkpt><trkpt lat="43.41099967126339" lon="11.701369452718462"><ele>500.5</ele><time>2026-03-22T08:51:24.846Z</time></trkpt><trkpt lat="43.41097896581355" lon="11.70127480616931"><ele>501.0</ele><time>2026-03-22T08:51:25.846Z</time></trkpt><trkpt lat="43.41095222883212" lon="11.701127179433973"><ele>501.50000000000006</ele><time>2026-03-22T08:51:27.846Z</time></trkpt><trkpt lat="43.41093855232069" lon="11.701031278274279"><ele>502.0</ele><time>2026-03-22T08:51:28.846Z</time></trkpt><trkpt lat="43.410919168368224" lon="11.700856125839277"><ele>503.1428571428571</ele><time>2026-03-22T08:51:30.846Z</time></trkpt><trkpt lat="43.410900178059705" lon="11.700766732671397"><ele>504.2857142857143</ele><time>2026-03-22T08:51:31.846Z</time></trkpt><trkpt lat="43.410897196162566" lon="11.700654193940423"><ele>505.42857142857144</ele><time>2026-03-22T08:51:32.846Z</time></trkpt><trkpt lat="43.410872404393096" lon="11.700545381935669"><ele>506.57142857142856</ele><time>2026-03-22T08:51:33.846Z</time></trkpt><trkpt lat="43.41083472123472" lon="11.70045622713484"><ele>507.7142857142858</ele><time>2026-03-22T08:51:34.846Z</time></trkpt><trkpt lat="43.410789573408856" lon="11.700385280712648"><ele>508.8571428571429</ele><time>2026-03-22T08:51:35.846Z</time></trkpt><trkpt lat="43.410738315356994" lon="11.700324637884082"><ele>510.0</ele><time>2026-03-22T08:51:36.846Z</time></trkpt><trkpt lat="43.41063802965958" lon="11.700240673018566"><ele>511.0</ele><time>2026-03-22T08:51:38.846Z</time></trkpt><trkpt lat="43.410576092202966" lon="11.7001243310544"><ele>512.0</ele><time>2026-03-22T08:51:40.846Z</time></trkpt><trkpt lat="43.41054675437012" lon="11.699965331330882"><ele>513.0</ele><time>2026-03-22T08:51:42.846Z</time></trkpt><trkpt lat="43.410563832988174" lon="11.699810404321546"><ele>514.0</ele><time>2026-03-22T08:51:44.846Z</time></trkpt><trkpt lat="43.41058027673892" lon="11.69971743747954"><ele>515.0</ele><time>2026-03-22T08:51:45.846Z</time></trkpt><trkpt lat="43.410601075040255" lon="11.699632584224497"><ele>515.0</ele><time>2026-03-22T08:51:46.845Z</time></trkpt><trkpt lat="43.4106384644186" lon="11.699492354575582"><ele>515.0</ele><time>2026-03-22T08:51:48.845Z</time></trkpt><trkpt lat="43.4106873777409" lon="11.699325603613195"><ele>515.0</ele><time>2026-03-22T08:51:50.847Z</time></trkpt><trkpt lat="43.410741119545726" lon="11.699172530107806"><ele>515.0</ele><time>2026-03-22T08:51:52.848Z</time></trkpt><trkpt lat="43.41073990040734" lon="11.699048792995761"><ele>515.0</ele><time>2026-03-22T08:51:54.848Z</time></trkpt><trkpt lat="43.410645780011585" lon="11.698976403321836"><ele>515.0</ele><time>2026-03-22T08:51:56.847Z</time></trkpt><trkpt lat="43.41057087383905" lon="11.698937910361487"><ele>515.0</ele><time>2026-03-22T08:51:57.847Z</time></trkpt><trkpt lat="43.41049203740278" lon="11.698864540383761"><ele>515.0</ele><time>2026-03-22T08:51:58.848Z</time></trkpt><trkpt lat="43.41044546672188" lon="11.698772765765481"><ele>515.0</ele><time>2026-03-22T08:51:59.847Z</time></trkpt><trkpt lat="43.41035460579624" lon="11.69873464935317"><ele>510.2</ele><time>2026-03-22T08:52:01.848Z</time></trkpt><trkpt lat="43.410273746327825" lon="11.698819672203774"><ele>505.4</ele><time>2026-03-22T08:52:03.847Z</time></trkpt><trkpt lat="43.41017151573107" lon="11.698891773012923"><ele>500.6</ele><time>2026-03-22T08:52:05.847Z</time></trkpt><trkpt lat="43.41010515051772" lon="11.698933997692665"><ele>495.8</ele><time>2026-03-22T08:52:06.847Z</time></trkpt><trkpt lat="43.410032658713014" lon="11.698950085328985"><ele>491.0</ele><time>2026-03-22T08:52:07.847Z</time></trkpt><trkpt lat="43.4099272900755" lon="11.698996080931467"><ele>490.99999999999994</ele><time>2026-03-22T08:52:09.847Z</time></trkpt><trkpt lat="43.40986315382373" lon="11.698973455884408"><ele>491.0</ele><time>2026-03-22T08:52:10.847Z</time></trkpt><trkpt lat="43.40980887839891" lon="11.698917443608641"><ele>491.0</ele><time>2026-03-22T08:52:11.847Z</time></trkpt><trkpt lat="43.40974952042853" lon="11.698781964919089"><ele>491.0</ele><time>2026-03-22T08:52:13.846Z</time></trkpt><trkpt lat="43.40972348461706" lon="11.698681195130096"><ele>490.99999999999994</ele><time>2026-03-22T08:52:14.846Z</time></trkpt><trkpt lat="43.40970345030673" lon="11.698583302814813"><ele>491.0</ele><time>2026-03-22T08:52:15.846Z</time></trkpt><trkpt lat="43.40967802453884" lon="11.698499763031913"><ele>490.3333333333333</ele><time>2026-03-22T08:52:16.846Z</time></trkpt><trkpt lat="43.40966171755829" lon="11.698409382813413"><ele>489.66666666666663</ele><time>2026-03-22T08:52:17.846Z</time></trkpt><trkpt lat="43.40961440708262" lon="11.698276701668174"><ele>489.0</ele><time>2026-03-22T08:52:19.846Z</time></trkpt><trkpt lat="43.40956244578278" lon="11.698142819317821"><ele>488.33333333333337</ele><time>2026-03-22T08:52:21.846Z</time></trkpt><trkpt lat="43.4094944557651" lon="11.698116677646798"><ele>487.6666666666667</ele><time>2026-03-22T08:52:23.846Z</time></trkpt><trkpt lat="43.40943105657382" lon="11.69813339366138"><ele>487.0</ele><time>2026-03-22T08:52:25.846Z</time></trkpt><trkpt lat="43.40936319775925" lon="11.6981550823889"><ele>487.00000000000006</ele><time>2026-03-22T08:52:27.846Z</time></trkpt><trkpt lat="43.409284615674466" lon="11.69813407650942"><ele>487.0</ele><time>2026-03-22T08:52:30.846Z</time></trkpt><trkpt lat="43.40921869014624" lon="11.698110664140724"><ele>487.0</ele><time>2026-03-22T08:52:32.846Z</time></trkpt><trkpt lat="43.409145638626256" lon="11.698097049207131"><ele>487.0</ele><time>2026-03-22T08:52:34.846Z</time></trkpt><trkpt lat="43.40907549721979" lon="11.698175738115475"><ele>487.00000000000006</ele><time>2026-03-22T08:52:36.846Z</time></trkpt><trkpt lat="43.4089972711931" lon="11.69819045026395"><ele>487.0</ele><time>2026-03-22T08:52:38.845Z</time></trkpt><trkpt lat="43.40893091895226" lon="11.698149588886208"><ele>486.83333333333337</ele><time>2026-03-22T08:52:40.845Z</time></trkpt><trkpt lat="43.40881560432407" lon="11.698117285006548"><ele>486.6666666666667</ele><time>2026-03-22T08:52:42.845Z</time></trkpt><trkpt lat="43.40872028098168" lon="11.698146292182352"><ele>486.5</ele><time>2026-03-22T08:52:44.845Z</time></trkpt><trkpt lat="43.40865373771431" lon="11.698143209504156"><ele>486.33333333333337</ele><time>2026-03-22T08:52:45.845Z</time></trkpt><trkpt lat="43.40857005253179" lon="11.698116957967736"><ele>486.1666666666667</ele><time>2026-03-22T08:52:47.845Z</time></trkpt><trkpt lat="43.40851987876889" lon="11.698059751078034"><ele>486.0</ele><time>2026-03-22T08:52:48.845Z</time></trkpt><trkpt lat="43.40846322264404" lon="11.697982672182576"><ele>486.0</ele><time>2026-03-22T08:52:50.845Z</time></trkpt><trkpt lat="43.408333691804444" lon="11.697940109749535"><ele>486.0</ele><time>2026-03-22T08:52:52.845Z</time></trkpt><trkpt lat="43.40825199064334" lon="11.697931053256731"><ele>486.0</ele><time>2026-03-22T08:52:53.845Z</time></trkpt><trkpt lat="43.40815639720001" lon="11.697920547038555"><ele>486.0</ele><time>2026-03-22T08:52:54.845Z</time></trkpt><trkpt lat="43.408077143513545" lon="11.697903166256616"><ele>486.0</ele><time>2026-03-22T08:52:55.845Z</time></trkpt><trkpt lat="43.40800505131103" lon="11.697799095067973"><ele>487.3333333333333</ele><time>2026-03-22T08:52:57.845Z</time></trkpt><trkpt lat="43.407969414660656" lon="11.697726750787707"><ele>488.66666666666663</ele><time>2026-03-22T08:52:58.845Z</time></trkpt><trkpt lat="43.40792329780316" lon="11.69760359428991"><ele>490.0</ele><time>2026-03-22T08:53:00.845Z</time></trkpt><trkpt lat="43.4078245193394" lon="11.697610874067278"><ele>491.3333333333333</ele><time>2026-03-22T08:53:02.845Z</time></trkpt><trkpt lat="43.40776656043172" lon="11.697658101661498"><ele>492.66666666666663</ele><time>2026-03-22T08:53:03.845Z</time></trkpt><trkpt lat="43.407705551352976" lon="11.697718043628935"><ele>494.0</ele><time>2026-03-22T08:53:04.844Z</time></trkpt><trkpt lat="43.4076370757293" lon="11.697755563905117"><ele>493.99999999999994</ele><time>2026-03-22T08:53:05.844Z</time></trkpt><trkpt lat="43.40756249778848" lon="11.697756855395198"><ele>494.0</ele><time>2026-03-22T08:53:09.844Z</time></trkpt><trkpt lat="43.40747956706239" lon="11.69780068918382"><ele>494.0</ele><time>2026-03-22T08:53:12.844Z</time></trkpt><trkpt lat="43.40740634766381" lon="11.69781388490978"><ele>494.0</ele><time>2026-03-22T08:53:14.844Z</time></trkpt><trkpt lat="43.407317202064" lon="11.697828232769165"><ele>493.99999999999994</ele><time>2026-03-22T08:53:17.844Z</time></trkpt><trkpt lat="43.40724252378367" lon="11.69788634577399"><ele>494.0</ele><time>2026-03-22T08:53:22.844Z</time></trkpt><trkpt lat="43.407191115856136" lon="11.697975017524849"><ele>496.8333333333333</ele><time>2026-03-22T08:53:25.844Z</time></trkpt><trkpt lat="43.40715964204307" lon="11.698051845909383"><ele>499.66666666666663</ele><time>2026-03-22T08:53:27.844Z</time></trkpt><trkpt lat="43.407083205988236" lon="11.69814293153819"><ele>502.5</ele><time>2026-03-22T08:53:29.925Z</time></trkpt><trkpt lat="43.40704905329908" lon="11.698216699390587"><ele>505.33333333333337</ele><time>2026-03-22T08:53:31.926Z</time></trkpt><trkpt lat="43.40698544493265" lon="11.698280725823928"><ele>508.1666666666667</ele><time>2026-03-22T08:53:33.926Z</time></trkpt><trkpt lat="43.40692164374369" lon="11.698309270060737"><ele>511.0</ele><time>2026-03-22T08:53:35.926Z</time></trkpt><trkpt lat="43.40684697121411" lon="11.698270558199525"><ele>511.00000000000006</ele><time>2026-03-22T08:53:38.926Z</time></trkpt><trkpt lat="43.406800326387" lon="11.698212152748424"><ele>511.0</ele><time>2026-03-22T08:53:39.926Z</time></trkpt><trkpt lat="43.406677215219275" lon="11.698212186028066"><ele>511.0</ele><time>2026-03-22T08:53:42.926Z</time></trkpt><trkpt lat="43.40662274491192" lon="11.698277611351253"><ele>511.0</ele><time>2026-03-22T08:53:45.926Z</time></trkpt><trkpt lat="43.406550180903245" lon="11.698281491680081"><ele>511.00000000000006</ele><time>2026-03-22T08:53:47.926Z</time></trkpt><trkpt lat="43.40645704324689" lon="11.698271931061381"><ele>511.0</ele><time>2026-03-22T08:53:49.926Z</time></trkpt><trkpt lat="43.40633025771504" lon="11.698237425645138"><ele>513.8333333333334</ele><time>2026-03-22T08:53:50.926Z</time></trkpt><trkpt lat="43.40623370740762" lon="11.698213327244686"><ele>516.6666666666667</ele><time>2026-03-22T08:53:51.926Z</time></trkpt><trkpt lat="43.40615186809631" lon="11.698176721435052"><ele>519.5</ele><time>2026-03-22T08:53:52.926Z</time></trkpt><trkpt lat="43.40610533366243" lon="11.698114298533719"><ele>522.3333333333334</ele><time>2026-03-22T08:53:53.926Z</time></trkpt><trkpt lat="43.406058298222085" lon="11.698047797761177"><ele>525.1666666666666</ele><time>2026-03-22T08:53:54.926Z</time></trkpt><trkpt lat="43.40599044405017" lon="11.698023372365933"><ele>528.0</ele><time>2026-03-22T08:53:56.929Z</time></trkpt><trkpt lat="43.40591819716495" lon="11.697996482893378"><ele>528.0</ele><time>2026-03-22T08:53:58.929Z</time></trkpt><trkpt lat="43.40583965608523" lon="11.6979723850349"><ele>528.0</ele><time>2026-03-22T08:54:00.928Z</time></trkpt><trkpt lat="43.40577123771447" lon="11.698012589226519"><ele>528.0</ele><time>2026-03-22T08:54:03.928Z</time></trkpt><trkpt lat="43.405790320456056" lon="11.698141964936976"><ele>528.0</ele><time>2026-03-22T08:54:06.928Z</time></trkpt><trkpt lat="43.40582258962694" lon="11.698280621732412"><ele>528.0</ele><time>2026-03-22T08:54:07.929Z</time></trkpt><trkpt lat="43.40585179901125" lon="11.698449761258154"><ele>527.8333333333334</ele><time>2026-03-22T08:54:08.929Z</time></trkpt><trkpt lat="43.40587012829409" lon="11.698596489536985"><ele>527.6666666666666</ele><time>2026-03-22T08:54:09.929Z</time></trkpt><trkpt lat="43.40588498503838" lon="11.698694453413466"><ele>527.5</ele><time>2026-03-22T08:54:10.929Z</time></trkpt><trkpt lat="43.40589035967703" lon="11.698785645969728"><ele>527.3333333333333</ele><time>2026-03-22T08:54:11.929Z</time></trkpt><trkpt lat="43.40591199460534" lon="11.698908490944417"><ele>527.1666666666666</ele><time>2026-03-22T08:54:12.929Z</time></trkpt><trkpt lat="43.40592122987787" lon="11.699011943719144"><ele>527.0</ele><time>2026-03-22T08:54:13.929Z</time></trkpt><trkpt lat="43.40593757506899" lon="11.699116102067158"><ele>527.0</ele><time>2026-03-22T08:54:14.929Z</time></trkpt><trkpt lat="43.40596279949437" lon="11.699218563962605"><ele>527.0</ele><time>2026-03-22T08:54:15.929Z</time></trkpt><trkpt lat="43.40592019749706" lon="11.69930791868637"><ele>527.0</ele><time>2026-03-22T08:54:16.929Z</time></trkpt><trkpt lat="43.40590689225229" lon="11.699416527465143"><ele>527.0</ele><time>2026-03-22T08:54:18.929Z</time></trkpt><trkpt lat="43.40586366361219" lon="11.699495079040464"><ele>527.0</ele><time>2026-03-22T08:54:19.929Z</time></trkpt><trkpt lat="43.40580074127281" lon="11.69956488801763"><ele>527.0</ele><time>2026-03-22T08:54:20.928Z</time></trkpt><trkpt lat="43.40570310422012" lon="11.699547478112859"><ele>526.75</ele><time>2026-03-22T08:54:22.928Z</time></trkpt><trkpt lat="43.40549534887618" lon="11.699596699330634"><ele>526.5</ele><time>2026-03-22T08:54:36.928Z</time></trkpt><trkpt lat="43.40541551852676" lon="11.699588159130451"><ele>526.25</ele><time>2026-03-22T08:54:37.928Z</time></trkpt><trkpt lat="43.405335567423414" lon="11.699577123757042"><ele>526.0</ele><time>2026-03-22T08:54:38.928Z</time></trkpt><trkpt lat="43.40528164689556" lon="11.699496927704008"><ele>528.8</ele><time>2026-03-22T08:54:40.928Z</time></trkpt><trkpt lat="43.40523677188485" lon="11.69937807254818"><ele>531.6</ele><time>2026-03-22T08:54:42.928Z</time></trkpt><trkpt lat="43.40521672938827" lon="11.699250682150188"><ele>534.4</ele><time>2026-03-22T08:54:44.928Z</time></trkpt><trkpt lat="43.405184623403876" lon="11.699088074751831"><ele>537.2</ele><time>2026-03-22T08:54:46.928Z</time></trkpt><trkpt lat="43.40513991187363" lon="11.698963036398146"><ele>540.0</ele><time>2026-03-22T08:54:48.928Z</time></trkpt><trkpt lat="43.40510084958641" lon="11.698893085591674"><ele>540.0</ele><time>2026-03-22T08:54:49.928Z</time></trkpt><trkpt lat="43.405017318510865" lon="11.698784216634223"><ele>540.0</ele><time>2026-03-22T08:54:51.928Z</time></trkpt><trkpt lat="43.404924753715314" lon="11.698683350672345"><ele>540.0</ele><time>2026-03-22T08:54:53.928Z</time></trkpt><trkpt lat="43.404866096429274" lon="11.698596817802411"><ele>540.0</ele><time>2026-03-22T08:54:54.928Z</time></trkpt><trkpt lat="43.404815528026916" lon="11.69851025258632"><ele>540.0</ele><time>2026-03-22T08:54:55.928Z</time></trkpt><trkpt lat="43.40478333404388" lon="11.69843149087108"><ele>540.0</ele><time>2026-03-22T08:54:56.928Z</time></trkpt><trkpt lat="43.404727528839764" lon="11.698316991019365"><ele>540.0</ele><time>2026-03-22T08:54:58.928Z</time></trkpt><trkpt lat="43.404652857330085" lon="11.698185701554717"><ele>540.0</ele><time>2026-03-22T08:55:00.928Z</time></trkpt><trkpt lat="43.404567413858" lon="11.69805547165487"><ele>540.0</ele><time>2026-03-22T08:55:02.928Z</time></trkpt><trkpt lat="43.40451498930727" lon="11.698001795352749"><ele>540.0</ele><time>2026-03-22T08:55:03.928Z</time></trkpt><trkpt lat="43.4044434019878" lon="11.697890587516964"><ele>540.0</ele><time>2026-03-22T08:55:05.928Z</time></trkpt><trkpt lat="43.404385874207975" lon="11.69781025112352"><ele>540.0</ele><time>2026-03-22T08:55:07.927Z</time></trkpt><trkpt lat="43.40433430768446" lon="11.697749469085077"><ele>540.0</ele><time>2026-03-22T08:55:08.927Z</time></trkpt><trkpt lat="43.40426913063191" lon="11.697661536894381"><ele>540.0</ele><time>2026-03-22T08:55:09.927Z</time></trkpt><trkpt lat="43.40420727838899" lon="11.697576522963349"><ele>540.0</ele><time>2026-03-22T08:55:10.927Z</time></trkpt><trkpt lat="43.4041457938118" lon="11.697493832110341"><ele>540.0</ele><time>2026-03-22T08:55:11.927Z</time></trkpt><trkpt lat="43.404098589221064" lon="11.697422163485491"><ele>541.6</ele><time>2026-03-22T08:55:12.927Z</time></trkpt><trkpt lat="43.40404492005216" lon="11.697359112064959"><ele>543.2</ele><time>2026-03-22T08:55:13.927Z</time></trkpt><trkpt lat="43.403948828990345" lon="11.697290761443057"><ele>544.8</ele><time>2026-03-22T08:55:15.927Z</time></trkpt><trkpt lat="43.40382427389669" lon="11.697259014168907"><ele>546.4</ele><time>2026-03-22T08:55:17.927Z</time></trkpt><trkpt lat="43.40374769598863" lon="11.697233251492582"><ele>548.0</ele><time>2026-03-22T08:55:18.927Z</time></trkpt><trkpt lat="43.4036688301481" lon="11.69720542371604"><ele>548.8333333333333</ele><time>2026-03-22T08:55:19.927Z</time></trkpt><trkpt lat="43.40359990024703" lon="11.697186245743925"><ele>549.6666666666666</ele><time>2026-03-22T08:55:20.927Z</time></trkpt><trkpt lat="43.40348696931259" lon="11.697191055067565"><ele>550.5</ele><time>2026-03-22T08:55:22.927Z</time></trkpt><trkpt lat="43.403383786873185" lon="11.697149500335193"><ele>551.3333333333334</ele><time>2026-03-22T08:55:24.927Z</time></trkpt><trkpt lat="43.4033216186907" lon="11.697105515365056"><ele>552.1666666666667</ele><time>2026-03-22T08:55:25.927Z</time></trkpt><trkpt lat="43.40326907006226" lon="11.697022513769323"><ele>553.0</ele><time>2026-03-22T08:55:26.927Z</time></trkpt><trkpt lat="43.40322638281631" lon="11.696943011146075"><ele>555.1666666666667</ele><time>2026-03-22T08:55:27.927Z</time></trkpt><trkpt lat="43.40319103374808" lon="11.696867819364137"><ele>557.3333333333334</ele><time>2026-03-22T08:55:28.927Z</time></trkpt><trkpt lat="43.40317536706356" lon="11.696687890796145"><ele>559.5</ele><time>2026-03-22T08:55:30.927Z</time></trkpt><trkpt lat="43.40314433842383" lon="11.696600479004955"><ele>561.6666666666666</ele><time>2026-03-22T08:55:31.927Z</time></trkpt><trkpt lat="43.40309209968043" lon="11.69653543023761"><ele>563.8333333333333</ele><time>2026-03-22T08:55:32.927Z</time></trkpt><trkpt lat="43.40302340096759" lon="11.69646419195571"><ele>566.0</ele><time>2026-03-22T08:55:33.927Z</time></trkpt><trkpt lat="43.40295184275061" lon="11.696372730055547"><ele>566.4</ele><time>2026-03-22T08:55:34.927Z</time></trkpt><trkpt lat="43.402883944924604" lon="11.6962790892388"><ele>566.8</ele><time>2026-03-22T08:55:35.927Z</time></trkpt><trkpt lat="43.402814442599535" lon="11.696184138489075"><ele>567.1999999999999</ele><time>2026-03-22T08:55:36.927Z</time></trkpt><trkpt lat="43.40274047253998" lon="11.696089554363688"><ele>567.6</ele><time>2026-03-22T08:55:37.927Z</time></trkpt><trkpt lat="43.40267067137181" lon="11.695984804598126"><ele>568.0</ele><time>2026-03-22T08:55:38.927Z</time></trkpt><trkpt lat="43.402609539115915" lon="11.695874793895022"><ele>569.1999999999999</ele><time>2026-03-22T08:55:39.927Z</time></trkpt><trkpt lat="43.40254185418138" lon="11.695765003601768"><ele>570.4</ele><time>2026-03-22T08:55:40.927Z</time></trkpt><trkpt lat="43.40248404023731" lon="11.695683234933155"><ele>571.5999999999999</ele><time>2026-03-22T08:55:41.927Z</time></trkpt><trkpt lat="43.402371012178016" lon="11.695584647281377"><ele>572.8</ele><time>2026-03-22T08:55:43.927Z</time></trkpt><trkpt lat="43.40228893056107" lon="11.695516083228537"><ele>574.0</ele><time>2026-03-22T08:55:44.927Z</time></trkpt><trkpt lat="43.40217761119783" lon="11.695432567248808"><ele>574.2</ele><time>2026-03-22T08:55:45.927Z</time></trkpt><trkpt lat="43.40206125992877" lon="11.695356899900606"><ele>574.4</ele><time>2026-03-22T08:55:46.927Z</time></trkpt><trkpt lat="43.401952342768425" lon="11.69529171140059"><ele>574.6</ele><time>2026-03-22T08:55:47.927Z</time></trkpt><trkpt lat="43.401858700460416" lon="11.695232896842084"><ele>574.8</ele><time>2026-03-22T08:55:48.927Z</time></trkpt><trkpt lat="43.40177229358881" lon="11.695176080919412"><ele>575.0</ele><time>2026-03-22T08:55:49.926Z</time></trkpt><trkpt lat="43.401689576784484" lon="11.695120030915724"><ele>576.0</ele><time>2026-03-22T08:55:50.926Z</time></trkpt><trkpt lat="43.40162908025443" lon="11.695066811898679"><ele>577.0</ele><time>2026-03-22T08:55:51.926Z</time></trkpt><trkpt lat="43.401565130229976" lon="11.69500071911336"><ele>578.0</ele><time>2026-03-22T08:55:52.926Z</time></trkpt><trkpt lat="43.40150467287145" lon="11.694916861572242"><ele>579.0</ele><time>2026-03-22T08:55:53.926Z</time></trkpt><trkpt lat="43.40145343767081" lon="11.694816677169442"><ele>580.0</ele><time>2026-03-22T08:55:54.926Z</time></trkpt><trkpt lat="43.40141219546192" lon="11.694746518753629"><ele>581.0</ele><time>2026-03-22T08:55:55.926Z</time></trkpt><trkpt lat="43.40134616438715" lon="11.694652617690139"><ele>581.2</ele><time>2026-03-22T08:55:56.926Z</time></trkpt><trkpt lat="43.401263962336316" lon="11.694531286288871"><ele>581.4000000000001</ele><time>2026-03-22T08:55:57.926Z</time></trkpt><trkpt lat="43.4011938537146" lon="11.69441938773174"><ele>581.6</ele><time>2026-03-22T08:55:58.926Z</time></trkpt><trkpt lat="43.40114488710836" lon="11.694318526861949"><ele>581.8000000000001</ele><time>2026-03-22T08:55:59.926Z</time></trkpt><trkpt lat="43.4010965894148" lon="11.694210774892122"><ele>582.0</ele><time>2026-03-22T08:56:00.926Z</time></trkpt><trkpt lat="43.4010594736277" lon="11.69411413653421"><ele>582.0</ele><time>2026-03-22T08:56:01.928Z</time></trkpt><trkpt lat="43.40099743876933" lon="11.69396555317765"><ele>582.0</ele><time>2026-03-22T08:56:03.928Z</time></trkpt><trkpt lat="43.40095129807288" lon="11.693851275589765"><ele>582.0</ele><time>2026-03-22T08:56:05.929Z</time></trkpt><trkpt lat="43.40093805911296" lon="11.693762246066585"><ele>582.0</ele><time>2026-03-22T08:56:09.928Z</time></trkpt><trkpt lat="43.40080831597268" lon="11.693720159532994"><ele>582.0</ele><time>2026-03-22T08:56:27.928Z</time></trkpt><trkpt lat="43.40074215589594" lon="11.693753072457449"><ele>582.0</ele><time>2026-03-22T08:56:28.928Z</time></trkpt><trkpt lat="43.40060753353407" lon="11.69376040571868"><ele>582.0</ele><time>2026-03-22T08:56:30.928Z</time></trkpt><trkpt lat="43.400542026483066" lon="11.693739116939653"><ele>582.0</ele><time>2026-03-22T08:56:31.928Z</time></trkpt><trkpt lat="43.40046316942813" lon="11.69372201048677"><ele>582.0</ele><time>2026-03-22T08:56:32.928Z</time></trkpt><trkpt lat="43.400379334407575" lon="11.69368665725394"><ele>582.0</ele><time>2026-03-22T08:56:33.928Z</time></trkpt><trkpt lat="43.400280828397335" lon="11.693648176589765"><ele>581.6666666666666</ele><time>2026-03-22T08:56:34.928Z</time></trkpt><trkpt lat="43.40018586608457" lon="11.693619742831128"><ele>581.3333333333334</ele><time>2026-03-22T08:56:35.928Z</time></trkpt><trkpt lat="43.400100497498215" lon="11.69358266681805"><ele>581.0</ele><time>2026-03-22T08:56:36.928Z</time></trkpt><trkpt lat="43.400023593072895" lon="11.693548082175267"><ele>580.6666666666667</ele><time>2026-03-22T08:56:37.928Z</time></trkpt><trkpt lat="43.39995581353255" lon="11.693518002088647"><ele>580.3333333333334</ele><time>2026-03-22T08:56:38.928Z</time></trkpt><trkpt lat="43.3998879939834" lon="11.693525430503962"><ele>580.0</ele><time>2026-03-22T08:56:39.928Z</time></trkpt><trkpt lat="43.39982070704275" lon="11.693559127600388"><ele>579.8333333333334</ele><time>2026-03-22T08:56:40.928Z</time></trkpt><trkpt lat="43.399764121066184" lon="11.693622912317366"><ele>579.6666666666667</ele><time>2026-03-22T08:56:41.928Z</time></trkpt><trkpt lat="43.3997079314748" lon="11.693715703387277"><ele>579.5</ele><time>2026-03-22T08:56:42.928Z</time></trkpt><trkpt lat="43.399643649978714" lon="11.693813983460528"><ele>579.3333333333334</ele><time>2026-03-22T08:56:43.928Z</time></trkpt><trkpt lat="43.39957342731783" lon="11.69390323602403"><ele>579.1666666666666</ele><time>2026-03-22T08:56:44.928Z</time></trkpt><trkpt lat="43.399494015180615" lon="11.69396504910268"><ele>579.0</ele><time>2026-03-22T08:56:45.928Z</time></trkpt><trkpt lat="43.39939664885041" lon="11.693986720280368"><ele>578.75</ele><time>2026-03-22T08:56:46.928Z</time></trkpt><trkpt lat="43.39927930740026" lon="11.69399831485758"><ele>578.5</ele><time>2026-03-22T08:56:47.928Z</time></trkpt><trkpt lat="43.39916105792473" lon="11.69401665913506"><ele>578.25</ele><time>2026-03-22T08:56:48.928Z</time></trkpt><trkpt lat="43.399045273257876" lon="11.694035532710158"><ele>578.0</ele><time>2026-03-22T08:56:49.928Z</time></trkpt><trkpt lat="43.39893728193698" lon="11.694054191549967"><ele>578.0</ele><time>2026-03-22T08:56:50.928Z</time></trkpt><trkpt lat="43.39884094590201" lon="11.69407323133837"><ele>578.0</ele><time>2026-03-22T08:56:51.928Z</time></trkpt><trkpt lat="43.39874902985916" lon="11.69409077184431"><ele>578.0</ele><time>2026-03-22T08:56:52.928Z</time></trkpt><trkpt lat="43.398653165837295" lon="11.694097115831688"><ele>578.0</ele><time>2026-03-22T08:56:53.928Z</time></trkpt><trkpt lat="43.39855853930149" lon="11.694092011671147"><ele>578.0</ele><time>2026-03-22T08:56:54.928Z</time></trkpt><trkpt lat="43.398467731938126" lon="11.694055154645426"><ele>577.1999999999999</ele><time>2026-03-22T08:56:55.928Z</time></trkpt><trkpt lat="43.398381545106524" lon="11.693993446646225"><ele>576.4</ele><time>2026-03-22T08:56:56.928Z</time></trkpt><trkpt lat="43.39830789941011" lon="11.693911277160808"><ele>575.5999999999999</ele><time>2026-03-22T08:56:57.928Z</time></trkpt><trkpt lat="43.39823675451839" lon="11.693823277484547"><ele>574.8</ele><time>2026-03-22T08:56:58.928Z</time></trkpt><trkpt lat="43.39817742879184" lon="11.693728995406234"><ele>574.0</ele><time>2026-03-22T08:56:59.928Z</time></trkpt><trkpt lat="43.39811943024642" lon="11.693627357293776"><ele>574.3333333333334</ele><time>2026-03-22T08:57:00.928Z</time></trkpt><trkpt lat="43.39805631880525" lon="11.693534230705557"><ele>574.6666666666667</ele><time>2026-03-22T08:57:01.928Z</time></trkpt><trkpt lat="43.397994924997825" lon="11.693441070971723"><ele>575.0</ele><time>2026-03-22T08:57:02.928Z</time></trkpt><trkpt lat="43.397938162366515" lon="11.693355659887779"><ele>575.3333333333334</ele><time>2026-03-22T08:57:03.927Z</time></trkpt><trkpt lat="43.39787984342331" lon="11.69326603259853"><ele>575.6666666666666</ele><time>2026-03-22T08:57:04.927Z</time></trkpt><trkpt lat="43.39781913878511" lon="11.69317241479667"><ele>576.0</ele><time>2026-03-22T08:57:05.927Z</time></trkpt><trkpt lat="43.39775601931115" lon="11.693082360908038"><ele>574.8333333333334</ele><time>2026-03-22T08:57:06.927Z</time></trkpt><trkpt lat="43.39769496627357" lon="11.692992343831532"><ele>573.6666666666666</ele><time>2026-03-22T08:57:07.927Z</time></trkpt><trkpt lat="43.39763666966043" lon="11.692897708093948"><ele>572.5</ele><time>2026-03-22T08:57:08.927Z</time></trkpt><trkpt lat="43.39757341226414" lon="11.692806805259652"><ele>571.3333333333333</ele><time>2026-03-22T08:57:09.927Z</time></trkpt><trkpt lat="43.397513267966275" lon="11.692727436441913"><ele>570.1666666666666</ele><time>2026-03-22T08:57:10.927Z</time></trkpt><trkpt lat="43.3974466286506" lon="11.692653645228196"><ele>569.0</ele><time>2026-03-22T08:57:11.927Z</time></trkpt><trkpt lat="43.397373227232166" lon="11.692567905603156"><ele>568.8</ele><time>2026-03-22T08:57:12.927Z</time></trkpt><trkpt lat="43.397295253955235" lon="11.692485365355239"><ele>568.5999999999999</ele><time>2026-03-22T08:57:13.927Z</time></trkpt><trkpt lat="43.39721727596805" lon="11.692417038647147"><ele>568.4</ele><time>2026-03-22T08:57:14.927Z</time></trkpt><trkpt lat="43.397145786247506" lon="11.692345648258808"><ele>568.1999999999999</ele><time>2026-03-22T08:57:15.927Z</time></trkpt><trkpt lat="43.39708008881226" lon="11.692262536840643"><ele>568.0</ele><time>2026-03-22T08:57:16.927Z</time></trkpt><trkpt lat="43.397012456298704" lon="11.692174376047005"><ele>567.6</ele><time>2026-03-22T08:57:17.927Z</time></trkpt><trkpt lat="43.396950872946746" lon="11.692078004789986"><ele>567.1999999999999</ele><time>2026-03-22T08:57:18.927Z</time></trkpt><trkpt lat="43.39689712416274" lon="11.691977483843024"><ele>566.8</ele><time>2026-03-22T08:57:19.927Z</time></trkpt><trkpt lat="43.3968449303819" lon="11.691877364677586"><ele>566.4</ele><time>2026-03-22T08:57:20.927Z</time></trkpt><trkpt lat="43.396788409208476" lon="11.691771537961818"><ele>566.0</ele><time>2026-03-22T08:57:21.927Z</time></trkpt><trkpt lat="43.39673022520113" lon="11.691665742630278"><ele>566.0</ele><time>2026-03-22T08:57:22.927Z</time></trkpt><trkpt lat="43.396670634211894" lon="11.691561419108034"><ele>566.0</ele><time>2026-03-22T08:57:23.927Z</time></trkpt><trkpt lat="43.39661657163" lon="11.691462001769834"><ele>566.0</ele><time>2026-03-22T08:57:24.927Z</time></trkpt><trkpt lat="43.39656369334459" lon="11.691369316777863"><ele>566.0</ele><time>2026-03-22T08:57:25.927Z</time></trkpt><trkpt lat="43.39651535529249" lon="11.69127375157539"><ele>566.0</ele><time>2026-03-22T08:57:26.927Z</time></trkpt><trkpt lat="43.39646994072924" lon="11.691180334431175"><ele>566.0</ele><time>2026-03-22T08:57:27.927Z</time></trkpt><trkpt lat="43.39641570734195" lon="11.691084058001863"><ele>565.1666666666666</ele><time>2026-03-22T08:57:28.927Z</time></trkpt><trkpt lat="43.39636143417486" lon="11.690990775733315"><ele>564.3333333333333</ele><time>2026-03-22T08:57:29.927Z</time></trkpt><trkpt lat="43.396313392936335" lon="11.690896554175762"><ele>563.5</ele><time>2026-03-22T08:57:30.927Z</time></trkpt><trkpt lat="43.396275693268244" lon="11.690801475427856"><ele>562.6666666666666</ele><time>2026-03-22T08:57:31.927Z</time></trkpt><trkpt lat="43.396227342587295" lon="11.690707529301486"><ele>561.8333333333334</ele><time>2026-03-22T08:57:32.927Z</time></trkpt><trkpt lat="43.39618523023211" lon="11.69062389343567"><ele>561.0</ele><time>2026-03-22T08:57:33.927Z</time></trkpt><trkpt lat="43.3961432633677" lon="11.690554435068726"><ele>561.0</ele><time>2026-03-22T08:57:34.927Z</time></trkpt><trkpt lat="43.396097377216975" lon="11.690484828676386"><ele>561.0</ele><time>2026-03-22T08:57:35.927Z</time></trkpt><trkpt lat="43.39599470167899" lon="11.690386301198656"><ele>561.0</ele><time>2026-03-22T08:57:37.927Z</time></trkpt><trkpt lat="43.395927365445225" lon="11.690362825318372"><ele>561.0</ele><time>2026-03-22T08:57:38.927Z</time></trkpt><trkpt lat="43.39584832771621" lon="11.69035009995136"><ele>561.0</ele><time>2026-03-22T08:57:39.927Z</time></trkpt><trkpt lat="43.3957715016426" lon="11.690360966328212"><ele>561.0</ele><time>2026-03-22T08:57:40.927Z</time></trkpt><trkpt lat="43.395687685442034" lon="11.690368430065995"><ele>561.0</ele><time>2026-03-22T08:57:41.927Z</time></trkpt><trkpt lat="43.39561549738993" lon="11.69037318847449"><ele>561.0</ele><time>2026-03-22T08:57:42.927Z</time></trkpt><trkpt lat="43.39553901999358" lon="11.69040613238723"><ele>561.0</ele><time>2026-03-22T08:57:43.927Z</time></trkpt><trkpt lat="43.39545653535999" lon="11.690427845607315"><ele>561.0</ele><time>2026-03-22T08:57:44.927Z</time></trkpt><trkpt lat="43.3953824251189" lon="11.690434596809787"><ele>561.0</ele><time>2026-03-22T08:57:45.926Z</time></trkpt><trkpt lat="43.39531464587996" lon="11.690474512277982"><ele>561.0</ele><time>2026-03-22T08:57:46.926Z</time></trkpt><trkpt lat="43.395255018473605" lon="11.690511665500885"><ele>559.2857142857142</ele><time>2026-03-22T08:57:47.926Z</time></trkpt><trkpt lat="43.395188703008714" lon="11.690548670072758"><ele>557.5714285714286</ele><time>2026-03-22T08:57:48.926Z</time></trkpt><trkpt lat="43.395120297565995" lon="11.690579719739265"><ele>555.8571428571429</ele><time>2026-03-22T08:57:49.926Z</time></trkpt><trkpt lat="43.39504827218626" lon="11.690606050915173"><ele>554.1428571428571</ele><time>2026-03-22T08:57:50.926Z</time></trkpt><trkpt lat="43.39498851962087" lon="11.69063895646879"><ele>552.4285714285714</ele><time>2026-03-22T08:57:51.926Z</time></trkpt><trkpt lat="43.39490784755162" lon="11.690688024619151"><ele>550.7142857142857</ele><time>2026-03-22T08:57:53.926Z</time></trkpt><trkpt lat="43.39485675897881" lon="11.690615124559015"><ele>549.0</ele><time>2026-03-22T08:57:56.926Z</time></trkpt><trkpt lat="43.39491338051177" lon="11.690514390859454"><ele>549.0</ele><time>2026-03-22T08:57:58.926Z</time></trkpt><trkpt lat="43.39499240809119" lon="11.690395870217447"><ele>549.0</ele><time>2026-03-22T08:58:00.926Z</time></trkpt><trkpt lat="43.39505110792633" lon="11.690332938767055"><ele>549.0</ele><time>2026-03-22T08:58:01.926Z</time></trkpt><trkpt lat="43.39511301219388" lon="11.690263586472012"><ele>549.0</ele><time>2026-03-22T08:58:02.926Z</time></trkpt><trkpt lat="43.3951796634628" lon="11.690191809148043"><ele>549.0</ele><time>2026-03-22T08:58:03.926Z</time></trkpt><trkpt lat="43.395255170371804" lon="11.690103107786069"><ele>549.5</ele><time>2026-03-22T08:58:04.926Z</time></trkpt><trkpt lat="43.395328861021426" lon="11.690037012427268"><ele>550.0</ele><time>2026-03-22T08:58:05.926Z</time></trkpt><trkpt lat="43.395402897442324" lon="11.689943031387973"><ele>550.5</ele><time>2026-03-22T08:58:06.926Z</time></trkpt><trkpt lat="43.395469656491024" lon="11.689867613482802"><ele>551.0</ele><time>2026-03-22T08:58:07.928Z</time></trkpt><trkpt lat="43.39553999153091" lon="11.689813408352164"><ele>551.5</ele><time>2026-03-22T08:58:08.928Z</time></trkpt><trkpt lat="43.395611628573086" lon="11.68974010416444"><ele>552.0</ele><time>2026-03-22T08:58:10.928Z</time></trkpt><trkpt lat="43.39561421620828" lon="11.689583642498388"><ele>552.0</ele><time>2026-03-22T08:58:14.928Z</time></trkpt><trkpt lat="43.39564257017076" lon="11.68945664613084"><ele>552.0</ele><time>2026-03-22T08:58:16.928Z</time></trkpt><trkpt lat="43.39572400002169" lon="11.689404541102908"><ele>552.0</ele><time>2026-03-22T08:58:18.928Z</time></trkpt><trkpt lat="43.395799433604815" lon="11.689406281911394"><ele>552.0</ele><time>2026-03-22T08:58:20.928Z</time></trkpt><trkpt lat="43.395919511697905" lon="11.689425874182719"><ele>552.0</ele><time>2026-03-22T08:58:22.928Z</time></trkpt><trkpt lat="43.395981835910646" lon="11.689411882448367"><ele>552.0</ele><time>2026-03-22T08:58:23.928Z</time></trkpt><trkpt lat="43.3961004404057" lon="11.689388217548084"><ele>550.4</ele><time>2026-03-22T08:58:25.928Z</time></trkpt><trkpt lat="43.39622395594923" lon="11.689366502136975"><ele>548.8000000000001</ele><time>2026-03-22T08:58:27.928Z</time></trkpt><trkpt lat="43.39628767731477" lon="11.689376167732947"><ele>547.2</ele><time>2026-03-22T08:58:28.928Z</time></trkpt><trkpt lat="43.39639701182481" lon="11.689396323805093"><ele>545.6</ele><time>2026-03-22T08:58:30.928Z</time></trkpt><trkpt lat="43.396502548922314" lon="11.68946738521909"><ele>544.0</ele><time>2026-03-22T08:58:32.928Z</time></trkpt><trkpt lat="43.39658293703539" lon="11.68955787800222"><ele>544.0</ele><time>2026-03-22T08:58:34.928Z</time></trkpt><trkpt lat="43.39666933001187" lon="11.689588510957831"><ele>544.0</ele><time>2026-03-22T08:58:36.928Z</time></trkpt><trkpt lat="43.39675512158448" lon="11.689646021264098"><ele>544.0</ele><time>2026-03-22T08:58:38.928Z</time></trkpt><trkpt lat="43.39681755630882" lon="11.689666643235444"><ele>544.0</ele><time>2026-03-22T08:58:40.927Z</time></trkpt><trkpt lat="43.39690004779692" lon="11.689568762291154"><ele>544.0</ele><time>2026-03-22T08:58:42.927Z</time></trkpt><trkpt lat="43.39696480209735" lon="11.689514025739973"><ele>544.0</ele><time>2026-03-22T08:58:43.927Z</time></trkpt><trkpt lat="43.397019274440126" lon="11.689449518789285"><ele>542.8</ele><time>2026-03-22T08:58:44.927Z</time></trkpt><trkpt lat="43.39708918436152" lon="11.689380012185488"><ele>541.5999999999999</ele><time>2026-03-22T08:58:46.927Z</time></trkpt><trkpt lat="43.39716209756184" lon="11.689367429713862"><ele>540.4</ele><time>2026-03-22T08:58:48.927Z</time></trkpt><trkpt lat="43.39728193151215" lon="11.689383573792359"><ele>539.1999999999999</ele><time>2026-03-22T08:58:50.927Z</time></trkpt><trkpt lat="43.39735200662725" lon="11.689423904331647"><ele>538.0</ele><time>2026-03-22T08:58:51.927Z</time></trkpt><trkpt lat="43.39745593757196" lon="11.689496018332571"><ele>538.0</ele><time>2026-03-22T08:58:53.927Z</time></trkpt><trkpt lat="43.39754775639254" lon="11.689522057556411"><ele>538.0</ele><time>2026-03-22T08:58:55.927Z</time></trkpt><trkpt lat="43.39762147817554" lon="11.68958242186006"><ele>538.0</ele><time>2026-03-22T08:58:57.927Z</time></trkpt><trkpt lat="43.39771349588345" lon="11.689625893923393"><ele>538.0</ele><time>2026-03-22T08:58:59.927Z</time></trkpt><trkpt lat="43.397799584933885" lon="11.689626706119386"><ele>538.0</ele><time>2026-03-22T08:59:01.927Z</time></trkpt><trkpt lat="43.39789489704007" lon="11.689680784422443"><ele>538.0</ele><time>2026-03-22T08:59:03.927Z</time></trkpt><trkpt lat="43.39798421229702" lon="11.68977969770631"><ele>538.0</ele><time>2026-03-22T08:59:05.927Z</time></trkpt><trkpt lat="43.398083762073774" lon="11.689846818676418"><ele>538.0</ele><time>2026-03-22T08:59:07.927Z</time></trkpt><trkpt lat="43.39817975111602" lon="11.689938581387784"><ele>538.0</ele><time>2026-03-22T08:59:09.927Z</time></trkpt><trkpt lat="43.398257376888424" lon="11.6900608255938"><ele>537.4</ele><time>2026-03-22T08:59:11.927Z</time></trkpt><trkpt lat="43.398347499450985" lon="11.690161671581969"><ele>536.8</ele><time>2026-03-22T08:59:13.927Z</time></trkpt><trkpt lat="43.39844344251366" lon="11.690239003995085"><ele>536.2</ele><time>2026-03-22T08:59:15.927Z</time></trkpt><trkpt lat="43.39854252143024" lon="11.690274638576332"><ele>535.6</ele><time>2026-03-22T08:59:17.927Z</time></trkpt><trkpt lat="43.39863067355187" lon="11.690226209407841"><ele>535.0</ele><time>2026-03-22T08:59:19.927Z</time></trkpt><trkpt lat="43.39870215066422" lon="11.690124665365444"><ele>533.0</ele><time>2026-03-22T08:59:21.927Z</time></trkpt><trkpt lat="43.39880528517262" lon="11.690096688339793"><ele>531.0</ele><time>2026-03-22T08:59:23.926Z</time></trkpt><trkpt lat="43.39888678242129" lon="11.690086443062425"><ele>529.0</ele><time>2026-03-22T08:59:24.926Z</time></trkpt><trkpt lat="43.398958937927326" lon="11.690065414621216"><ele>527.0</ele><time>2026-03-22T08:59:25.926Z</time></trkpt><trkpt lat="43.399047531249856" lon="11.689995124090734"><ele>525.0</ele><time>2026-03-22T08:59:27.926Z</time></trkpt><trkpt lat="43.399004441810014" lon="11.689849261801703"><ele>525.0</ele><time>2026-03-22T08:59:29.926Z</time></trkpt><trkpt lat="43.39894680718421" lon="11.689713222773527"><ele>525.0</ele><time>2026-03-22T08:59:30.926Z</time></trkpt><trkpt lat="43.398913588601665" lon="11.689589300900932"><ele>525.0</ele><time>2026-03-22T08:59:31.926Z</time></trkpt><trkpt lat="43.39889402720324" lon="11.689494465021252"><ele>525.0</ele><time>2026-03-22T08:59:32.926Z</time></trkpt><trkpt lat="43.398895116031795" lon="11.689407222315033"><ele>525.0</ele><time>2026-03-22T08:59:33.926Z</time></trkpt><trkpt lat="43.3989171488705" lon="11.689319127947176"><ele>525.0</ele><time>2026-03-22T08:59:34.926Z</time></trkpt><trkpt lat="43.39894546540373" lon="11.689236977720547"><ele>524.3333333333334</ele><time>2026-03-22T08:59:35.926Z</time></trkpt><trkpt lat="43.39902291467316" lon="11.689120759859478"><ele>523.6666666666666</ele><time>2026-03-22T08:59:37.926Z</time></trkpt><trkpt lat="43.39909942247414" lon="11.689053764468627"><ele>523.0</ele><time>2026-03-22T08:59:38.926Z</time></trkpt><trkpt lat="43.39917261624632" lon="11.688988233434099"><ele>522.3333333333333</ele><time>2026-03-22T08:59:39.926Z</time></trkpt><trkpt lat="43.399230789228675" lon="11.688932794483387"><ele>521.6666666666666</ele><time>2026-03-22T08:59:40.926Z</time></trkpt><trkpt lat="43.39928286379803" lon="11.688877590099953"><ele>521.0</ele><time>2026-03-22T08:59:41.926Z</time></trkpt><trkpt lat="43.39933638336793" lon="11.68881235643221"><ele>521.0</ele><time>2026-03-22T08:59:42.926Z</time></trkpt><trkpt lat="43.39938646573469" lon="11.688745007637833"><ele>521.0</ele><time>2026-03-22T08:59:43.926Z</time></trkpt><trkpt lat="43.39946968801574" lon="11.688636818086778"><ele>521.0</ele><time>2026-03-22T08:59:45.926Z</time></trkpt><trkpt lat="43.39958133347855" lon="11.688547345901206"><ele>521.0</ele><time>2026-03-22T08:59:47.926Z</time></trkpt><trkpt lat="43.39964751657562" lon="11.688492064864967"><ele>521.0</ele><time>2026-03-22T08:59:48.926Z</time></trkpt><trkpt lat="43.3997110342696" lon="11.688430637767622"><ele>523.8</ele><time>2026-03-22T08:59:49.926Z</time></trkpt><trkpt lat="43.39975713744746" lon="11.688369261341144"><ele>526.6</ele><time>2026-03-22T08:59:50.926Z</time></trkpt><trkpt lat="43.39985516202276" lon="11.68825513759656"><ele>529.4</ele><time>2026-03-22T08:59:52.926Z</time></trkpt><trkpt lat="43.39994023119254" lon="11.6881559688341"><ele>532.2</ele><time>2026-03-22T08:59:54.926Z</time></trkpt><trkpt lat="43.400027413078966" lon="11.688057999132619"><ele>535.0</ele><time>2026-03-22T08:59:56.926Z</time></trkpt><trkpt lat="43.40009257291627" lon="11.687923115425594"><ele>535.0</ele><time>2026-03-22T08:59:58.926Z</time></trkpt><trkpt lat="43.400080985451325" lon="11.687810427320708"><ele>535.0</ele><time>2026-03-22T09:00:00.926Z</time></trkpt><trkpt lat="43.40000448526517" lon="11.687726252695727"><ele>535.0</ele><time>2026-03-22T09:00:02.926Z</time></trkpt><trkpt lat="43.39989107064269" lon="11.687712979164946"><ele>535.0</ele><time>2026-03-22T09:00:04.926Z</time></trkpt><trkpt lat="43.39976002912903" lon="11.687720155539568"><ele>535.0</ele><time>2026-03-22T09:00:06.925Z</time></trkpt><trkpt lat="43.39967469488188" lon="11.687701839635576"><ele>533.6</ele><time>2026-03-22T09:00:07.925Z</time></trkpt><trkpt lat="43.39958404308567" lon="11.687674122357317"><ele>532.2</ele><time>2026-03-22T09:00:08.925Z</time></trkpt><trkpt lat="43.39946735793296" lon="11.687639371654559"><ele>530.8</ele><time>2026-03-22T09:00:09.925Z</time></trkpt><trkpt lat="43.39936100142945" lon="11.687621138523493"><ele>529.4</ele><time>2026-03-22T09:00:10.925Z</time></trkpt><trkpt lat="43.39927423732936" lon="11.687602916083774"><ele>528.0</ele><time>2026-03-22T09:00:11.925Z</time></trkpt><trkpt lat="43.39920870642626" lon="11.687594696469478"><ele>528.0</ele><time>2026-03-22T09:00:12.925Z</time></trkpt><trkpt lat="43.39910493861251" lon="11.68752899849405"><ele>528.0</ele><time>2026-03-22T09:00:14.927Z</time></trkpt><trkpt lat="43.39909898760794" lon="11.687433934215393"><ele>528.0</ele><time>2026-03-22T09:00:17.927Z</time></trkpt><trkpt lat="43.39907222801126" lon="11.687342880865332"><ele>528.0</ele><time>2026-03-22T09:00:19.927Z</time></trkpt><trkpt lat="43.39907748758079" lon="11.687245877753153"><ele>528.0</ele><time>2026-03-22T09:00:22.927Z</time></trkpt><trkpt lat="43.39913849517391" lon="11.687166410696365"><ele>528.0</ele><time>2026-03-22T09:00:25.927Z</time></trkpt><trkpt lat="43.399188294280876" lon="11.68707135810569"><ele>528.0</ele><time>2026-03-22T09:00:28.928Z</time></trkpt><trkpt lat="43.39921153356188" lon="11.686966644319648"><ele>528.0</ele><time>2026-03-22T09:00:32.927Z</time></trkpt><trkpt lat="43.39925859311499" lon="11.686897304485056"><ele>528.0</ele><time>2026-03-22T09:00:41.927Z</time></trkpt><trkpt lat="43.399184977921934" lon="11.686996925548604"><ele>528.0</ele><time>2026-03-22T09:00:53.927Z</time></trkpt><trkpt lat="43.399121519255424" lon="11.687153162985643"><ele>528.0</ele><time>2026-03-22T09:00:55.927Z</time></trkpt><trkpt lat="43.399057037596" lon="11.687275823055245"><ele>528.0</ele><time>2026-03-22T09:00:57.927Z</time></trkpt><trkpt lat="43.39907400116966" lon="11.687366322075878"><ele>528.0</ele><time>2026-03-22T09:00:59.927Z</time></trkpt><trkpt lat="43.39915074878462" lon="11.687448638555553"><ele>528.0</ele><time>2026-03-22T09:01:01.927Z</time></trkpt><trkpt lat="43.39924385083725" lon="11.687415283893516"><ele>528.0</ele><time>2026-03-22T09:01:03.927Z</time></trkpt><trkpt lat="43.39933501365364" lon="11.687369581343688"><ele>528.0</ele><time>2026-03-22T09:01:05.927Z</time></trkpt><trkpt lat="43.39942752375211" lon="11.68734894206417"><ele>528.0</ele><time>2026-03-22T09:01:07.927Z</time></trkpt><trkpt lat="43.39951928924486" lon="11.687314455627039"><ele>528.0</ele><time>2026-03-22T09:01:09.927Z</time></trkpt><trkpt lat="43.39961110628205" lon="11.68730614960033"><ele>528.0</ele><time>2026-03-22T09:01:11.927Z</time></trkpt><trkpt lat="43.39970844950708" lon="11.687291053151693"><ele>528.0</ele><time>2026-03-22T09:01:13.927Z</time></trkpt><trkpt lat="43.399767878378455" lon="11.687254974059199"><ele>528.0</ele><time>2026-03-22T09:01:14.926Z</time></trkpt><trkpt lat="43.39982237520072" lon="11.687203788100405"><ele>528.0</ele><time>2026-03-22T09:01:15.926Z</time></trkpt><trkpt lat="43.39990300166004" lon="11.687116269391487"><ele>529.5</ele><time>2026-03-22T09:01:17.926Z</time></trkpt><trkpt lat="43.39999952774601" lon="11.687037729453582"><ele>531.0</ele><time>2026-03-22T09:01:19.926Z</time></trkpt><trkpt lat="43.40005491788733" lon="11.686988672325253"><ele>532.5</ele><time>2026-03-22T09:01:20.926Z</time></trkpt><trkpt lat="43.400112675103486" lon="11.686930876306471"><ele>534.0</ele><time>2026-03-22T09:01:21.926Z</time></trkpt><trkpt lat="43.40017695865406" lon="11.686861578786145"><ele>535.5</ele><time>2026-03-22T09:01:22.926Z</time></trkpt><trkpt lat="43.4002523160346" lon="11.6867775010549"><ele>537.0</ele><time>2026-03-22T09:01:23.926Z</time></trkpt><trkpt lat="43.40034001232087" lon="11.68670402357464"><ele>538.2</ele><time>2026-03-22T09:01:24.926Z</time></trkpt><trkpt lat="43.40044321246092" lon="11.686628483485034"><ele>539.4000000000001</ele><time>2026-03-22T09:01:25.926Z</time></trkpt><trkpt lat="43.40053774682367" lon="11.686587536703522"><ele>540.5999999999999</ele><time>2026-03-22T09:01:26.926Z</time></trkpt><trkpt lat="43.400620145122296" lon="11.68655104475457"><ele>541.8</ele><time>2026-03-22T09:01:27.926Z</time></trkpt><trkpt lat="43.40069899925039" lon="11.686513693062688"><ele>543.0</ele><time>2026-03-22T09:01:28.926Z</time></trkpt><trkpt lat="43.40078768246303" lon="11.686469939590642"><ele>544.8</ele><time>2026-03-22T09:01:29.926Z</time></trkpt><trkpt lat="43.40088263912264" lon="11.686421763123846"><ele>546.5999999999999</ele><time>2026-03-22T09:01:30.926Z</time></trkpt><trkpt lat="43.40097802643703" lon="11.686364082753668"><ele>548.4000000000001</ele><time>2026-03-22T09:01:31.926Z</time></trkpt><trkpt lat="43.40107301783526" lon="11.686320109989103"><ele>550.2</ele><time>2026-03-22T09:01:32.926Z</time></trkpt><trkpt lat="43.40115833149687" lon="11.686258559811158"><ele>552.0</ele><time>2026-03-22T09:01:33.926Z</time></trkpt><trkpt lat="43.40123909502425" lon="11.686213258874977"><ele>552.0</ele><time>2026-03-22T09:01:34.926Z</time></trkpt><trkpt lat="43.40131533220645" lon="11.686173574709978"><ele>552.0</ele><time>2026-03-22T09:01:35.926Z</time></trkpt><trkpt lat="43.40139524972133" lon="11.686128825140367"><ele>552.0</ele><time>2026-03-22T09:01:36.926Z</time></trkpt><trkpt lat="43.401473849016384" lon="11.686092198241989"><ele>552.0</ele><time>2026-03-22T09:01:37.926Z</time></trkpt><trkpt lat="43.40154864837627" lon="11.686046011383134"><ele>552.0</ele><time>2026-03-22T09:01:38.926Z</time></trkpt><trkpt lat="43.40162818877745" lon="11.685999514591538"><ele>552.0</ele><time>2026-03-22T09:01:39.926Z</time></trkpt><trkpt lat="43.40170008131681" lon="11.685949517915825"><ele>554.3333333333334</ele><time>2026-03-22T09:01:40.926Z</time></trkpt><trkpt lat="43.40178223923022" lon="11.68590364083939"><ele>556.6666666666666</ele><time>2026-03-22T09:01:41.926Z</time></trkpt><trkpt lat="43.40185777958999" lon="11.685868703808778"><ele>559.0</ele><time>2026-03-22T09:01:42.926Z</time></trkpt><trkpt lat="43.40193848922218" lon="11.685842412742328"><ele>561.3333333333333</ele><time>2026-03-22T09:01:43.926Z</time></trkpt><trkpt lat="43.40201795747781" lon="11.685829488331917"><ele>563.6666666666666</ele><time>2026-03-22T09:01:44.926Z</time></trkpt><trkpt lat="43.40209829750194" lon="11.685841927108138"><ele>566.0</ele><time>2026-03-22T09:01:45.926Z</time></trkpt><trkpt lat="43.402167546788114" lon="11.68585628131079"><ele>567.8</ele><time>2026-03-22T09:01:46.926Z</time></trkpt><trkpt lat="43.40223637481786" lon="11.685884390949106"><ele>569.6</ele><time>2026-03-22T09:01:47.926Z</time></trkpt><trkpt lat="43.40230209710424" lon="11.685897087084419"><ele>571.4</ele><time>2026-03-22T09:01:48.926Z</time></trkpt><trkpt lat="43.402403823537476" lon="11.685795597612849"><ele>573.2</ele><time>2026-03-22T09:01:50.926Z</time></trkpt><trkpt lat="43.40245802689083" lon="11.685692543949322"><ele>575.0</ele><time>2026-03-22T09:01:51.926Z</time></trkpt><trkpt lat="43.40251947953191" lon="11.685585191174754"><ele>575.0</ele><time>2026-03-22T09:01:52.926Z</time></trkpt><trkpt lat="43.402597156964426" lon="11.685487263713805"><ele>575.0</ele><time>2026-03-22T09:01:53.926Z</time></trkpt><trkpt lat="43.40268175957421" lon="11.68538940816201"><ele>575.0</ele><time>2026-03-22T09:01:54.926Z</time></trkpt><trkpt lat="43.40275442046513" lon="11.685301524845025"><ele>575.0</ele><time>2026-03-22T09:01:55.926Z</time></trkpt><trkpt lat="43.40281783671242" lon="11.685214737133204"><ele>575.0</ele><time>2026-03-22T09:01:56.926Z</time></trkpt><trkpt lat="43.402878133071546" lon="11.685124345326388"><ele>575.8</ele><time>2026-03-22T09:01:57.925Z</time></trkpt><trkpt lat="43.40294910201177" lon="11.685037597677114"><ele>576.6</ele><time>2026-03-22T09:01:58.925Z</time></trkpt><trkpt lat="43.40302448586842" lon="11.684986419042048"><ele>577.4</ele><time>2026-03-22T09:01:59.925Z</time></trkpt><trkpt lat="43.403107552644485" lon="11.684963547878624"><ele>578.2</ele><time>2026-03-22T09:02:00.925Z</time></trkpt><trkpt lat="43.4032079674387" lon="11.684955362973481"><ele>579.0</ele><time>2026-03-22T09:02:01.925Z</time></trkpt><trkpt lat="43.40333469145191" lon="11.684956197162068"><ele>581.4</ele><time>2026-03-22T09:02:02.925Z</time></trkpt><trkpt lat="43.403453980512175" lon="11.684973595721727"><ele>583.8</ele><time>2026-03-22T09:02:03.925Z</time></trkpt><trkpt lat="43.403544840538366" lon="11.68498724170773"><ele>586.2</ele><time>2026-03-22T09:02:04.925Z</time></trkpt><trkpt lat="43.40361294509535" lon="11.684988475302722"><ele>588.6</ele><time>2026-03-22T09:02:05.925Z</time></trkpt><trkpt lat="43.403732208728236" lon="11.684980842420734"><ele>591.0</ele><time>2026-03-22T09:02:07.925Z</time></trkpt><trkpt lat="43.403810067211936" lon="11.684963755960558"><ele>591.6666666666666</ele><time>2026-03-22T09:02:10.925Z</time></trkpt><trkpt lat="43.403901182295364" lon="11.684916938965385"><ele>592.3333333333334</ele><time>2026-03-22T09:02:13.925Z</time></trkpt><trkpt lat="43.403985947709536" lon="11.684849628806154"><ele>593.0</ele><time>2026-03-22T09:02:15.925Z</time></trkpt><trkpt lat="43.404066620289576" lon="11.68483041237265"><ele>593.6666666666667</ele><time>2026-03-22T09:02:17.925Z</time></trkpt><trkpt lat="43.404147011598106" lon="11.68480548785286"><ele>594.3333333333334</ele><time>2026-03-22T09:02:38.927Z</time></trkpt><trkpt lat="43.40421724094281" lon="11.684781824720911"><ele>595.0</ele><time>2026-03-22T09:02:42.927Z</time></trkpt><trkpt lat="43.40428172989395" lon="11.684762000329819"><ele>595.0</ele><time>2026-03-22T09:02:44.927Z</time></trkpt><trkpt lat="43.40434615465839" lon="11.684744473813259"><ele>595.0</ele><time>2026-03-22T09:02:46.927Z</time></trkpt><trkpt lat="43.40441101371322" lon="11.684723455414609"><ele>595.0</ele><time>2026-03-22T09:02:48.927Z</time></trkpt><trkpt lat="43.40447574829897" lon="11.684692120022756"><ele>595.0</ele><time>2026-03-22T09:02:51.926Z</time></trkpt><trkpt lat="43.404556388260524" lon="11.684670195552343"><ele>595.0</ele><time>2026-03-22T09:03:00.926Z</time></trkpt><trkpt lat="43.4046276679291" lon="11.684685308297077"><ele>595.0</ele><time>2026-03-22T09:03:04.926Z</time></trkpt><trkpt lat="43.404716924941404" lon="11.684696655051164"><ele>595.0</ele><time>2026-03-22T09:03:08.926Z</time></trkpt><trkpt lat="43.404782190084674" lon="11.684726943942769"><ele>593.5</ele><time>2026-03-22T09:03:13.926Z</time></trkpt><trkpt lat="43.404858042159454" lon="11.684769886041618"><ele>592.0</ele><time>2026-03-22T09:03:19.926Z</time></trkpt><trkpt lat="43.40491599785799" lon="11.684816722819285"><ele>590.5</ele><time>2026-03-22T09:03:22.926Z</time></trkpt><trkpt lat="43.40496796433925" lon="11.684868291674306"><ele>589.0</ele><time>2026-03-22T09:03:26.926Z</time></trkpt><trkpt lat="43.40502595058786" lon="11.684971139501696"><ele>587.5</ele><time>2026-03-22T09:03:30.926Z</time></trkpt><trkpt lat="43.405086737513265" lon="11.68504788181083"><ele>586.0</ele><time>2026-03-22T09:03:34.925Z</time></trkpt><trkpt lat="43.4052003433862" lon="11.685107563171899"><ele>586.0</ele><time>2026-03-22T09:03:36.925Z</time></trkpt><trkpt lat="43.40528073309663" lon="11.685187308095434"><ele>586.0</ele><time>2026-03-22T09:03:37.925Z</time></trkpt><trkpt lat="43.40535486841882" lon="11.685240938900035"><ele>586.0</ele><time>2026-03-22T09:03:38.925Z</time></trkpt><trkpt lat="43.40545724922349" lon="11.685325457016127"><ele>586.0</ele><time>2026-03-22T09:03:40.925Z</time></trkpt><trkpt lat="43.405520327079216" lon="11.685369503622615"><ele>586.0</ele><time>2026-03-22T09:03:41.925Z</time></trkpt><trkpt lat="43.40559090649852" lon="11.685402475171555"><ele>586.0</ele><time>2026-03-22T09:03:42.925Z</time></trkpt><trkpt lat="43.40569582127875" lon="11.685434517015713"><ele>584.2</ele><time>2026-03-22T09:03:44.925Z</time></trkpt><trkpt lat="43.40575818013952" lon="11.685479086567506"><ele>582.4000000000001</ele><time>2026-03-22T09:03:46.925Z</time></trkpt><trkpt lat="43.40584790763843" lon="11.685578011574211"><ele>580.6</ele><time>2026-03-22T09:03:47.925Z</time></trkpt><trkpt lat="43.405925897150105" lon="11.685624269273813"><ele>578.8000000000001</ele><time>2026-03-22T09:03:48.925Z</time></trkpt><trkpt lat="43.40599344044967" lon="11.685656193087885"><ele>577.0</ele><time>2026-03-22T09:03:49.925Z</time></trkpt><trkpt lat="43.406229298193615" lon="11.685696011346806"><ele>575.3333333333334</ele><time>2026-03-22T09:03:54.925Z</time></trkpt><trkpt lat="43.40633834584954" lon="11.685812768427606"><ele>573.6666666666667</ele><time>2026-03-22T09:03:56.925Z</time></trkpt><trkpt lat="43.40638362877736" lon="11.685899478956783"><ele>572.0</ele><time>2026-03-22T09:03:58.925Z</time></trkpt><trkpt lat="43.40640771169109" lon="11.685982231550158"><ele>570.3333333333334</ele><time>2026-03-22T09:04:00.925Z</time></trkpt><trkpt lat="43.40643434142155" lon="11.686067583598078"><ele>568.6666666666666</ele><time>2026-03-22T09:04:03.925Z</time></trkpt><trkpt lat="43.40651958939891" lon="11.686125913350496"><ele>567.0</ele><time>2026-03-22T09:04:06.925Z</time></trkpt><trkpt lat="43.40657726293536" lon="11.68618410000585"><ele>567.0</ele><time>2026-03-22T09:04:08.925Z</time></trkpt><trkpt lat="43.40664679733567" lon="11.686262549624384"><ele>567.0</ele><time>2026-03-22T09:04:10.925Z</time></trkpt><trkpt lat="43.406721506172886" lon="11.686275770153356"><ele>567.0</ele><time>2026-03-22T09:04:28.927Z</time></trkpt><trkpt lat="43.406776386354665" lon="11.68633991500003"><ele>567.0</ele><time>2026-03-22T09:04:33.926Z</time></trkpt><trkpt lat="43.40684240207953" lon="11.6863720367425"><ele>567.0</ele><time>2026-03-22T09:04:36.927Z</time></trkpt><trkpt lat="43.40692147684578" lon="11.686397516536333"><ele>567.0</ele><time>2026-03-22T09:04:40.926Z</time></trkpt><trkpt lat="43.407014076314866" lon="11.686443815709252"><ele>567.0</ele><time>2026-03-22T09:04:44.925Z</time></trkpt><trkpt lat="43.407103842065354" lon="11.686488949865446"><ele>567.0</ele><time>2026-03-22T09:04:46.925Z</time></trkpt><trkpt lat="43.407194493486934" lon="11.686543616077802"><ele>567.0</ele><time>2026-03-22T09:04:48.925Z</time></trkpt><trkpt lat="43.40727227690565" lon="11.686602217950586"><ele>567.0</ele><time>2026-03-22T09:04:51.925Z</time></trkpt><trkpt lat="43.407357172086584" lon="11.686711461278943"><ele>567.0</ele><time>2026-03-22T09:04:53.925Z</time></trkpt><trkpt lat="43.40742937285665" lon="11.68669729805255"><ele>567.6</ele><time>2026-03-22T09:04:55.925Z</time></trkpt><trkpt lat="43.407548235463146" lon="11.68671610091631"><ele>568.2</ele><time>2026-03-22T09:04:58.925Z</time></trkpt><trkpt lat="43.4076215548668" lon="11.686750100032981"><ele>568.8</ele><time>2026-03-22T09:05:02.925Z</time></trkpt><trkpt lat="43.4076871371981" lon="11.686775331369109"><ele>569.4</ele><time>2026-03-22T09:05:05.925Z</time></trkpt><trkpt lat="43.40779166491362" lon="11.686868863833773"><ele>570.0</ele><time>2026-03-22T09:05:08.925Z</time></trkpt><trkpt lat="43.407840793146974" lon="11.686953553703454"><ele>570.0</ele><time>2026-03-22T09:05:09.925Z</time></trkpt><trkpt lat="43.40789717048566" lon="11.68702115222963"><ele>570.0</ele><time>2026-03-22T09:05:10.925Z</time></trkpt><trkpt lat="43.40798720643499" lon="11.68706713236604"><ele>570.0</ele><time>2026-03-22T09:05:13.925Z</time></trkpt><trkpt lat="43.40807164211766" lon="11.687149002717703"><ele>570.0</ele><time>2026-03-22T09:05:15.925Z</time></trkpt><trkpt lat="43.40812284322609" lon="11.687217311999165"><ele>570.0</ele><time>2026-03-22T09:05:16.925Z</time></trkpt><trkpt lat="43.4081686190701" lon="11.687279802590679"><ele>570.0</ele><time>2026-03-22T09:05:17.925Z</time></trkpt><trkpt lat="43.408252527443615" lon="11.687400521953014"><ele>567.7142857142857</ele><time>2026-03-22T09:05:19.925Z</time></trkpt><trkpt lat="43.408308627214765" lon="11.687475586505613"><ele>565.4285714285714</ele><time>2026-03-22T09:05:21.925Z</time></trkpt><trkpt lat="43.40838807918863" lon="11.687514773390792"><ele>563.1428571428571</ele><time>2026-03-22T09:05:25.924Z</time></trkpt><trkpt lat="43.40845673692338" lon="11.687557204797113"><ele>560.8571428571429</ele><time>2026-03-22T09:05:30.924Z</time></trkpt><trkpt lat="43.40850885808197" lon="11.687607212649741"><ele>558.5714285714286</ele><time>2026-03-22T09:05:37.924Z</time></trkpt><trkpt lat="43.40857480060746" lon="11.687639918556643"><ele>556.2857142857142</ele><time>2026-03-22T09:06:15.923Z</time></trkpt><trkpt lat="43.40856865692502" lon="11.687740688609729"><ele>554.0</ele><time>2026-03-22T09:06:36Z</time></trkpt><trkpt lat="43.40855606408548" lon="11.687854714496213"><ele>554.0</ele><time>2026-03-22T09:06:38Z</time></trkpt><trkpt lat="43.40852161357122" lon="11.687995162176644"><ele>554.0</ele><time>2026-03-22T09:06:40Z</time></trkpt><trkpt lat="43.40853055992368" lon="11.688089320739277"><ele>554.0</ele><time>2026-03-22T09:06:42Z</time></trkpt><trkpt lat="43.40854803174878" lon="11.688211671388778"><ele>554.0</ele><time>2026-03-22T09:06:47Z</time></trkpt><trkpt lat="43.40854971791645" lon="11.688313167304512"><ele>554.0</ele><time>2026-03-22T09:06:51Z</time></trkpt><trkpt lat="43.408563893723816" lon="11.68846463442969"><ele>554.0</ele><time>2026-03-22T09:06:54Z</time></trkpt><trkpt lat="43.40857622958447" lon="11.688565885765966"><ele>554.0</ele><time>2026-03-22T09:06:57Z</time></trkpt><trkpt lat="43.40862072722064" lon="11.68863442476297"><ele>554.0</ele><time>2026-03-22T09:07:01Z</time></trkpt><trkpt lat="43.408667499006775" lon="11.688714396435794"><ele>554.0</ele><time>2026-03-22T09:07:06Z</time></trkpt><trkpt lat="43.40869515178651" lon="11.688812829568624"><ele>554.0</ele><time>2026-03-22T09:09:07.999Z</time></trkpt><trkpt lat="43.408636370059924" lon="11.688871677711017"><ele>554.0</ele><time>2026-03-22T09:13:18.997Z</time></trkpt><trkpt lat="43.40870262873464" lon="11.688872627351895"><ele>554.0</ele><time>2026-03-22T09:13:38.997Z</time></trkpt><trkpt lat="43.40863023184355" lon="11.688872786852446"><ele>554.5</ele><time>2026-03-22T09:15:34.996Z</time></trkpt><trkpt lat="43.408634277520655" lon="11.688962974991036"><ele>555.0</ele><time>2026-03-22T09:15:38.996Z</time></trkpt><trkpt lat="43.40867299990896" lon="11.689073416560827"><ele>555.5</ele><time>2026-03-22T09:15:41.996Z</time></trkpt><trkpt lat="43.408676641057504" lon="11.689186920683069"><ele>556.0</ele><time>2026-03-22T09:15:43.996Z</time></trkpt><trkpt lat="43.40869875498511" lon="11.68929225566785"><ele>556.5</ele><time>2026-03-22T09:15:48.996Z</time></trkpt><trkpt lat="43.40877482651953" lon="11.689384618910236"><ele>557.0</ele><time>2026-03-22T09:16:06.996Z</time></trkpt><trkpt lat="43.408853355733655" lon="11.689409433258026"><ele>557.0</ele><time>2026-03-22T09:16:09.996Z</time></trkpt><trkpt lat="43.408892194040874" lon="11.689490598741036"><ele>557.0</ele><time>2026-03-22T09:16:18.996Z</time></trkpt><trkpt lat="43.408787831906054" lon="11.68949866628885"><ele>557.0</ele><time>2026-03-22T09:17:11.995Z</time></trkpt><trkpt lat="43.40875961930525" lon="11.68939150560835"><ele>557.0</ele><time>2026-03-22T09:17:14.995Z</time></trkpt><trkpt lat="43.40882982904367" lon="11.68938006919496"><ele>557.0</ele><time>2026-03-22T09:17:31.995Z</time></trkpt><trkpt lat="43.40890098725362" lon="11.689339518855073"><ele>557.0</ele><time>2026-03-22T09:17:35.995Z</time></trkpt><trkpt lat="43.40895454435612" lon="11.68928743555939"><ele>557.0</ele><time>2026-03-22T09:18:30.995Z</time></trkpt><trkpt lat="43.40902499549372" lon="11.689286745954544"><ele>557.0</ele><time>2026-03-22T09:18:33.995Z</time></trkpt><trkpt lat="43.40894825000804" lon="11.689288648095237"><ele>557.0</ele><time>2026-03-22T09:19:12.994Z</time></trkpt><trkpt lat="43.408872508206734" lon="11.689301551418982"><ele>557.0</ele><time>2026-03-22T09:19:15.994Z</time></trkpt><trkpt lat="43.408815539057926" lon="11.68935327328518"><ele>557.0</ele><time>2026-03-22T09:19:18.994Z</time></trkpt><trkpt lat="43.40875473720192" lon="11.689278073241638"><ele>557.0</ele><time>2026-03-22T09:19:22.994Z</time></trkpt><trkpt lat="43.40873673293801" lon="11.689168766534046"><ele>557.0</ele><time>2026-03-22T09:19:27.994Z</time></trkpt><trkpt lat="43.40870278232723" lon="11.689094125535236"><ele>557.0</ele><time>2026-03-22T09:19:30.994Z</time></trkpt><trkpt lat="43.408658870229466" lon="11.689016990389618"><ele>557.0</ele><time>2026-03-22T09:19:36.994Z</time></trkpt><trkpt lat="43.40866295687642" lon="11.688925921553473"><ele>557.0</ele><time>2026-03-22T09:19:51.994Z</time></trkpt><trkpt lat="43.408720661286935" lon="11.688888157259353"><ele>557.0</ele><time>2026-03-22T09:19:55.994Z</time></trkpt><trkpt lat="43.40871847191707" lon="11.688797357629255"><ele>557.0</ele><time>2026-03-22T09:19:57.994Z</time></trkpt><trkpt lat="43.4086968132655" lon="11.688700903545765"><ele>557.0</ele><time>2026-03-22T09:19:59.994Z</time></trkpt><trkpt lat="43.4086825293687" lon="11.688593407868577"><ele>556.5</ele><time>2026-03-22T09:20:01.994Z</time></trkpt><trkpt lat="43.40865926012231" lon="11.688504160233041"><ele>556.0</ele><time>2026-03-22T09:20:03.994Z</time></trkpt><trkpt lat="43.4086397559162" lon="11.688405354709818"><ele>555.5</ele><time>2026-03-22T09:20:05.994Z</time></trkpt><trkpt lat="43.408620219101365" lon="11.688317003277552"><ele>555.0</ele><time>2026-03-22T09:20:08.994Z</time></trkpt><trkpt lat="43.408650230292615" lon="11.688163397447388"><ele>554.5</ele><time>2026-03-22T09:20:11.994Z</time></trkpt><trkpt lat="43.40866995008673" lon="11.688070671438762"><ele>554.0</ele><time>2026-03-22T09:20:13.994Z</time></trkpt><trkpt lat="43.40866598894496" lon="11.687949917100845"><ele>554.0</ele><time>2026-03-22T09:20:16.994Z</time></trkpt><trkpt lat="43.40874706587751" lon="11.687950775175652"><ele>554.0</ele><time>2026-03-22T09:20:22.994Z</time></trkpt><trkpt lat="43.408838775700765" lon="11.68804752014983"><ele>554.0</ele><time>2026-03-22T09:20:31.994Z</time></trkpt><trkpt lat="43.4088888686379" lon="11.688100762388178"><ele>554.0</ele><time>2026-03-22T09:20:40.993Z</time></trkpt><trkpt lat="43.40894907600437" lon="11.688158934966953"><ele>554.0</ele><time>2026-03-22T09:20:46.993Z</time></trkpt><trkpt lat="43.4089761818018" lon="11.688238515357233"><ele>554.0</ele><time>2026-03-22T09:21:12.993Z</time></trkpt><trkpt lat="43.40903065799051" lon="11.688282597666541"><ele>547.6666666666666</ele><time>2026-03-22T09:21:16.993Z</time></trkpt><trkpt lat="43.40910202097197" lon="11.688300335172542"><ele>541.3333333333333</ele><time>2026-03-22T09:21:19.993Z</time></trkpt><trkpt lat="43.40918865202708" lon="11.688267345898048"><ele>535.0</ele><time>2026-03-22T09:21:22.993Z</time></trkpt><trkpt lat="43.40926805670237" lon="11.688277403005324"><ele>528.6666666666666</ele><time>2026-03-22T09:21:26.993Z</time></trkpt><trkpt lat="43.409336555776946" lon="11.688303756403014"><ele>522.3333333333334</ele><time>2026-03-22T09:21:28.993Z</time></trkpt><trkpt lat="43.40941691574477" lon="11.688333565702248"><ele>516.0</ele><time>2026-03-22T09:21:30.993Z</time></trkpt><trkpt lat="43.40949708196674" lon="11.688323035547297"><ele>516.0</ele><time>2026-03-22T09:22:14.993Z</time></trkpt><trkpt lat="43.40952587516713" lon="11.688405070611784"><ele>516.0</ele><time>2026-03-22T09:22:17.993Z</time></trkpt><trkpt lat="43.4095919518747" lon="11.688449217756471"><ele>516.0</ele><time>2026-03-22T09:24:08.992Z</time></trkpt><trkpt lat="43.409642820320414" lon="11.68855670207517"><ele>516.0</ele><time>2026-03-22T09:24:10.992Z</time></trkpt><trkpt lat="43.40969381520344" lon="11.688666672152369"><ele>516.0</ele><time>2026-03-22T09:24:12.992Z</time></trkpt><trkpt lat="43.40972467431544" lon="11.688772254750154"><ele>516.0</ele><time>2026-03-22T09:24:14.992Z</time></trkpt><trkpt lat="43.40977582392218" lon="11.688834656929284"><ele>512.0</ele><time>2026-03-22T09:24:16.992Z</time></trkpt><trkpt lat="43.40987642906492" lon="11.688809312633985"><ele>508.0</ele><time>2026-03-22T09:24:18.992Z</time></trkpt><trkpt lat="43.409940082063784" lon="11.688781261519027"><ele>504.0</ele><time>2026-03-22T09:24:19.992Z</time></trkpt><trkpt lat="43.41000129318404" lon="11.68874567264663"><ele>500.0</ele><time>2026-03-22T09:24:20.992Z</time></trkpt><trkpt lat="43.41011541523943" lon="11.688702530208957"><ele>496.0</ele><time>2026-03-22T09:24:22.992Z</time></trkpt><trkpt lat="43.41021869985726" lon="11.688613811674296"><ele>494.6666666666667</ele><time>2026-03-22T09:24:24.992Z</time></trkpt><trkpt lat="43.41028412810702" lon="11.688539306282024"><ele>493.33333333333337</ele><time>2026-03-22T09:24:26.992Z</time></trkpt><trkpt lat="43.41037184158306" lon="11.6884381713896"><ele>492.0</ele><time>2026-03-22T09:24:28.992Z</time></trkpt><trkpt lat="43.41043313413226" lon="11.688409522365358"><ele>490.66666666666663</ele><time>2026-03-22T09:24:32.991Z</time></trkpt><trkpt lat="43.410439867931636" lon="11.688309165783304"><ele>489.3333333333333</ele><time>2026-03-22T09:24:35.991Z</time></trkpt><trkpt lat="43.41039069538069" lon="11.688244929959957"><ele>488.0</ele><time>2026-03-22T09:24:36.991Z</time></trkpt><trkpt lat="43.4103316862583" lon="11.688181200406085"><ele>488.0</ele><time>2026-03-22T09:24:37.991Z</time></trkpt><trkpt lat="43.410287592921996" lon="11.688119181178454"><ele>487.99999999999994</ele><time>2026-03-22T09:24:38.991Z</time></trkpt><trkpt lat="43.410190360106306" lon="11.687980261194182"><ele>487.99999999999994</ele><time>2026-03-22T09:24:40.991Z</time></trkpt><trkpt lat="43.4101405626439" lon="11.687882060742515"><ele>488.0</ele><time>2026-03-22T09:24:41.991Z</time></trkpt><trkpt lat="43.41010474292037" lon="11.687769145497224"><ele>488.0</ele><time>2026-03-22T09:24:42.991Z</time></trkpt><trkpt lat="43.410072630777734" lon="11.687648889427697"><ele>486.8333333333333</ele><time>2026-03-22T09:24:43.991Z</time></trkpt><trkpt lat="43.41003315364956" lon="11.687550575697802"><ele>485.66666666666663</ele><time>2026-03-22T09:24:44.991Z</time></trkpt><trkpt lat="43.4100025663442" lon="11.687467228169742"><ele>484.5</ele><time>2026-03-22T09:24:45.991Z</time></trkpt><trkpt lat="43.409960717094194" lon="11.68734683673976"><ele>483.33333333333337</ele><time>2026-03-22T09:24:47.991Z</time></trkpt><trkpt lat="43.40993755841265" lon="11.687254374539782"><ele>482.1666666666667</ele><time>2026-03-22T09:24:49.991Z</time></trkpt><trkpt lat="43.40998348426885" lon="11.687140511511945"><ele>481.0</ele><time>2026-03-22T09:24:52.991Z</time></trkpt><trkpt lat="43.41005998787595" lon="11.687107996577192"><ele>481.00000000000006</ele><time>2026-03-22T09:24:55.991Z</time></trkpt><trkpt lat="43.41012606700234" lon="11.687064388885627"><ele>481.0</ele><time>2026-03-22T09:24:57.991Z</time></trkpt><trkpt lat="43.41018142549685" lon="11.687009603427999"><ele>481.0</ele><time>2026-03-22T09:25:05.991Z</time></trkpt><trkpt lat="43.41030543119522" lon="11.68698438441003"><ele>481.0</ele><time>2026-03-22T09:25:22.991Z</time></trkpt><trkpt lat="43.41021535165644" lon="11.686995998262768"><ele>481.00000000000006</ele><time>2026-03-22T09:25:34.991Z</time></trkpt><trkpt lat="43.41013728568758" lon="11.686998612548848"><ele>481.0</ele><time>2026-03-22T09:25:36.991Z</time></trkpt><trkpt lat="43.41007795269834" lon="11.687085576781309"><ele>481.0</ele><time>2026-03-22T09:25:38.991Z</time></trkpt><trkpt lat="43.41000092082761" lon="11.687176638927069"><ele>481.0</ele><time>2026-03-22T09:25:40.991Z</time></trkpt><trkpt lat="43.40998961905622" lon="11.68726913106249"><ele>481.0</ele><time>2026-03-22T09:25:42.991Z</time></trkpt><trkpt lat="43.410017318887824" lon="11.687373500546736"><ele>481.0</ele><time>2026-03-22T09:25:44.991Z</time></trkpt><trkpt lat="43.410054108263296" lon="11.687487167172213"><ele>481.0</ele><time>2026-03-22T09:25:45.991Z</time></trkpt><trkpt lat="43.41010646316496" lon="11.687645197575273"><ele>482.75</ele><time>2026-03-22T09:25:46.991Z</time></trkpt><trkpt lat="43.41017954057228" lon="11.687849719279392"><ele>484.5</ele><time>2026-03-22T09:25:47.991Z</time></trkpt><trkpt lat="43.41025559596658" lon="11.68802579090227"><ele>486.25</ele><time>2026-03-22T09:25:48.991Z</time></trkpt><trkpt lat="43.41033438336928" lon="11.68813291218548"><ele>488.0</ele><time>2026-03-22T09:25:49.991Z</time></trkpt><trkpt lat="43.41041713225754" lon="11.6882200857094"><ele>487.99999999999994</ele><time>2026-03-22T09:25:50.991Z</time></trkpt><trkpt lat="43.41046646948163" lon="11.688294956323862"><ele>488.0</ele><time>2026-03-22T09:25:51.991Z</time></trkpt><trkpt lat="43.41050270453527" lon="11.68837434207242"><ele>488.0</ele><time>2026-03-22T09:25:52.991Z</time></trkpt><trkpt lat="43.41054234954578" lon="11.688525837039679"><ele>488.0</ele><time>2026-03-22T09:25:54.991Z</time></trkpt><trkpt lat="43.410557743904995" lon="11.688615135822198"><ele>487.99999999999994</ele><time>2026-03-22T09:25:55.991Z</time></trkpt><trkpt lat="43.41056973230303" lon="11.688716773600397"><ele>488.0</ele><time>2026-03-22T09:25:56.991Z</time></trkpt><trkpt lat="43.410577231158484" lon="11.6888050005884"><ele>489.3333333333333</ele><time>2026-03-22T09:25:57.991Z</time></trkpt><trkpt lat="43.41056772400108" lon="11.688907769340512"><ele>490.66666666666663</ele><time>2026-03-22T09:25:58.991Z</time></trkpt><trkpt lat="43.410538447604544" lon="11.689001039918733"><ele>492.0</ele><time>2026-03-22T09:25:59.991Z</time></trkpt><trkpt lat="43.410499212262685" lon="11.689088166151901"><ele>493.33333333333337</ele><time>2026-03-22T09:26:00.991Z</time></trkpt><trkpt lat="43.41045957901984" lon="11.689167039596336"><ele>494.6666666666667</ele><time>2026-03-22T09:26:01.991Z</time></trkpt><trkpt lat="43.41043694192122" lon="11.689259325842622"><ele>496.0</ele><time>2026-03-22T09:26:03.991Z</time></trkpt><trkpt lat="43.41052709481799" lon="11.689308524329702"><ele>498.20000000000005</ele><time>2026-03-22T09:26:06.991Z</time></trkpt><trkpt lat="43.41058593333604" lon="11.689408024314236"><ele>500.40000000000003</ele><time>2026-03-22T09:26:08.991Z</time></trkpt><trkpt lat="43.410630390603465" lon="11.689550572791523"><ele>502.6</ele><time>2026-03-22T09:26:10.991Z</time></trkpt><trkpt lat="43.41074534158349" lon="11.689555295352287"><ele>504.8</ele><time>2026-03-22T09:26:12.991Z</time></trkpt><trkpt lat="43.410866795649575" lon="11.689545473015372"><ele>507.0</ele><time>2026-03-22T09:26:13.991Z</time></trkpt><trkpt lat="43.411000594257224" lon="11.689537886164283"><ele>507.0</ele><time>2026-03-22T09:26:14.991Z</time></trkpt><trkpt lat="43.41110819486101" lon="11.689551169367277"><ele>507.0</ele><time>2026-03-22T09:26:15.991Z</time></trkpt><trkpt lat="43.41119288264401" lon="11.68960612602115"><ele>507.0</ele><time>2026-03-22T09:26:16.991Z</time></trkpt><trkpt lat="43.41125964586226" lon="11.689651571368623"><ele>507.0</ele><time>2026-03-22T09:26:17.991Z</time></trkpt><trkpt lat="43.41133901936082" lon="11.689581815230001"><ele>507.0</ele><time>2026-03-22T09:26:19.991Z</time></trkpt><trkpt lat="43.41141080532343" lon="11.689541529508103"><ele>507.0</ele><time>2026-03-22T09:26:21.991Z</time></trkpt><trkpt lat="43.41147227877227" lon="11.689522730731282"><ele>506.20000000000005</ele><time>2026-03-22T09:26:22.991Z</time></trkpt><trkpt lat="43.41153878508367" lon="11.689501956621262"><ele>505.40000000000003</ele><time>2026-03-22T09:26:23.991Z</time></trkpt><trkpt lat="43.41166320798488" lon="11.689561043819932"><ele>504.59999999999997</ele><time>2026-03-22T09:26:25.991Z</time></trkpt><trkpt lat="43.41171399525188" lon="11.68965714107235"><ele>503.79999999999995</ele><time>2026-03-22T09:26:26.991Z</time></trkpt><trkpt lat="43.411760957362816" lon="11.6897522063604"><ele>503.0</ele><time>2026-03-22T09:26:27.991Z</time></trkpt><trkpt lat="43.41183445404146" lon="11.689803456864556"><ele>503.0</ele><time>2026-03-22T09:26:28.991Z</time></trkpt><trkpt lat="43.41194864708016" lon="11.68981961462261"><ele>502.99999999999994</ele><time>2026-03-22T09:26:29.991Z</time></trkpt><trkpt lat="43.41206800731039" lon="11.689813142337547"><ele>502.99999999999994</ele><time>2026-03-22T09:26:30.991Z</time></trkpt><trkpt lat="43.4121639274967" lon="11.689804108006404"><ele>503.0</ele><time>2026-03-22T09:26:31.99Z</time></trkpt><trkpt lat="43.4122682652063" lon="11.689769281577268"><ele>503.0</ele><time>2026-03-22T09:26:32.99Z</time></trkpt><trkpt lat="43.41236437842479" lon="11.689756559724662"><ele>503.0</ele><time>2026-03-22T09:26:33.99Z</time></trkpt><trkpt lat="43.41247351404677" lon="11.68983331269073"><ele>502.99999999999994</ele><time>2026-03-22T09:26:35.99Z</time></trkpt><trkpt lat="43.412572398818405" lon="11.689910034745804"><ele>502.99999999999994</ele><time>2026-03-22T09:26:36.99Z</time></trkpt><trkpt lat="43.412681243681405" lon="11.689985233474689"><ele>503.0</ele><time>2026-03-22T09:26:37.99Z</time></trkpt><trkpt lat="43.4127423434334" lon="11.690049771486375"><ele>503.0</ele><time>2026-03-22T09:26:38.99Z</time></trkpt><trkpt lat="43.41278383155682" lon="11.6901215828316"><ele>503.0</ele><time>2026-03-22T09:26:39.99Z</time></trkpt><trkpt lat="43.41283038890642" lon="11.690203750128934"><ele>502.99999999999994</ele><time>2026-03-22T09:26:40.99Z</time></trkpt><trkpt lat="43.41287539781175" lon="11.690313132992404"><ele>502.99999999999994</ele><time>2026-03-22T09:26:41.99Z</time></trkpt><trkpt lat="43.412914548791996" lon="11.690468619875764"><ele>503.0</ele><time>2026-03-22T09:26:42.99Z</time></trkpt><trkpt lat="43.412941225316594" lon="11.690599613586823"><ele>503.0</ele><time>2026-03-22T09:26:43.99Z</time></trkpt><trkpt lat="43.41296232503285" lon="11.690731085211576"><ele>506.49999999999994</ele><time>2026-03-22T09:26:45.012Z</time></trkpt><trkpt lat="43.4129692785233" lon="11.690881384601978"><ele>510.0</ele><time>2026-03-22T09:26:46.012Z</time></trkpt><trkpt lat="43.412965622787446" lon="11.691018015952903"><ele>513.5</ele><time>2026-03-22T09:26:47.012Z</time></trkpt><trkpt lat="43.41295989406083" lon="11.691133817792766"><ele>517.0</ele><time>2026-03-22T09:26:48.012Z</time></trkpt><trkpt lat="43.412961620517535" lon="11.691231387165018"><ele>520.5</ele><time>2026-03-22T09:26:49.012Z</time></trkpt><trkpt lat="43.412945325280766" lon="11.691336328426749"><ele>524.0</ele><time>2026-03-22T09:26:50.012Z</time></trkpt><trkpt lat="43.41293140000478" lon="11.691447417946288"><ele>525.1666666666666</ele><time>2026-03-22T09:26:51.012Z</time></trkpt><trkpt lat="43.41291461585085" lon="11.691540676710517"><ele>526.3333333333333</ele><time>2026-03-22T09:26:52.012Z</time></trkpt><trkpt lat="43.41291786793197" lon="11.691632763612672"><ele>527.5</ele><time>2026-03-22T09:26:53.012Z</time></trkpt><trkpt lat="43.41297210082481" lon="11.691710451960093"><ele>528.6666666666666</ele><time>2026-03-22T09:26:54.012Z</time></trkpt><trkpt lat="43.413056502345825" lon="11.691804586940796"><ele>529.8333333333334</ele><time>2026-03-22T09:26:55.012Z</time></trkpt><trkpt lat="43.4130691429287" lon="11.69191351049301"><ele>531.0</ele><time>2026-03-22T09:26:57.012Z</time></trkpt><trkpt lat="43.413041107022195" lon="11.692032252832961"><ele>533.0</ele><time>2026-03-22T09:26:59.012Z</time></trkpt><trkpt lat="43.413013036379716" lon="11.692141972676533"><ele>535.0</ele><time>2026-03-22T09:27:00.012Z</time></trkpt><trkpt lat="43.41297831192385" lon="11.692228879152301"><ele>537.0</ele><time>2026-03-22T09:27:01.012Z</time></trkpt><trkpt lat="43.41291936316133" lon="11.6923204663553"><ele>539.0</ele><time>2026-03-22T09:27:03.012Z</time></trkpt><trkpt lat="43.41301151826665" lon="11.692436678028109"><ele>541.0</ele><time>2026-03-22T09:27:05.012Z</time></trkpt><trkpt lat="43.41308846266361" lon="11.692523923557442"><ele>539.4</ele><time>2026-03-22T09:27:06.012Z</time></trkpt><trkpt lat="43.41318634618143" lon="11.692620116178231"><ele>537.8</ele><time>2026-03-22T09:27:07.012Z</time></trkpt><trkpt lat="43.413282656227246" lon="11.69267606162213"><ele>536.1999999999999</ele><time>2026-03-22T09:27:08.012Z</time></trkpt><trkpt lat="43.4133487601038" lon="11.692708648868571"><ele>534.6</ele><time>2026-03-22T09:27:09.012Z</time></trkpt><trkpt lat="43.413460287330736" lon="11.692800797433456"><ele>533.0</ele><time>2026-03-22T09:27:11.012Z</time></trkpt><trkpt lat="43.413531972411015" lon="11.692888224491254"><ele>533.0</ele><time>2026-03-22T09:27:12.012Z</time></trkpt><trkpt lat="43.41360122883761" lon="11.692962055570538"><ele>533.0</ele><time>2026-03-22T09:27:13.012Z</time></trkpt><trkpt lat="43.41366681302739" lon="11.692980135111455"><ele>533.0</ele><time>2026-03-22T09:27:14.012Z</time></trkpt><trkpt lat="43.413744351662785" lon="11.692963660634739"><ele>533.0</ele><time>2026-03-22T09:27:15.012Z</time></trkpt><trkpt lat="43.41381939338816" lon="11.692979572811295"><ele>533.0</ele><time>2026-03-22T09:27:16.012Z</time></trkpt><trkpt lat="43.413886148847695" lon="11.693035005926209"><ele>533.0</ele><time>2026-03-22T09:27:17.012Z</time></trkpt><trkpt lat="43.41396983794897" lon="11.693093259741223"><ele>530.8</ele><time>2026-03-22T09:27:18.012Z</time></trkpt><trkpt lat="43.414045009896086" lon="11.69318509536737"><ele>528.5999999999999</ele><time>2026-03-22T09:27:19.012Z</time></trkpt><trkpt lat="43.41411867659363" lon="11.693268014280402"><ele>526.4000000000001</ele><time>2026-03-22T09:27:20.012Z</time></trkpt><trkpt lat="43.41418259086862" lon="11.693342297895347"><ele>524.2</ele><time>2026-03-22T09:27:21.012Z</time></trkpt><trkpt lat="43.414280808917916" lon="11.693402389694738"><ele>522.0</ele><time>2026-03-22T09:27:23.012Z</time></trkpt><trkpt lat="43.41448322936912" lon="11.693350818352323"><ele>522.0</ele><time>2026-03-22T09:27:46.013Z</time></trkpt><trkpt lat="43.41458441745159" lon="11.693321843033948"><ele>522.0</ele><time>2026-03-22T09:27:48.013Z</time></trkpt><trkpt lat="43.41469906661844" lon="11.69328994532282"><ele>522.0</ele><time>2026-03-22T09:27:50.013Z</time></trkpt><trkpt lat="43.4147810976921" lon="11.693254245595329"><ele>522.0</ele><time>2026-03-22T09:27:52.013Z</time></trkpt><trkpt lat="43.41483470070824" lon="11.693202566852916"><ele>522.0</ele><time>2026-03-22T09:27:54.013Z</time></trkpt><trkpt lat="43.41491724302849" lon="11.693138252990623"><ele>520.5</ele><time>2026-03-22T09:27:56.013Z</time></trkpt><trkpt lat="43.414993998107015" lon="11.69307293768046"><ele>519.0</ele><time>2026-03-22T09:27:58.013Z</time></trkpt><trkpt lat="43.41505361368298" lon="11.693021621384663"><ele>517.5</ele><time>2026-03-22T09:28:02.013Z</time></trkpt><trkpt lat="43.415245870208295" lon="11.69285561060132"><ele>516.0</ele><time>2026-03-22T09:28:12.013Z</time></trkpt><trkpt lat="43.4153352640527" lon="11.692765390418849"><ele>515.0</ele><time>2026-03-22T09:28:14.013Z</time></trkpt><trkpt lat="43.415414841692254" lon="11.692701878760959"><ele>514.0</ele><time>2026-03-22T09:28:16.013Z</time></trkpt><trkpt lat="43.415508495164346" lon="11.692621080867593"><ele>513.0</ele><time>2026-03-22T09:28:18.013Z</time></trkpt><trkpt lat="43.41561059804036" lon="11.692562329234764"><ele>512.0</ele><time>2026-03-22T09:28:20.013Z</time></trkpt><trkpt lat="43.41571429297891" lon="11.692517360877448"><ele>511.0</ele><time>2026-03-22T09:28:22.013Z</time></trkpt><trkpt lat="43.415804677775355" lon="11.692514600140338"><ele>511.00000000000006</ele><time>2026-03-22T09:28:24.013Z</time></trkpt><trkpt lat="43.41590249306792" lon="11.692508508267844"><ele>511.0</ele><time>2026-03-22T09:28:26.013Z</time></trkpt><trkpt lat="43.415995603289076" lon="11.692485733394737"><ele>511.0</ele><time>2026-03-22T09:28:28.013Z</time></trkpt><trkpt lat="43.41607391728524" lon="11.692423937230574"><ele>511.0</ele><time>2026-03-22T09:28:30.013Z</time></trkpt><trkpt lat="43.41610540177015" lon="11.692322851452703"><ele>511.00000000000006</ele><time>2026-03-22T09:28:33.013Z</time></trkpt><trkpt lat="43.41608224615433" lon="11.69222645270738"><ele>511.0</ele><time>2026-03-22T09:28:44.013Z</time></trkpt><trkpt lat="43.41599877070605" lon="11.692114305432751"><ele>511.0</ele><time>2026-03-22T09:28:46.013Z</time></trkpt><trkpt lat="43.415941858954014" lon="11.692069380689103"><ele>511.0</ele><time>2026-03-22T09:28:47.013Z</time></trkpt><trkpt lat="43.41584924031253" lon="11.692028780945462"><ele>511.0</ele><time>2026-03-22T09:28:48.013Z</time></trkpt><trkpt lat="43.41572308812197" lon="11.691994756890686"><ele>511.0</ele><time>2026-03-22T09:28:49.013Z</time></trkpt><trkpt lat="43.41561960453059" lon="11.691970306823153"><ele>511.0</ele><time>2026-03-22T09:28:50.013Z</time></trkpt><trkpt lat="43.41555341840967" lon="11.691934841135645"><ele>508.4</ele><time>2026-03-22T09:28:51.013Z</time></trkpt><trkpt lat="43.415541044710025" lon="11.691841440720223"><ele>505.8</ele><time>2026-03-22T09:28:54.013Z</time></trkpt><trkpt lat="43.415639261836475" lon="11.691833751542468"><ele>503.19999999999993</ele><time>2026-03-22T09:28:56.013Z</time></trkpt><trkpt lat="43.41573158854412" lon="11.691844923438039"><ele>500.59999999999997</ele><time>2026-03-22T09:28:57.013Z</time></trkpt><trkpt lat="43.41582505624377" lon="11.691850226148633"><ele>498.0</ele><time>2026-03-22T09:28:58.013Z</time></trkpt><trkpt lat="43.41593478757775" lon="11.691846463188257"><ele>498.0</ele><time>2026-03-22T09:28:59.013Z</time></trkpt><trkpt lat="43.41601695528736" lon="11.691852467304624"><ele>498.0</ele><time>2026-03-22T09:29:00.013Z</time></trkpt><trkpt lat="43.41607846757723" lon="11.691832975580098"><ele>498.0</ele><time>2026-03-22T09:29:01.013Z</time></trkpt><trkpt lat="43.41619070584543" lon="11.691747888159908"><ele>498.0</ele><time>2026-03-22T09:29:03.013Z</time></trkpt><trkpt lat="43.41622145031236" lon="11.691646020939345"><ele>498.0</ele><time>2026-03-22T09:29:04.013Z</time></trkpt><trkpt lat="43.41622531992974" lon="11.691548845185478"><ele>498.0</ele><time>2026-03-22T09:29:05.013Z</time></trkpt><trkpt lat="43.41622167334154" lon="11.691458920108989"><ele>498.0</ele><time>2026-03-22T09:29:06.013Z</time></trkpt><trkpt lat="43.41620023232117" lon="11.691369882043025"><ele>498.0</ele><time>2026-03-22T09:29:07.013Z</time></trkpt><trkpt lat="43.41616837612474" lon="11.691274639453702"><ele>498.0</ele><time>2026-03-22T09:29:08.013Z</time></trkpt><trkpt lat="43.416161835052264" lon="11.691174830425648"><ele>498.0</ele><time>2026-03-22T09:29:09.013Z</time></trkpt><trkpt lat="43.41618100457935" lon="11.691081400882815"><ele>498.0</ele><time>2026-03-22T09:29:10.013Z</time></trkpt><trkpt lat="43.416186259928075" lon="11.690989490890981"><ele>498.0</ele><time>2026-03-22T09:29:11.013Z</time></trkpt><trkpt lat="43.41616407154483" lon="11.690862263337397"><ele>495.2</ele><time>2026-03-22T09:29:14.013Z</time></trkpt><trkpt lat="43.416220764901844" lon="11.690789090950306"><ele>492.4</ele><time>2026-03-22T09:29:24.012Z</time></trkpt><trkpt lat="43.416331731244455" lon="11.690780869277232"><ele>489.59999999999997</ele><time>2026-03-22T09:29:26.012Z</time></trkpt><trkpt lat="43.416395353734536" lon="11.690813712339533"><ele>486.79999999999995</ele><time>2026-03-22T09:29:27.012Z</time></trkpt><trkpt lat="43.4164678303386" lon="11.690844144343849"><ele>484.0</ele><time>2026-03-22T09:29:28.012Z</time></trkpt><trkpt lat="43.416578911852675" lon="11.690792718629021"><ele>484.0</ele><time>2026-03-22T09:29:30.012Z</time></trkpt><trkpt lat="43.416596603839594" lon="11.69070017453479"><ele>484.0</ele><time>2026-03-22T09:29:31.012Z</time></trkpt><trkpt lat="43.416637380663616" lon="11.69058947696806"><ele>484.0</ele><time>2026-03-22T09:29:32.012Z</time></trkpt><trkpt lat="43.41669773336837" lon="11.690490075059992"><ele>484.0</ele><time>2026-03-22T09:29:33.012Z</time></trkpt><trkpt lat="43.41679649518456" lon="11.690387755731425"><ele>484.0</ele><time>2026-03-22T09:29:34.012Z</time></trkpt><trkpt lat="43.41690174689229" lon="11.690257949789899"><ele>479.79999999999995</ele><time>2026-03-22T09:29:35.015Z</time></trkpt><trkpt lat="43.41698459433068" lon="11.690150587856078"><ele>475.59999999999997</ele><time>2026-03-22T09:29:36.015Z</time></trkpt><trkpt lat="43.417018066766104" lon="11.690076040235079"><ele>471.4</ele><time>2026-03-22T09:29:37.015Z</time></trkpt><trkpt lat="43.417049768208685" lon="11.689865942885827"><ele>467.2</ele><time>2026-03-22T09:29:39.015Z</time></trkpt><trkpt lat="43.41707253246113" lon="11.689730609215866"><ele>463.0</ele><time>2026-03-22T09:29:40.015Z</time></trkpt><trkpt lat="43.41711116583856" lon="11.689647880441228"><ele>463.0</ele><time>2026-03-22T09:29:41.015Z</time></trkpt><trkpt lat="43.417151209572054" lon="11.689531930856916"><ele>462.99999999999994</ele><time>2026-03-22T09:29:42.015Z</time></trkpt><trkpt lat="43.41717734825237" lon="11.68941715914752"><ele>463.0</ele><time>2026-03-22T09:29:43.015Z</time></trkpt><trkpt lat="43.41721060957031" lon="11.689343427695604"><ele>463.0</ele><time>2026-03-22T09:29:44.015Z</time></trkpt><trkpt lat="43.41725925556968" lon="11.689282401235594"><ele>462.99999999999994</ele><time>2026-03-22T09:29:45.015Z</time></trkpt><trkpt lat="43.417308746667054" lon="11.689222548223935"><ele>463.0</ele><time>2026-03-22T09:29:46.015Z</time></trkpt><trkpt lat="43.41735098680741" lon="11.689157628563404"><ele>463.0</ele><time>2026-03-22T09:29:47.015Z</time></trkpt><trkpt lat="43.417407772212265" lon="11.689098302438108"><ele>462.6666666666667</ele><time>2026-03-22T09:30:03.015Z</time></trkpt><trkpt lat="43.417471385262594" lon="11.68908631239581"><ele>462.33333333333337</ele><time>2026-03-22T09:30:05.015Z</time></trkpt><trkpt lat="43.41755773479089" lon="11.6890632525599"><ele>462.0</ele><time>2026-03-22T09:30:07.015Z</time></trkpt><trkpt lat="43.41764492130134" lon="11.689030664611847"><ele>461.66666666666663</ele><time>2026-03-22T09:30:08.015Z</time></trkpt><trkpt lat="43.41773207027765" lon="11.68899293748005"><ele>461.3333333333333</ele><time>2026-03-22T09:30:09.015Z</time></trkpt><trkpt lat="43.41779610259151" lon="11.688942466428275"><ele>461.0</ele><time>2026-03-22T09:30:10.015Z</time></trkpt><trkpt lat="43.4178318368194" lon="11.68884991525192"><ele>460.99999999999994</ele><time>2026-03-22T09:30:12.015Z</time></trkpt><trkpt lat="43.41786675365445" lon="11.688769960524787"><ele>461.0</ele><time>2026-03-22T09:30:14.015Z</time></trkpt><trkpt lat="43.41792714962615" lon="11.688678812465259"><ele>461.0</ele><time>2026-03-22T09:30:17.015Z</time></trkpt><trkpt lat="43.41799050550611" lon="11.688624931256408"><ele>461.0</ele><time>2026-03-22T09:30:20.015Z</time></trkpt><trkpt lat="43.41806068714252" lon="11.68857877105325"><ele>460.99999999999994</ele><time>2026-03-22T09:30:23.015Z</time></trkpt><trkpt lat="43.41813260198233" lon="11.688534990935318"><ele>461.0</ele><time>2026-03-22T09:30:26.015Z</time></trkpt><trkpt lat="43.41821276813417" lon="11.688498565014067"><ele>460.8333333333333</ele><time>2026-03-22T09:30:29.015Z</time></trkpt><trkpt lat="43.41829328998" lon="11.688510268416087"><ele>460.66666666666663</ele><time>2026-03-22T09:30:31.015Z</time></trkpt><trkpt lat="43.418392747627" lon="11.688562691972585"><ele>460.5</ele><time>2026-03-22T09:30:33.015Z</time></trkpt><trkpt lat="43.418471876759746" lon="11.688616058044287"><ele>460.33333333333337</ele><time>2026-03-22T09:30:35.015Z</time></trkpt><trkpt lat="43.41855022642751" lon="11.688632026272858"><ele>460.1666666666667</ele><time>2026-03-22T09:30:36.015Z</time></trkpt><trkpt lat="43.418630275013335" lon="11.688652615352517"><ele>460.0</ele><time>2026-03-22T09:30:37.015Z</time></trkpt><trkpt lat="43.4186953007159" lon="11.688658978666918"><ele>460.00000000000006</ele><time>2026-03-22T09:30:38.015Z</time></trkpt><trkpt lat="43.418809644503995" lon="11.68867904095278"><ele>460.0</ele><time>2026-03-22T09:30:40.015Z</time></trkpt><trkpt lat="43.418878308100844" lon="11.688706704930121"><ele>460.0</ele><time>2026-03-22T09:30:42.015Z</time></trkpt><trkpt lat="43.41894242548488" lon="11.688664885242236"><ele>460.0</ele><time>2026-03-22T09:31:11.014Z</time></trkpt><trkpt lat="43.41899969216902" lon="11.688530542450271"><ele>460.00000000000006</ele><time>2026-03-22T09:31:13.014Z</time></trkpt><trkpt lat="43.41901150592595" lon="11.68843927028723"><ele>460.0</ele><time>2026-03-22T09:31:15.014Z</time></trkpt><trkpt lat="43.419003362677294" lon="11.68834381008353"><ele>457.8</ele><time>2026-03-22T09:31:18.014Z</time></trkpt><trkpt lat="43.41899499907196" lon="11.688255073314341"><ele>455.6</ele><time>2026-03-22T09:31:20.014Z</time></trkpt><trkpt lat="43.418976620935865" lon="11.68811164293183"><ele>453.4</ele><time>2026-03-22T09:31:22.014Z</time></trkpt><trkpt lat="43.41894688446632" lon="11.687989291739727"><ele>451.2</ele><time>2026-03-22T09:31:24.014Z</time></trkpt><trkpt lat="43.41891021536338" lon="11.687880912534041"><ele>449.0</ele><time>2026-03-22T09:31:26.014Z</time></trkpt><trkpt lat="43.41891797340699" lon="11.687733747373297"><ele>448.2</ele><time>2026-03-22T09:31:28.014Z</time></trkpt><trkpt lat="43.418915322079386" lon="11.687633291396862"><ele>447.4</ele><time>2026-03-22T09:31:29.014Z</time></trkpt><trkpt lat="43.418877025316846" lon="11.687485779338177"><ele>446.6</ele><time>2026-03-22T09:31:31.014Z</time></trkpt><trkpt lat="43.4188083355206" lon="11.687391657658054"><ele>445.8</ele><time>2026-03-22T09:31:33.014Z</time></trkpt><trkpt lat="43.41874332971486" lon="11.687307052338893"><ele>445.0</ele><time>2026-03-22T09:31:35.014Z</time></trkpt><trkpt lat="43.418659714569166" lon="11.687286334154201"><ele>443.6666666666667</ele><time>2026-03-22T09:31:37.014Z</time></trkpt><trkpt lat="43.41860037452445" lon="11.687249022815173"><ele>442.33333333333337</ele><time>2026-03-22T09:31:39.014Z</time></trkpt><trkpt lat="43.41861095896157" lon="11.687118974975528"><ele>441.0</ele><time>2026-03-22T09:31:41.016Z</time></trkpt><trkpt lat="43.41868360479161" lon="11.687021045271617"><ele>439.66666666666663</ele><time>2026-03-22T09:31:43.016Z</time></trkpt><trkpt lat="43.41874696350767" lon="11.686913046154451"><ele>438.3333333333333</ele><time>2026-03-22T09:31:45.016Z</time></trkpt><trkpt lat="43.41877969040953" lon="11.686814379169876"><ele>437.0</ele><time>2026-03-22T09:31:47.017Z</time></trkpt><trkpt lat="43.41884881560475" lon="11.68669514777102"><ele>435.8</ele><time>2026-03-22T09:31:49.016Z</time></trkpt><trkpt lat="43.41892655361219" lon="11.686577751511473"><ele>434.6</ele><time>2026-03-22T09:31:51.017Z</time></trkpt><trkpt lat="43.418965158259425" lon="11.686448690159882"><ele>433.40000000000003</ele><time>2026-03-22T09:31:53.016Z</time></trkpt><trkpt lat="43.41896488035712" lon="11.686308236328902"><ele>432.20000000000005</ele><time>2026-03-22T09:31:55.016Z</time></trkpt><trkpt lat="43.41895512389265" lon="11.6861602172884"><ele>431.0</ele><time>2026-03-22T09:31:57.016Z</time></trkpt><trkpt lat="43.41894803602517" lon="11.686006342264678"><ele>428.20000000000005</ele><time>2026-03-22T09:31:59.016Z</time></trkpt><trkpt lat="43.4189760725783" lon="11.685865832565264"><ele>425.40000000000003</ele><time>2026-03-22T09:32:01.016Z</time></trkpt><trkpt lat="43.41903117227594" lon="11.6857388870571"><ele>422.6</ele><time>2026-03-22T09:32:03.016Z</time></trkpt><trkpt lat="43.41912042562047" lon="11.685636517744074"><ele>419.8</ele><time>2026-03-22T09:32:05.015Z</time></trkpt><trkpt lat="43.419202296205604" lon="11.685554231366146"><ele>417.0</ele><time>2026-03-22T09:32:07.015Z</time></trkpt><trkpt lat="43.41928122337471" lon="11.68551082549399"><ele>417.0</ele><time>2026-03-22T09:32:09.015Z</time></trkpt><trkpt lat="43.41937020489803" lon="11.68546876356986"><ele>417.0</ele><time>2026-03-22T09:32:11.015Z</time></trkpt><trkpt lat="43.41946401317817" lon="11.685409747956015"><ele>417.0</ele><time>2026-03-22T09:32:13.015Z</time></trkpt><trkpt lat="43.419564483368546" lon="11.68535408962248"><ele>417.0</ele><time>2026-03-22T09:32:15.015Z</time></trkpt><trkpt lat="43.419643284877516" lon="11.685403414947048"><ele>417.0</ele><time>2026-03-22T09:32:17.015Z</time></trkpt><trkpt lat="43.419722609896354" lon="11.6854969277107"><ele>415.0</ele><time>2026-03-22T09:32:19.015Z</time></trkpt><trkpt lat="43.41981942867287" lon="11.685419179023583"><ele>413.0</ele><time>2026-03-22T09:32:22.015Z</time></trkpt><trkpt lat="43.419894390126764" lon="11.685377347616349"><ele>411.0</ele><time>2026-03-22T09:32:24.015Z</time></trkpt><trkpt lat="43.4199454525009" lon="11.685253478304393"><ele>409.0</ele><time>2026-03-22T09:32:26.015Z</time></trkpt><trkpt lat="43.419942510070385" lon="11.685113121212343"><ele>407.0</ele><time>2026-03-22T09:32:28.015Z</time></trkpt><trkpt lat="43.420004866424954" lon="11.685039205281484"><ele>404.6</ele><time>2026-03-22T09:32:30.015Z</time></trkpt><trkpt lat="43.42009452311325" lon="11.684934613955303"><ele>402.20000000000005</ele><time>2026-03-22T09:32:32.015Z</time></trkpt><trkpt lat="43.4201148949404" lon="11.684806170309951"><ele>399.8</ele><time>2026-03-22T09:32:34.015Z</time></trkpt><trkpt lat="43.420065604808734" lon="11.68468118385946"><ele>397.4</ele><time>2026-03-22T09:32:36.015Z</time></trkpt><trkpt lat="43.42004677246195" lon="11.68454834300811"><ele>395.0</ele><time>2026-03-22T09:32:38.015Z</time></trkpt><trkpt lat="43.420020840180236" lon="11.684468039084814"><ele>393.8</ele><time>2026-03-22T09:32:39.015Z</time></trkpt><trkpt lat="43.41999477665069" lon="11.68432352382202"><ele>392.6</ele><time>2026-03-22T09:32:41.015Z</time></trkpt><trkpt lat="43.42001133804114" lon="11.684201874354798"><ele>391.4</ele><time>2026-03-22T09:32:43.015Z</time></trkpt><trkpt lat="43.420013420530374" lon="11.684034236398821"><ele>390.2</ele><time>2026-03-22T09:32:45.015Z</time></trkpt><trkpt lat="43.4200034275141" lon="11.683863737918754"><ele>389.0</ele><time>2026-03-22T09:32:47.015Z</time></trkpt><trkpt lat="43.420003748569385" lon="11.683728816179137"><ele>388.99999999999994</ele><time>2026-03-22T09:32:49.015Z</time></trkpt><trkpt lat="43.4200347094329" lon="11.683631123130871"><ele>389.0</ele><time>2026-03-22T09:32:51.015Z</time></trkpt><trkpt lat="43.4201162515914" lon="11.68357834027851"><ele>389.0</ele><time>2026-03-22T09:32:53.015Z</time></trkpt><trkpt lat="43.420161738443966" lon="11.683504741215655"><ele>389.0</ele><time>2026-03-22T09:32:54.015Z</time></trkpt><trkpt lat="43.420246691700335" lon="11.683396367435082"><ele>388.99999999999994</ele><time>2026-03-22T09:32:56.015Z</time></trkpt><trkpt lat="43.42030295958762" lon="11.683301965445414"><ele>389.0</ele><time>2026-03-22T09:32:58.015Z</time></trkpt><trkpt lat="43.42036095389549" lon="11.683185561534435"><ele>387.79999999999995</ele><time>2026-03-22T09:33:00.015Z</time></trkpt><trkpt lat="43.420395237427506" lon="11.683070891440586"><ele>386.59999999999997</ele><time>2026-03-22T09:33:02.015Z</time></trkpt><trkpt lat="43.42039008040581" lon="11.68291494950854"><ele>385.4</ele><time>2026-03-22T09:33:04.015Z</time></trkpt><trkpt lat="43.42036093521699" lon="11.682762371770528"><ele>384.2</ele><time>2026-03-22T09:33:06.015Z</time></trkpt><trkpt lat="43.42034876174063" lon="11.682623302992786"><ele>383.0</ele><time>2026-03-22T09:33:08.015Z</time></trkpt><trkpt lat="43.420328452506084" lon="11.682474870641284"><ele>382.2</ele><time>2026-03-22T09:33:10.015Z</time></trkpt><trkpt lat="43.42025235852297" lon="11.682342472361183"><ele>381.4</ele><time>2026-03-22T09:33:12.015Z</time></trkpt><trkpt lat="43.42020194051815" lon="11.682279060639852"><ele>380.59999999999997</ele><time>2026-03-22T09:33:13.015Z</time></trkpt><trkpt lat="43.42015872044601" lon="11.682209902152406"><ele>379.79999999999995</ele><time>2026-03-22T09:33:14.015Z</time></trkpt><trkpt lat="43.42007302151481" lon="11.682111925404582"><ele>379.0</ele><time>2026-03-22T09:33:16.015Z</time></trkpt><trkpt lat="43.41996012897171" lon="11.682059604499276"><ele>379.0</ele><time>2026-03-22T09:33:18.015Z</time></trkpt><trkpt lat="43.419867526410705" lon="11.681988062982905"><ele>379.0</ele><time>2026-03-22T09:33:20.015Z</time></trkpt><trkpt lat="43.41976725504034" lon="11.682032009200125"><ele>379.0</ele><time>2026-03-22T09:33:22.015Z</time></trkpt><trkpt lat="43.41969963581516" lon="11.682093864805246"><ele>379.0</ele><time>2026-03-22T09:33:24.015Z</time></trkpt><trkpt lat="43.419620102350855" lon="11.682136892105284"><ele>379.0</ele><time>2026-03-22T09:33:26.015Z</time></trkpt><trkpt lat="43.419538225303896" lon="11.682203149419346"><ele>376.2</ele><time>2026-03-22T09:33:28.015Z</time></trkpt><trkpt lat="43.419458504957575" lon="11.68218358031928"><ele>373.4</ele><time>2026-03-22T09:33:30.015Z</time></trkpt><trkpt lat="43.41934983400513" lon="11.682152158785756"><ele>370.6</ele><time>2026-03-22T09:33:32.015Z</time></trkpt><trkpt lat="43.41926413563687" lon="11.68210502741567"><ele>367.8</ele><time>2026-03-22T09:33:34.015Z</time></trkpt><trkpt lat="43.41917862155165" lon="11.682037316924358"><ele>365.0</ele><time>2026-03-22T09:33:36.015Z</time></trkpt><trkpt lat="43.41909507981417" lon="11.681990762272221"><ele>364.33333333333337</ele><time>2026-03-22T09:33:38.015Z</time></trkpt><trkpt lat="43.41903831565428" lon="11.681890368180072"><ele>363.6666666666667</ele><time>2026-03-22T09:33:40.015Z</time></trkpt><trkpt lat="43.41898262460208" lon="11.68179177586425"><ele>363.0</ele><time>2026-03-22T09:33:42.015Z</time></trkpt><trkpt lat="43.41891843463919" lon="11.681698342713284"><ele>362.3333333333333</ele><time>2026-03-22T09:33:44.015Z</time></trkpt><trkpt lat="43.41889607304415" lon="11.681586666841818"><ele>361.66666666666663</ele><time>2026-03-22T09:33:46.017Z</time></trkpt><trkpt lat="43.41889764304298" lon="11.681496408863863"><ele>361.0</ele><time>2026-03-22T09:33:48.017Z</time></trkpt><trkpt lat="43.41883661278201" lon="11.681422121209335"><ele>359.0</ele><time>2026-03-22T09:33:50.018Z</time></trkpt><trkpt lat="43.41877144642704" lon="11.681487110642744"><ele>357.0</ele><time>2026-03-22T09:33:52.017Z</time></trkpt><trkpt lat="43.418718014236994" lon="11.681555912379073"><ele>355.0</ele><time>2026-03-22T09:33:54.018Z</time></trkpt><trkpt lat="43.41864569931973" lon="11.68163546693431"><ele>353.0</ele><time>2026-03-22T09:33:56.017Z</time></trkpt><trkpt lat="43.4185680033906" lon="11.681729786057204"><ele>351.0</ele><time>2026-03-22T09:33:58.018Z</time></trkpt><trkpt lat="43.418498989713115" lon="11.681789445737046"><ele>349.0</ele><time>2026-03-22T09:34:00.018Z</time></trkpt><trkpt lat="43.418423156398475" lon="11.68186171311221"><ele>349.0</ele><time>2026-03-22T09:34:02.018Z</time></trkpt><trkpt lat="43.41833986696297" lon="11.681944303204762"><ele>349.0</ele><time>2026-03-22T09:34:04.018Z</time></trkpt><trkpt lat="43.41827671786419" lon="11.682002357560204"><ele>349.0</ele><time>2026-03-22T09:34:06.018Z</time></trkpt><trkpt lat="43.41822567196499" lon="11.681935646849762"><ele>349.0</ele><time>2026-03-22T09:34:08.018Z</time></trkpt><trkpt lat="43.41817778472669" lon="11.681838185067525"><ele>349.0</ele><time>2026-03-22T09:34:10.018Z</time></trkpt><trkpt lat="43.41810168383192" lon="11.681780519266065"><ele>349.0</ele><time>2026-03-22T09:34:12.018Z</time></trkpt><trkpt lat="43.41803620378525" lon="11.681722539091739"><ele>349.0</ele><time>2026-03-22T09:34:14.018Z</time></trkpt><trkpt lat="43.41793234518176" lon="11.681711474523969"><ele>349.0</ele><time>2026-03-22T09:34:16.018Z</time></trkpt><trkpt lat="43.41791650409194" lon="11.681581042809475"><ele>349.0</ele><time>2026-03-22T09:34:19.018Z</time></trkpt><trkpt lat="43.41796323877764" lon="11.681493651359926"><ele>349.0</ele><time>2026-03-22T09:34:21.018Z</time></trkpt><trkpt lat="43.417990040123364" lon="11.68140115099504"><ele>349.0</ele><time>2026-03-22T09:34:23.018Z</time></trkpt><trkpt lat="43.417990280358296" lon="11.681306531005287"><ele>349.0</ele><time>2026-03-22T09:34:26.018Z</time></trkpt><trkpt lat="43.417912017583525" lon="11.681248754611467"><ele>345.66666666666663</ele><time>2026-03-22T09:34:29.018Z</time></trkpt><trkpt lat="43.41782801875066" lon="11.681233187958446"><ele>342.3333333333333</ele><time>2026-03-22T09:34:31.018Z</time></trkpt><trkpt lat="43.4177545044027" lon="11.68120933586733"><ele>339.0</ele><time>2026-03-22T09:34:33.018Z</time></trkpt><trkpt lat="43.41767351119301" lon="11.681209601211652"><ele>335.6666666666667</ele><time>2026-03-22T09:34:36.018Z</time></trkpt><trkpt lat="43.41760072453443" lon="11.681231195619917"><ele>332.33333333333337</ele><time>2026-03-22T09:34:38.018Z</time></trkpt><trkpt lat="43.41754606550805" lon="11.681306087159646"><ele>329.0</ele><time>2026-03-22T09:34:40.017Z</time></trkpt><trkpt lat="43.4175055150127" lon="11.681378823865975"><ele>329.0</ele><time>2026-03-22T09:34:43.017Z</time></trkpt><trkpt lat="43.417452404216135" lon="11.681443831691958"><ele>329.0</ele><time>2026-03-22T09:34:59.017Z</time></trkpt><trkpt lat="43.417394420547204" lon="11.68147969395318"><ele>329.0</ele><time>2026-03-22T09:35:06.017Z</time></trkpt><trkpt lat="43.41733186335024" lon="11.681541427594862"><ele>329.0</ele><time>2026-03-22T09:35:12.017Z</time></trkpt><trkpt lat="43.41726567868367" lon="11.681486869897357"><ele>329.0</ele><time>2026-03-22T09:35:19.017Z</time></trkpt><trkpt lat="43.41726057832724" lon="11.681382894344273"><ele>329.0</ele><time>2026-03-22T09:35:23.017Z</time></trkpt><trkpt lat="43.417270712832035" lon="11.681295142083309"><ele>329.0</ele><time>2026-03-22T09:35:27.017Z</time></trkpt><trkpt lat="43.4172671085814" lon="11.681191060796994"><ele>329.0</ele><time>2026-03-22T09:36:49.019Z</time></trkpt><trkpt lat="43.4172736500169" lon="11.681103069639777"><ele>329.0</ele><time>2026-03-22T09:36:55.019Z</time></trkpt><trkpt lat="43.4173056323998" lon="11.681027282623226"><ele>329.0</ele><time>2026-03-22T09:37:07.019Z</time></trkpt><trkpt lat="43.41733342207184" lon="11.680898471456045"><ele>329.0</ele><time>2026-03-22T09:37:10.019Z</time></trkpt><trkpt lat="43.417342553321205" lon="11.680776885587372"><ele>329.0</ele><time>2026-03-22T09:37:13.019Z</time></trkpt><trkpt lat="43.417346463960094" lon="11.68065503892945"><ele>329.0</ele><time>2026-03-22T09:37:16.019Z</time></trkpt><trkpt lat="43.41734801645532" lon="11.68056182242432"><ele>328.0</ele><time>2026-03-22T09:37:18.019Z</time></trkpt><trkpt lat="43.41734047589285" lon="11.680439283952119"><ele>327.0</ele><time>2026-03-22T09:37:20.019Z</time></trkpt><trkpt lat="43.41732849223292" lon="11.680296958161854"><ele>326.0</ele><time>2026-03-22T09:37:22.019Z</time></trkpt><trkpt lat="43.41734070898583" lon="11.680174635695458"><ele>325.0</ele><time>2026-03-22T09:37:24.019Z</time></trkpt><trkpt lat="43.41734875396402" lon="11.680053551706104"><ele>324.0</ele><time>2026-03-22T09:37:26.019Z</time></trkpt><trkpt lat="43.4174049646882" lon="11.679947977814178"><ele>322.59999999999997</ele><time>2026-03-22T09:37:28.019Z</time></trkpt><trkpt lat="43.41744719639729" lon="11.679815639778807"><ele>321.2</ele><time>2026-03-22T09:37:30.019Z</time></trkpt><trkpt lat="43.417488565378655" lon="11.679682254196269"><ele>319.79999999999995</ele><time>2026-03-22T09:37:32.019Z</time></trkpt><trkpt lat="43.41750764983321" lon="11.679546747668102"><ele>318.4</ele><time>2026-03-22T09:37:34.019Z</time></trkpt><trkpt lat="43.41751495048909" lon="11.67943896801343"><ele>317.0</ele><time>2026-03-22T09:37:36.019Z</time></trkpt><trkpt lat="43.41756190346452" lon="11.679352953222358"><ele>316.6666666666667</ele><time>2026-03-22T09:37:38.019Z</time></trkpt><trkpt lat="43.417606290807136" lon="11.679275031946036"><ele>316.33333333333337</ele><time>2026-03-22T09:37:40.019Z</time></trkpt><trkpt lat="43.417675565456626" lon="11.679145499601127"><ele>316.0</ele><time>2026-03-22T09:37:43.019Z</time></trkpt><trkpt lat="43.417742695852226" lon="11.67905975807295"><ele>315.6666666666667</ele><time>2026-03-22T09:37:45.019Z</time></trkpt><trkpt lat="43.417791689825485" lon="11.678972139583685"><ele>315.3333333333333</ele><time>2026-03-22T09:37:47.018Z</time></trkpt><trkpt lat="43.41785430671691" lon="11.678892286991095"><ele>315.0</ele><time>2026-03-22T09:37:49.018Z</time></trkpt><trkpt lat="43.41793020334609" lon="11.678807115000307"><ele>314.0</ele><time>2026-03-22T09:37:51.018Z</time></trkpt><trkpt lat="43.417993027168585" lon="11.67877268522744"><ele>313.0</ele><time>2026-03-22T09:37:52.018Z</time></trkpt><trkpt lat="43.41805990571269" lon="11.678750057202448"><ele>312.0</ele><time>2026-03-22T09:37:53.018Z</time></trkpt><trkpt lat="43.418130870487865" lon="11.678734819708513"><ele>311.0</ele><time>2026-03-22T09:37:54.018Z</time></trkpt><trkpt lat="43.418200622338226" lon="11.678729909877182"><ele>310.0</ele><time>2026-03-22T09:37:55.018Z</time></trkpt><trkpt lat="43.4182660849327" lon="11.678728698336727"><ele>309.0</ele><time>2026-03-22T09:37:56.018Z</time></trkpt><trkpt lat="43.41837209445639" lon="11.678699268884218"><ele>309.0</ele><time>2026-03-22T09:37:58.02Z</time></trkpt><trkpt lat="43.418465456453106" lon="11.678626747467021"><ele>309.0</ele><time>2026-03-22T09:38:00.02Z</time></trkpt><trkpt lat="43.4185628617415" lon="11.678564772054754"><ele>309.0</ele><time>2026-03-22T09:38:02.02Z</time></trkpt><trkpt lat="43.418636552820786" lon="11.678522727615954"><ele>309.0</ele><time>2026-03-22T09:38:04.02Z</time></trkpt><trkpt lat="43.418702651760185" lon="11.678518409557038"><ele>309.0</ele><time>2026-03-22T09:38:06.02Z</time></trkpt><trkpt lat="43.41877403358225" lon="11.678475019828682"><ele>309.0</ele><time>2026-03-22T09:38:08.02Z</time></trkpt><trkpt lat="43.41886491163027" lon="11.678422064554427"><ele>308.0</ele><time>2026-03-22T09:38:10.02Z</time></trkpt><trkpt lat="43.41894765869241" lon="11.678358925127528"><ele>307.0</ele><time>2026-03-22T09:38:12.02Z</time></trkpt><trkpt lat="43.419014727144614" lon="11.678325405994103"><ele>306.0</ele><time>2026-03-22T09:38:14.02Z</time></trkpt><trkpt lat="43.419073625684256" lon="11.678268974209017"><ele>305.0</ele><time>2026-03-22T09:38:16.02Z</time></trkpt><trkpt lat="43.41912919245296" lon="11.678209965439525"><ele>304.0</ele><time>2026-03-22T09:38:18.02Z</time></trkpt><trkpt lat="43.41918640530543" lon="11.678099215546592"><ele>303.0</ele><time>2026-03-22T09:38:20.02Z</time></trkpt><trkpt lat="43.41925308575948" lon="11.677997806305976"><ele>303.0</ele><time>2026-03-22T09:38:22.02Z</time></trkpt><trkpt lat="43.41933608125002" lon="11.67795269855769"><ele>303.0</ele><time>2026-03-22T09:38:24.02Z</time></trkpt><trkpt lat="43.41941363019456" lon="11.677960183436683"><ele>303.0</ele><time>2026-03-22T09:38:26.02Z</time></trkpt><trkpt lat="43.419478586606" lon="11.67791292241861"><ele>303.0</ele><time>2026-03-22T09:38:28.02Z</time></trkpt><trkpt lat="43.41955334283675" lon="11.677845826439388"><ele>303.0</ele><time>2026-03-22T09:38:30.02Z</time></trkpt><trkpt lat="43.419615252847606" lon="11.677716674647948"><ele>303.0</ele><time>2026-03-22T09:38:32.02Z</time></trkpt><trkpt lat="43.419652183918856" lon="11.677632946561399"><ele>301.57142857142856</ele><time>2026-03-22T09:38:34.02Z</time></trkpt><trkpt lat="43.41971236342706" lon="11.677579895280216"><ele>300.1428571428571</ele><time>2026-03-22T09:38:36.02Z</time></trkpt><trkpt lat="43.41977641730576" lon="11.677577078674302"><ele>298.71428571428567</ele><time>2026-03-22T09:38:37.02Z</time></trkpt><trkpt lat="43.41984428014596" lon="11.677569562105582"><ele>297.2857142857143</ele><time>2026-03-22T09:38:38.02Z</time></trkpt><trkpt lat="43.41991023183011" lon="11.677549750510549"><ele>295.85714285714283</ele><time>2026-03-22T09:38:39.02Z</time></trkpt><trkpt lat="43.419977149400644" lon="11.677522188376702"><ele>294.4285714285714</ele><time>2026-03-22T09:38:40.02Z</time></trkpt><trkpt lat="43.420072326750336" lon="11.677475112292122"><ele>293.0</ele><time>2026-03-22T09:38:41.02Z</time></trkpt><trkpt lat="43.420169256904195" lon="11.67743452016929"><ele>293.0</ele><time>2026-03-22T09:38:42.02Z</time></trkpt><trkpt lat="43.42025792179986" lon="11.677396321373436"><ele>293.0</ele><time>2026-03-22T09:38:43.02Z</time></trkpt><trkpt lat="43.420327797400894" lon="11.677353209236772"><ele>293.0</ele><time>2026-03-22T09:38:44.02Z</time></trkpt><trkpt lat="43.42040661840274" lon="11.677321412886137"><ele>293.0</ele><time>2026-03-22T09:38:45.02Z</time></trkpt><trkpt lat="43.42049096613458" lon="11.677304615423427"><ele>293.0</ele><time>2026-03-22T09:38:46.02Z</time></trkpt><trkpt lat="43.42057702656627" lon="11.6772594070406"><ele>293.0</ele><time>2026-03-22T09:38:47.02Z</time></trkpt><trkpt lat="43.4206564716221" lon="11.677209929826594"><ele>291.6666666666667</ele><time>2026-03-22T09:38:48.02Z</time></trkpt><trkpt lat="43.42072639909634" lon="11.677159605766619"><ele>290.33333333333337</ele><time>2026-03-22T09:38:49.02Z</time></trkpt><trkpt lat="43.42079511489767" lon="11.677121932503109"><ele>289.0</ele><time>2026-03-22T09:38:50.02Z</time></trkpt><trkpt lat="43.420878674999315" lon="11.677095283498177"><ele>287.6666666666667</ele><time>2026-03-22T09:38:51.02Z</time></trkpt><trkpt lat="43.42096265561728" lon="11.677074039790359"><ele>286.3333333333333</ele><time>2026-03-22T09:38:52.02Z</time></trkpt><trkpt lat="43.42106325734522" lon="11.677066655032025"><ele>285.0</ele><time>2026-03-22T09:38:53.02Z</time></trkpt><trkpt lat="43.42115170987315" lon="11.677055414308084"><ele>285.0</ele><time>2026-03-22T09:38:54.02Z</time></trkpt><trkpt lat="43.421236447688955" lon="11.67704958614856"><ele>285.0</ele><time>2026-03-22T09:38:55.02Z</time></trkpt><trkpt lat="43.421311307987516" lon="11.677046619637654"><ele>285.0</ele><time>2026-03-22T09:38:56.02Z</time></trkpt><trkpt lat="43.42137806359845" lon="11.67703491118156"><ele>285.0</ele><time>2026-03-22T09:38:57.02Z</time></trkpt><trkpt lat="43.42145784442277" lon="11.677014949024954"><ele>285.0</ele><time>2026-03-22T09:38:58.02Z</time></trkpt><trkpt lat="43.421523931066666" lon="11.67699410836059"><ele>285.0</ele><time>2026-03-22T09:38:59.02Z</time></trkpt><trkpt lat="43.421639598129644" lon="11.676967935658492"><ele>285.0</ele><time>2026-03-22T09:39:01.02Z</time></trkpt><trkpt lat="43.42172459303323" lon="11.676939246781659"><ele>285.0</ele><time>2026-03-22T09:39:03.02Z</time></trkpt><trkpt lat="43.42180907971941" lon="11.676699565247047"><ele>285.0</ele><time>2026-03-22T09:39:21.02Z</time></trkpt><trkpt lat="43.42178505673192" lon="11.676549252000642"><ele>285.0</ele><time>2026-03-22T09:39:22.02Z</time></trkpt><trkpt lat="43.421768181770155" lon="11.67637347012836"><ele>285.3333333333333</ele><time>2026-03-22T09:39:23.019Z</time></trkpt><trkpt lat="43.42174329629097" lon="11.676168176277265"><ele>285.66666666666663</ele><time>2026-03-22T09:39:24.019Z</time></trkpt><trkpt lat="43.421716552747746" lon="11.675934801286019"><ele>286.0</ele><time>2026-03-22T09:39:25.019Z</time></trkpt><trkpt lat="43.421688283802865" lon="11.67568296762694"><ele>286.0</ele><time>2026-03-22T09:39:26.019Z</time></trkpt><trkpt lat="43.42166651177883" lon="11.675431127009455"><ele>286.0</ele><time>2026-03-22T09:39:27.019Z</time></trkpt><trkpt lat="43.421639475823255" lon="11.675200232121737"><ele>286.0</ele><time>2026-03-22T09:39:28.019Z</time></trkpt><trkpt lat="43.42160934439661" lon="11.674972917296364"><ele>286.0</ele><time>2026-03-22T09:39:29.019Z</time></trkpt><trkpt lat="43.421567583592974" lon="11.674752583771888"><ele>286.0</ele><time>2026-03-22T09:39:30.019Z</time></trkpt><trkpt lat="43.42152467498654" lon="11.67453605169636"><ele>286.0</ele><time>2026-03-22T09:39:31.019Z</time></trkpt><trkpt lat="43.42147611775693" lon="11.674318055601207"><ele>287.0</ele><time>2026-03-22T09:39:32.019Z</time></trkpt><trkpt lat="43.421423864510324" lon="11.67410854679317"><ele>288.0</ele><time>2026-03-22T09:39:33.019Z</time></trkpt><trkpt lat="43.42137559256606" lon="11.673894611148778"><ele>289.0</ele><time>2026-03-22T09:39:34.019Z</time></trkpt><trkpt lat="43.42133353415245" lon="11.673676419631311"><ele>286.3333333333333</ele><time>2026-03-22T09:39:35.019Z</time></trkpt><trkpt lat="43.421298404221346" lon="11.673465647234485"><ele>283.6666666666667</ele><time>2026-03-22T09:39:36.019Z</time></trkpt><trkpt lat="43.42125949899514" lon="11.673252227293167"><ele>281.0</ele><time>2026-03-22T09:39:37.019Z</time></trkpt><trkpt lat="43.421242686094985" lon="11.673049281767549"><ele>281.0</ele><time>2026-03-22T09:39:38.019Z</time></trkpt><trkpt lat="43.42124702373207" lon="11.672847919481478"><ele>281.0</ele><time>2026-03-22T09:39:39.019Z</time></trkpt><trkpt lat="43.42128772807775" lon="11.67265507296916"><ele>281.0</ele><time>2026-03-22T09:39:40.019Z</time></trkpt><trkpt lat="43.42134957285928" lon="11.67245717434484"><ele>281.0</ele><time>2026-03-22T09:39:41.019Z</time></trkpt><trkpt lat="43.421434192830574" lon="11.672253957636961"><ele>281.33333333333337</ele><time>2026-03-22T09:39:42.019Z</time></trkpt><trkpt lat="43.42151944643007" lon="11.67204388136276"><ele>281.6666666666667</ele><time>2026-03-22T09:39:43.019Z</time></trkpt><trkpt lat="43.421596130833194" lon="11.671829847604718"><ele>282.0</ele><time>2026-03-22T09:39:44.019Z</time></trkpt><trkpt lat="43.42167078265157" lon="11.67162583165157"><ele>282.0</ele><time>2026-03-22T09:39:45.019Z</time></trkpt><trkpt lat="43.4217426726194" lon="11.67141979120646"><ele>282.0</ele><time>2026-03-22T09:39:46.019Z</time></trkpt><trkpt lat="43.42181249922642" lon="11.671212788484969"><ele>282.0</ele><time>2026-03-22T09:39:47.019Z</time></trkpt><trkpt lat="43.42188888735705" lon="11.671018671863992"><ele>280.3333333333333</ele><time>2026-03-22T09:39:48.019Z</time></trkpt><trkpt lat="43.42195407599518" lon="11.670830183687315"><ele>278.66666666666663</ele><time>2026-03-22T09:39:49.019Z</time></trkpt><trkpt lat="43.4220160396169" lon="11.67063878405064"><ele>277.0</ele><time>2026-03-22T09:39:50.019Z</time></trkpt><trkpt lat="43.4220733919699" lon="11.67044478297907"><ele>276.75</ele><time>2026-03-22T09:39:51.019Z</time></trkpt><trkpt lat="43.42211125545471" lon="11.67024323022971"><ele>276.5</ele><time>2026-03-22T09:39:52.019Z</time></trkpt><trkpt lat="43.42213400240054" lon="11.670042634392555"><ele>276.25</ele><time>2026-03-22T09:39:53.019Z</time></trkpt><trkpt lat="43.42213416474619" lon="11.669846040085181"><ele>276.0</ele><time>2026-03-22T09:39:54.019Z</time></trkpt><trkpt lat="43.42213625044816" lon="11.669652316346392"><ele>276.0</ele><time>2026-03-22T09:39:55.019Z</time></trkpt><trkpt lat="43.42214145537525" lon="11.669478161433927"><ele>276.0</ele><time>2026-03-22T09:39:56.019Z</time></trkpt><trkpt lat="43.42215510679795" lon="11.669298965426758"><ele>276.0</ele><time>2026-03-22T09:39:57.019Z</time></trkpt><trkpt lat="43.42219021968008" lon="11.669113115393639"><ele>276.0</ele><time>2026-03-22T09:39:58.019Z</time></trkpt><trkpt lat="43.422239762188376" lon="11.668929021239515"><ele>276.75</ele><time>2026-03-22T09:39:59.019Z</time></trkpt><trkpt lat="43.42228547336355" lon="11.668757560985277"><ele>277.5</ele><time>2026-03-22T09:40:00.019Z</time></trkpt><trkpt lat="43.4223305702846" lon="11.66859389614159"><ele>278.25</ele><time>2026-03-22T09:40:01.019Z</time></trkpt><trkpt lat="43.422377559573675" lon="11.668433216449634"><ele>279.0</ele><time>2026-03-22T09:40:02.019Z</time></trkpt><trkpt lat="43.42243769928429" lon="11.668271447448333"><ele>279.0</ele><time>2026-03-22T09:40:03.021Z</time></trkpt><trkpt lat="43.42251260895106" lon="11.668113316327897"><ele>279.0</ele><time>2026-03-22T09:40:04.021Z</time></trkpt><trkpt lat="43.42258467249411" lon="11.6679535241156"><ele>279.0</ele><time>2026-03-22T09:40:05.021Z</time></trkpt><trkpt lat="43.42266260500755" lon="11.667804698391956"><ele>279.0</ele><time>2026-03-22T09:40:06.021Z</time></trkpt><trkpt lat="43.42273628328255" lon="11.667661718888855"><ele>277.75</ele><time>2026-03-22T09:40:07.021Z</time></trkpt><trkpt lat="43.4228069445983" lon="11.667517240456972"><ele>276.5</ele><time>2026-03-22T09:40:08.021Z</time></trkpt><trkpt lat="43.42288056235561" lon="11.667372205702444"><ele>275.25</ele><time>2026-03-22T09:40:09.021Z</time></trkpt><trkpt lat="43.42294567800271" lon="11.667219647749851"><ele>274.0</ele><time>2026-03-22T09:40:10.022Z</time></trkpt><trkpt lat="43.4230097939494" lon="11.667070216799631"><ele>274.25</ele><time>2026-03-22T09:40:11.022Z</time></trkpt><trkpt lat="43.423077974146224" lon="11.666921165890708"><ele>274.5</ele><time>2026-03-22T09:40:12.021Z</time></trkpt><trkpt lat="43.4231447444797" lon="11.666777069976575"><ele>274.75</ele><time>2026-03-22T09:40:13.021Z</time></trkpt><trkpt lat="43.42321631904219" lon="11.66663482969423"><ele>275.0</ele><time>2026-03-22T09:40:14.021Z</time></trkpt><trkpt lat="43.42328213439593" lon="11.66648688940835"><ele>275.0</ele><time>2026-03-22T09:40:15.021Z</time></trkpt><trkpt lat="43.42335110388294" lon="11.666349778500832"><ele>275.0</ele><time>2026-03-22T09:40:16.021Z</time></trkpt><trkpt lat="43.42341830407992" lon="11.666208605423082"><ele>275.0</ele><time>2026-03-22T09:40:17.021Z</time></trkpt><trkpt lat="43.423486480352096" lon="11.666070776735284"><ele>275.0</ele><time>2026-03-22T09:40:18.021Z</time></trkpt><trkpt lat="43.42355021370605" lon="11.665935773226677"><ele>275.0</ele><time>2026-03-22T09:40:19.021Z</time></trkpt><trkpt lat="43.4236264927425" lon="11.665810101201139"><ele>275.0</ele><time>2026-03-22T09:40:20.021Z</time></trkpt><trkpt lat="43.42370082966924" lon="11.665695931646324"><ele>275.0</ele><time>2026-03-22T09:40:21.021Z</time></trkpt><trkpt lat="43.42377532901056" lon="11.665581099352925"><ele>275.0</ele><time>2026-03-22T09:40:22.021Z</time></trkpt><trkpt lat="43.42385070473634" lon="11.665465273909453"><ele>275.0</ele><time>2026-03-22T09:40:23.021Z</time></trkpt><trkpt lat="43.42392739148953" lon="11.665359982315506"><ele>275.0</ele><time>2026-03-22T09:40:24.021Z</time></trkpt><trkpt lat="43.42400288069328" lon="11.665250589025211"><ele>275.0</ele><time>2026-03-22T09:40:25.021Z</time></trkpt><trkpt lat="43.42408216630092" lon="11.665148264405785"><ele>275.0</ele><time>2026-03-22T09:40:26.021Z</time></trkpt><trkpt lat="43.42417151220253" lon="11.665045668480374"><ele>275.0</ele><time>2026-03-22T09:40:27.021Z</time></trkpt><trkpt lat="43.42426612615816" lon="11.66496280727027"><ele>273.5</ele><time>2026-03-22T09:40:28.021Z</time></trkpt><trkpt lat="43.424364136316996" lon="11.664896623064037"><ele>272.0</ele><time>2026-03-22T09:40:29.021Z</time></trkpt><trkpt lat="43.42447596568333" lon="11.664844468571955"><ele>270.5</ele><time>2026-03-22T09:40:30.021Z</time></trkpt><trkpt lat="43.42459050652962" lon="11.664800251203134"><ele>269.0</ele><time>2026-03-22T09:40:31.021Z</time></trkpt><trkpt lat="43.42469207144895" lon="11.664766527423408"><ele>269.0</ele><time>2026-03-22T09:40:32.021Z</time></trkpt><trkpt lat="43.42478439260866" lon="11.66473376823988"><ele>269.0</ele><time>2026-03-22T09:40:33.021Z</time></trkpt><trkpt lat="43.424873273139376" lon="11.664712263777202"><ele>269.0</ele><time>2026-03-22T09:40:34.021Z</time></trkpt><trkpt lat="43.42496250924219" lon="11.664682091562739"><ele>269.0</ele><time>2026-03-22T09:40:35.021Z</time></trkpt><trkpt lat="43.4250562287553" lon="11.664653710802535"><ele>269.0</ele><time>2026-03-22T09:40:36.02Z</time></trkpt><trkpt lat="43.425148994197166" lon="11.664622515637864"><ele>269.0</ele><time>2026-03-22T09:40:37.02Z</time></trkpt><trkpt lat="43.425243980277514" lon="11.664592344530098"><ele>269.0</ele><time>2026-03-22T09:40:38.02Z</time></trkpt><trkpt lat="43.425338301062396" lon="11.664560959063522"><ele>269.0</ele><time>2026-03-22T09:40:39.02Z</time></trkpt><trkpt lat="43.42543181766492" lon="11.664530782852756"><ele>269.0</ele><time>2026-03-22T09:40:40.02Z</time></trkpt><trkpt lat="43.425529583304446" lon="11.66449366708529"><ele>269.0</ele><time>2026-03-22T09:40:41.02Z</time></trkpt><trkpt lat="43.42562828842091" lon="11.664461475665176"><ele>268.2</ele><time>2026-03-22T09:40:42.02Z</time></trkpt><trkpt lat="43.42572706177677" lon="11.664430805499588"><ele>267.4</ele><time>2026-03-22T09:40:43.02Z</time></trkpt><trkpt lat="43.425822738967746" lon="11.664393289733262"><ele>266.6</ele><time>2026-03-22T09:40:44.02Z</time></trkpt><trkpt lat="43.42591713572077" lon="11.664358008946799"><ele>265.8</ele><time>2026-03-22T09:40:45.02Z</time></trkpt><trkpt lat="43.42600000692756" lon="11.664327007682783"><ele>265.0</ele><time>2026-03-22T09:40:46.02Z</time></trkpt><trkpt lat="43.42606881150112" lon="11.664303001266449"><ele>265.0</ele><time>2026-03-22T09:40:47.02Z</time></trkpt><trkpt lat="43.42615325557288" lon="11.664280644862455"><ele>265.0</ele><time>2026-03-22T09:40:49.02Z</time></trkpt><trkpt lat="43.42609836292521" lon="11.664522157599512"><ele>265.0</ele><time>2026-03-22T09:41:34.02Z</time></trkpt><trkpt lat="43.426092487461815" lon="11.664667940048934"><ele>265.0</ele><time>2026-03-22T09:41:35.02Z</time></trkpt><trkpt lat="43.426091125429515" lon="11.664864548325363"><ele>266.0</ele><time>2026-03-22T09:41:36.02Z</time></trkpt><trkpt lat="43.42608534891689" lon="11.665067907235741"><ele>267.0</ele><time>2026-03-22T09:41:37.02Z</time></trkpt><trkpt lat="43.42608570394788" lon="11.66522918976998"><ele>268.0</ele><time>2026-03-22T09:41:38.02Z</time></trkpt><trkpt lat="43.426094990002106" lon="11.665337144653732"><ele>269.0</ele><time>2026-03-22T09:41:39.02Z</time></trkpt><trkpt lat="43.42610692638481" lon="11.665431180976968"><ele>270.0</ele><time>2026-03-22T09:41:40.02Z</time></trkpt><trkpt lat="43.42618812374997" lon="11.66549252435522"><ele>271.8</ele><time>2026-03-22T09:41:42.02Z</time></trkpt><trkpt lat="43.42623455840712" lon="11.6654254052488"><ele>273.6</ele><time>2026-03-22T09:41:43.02Z</time></trkpt><trkpt lat="43.426329242538934" lon="11.665352145246475"><ele>275.4</ele><time>2026-03-22T09:41:45.02Z</time></trkpt><trkpt lat="43.42641195826819" lon="11.66533926389087"><ele>277.2</ele><time>2026-03-22T09:41:46.02Z</time></trkpt><trkpt lat="43.4265273006588" lon="11.665355638336425"><ele>279.0</ele><time>2026-03-22T09:41:47.02Z</time></trkpt><trkpt lat="43.42663196441063" lon="11.66536112637482"><ele>279.8</ele><time>2026-03-22T09:41:48.02Z</time></trkpt><trkpt lat="43.42669658771846" lon="11.66538267794264"><ele>280.59999999999997</ele><time>2026-03-22T09:41:49.02Z</time></trkpt><trkpt lat="43.426803594964845" lon="11.66532509718301"><ele>281.4</ele><time>2026-03-22T09:41:52.02Z</time></trkpt><trkpt lat="43.42689945176656" lon="11.665404060697032"><ele>282.2</ele><time>2026-03-22T09:41:54.02Z</time></trkpt><trkpt lat="43.426946607933154" lon="11.665536459297828"><ele>283.0</ele><time>2026-03-22T09:41:56.02Z</time></trkpt><trkpt lat="43.42696228466816" lon="11.665643355354755"><ele>283.0</ele><time>2026-03-22T09:41:58.02Z</time></trkpt><trkpt lat="43.427009813911305" lon="11.665746124377153"><ele>283.0</ele><time>2026-03-22T09:42:00.02Z</time></trkpt><trkpt lat="43.42704049609227" lon="11.665900685470895"><ele>283.0</ele><time>2026-03-22T09:42:02.02Z</time></trkpt><trkpt lat="43.427002185621234" lon="11.666024431167973"><ele>283.0</ele><time>2026-03-22T09:42:04.02Z</time></trkpt><trkpt lat="43.42697042374935" lon="11.666163411916687"><ele>283.0</ele><time>2026-03-22T09:42:06.02Z</time></trkpt><trkpt lat="43.427006410427104" lon="11.666278255230855"><ele>284.16666666666663</ele><time>2026-03-22T09:42:08.02Z</time></trkpt><trkpt lat="43.427013501948146" lon="11.666448727979803"><ele>285.3333333333333</ele><time>2026-03-22T09:42:10.022Z</time></trkpt><trkpt lat="43.42698614463773" lon="11.666552729934047"><ele>286.5</ele><time>2026-03-22T09:42:11.022Z</time></trkpt><trkpt lat="43.42697898588627" lon="11.666650093112347"><ele>287.6666666666667</ele><time>2026-03-22T09:42:12.023Z</time></trkpt><trkpt lat="43.426982847232985" lon="11.666740428508826"><ele>288.83333333333337</ele><time>2026-03-22T09:42:13.022Z</time></trkpt><trkpt lat="43.427037875418776" lon="11.666844075139082"><ele>290.0</ele><time>2026-03-22T09:42:14.022Z</time></trkpt><trkpt lat="43.4271151666105" lon="11.666940244362284"><ele>291.8</ele><time>2026-03-22T09:42:15.023Z</time></trkpt><trkpt lat="43.427172924224" lon="11.66701878855182"><ele>293.6</ele><time>2026-03-22T09:42:16.023Z</time></trkpt><trkpt lat="43.427224990060864" lon="11.667142419480928"><ele>295.4</ele><time>2026-03-22T09:42:17.023Z</time></trkpt><trkpt lat="43.427270560356874" lon="11.667288701796355"><ele>297.2</ele><time>2026-03-22T09:42:18.023Z</time></trkpt><trkpt lat="43.427306460947804" lon="11.66743060594635"><ele>299.0</ele><time>2026-03-22T09:42:19.022Z</time></trkpt><trkpt lat="43.427337358240216" lon="11.667562876923174"><ele>299.0</ele><time>2026-03-22T09:42:20.022Z</time></trkpt><trkpt lat="43.42738649537358" lon="11.667688996102708"><ele>299.0</ele><time>2026-03-22T09:42:22.023Z</time></trkpt><trkpt lat="43.42746377873482" lon="11.667804486192214"><ele>299.0</ele><time>2026-03-22T09:42:25.023Z</time></trkpt><trkpt lat="43.427535980664366" lon="11.667881937746184"><ele>299.0</ele><time>2026-03-22T09:42:26.023Z</time></trkpt><trkpt lat="43.42760216511806" lon="11.667978376710964"><ele>299.0</ele><time>2026-03-22T09:42:27.023Z</time></trkpt><trkpt lat="43.427644344405486" lon="11.668117767017238"><ele>299.75</ele><time>2026-03-22T09:42:28.023Z</time></trkpt><trkpt lat="43.427682337515115" lon="11.668259108279168"><ele>300.5</ele><time>2026-03-22T09:42:29.023Z</time></trkpt><trkpt lat="43.4277129654987" lon="11.668379927178375"><ele>301.25</ele><time>2026-03-22T09:42:30.023Z</time></trkpt><trkpt lat="43.42775670645522" lon="11.668472685884167"><ele>302.0</ele><time>2026-03-22T09:42:32.023Z</time></trkpt><trkpt lat="43.42794639054758" lon="11.668618307682092"><ele>302.5</ele><time>2026-03-22T09:42:39.023Z</time></trkpt><trkpt lat="43.42801186322247" lon="11.668644007272551"><ele>303.0</ele><time>2026-03-22T09:42:40.023Z</time></trkpt><trkpt lat="43.42808703090311" lon="11.668693474474674"><ele>303.5</ele><time>2026-03-22T09:42:41.023Z</time></trkpt><trkpt lat="43.428144182004004" lon="11.668766162856846"><ele>304.0</ele><time>2026-03-22T09:42:43.023Z</time></trkpt><trkpt lat="43.42818913705482" lon="11.668875207259873"><ele>304.5</ele><time>2026-03-22T09:42:45.023Z</time></trkpt><trkpt lat="43.42822636822081" lon="11.668952422603144"><ele>305.0</ele><time>2026-03-22T09:42:46.023Z</time></trkpt><trkpt lat="43.42825227124188" lon="11.669043415332112"><ele>305.0</ele><time>2026-03-22T09:42:47.023Z</time></trkpt><trkpt lat="43.428286519115304" lon="11.669202298303363"><ele>305.0</ele><time>2026-03-22T09:42:49.023Z</time></trkpt><trkpt lat="43.42829451436984" lon="11.669312867431742"><ele>305.0</ele><time>2026-03-22T09:42:51.023Z</time></trkpt><trkpt lat="43.42837208807897" lon="11.669346695104906"><ele>305.0</ele><time>2026-03-22T09:42:53.023Z</time></trkpt><trkpt lat="43.428467237922234" lon="11.669284367924513"><ele>305.0</ele><time>2026-03-22T09:42:55.022Z</time></trkpt><trkpt lat="43.428611526381495" lon="11.669200833651427"><ele>305.0</ele><time>2026-03-22T09:42:57.022Z</time></trkpt><trkpt lat="43.42866371406237" lon="11.669262153858176"><ele>305.0</ele><time>2026-03-22T09:43:13.022Z</time></trkpt><trkpt lat="43.42869538043699" lon="11.669393240543087"><ele>305.0</ele><time>2026-03-22T09:43:16.022Z</time></trkpt><trkpt lat="43.42870741950099" lon="11.669508323442004"><ele>305.0</ele><time>2026-03-22T09:43:18.022Z</time></trkpt><trkpt lat="43.428677229083334" lon="11.669594318328498"><ele>305.0</ele><time>2026-03-22T09:43:20.022Z</time></trkpt><trkpt lat="43.42866804102334" lon="11.669714228997774"><ele>305.0</ele><time>2026-03-22T09:43:23.022Z</time></trkpt><trkpt lat="43.42862959592958" lon="11.66980977623477"><ele>306.5</ele><time>2026-03-22T09:43:26.022Z</time></trkpt><trkpt lat="43.42866304893146" lon="11.669937321228991"><ele>308.0</ele><time>2026-03-22T09:43:29.022Z</time></trkpt><trkpt lat="43.4286590605487" lon="11.670038744511103"><ele>309.5</ele><time>2026-03-22T09:43:32.022Z</time></trkpt><trkpt lat="43.42865735119463" lon="11.670144620917922"><ele>311.0</ele><time>2026-03-22T09:43:35.022Z</time></trkpt><trkpt lat="43.428617657959876" lon="11.670236253937555"><ele>312.5</ele><time>2026-03-22T09:43:39.022Z</time></trkpt><trkpt lat="43.42853435057813" lon="11.670300368861314"><ele>314.0</ele><time>2026-03-22T09:43:42.022Z</time></trkpt><trkpt lat="43.42848580282605" lon="11.670378735536259"><ele>315.33333333333337</ele><time>2026-03-22T09:43:45.022Z</time></trkpt><trkpt lat="43.428451039946246" lon="11.670472087039228"><ele>316.6666666666667</ele><time>2026-03-22T09:43:48.022Z</time></trkpt><trkpt lat="43.4284561794315" lon="11.67057493564749"><ele>318.0</ele><time>2026-03-22T09:43:51.022Z</time></trkpt><trkpt lat="43.42847353012644" lon="11.670675888238984"><ele>319.3333333333333</ele><time>2026-03-22T09:43:54.022Z</time></trkpt><trkpt lat="43.42849457292769" lon="11.670770026024899"><ele>320.66666666666663</ele><time>2026-03-22T09:43:57.022Z</time></trkpt><trkpt lat="43.428519613231735" lon="11.670873107449857"><ele>322.0</ele><time>2026-03-22T09:44:00.022Z</time></trkpt><trkpt lat="43.42850729913521" lon="11.670972946871899"><ele>322.0</ele><time>2026-03-22T09:44:03.022Z</time></trkpt><trkpt lat="43.42854383202808" lon="11.671056732049705"><ele>322.0</ele><time>2026-03-22T09:44:06.022Z</time></trkpt><trkpt lat="43.42858038826121" lon="11.671148767794888"><ele>322.0</ele><time>2026-03-22T09:44:09.022Z</time></trkpt><trkpt lat="43.428600340391256" lon="11.671271207289355"><ele>322.0</ele><time>2026-03-22T09:44:11.022Z</time></trkpt><trkpt lat="43.4285673563241" lon="11.6713454921409"><ele>322.0</ele><time>2026-03-22T09:44:14.022Z</time></trkpt><trkpt lat="43.42860768632765" lon="11.671425693574198"><ele>322.0</ele><time>2026-03-22T09:44:16.023Z</time></trkpt><trkpt lat="43.428668413697785" lon="11.67147501554805"><ele>322.0</ele><time>2026-03-22T09:44:18.024Z</time></trkpt><trkpt lat="43.42874101124715" lon="11.671548730426311"><ele>323.8333333333333</ele><time>2026-03-22T09:44:20.023Z</time></trkpt><trkpt lat="43.428746163851336" lon="11.671664624621352"><ele>325.66666666666663</ele><time>2026-03-22T09:44:23.024Z</time></trkpt><trkpt lat="43.42875254525709" lon="11.671762832283259"><ele>327.5</ele><time>2026-03-22T09:44:26.023Z</time></trkpt><trkpt lat="43.4287688316222" lon="11.671886449266012"><ele>329.3333333333333</ele><time>2026-03-22T09:44:30.023Z</time></trkpt><trkpt lat="43.42881464731131" lon="11.671959621624577"><ele>331.1666666666667</ele><time>2026-03-22T09:44:33.023Z</time></trkpt><trkpt lat="43.42887687019278" lon="11.67203890539094"><ele>333.0</ele><time>2026-03-22T09:44:36.023Z</time></trkpt><trkpt lat="43.42885080308154" lon="11.672144761557012"><ele>336.3333333333333</ele><time>2026-03-22T09:44:39.023Z</time></trkpt><trkpt lat="43.428835488747744" lon="11.672245502443989"><ele>339.6666666666667</ele><time>2026-03-22T09:44:42.023Z</time></trkpt><trkpt lat="43.42883353750806" lon="11.672347009237425"><ele>343.0</ele><time>2026-03-22T09:44:45.023Z</time></trkpt><trkpt lat="43.428859475653134" lon="11.672448739223457"><ele>346.33333333333337</ele><time>2026-03-22T09:44:48.023Z</time></trkpt><trkpt lat="43.42888245908463" lon="11.672551866923902"><ele>349.6666666666667</ele><time>2026-03-22T09:44:51.023Z</time></trkpt><trkpt lat="43.428893820743724" lon="11.672653135633578"><ele>353.0</ele><time>2026-03-22T09:44:54.023Z</time></trkpt><trkpt lat="43.42892455052472" lon="11.672761177917776"><ele>355.1428571428571</ele><time>2026-03-22T09:44:57.023Z</time></trkpt><trkpt lat="43.42898973705059" lon="11.67282590631383"><ele>357.28571428571433</ele><time>2026-03-22T09:45:00.023Z</time></trkpt><trkpt lat="43.4290654773181" lon="11.672860721143216"><ele>359.42857142857144</ele><time>2026-03-22T09:45:02.023Z</time></trkpt><trkpt lat="43.42911050144775" lon="11.672933222996921"><ele>361.57142857142856</ele><time>2026-03-22T09:45:05.023Z</time></trkpt><trkpt lat="43.42913948468545" lon="11.67301484902031"><ele>363.71428571428567</ele><time>2026-03-22T09:45:18.023Z</time></trkpt><trkpt lat="43.42919500205293" lon="11.673097216552828"><ele>365.8571428571429</ele><time>2026-03-22T09:45:21.023Z</time></trkpt><trkpt lat="43.42924100985693" lon="11.673161166575118"><ele>368.0</ele><time>2026-03-22T09:45:23.023Z</time></trkpt><trkpt lat="43.42930644792951" lon="11.67323447724945"><ele>368.0</ele><time>2026-03-22T09:45:25.023Z</time></trkpt><trkpt lat="43.42935128362963" lon="11.673322618571996"><ele>368.0</ele><time>2026-03-22T09:45:28.023Z</time></trkpt><trkpt lat="43.429380790584545" lon="11.67341389617925"><ele>368.0</ele><time>2026-03-22T09:45:31.023Z</time></trkpt><trkpt lat="43.42940944141531" lon="11.673495800381707"><ele>368.0</ele><time>2026-03-22T09:45:40.023Z</time></trkpt><trkpt lat="43.429448218963465" lon="11.67356453269334"><ele>368.0</ele><time>2026-03-22T09:45:45.023Z</time></trkpt><trkpt lat="43.429503014006386" lon="11.673623596317015"><ele>368.0</ele><time>2026-03-22T09:45:49.023Z</time></trkpt><trkpt lat="43.42953659415171" lon="11.673711532642278"><ele>368.0</ele><time>2026-03-22T09:45:56.023Z</time></trkpt><trkpt lat="43.42956348573389" lon="11.673790628252995"><ele>369.7142857142857</ele><time>2026-03-22T09:45:58.023Z</time></trkpt><trkpt lat="43.429569823610166" lon="11.673880431163111"><ele>371.4285714285714</ele><time>2026-03-22T09:46:01.023Z</time></trkpt><trkpt lat="43.429566418060496" lon="11.673980301357448"><ele>373.1428571428571</ele><time>2026-03-22T09:46:07.022Z</time></trkpt><trkpt lat="43.42956378766461" lon="11.674068118475674"><ele>374.8571428571429</ele><time>2026-03-22T09:46:11.022Z</time></trkpt><trkpt lat="43.42956421340223" lon="11.674164800403691"><ele>376.57142857142856</ele><time>2026-03-22T09:46:15.022Z</time></trkpt><trkpt lat="43.429585344858886" lon="11.674274648117496"><ele>378.2857142857143</ele><time>2026-03-22T09:46:18.022Z</time></trkpt><trkpt lat="43.429632418305815" lon="11.674368148521976"><ele>380.0</ele><time>2026-03-22T09:46:22.025Z</time></trkpt><trkpt lat="43.42965205248166" lon="11.674457479376441"><ele>383.7142857142857</ele><time>2026-03-22T09:46:25.025Z</time></trkpt><trkpt lat="43.42967119689116" lon="11.674544961098928"><ele>387.42857142857144</ele><time>2026-03-22T09:46:28.025Z</time></trkpt><trkpt lat="43.42968298257603" lon="11.67464549936622"><ele>391.1428571428571</ele><time>2026-03-22T09:46:32.025Z</time></trkpt><trkpt lat="43.429716654327066" lon="11.67473130794419"><ele>394.8571428571429</ele><time>2026-03-22T09:46:39.026Z</time></trkpt><trkpt lat="43.42974173212218" lon="11.674827248989079"><ele>398.57142857142856</ele><time>2026-03-22T09:46:46.026Z</time></trkpt><trkpt lat="43.42975990055787" lon="11.674932948205095"><ele>402.2857142857143</ele><time>2026-03-22T09:46:50.026Z</time></trkpt><trkpt lat="43.42976349210512" lon="11.675032142437882"><ele>406.0</ele><time>2026-03-22T09:46:53.026Z</time></trkpt><trkpt lat="43.42982219045344" lon="11.675073291402892"><ele>406.00000000000006</ele><time>2026-03-22T09:49:16.026Z</time></trkpt><trkpt lat="43.429900429446334" lon="11.675043476294256"><ele>406.0</ele><time>2026-03-22T09:49:20.026Z</time></trkpt><trkpt lat="43.4299834043601" lon="11.675000369200074"><ele>406.0</ele><time>2026-03-22T09:49:23.026Z</time></trkpt><trkpt lat="43.43007647200169" lon="11.674987769780854"><ele>406.0</ele><time>2026-03-22T09:49:26.026Z</time></trkpt><trkpt lat="43.43014135763679" lon="11.674971269431508"><ele>406.00000000000006</ele><time>2026-03-22T09:49:28.026Z</time></trkpt><trkpt lat="43.430216385204524" lon="11.674926234771299"><ele>406.0</ele><time>2026-03-22T09:49:30.026Z</time></trkpt><trkpt lat="43.43028577565989" lon="11.674890199786907"><ele>406.00000000000006</ele><time>2026-03-22T09:49:32.026Z</time></trkpt><trkpt lat="43.43035427828362" lon="11.674849487068213"><ele>406.0</ele><time>2026-03-22T09:49:34.026Z</time></trkpt><trkpt lat="43.43043659388387" lon="11.67484734052767"><ele>406.0</ele><time>2026-03-22T09:49:36.026Z</time></trkpt><trkpt lat="43.43051080930767" lon="11.674837181952876"><ele>406.0</ele><time>2026-03-22T09:49:38.026Z</time></trkpt><trkpt lat="43.430605576689246" lon="11.674801583272467"><ele>406.00000000000006</ele><time>2026-03-22T09:49:40.026Z</time></trkpt><trkpt lat="43.43067136485605" lon="11.674849160545044"><ele>406.0</ele><time>2026-03-22T09:49:42.026Z</time></trkpt><trkpt lat="43.43072507461969" lon="11.67489821088585"><ele>405.50000000000006</ele><time>2026-03-22T09:49:44.026Z</time></trkpt><trkpt lat="43.43078953966839" lon="11.674942485519527"><ele>405.0</ele><time>2026-03-22T09:49:46.026Z</time></trkpt><trkpt lat="43.43085252196878" lon="11.674931532023743"><ele>404.5</ele><time>2026-03-22T09:49:48.026Z</time></trkpt><trkpt lat="43.43092623213586" lon="11.674907417332003"><ele>404.0</ele><time>2026-03-22T09:49:50.026Z</time></trkpt><trkpt lat="43.431029251557305" lon="11.674902037495922"><ele>403.50000000000006</ele><time>2026-03-22T09:49:52.026Z</time></trkpt><trkpt lat="43.43111910974991" lon="11.674847058624362"><ele>403.0</ele><time>2026-03-22T09:49:54.026Z</time></trkpt><trkpt lat="43.43117939902935" lon="11.674777018159231"><ele>403.0</ele><time>2026-03-22T09:49:56.026Z</time></trkpt><trkpt lat="43.43125879648675" lon="11.674704212104391"><ele>403.0</ele><time>2026-03-22T09:49:58.026Z</time></trkpt><trkpt lat="43.43134156756599" lon="11.67459696644941"><ele>403.0</ele><time>2026-03-22T09:50:00.026Z</time></trkpt><trkpt lat="43.431389873693355" lon="11.67451936906575"><ele>403.0</ele><time>2026-03-22T09:50:01.026Z</time></trkpt><trkpt lat="43.431435757146154" lon="11.674430323480557"><ele>403.0</ele><time>2026-03-22T09:50:03.026Z</time></trkpt><trkpt lat="43.43151280332017" lon="11.674349907562075"><ele>401.50000000000006</ele><time>2026-03-22T09:50:05.026Z</time></trkpt><trkpt lat="43.43157507771311" lon="11.674241427057698"><ele>400.0</ele><time>2026-03-22T09:50:07.026Z</time></trkpt><trkpt lat="43.43162643701442" lon="11.674104271184095"><ele>398.5</ele><time>2026-03-22T09:50:09.026Z</time></trkpt><trkpt lat="43.431652591192275" lon="11.67402189133927"><ele>397.0</ele><time>2026-03-22T09:50:10.026Z</time></trkpt><trkpt lat="43.43170185375109" lon="11.673921923804693"><ele>395.50000000000006</ele><time>2026-03-22T09:50:12.026Z</time></trkpt><trkpt lat="43.431763520426614" lon="11.673960949952503"><ele>394.0</ele><time>2026-03-22T09:50:15.026Z</time></trkpt><trkpt lat="43.43186058161553" lon="11.674037099443174"><ele>394.00000000000006</ele><time>2026-03-22T09:50:17.026Z</time></trkpt><trkpt lat="43.43191977282694" lon="11.674080622800636"><ele>394.0</ele><time>2026-03-22T09:50:19.026Z</time></trkpt><trkpt lat="43.431964796249254" lon="11.674184264577976"><ele>394.0</ele><time>2026-03-22T09:50:21.026Z</time></trkpt><trkpt lat="43.43198566782011" lon="11.674285497667588"><ele>394.0</ele><time>2026-03-22T09:50:23.026Z</time></trkpt><trkpt lat="43.43193668069695" lon="11.674393457321028"><ele>394.00000000000006</ele><time>2026-03-22T09:50:26.026Z</time></trkpt><trkpt lat="43.43193484880217" lon="11.674481754391891"><ele>394.0</ele><time>2026-03-22T09:50:28.026Z</time></trkpt><trkpt lat="43.43194882418158" lon="11.674578319729909"><ele>397.1666666666667</ele><time>2026-03-22T09:50:30.026Z</time></trkpt><trkpt lat="43.43193544342483" lon="11.67467149612759"><ele>400.33333333333337</ele><time>2026-03-22T09:50:32.027Z</time></trkpt><trkpt lat="43.43194705636408" lon="11.674784028378975"><ele>403.5</ele><time>2026-03-22T09:50:34.027Z</time></trkpt><trkpt lat="43.43200839525504" lon="11.674849363466274"><ele>406.66666666666663</ele><time>2026-03-22T09:50:36.027Z</time></trkpt><trkpt lat="43.43208464582755" lon="11.674887963219305"><ele>409.8333333333333</ele><time>2026-03-22T09:50:38.027Z</time></trkpt><trkpt lat="43.43216102934902" lon="11.6749435059971"><ele>413.0</ele><time>2026-03-22T09:50:40.027Z</time></trkpt><trkpt lat="43.432215377416476" lon="11.675018356808417"><ele>413.3333333333333</ele><time>2026-03-22T09:50:42.027Z</time></trkpt><trkpt lat="43.43225802483634" lon="11.675117545241415"><ele>413.66666666666663</ele><time>2026-03-22T09:50:44.027Z</time></trkpt><trkpt lat="43.43231179186341" lon="11.6752344727824"><ele>414.0</ele><time>2026-03-22T09:50:47.028Z</time></trkpt><trkpt lat="43.43233843600234" lon="11.675322429067878"><ele>414.33333333333337</ele><time>2026-03-22T09:50:49.028Z</time></trkpt><trkpt lat="43.43236932388823" lon="11.675404099146752"><ele>414.6666666666667</ele><time>2026-03-22T09:50:51.028Z</time></trkpt><trkpt lat="43.43241479143327" lon="11.67548521516419"><ele>415.0</ele><time>2026-03-22T09:50:53.028Z</time></trkpt><trkpt lat="43.43243507386366" lon="11.675579865948642"><ele>418.83333333333337</ele><time>2026-03-22T09:50:55.028Z</time></trkpt><trkpt lat="43.43236264731449" lon="11.67565579668253"><ele>422.6666666666667</ele><time>2026-03-22T09:50:59.028Z</time></trkpt><trkpt lat="43.432284647072954" lon="11.675694915304694"><ele>426.5</ele><time>2026-03-22T09:51:09.028Z</time></trkpt><trkpt lat="43.432236851949895" lon="11.675758125268725"><ele>430.33333333333337</ele><time>2026-03-22T09:51:11.028Z</time></trkpt><trkpt lat="43.432270154425154" lon="11.67585454712551"><ele>434.1666666666667</ele><time>2026-03-22T09:51:13.028Z</time></trkpt><trkpt lat="43.43233203040828" lon="11.675951621517596"><ele>438.0</ele><time>2026-03-22T09:51:15.028Z</time></trkpt><trkpt lat="43.432316698199024" lon="11.676041082918267"><ele>438.0</ele><time>2026-03-22T09:51:17.028Z</time></trkpt><trkpt lat="43.43222106052084" lon="11.676090887128034"><ele>438.0</ele><time>2026-03-22T09:51:19.028Z</time></trkpt><trkpt lat="43.4322249991543" lon="11.676188906399684"><ele>438.0</ele><time>2026-03-22T09:51:23.028Z</time></trkpt><trkpt lat="43.43229070044002" lon="11.676302536625274"><ele>438.0</ele><time>2026-03-22T09:51:27.028Z</time></trkpt><trkpt lat="43.43229406798551" lon="11.676403782199817"><ele>438.0</ele><time>2026-03-22T09:51:29.028Z</time></trkpt><trkpt lat="43.43231254194221" lon="11.676499987241861"><ele>438.0</ele><time>2026-03-22T09:51:31.028Z</time></trkpt><trkpt lat="43.43234185569448" lon="11.67666854902349"><ele>440.28571428571433</ele><time>2026-03-22T09:51:33.028Z</time></trkpt><trkpt lat="43.432353234822884" lon="11.676794721922697"><ele>442.57142857142856</ele><time>2026-03-22T09:51:34.028Z</time></trkpt><trkpt lat="43.43237000850745" lon="11.676900501632304"><ele>444.8571428571429</ele><time>2026-03-22T09:51:35.028Z</time></trkpt><trkpt lat="43.43239648584255" lon="11.677004727417058"><ele>447.14285714285717</ele><time>2026-03-22T09:51:36.028Z</time></trkpt><trkpt lat="43.432426357528385" lon="11.677082806003538"><ele>449.42857142857144</ele><time>2026-03-22T09:51:37.028Z</time></trkpt><trkpt lat="43.4324750018084" lon="11.677146605587689"><ele>451.7142857142857</ele><time>2026-03-22T09:51:38.028Z</time></trkpt><trkpt lat="43.432521493939156" lon="11.67721198823256"><ele>454.0</ele><time>2026-03-22T09:51:39.028Z</time></trkpt><trkpt lat="43.43258983681471" lon="11.677343917637213"><ele>456.0</ele><time>2026-03-22T09:51:41.028Z</time></trkpt><trkpt lat="43.432696140906174" lon="11.677473896469856"><ele>458.0</ele><time>2026-03-22T09:51:43.028Z</time></trkpt><trkpt lat="43.43277740518789" lon="11.677554053911228"><ele>460.0</ele><time>2026-03-22T09:51:44.028Z</time></trkpt><trkpt lat="43.432863800378286" lon="11.677631964627636"><ele>462.0</ele><time>2026-03-22T09:51:45.028Z</time></trkpt><trkpt lat="43.43296255770054" lon="11.677699519781989"><ele>462.8</ele><time>2026-03-22T09:51:46.028Z</time></trkpt><trkpt lat="43.43306693326186" lon="11.677763021298587"><ele>463.6</ele><time>2026-03-22T09:51:47.028Z</time></trkpt><trkpt lat="43.43316575971446" lon="11.677814601977815"><ele>464.40000000000003</ele><time>2026-03-22T09:51:48.028Z</time></trkpt><trkpt lat="43.433228310628955" lon="11.677848290952221"><ele>465.20000000000005</ele><time>2026-03-22T09:51:49.028Z</time></trkpt><trkpt lat="43.433348261593466" lon="11.677901012043966"><ele>466.0</ele><time>2026-03-22T09:51:51.028Z</time></trkpt><trkpt lat="43.43341852576848" lon="11.677913773720592"><ele>468.0</ele><time>2026-03-22T09:51:52.028Z</time></trkpt><trkpt lat="43.43348970735056" lon="11.677919398790936"><ele>470.0</ele><time>2026-03-22T09:51:53.028Z</time></trkpt><trkpt lat="43.43354792637808" lon="11.677952508201825"><ele>472.0</ele><time>2026-03-22T09:51:54.028Z</time></trkpt><trkpt lat="43.433659933772624" lon="11.678051080822549"><ele>474.0</ele><time>2026-03-22T09:51:56.028Z</time></trkpt><trkpt lat="43.43375099026351" lon="11.67815945284843"><ele>476.0</ele><time>2026-03-22T09:51:58.028Z</time></trkpt><trkpt lat="43.433809239586786" lon="11.67821782495268"><ele>478.3333333333333</ele><time>2026-03-22T09:51:59.028Z</time></trkpt><trkpt lat="43.43387270536579" lon="11.678268582082815"><ele>480.66666666666663</ele><time>2026-03-22T09:52:00.028Z</time></trkpt><trkpt lat="43.433940045316994" lon="11.678321873443693"><ele>483.0</ele><time>2026-03-22T09:52:01.028Z</time></trkpt><trkpt lat="43.434001072639724" lon="11.678383473519892"><ele>485.33333333333337</ele><time>2026-03-22T09:52:02.028Z</time></trkpt><trkpt lat="43.4340658870474" lon="11.678454143359733"><ele>487.6666666666667</ele><time>2026-03-22T09:52:03.028Z</time></trkpt><trkpt lat="43.43412787090735" lon="11.678492688097956"><ele>490.0</ele><time>2026-03-22T09:52:04.028Z</time></trkpt><trkpt lat="43.43421756028115" lon="11.67850345685463"><ele>490.00000000000006</ele><time>2026-03-22T09:52:05.028Z</time></trkpt><trkpt lat="43.43430064023446" lon="11.678523514830317"><ele>490.0</ele><time>2026-03-22T09:52:06.028Z</time></trkpt><trkpt lat="43.43439255132378" lon="11.678542062759334"><ele>490.0</ele><time>2026-03-22T09:52:07.028Z</time></trkpt><trkpt lat="43.434466277848955" lon="11.678573583196256"><ele>490.0</ele><time>2026-03-22T09:52:08.028Z</time></trkpt><trkpt lat="43.434532385518594" lon="11.678608949292036"><ele>490.00000000000006</ele><time>2026-03-22T09:52:09.028Z</time></trkpt><trkpt lat="43.43460913743302" lon="11.67863812205574"><ele>490.0</ele><time>2026-03-22T09:52:10.028Z</time></trkpt><trkpt lat="43.43467870377904" lon="11.67866004518074"><ele>493.6666666666667</ele><time>2026-03-22T09:52:11.028Z</time></trkpt><trkpt lat="43.43474105992022" lon="11.67867953168449"><ele>497.33333333333337</ele><time>2026-03-22T09:52:12.028Z</time></trkpt><trkpt lat="43.43486235492226" lon="11.678729984329683"><ele>501.0</ele><time>2026-03-22T09:52:14.027Z</time></trkpt><trkpt lat="43.43497950724836" lon="11.678770166632516"><ele>504.66666666666663</ele><time>2026-03-22T09:52:16.027Z</time></trkpt><trkpt lat="43.43504798218006" lon="11.678805460567043"><ele>508.3333333333333</ele><time>2026-03-22T09:52:17.027Z</time></trkpt><trkpt lat="43.43510569701446" lon="11.678840578128202"><ele>512.0</ele><time>2026-03-22T09:52:18.027Z</time></trkpt><trkpt lat="43.4352044438886" lon="11.67889669444275"><ele>511.99999999999994</ele><time>2026-03-22T09:52:20.027Z</time></trkpt><trkpt lat="43.435265805153335" lon="11.678975332605981"><ele>512.0</ele><time>2026-03-22T09:52:22.027Z</time></trkpt><trkpt lat="43.43530882877702" lon="11.679095344714186"><ele>512.0</ele><time>2026-03-22T09:52:24.027Z</time></trkpt><trkpt lat="43.43532506985527" lon="11.679198537762057"><ele>512.0</ele><time>2026-03-22T09:52:26.027Z</time></trkpt><trkpt lat="43.43535636086106" lon="11.679287357568173"><ele>511.99999999999994</ele><time>2026-03-22T09:52:28.027Z</time></trkpt><trkpt lat="43.43539931856543" lon="11.679380218523447"><ele>512.0</ele><time>2026-03-22T09:52:30.027Z</time></trkpt><trkpt lat="43.435472489842034" lon="11.679451530518138"><ele>512.0</ele><time>2026-03-22T09:53:53.028Z</time></trkpt><trkpt lat="43.435408560672556" lon="11.679474191600708"><ele>511.99999999999994</ele><time>2026-03-22T10:04:37.034Z</time></trkpt><trkpt lat="43.43532683862971" lon="11.679450818248442"><ele>512.0</ele><time>2026-03-22T10:10:07.969Z</time></trkpt><trkpt lat="43.43529361488017" lon="11.679371154825976"><ele>512.0</ele><time>2026-03-22T10:10:09.969Z</time></trkpt><trkpt lat="43.435336262793705" lon="11.679282311886123"><ele>511.99999999999994</ele><time>2026-03-22T10:10:11.968Z</time></trkpt><trkpt lat="43.43538765571554" lon="11.679211861534009"><ele>512.0</ele><time>2026-03-22T10:10:14.968Z</time></trkpt><trkpt lat="43.43544640692083" lon="11.679133614368247"><ele>512.0</ele><time>2026-03-22T10:10:18.968Z</time></trkpt><trkpt lat="43.43552836769545" lon="11.67912620105887"><ele>511.66666666666663</ele><time>2026-03-22T10:10:21.968Z</time></trkpt><trkpt lat="43.435603369236475" lon="11.679149413871405"><ele>511.3333333333333</ele><time>2026-03-22T10:10:23.968Z</time></trkpt><trkpt lat="43.43571000863486" lon="11.67922267731421"><ele>511.0</ele><time>2026-03-22T10:10:25.968Z</time></trkpt><trkpt lat="43.435765823444946" lon="11.679280680443172"><ele>510.66666666666663</ele><time>2026-03-22T10:10:26.968Z</time></trkpt><trkpt lat="43.43582325877787" lon="11.67932192686218"><ele>510.3333333333333</ele><time>2026-03-22T10:10:27.968Z</time></trkpt><trkpt lat="43.43588788100608" lon="11.679366853194724"><ele>510.0</ele><time>2026-03-22T10:10:28.968Z</time></trkpt><trkpt lat="43.435949132658294" lon="11.67940200370605"><ele>510.0</ele><time>2026-03-22T10:10:29.968Z</time></trkpt><trkpt lat="43.43601297284446" lon="11.679424109579148"><ele>510.0</ele><time>2026-03-22T10:10:30.968Z</time></trkpt><trkpt lat="43.43608700110124" lon="11.679430510089016"><ele>510.0</ele><time>2026-03-22T10:10:31.968Z</time></trkpt><trkpt lat="43.43615941348943" lon="11.679422676737655"><ele>510.0</ele><time>2026-03-22T10:10:32.968Z</time></trkpt><trkpt lat="43.43623816410229" lon="11.67942012880724"><ele>510.0</ele><time>2026-03-22T10:10:33.968Z</time></trkpt><trkpt lat="43.436303343459144" lon="11.679426495417387"><ele>510.0</ele><time>2026-03-22T10:10:34.968Z</time></trkpt><trkpt lat="43.436413335717916" lon="11.679510940236982"><ele>509.0</ele><time>2026-03-22T10:10:36.968Z</time></trkpt><trkpt lat="43.43646599071718" lon="11.679571101444902"><ele>508.00000000000006</ele><time>2026-03-22T10:10:37.968Z</time></trkpt><trkpt lat="43.43652537106521" lon="11.679650432764683"><ele>507.0</ele><time>2026-03-22T10:10:38.968Z</time></trkpt><trkpt lat="43.43659185764674" lon="11.679716377923137"><ele>506.0</ele><time>2026-03-22T10:10:39.968Z</time></trkpt><trkpt lat="43.43664678149139" lon="11.679778962730023"><ele>505.00000000000006</ele><time>2026-03-22T10:10:40.968Z</time></trkpt><trkpt lat="43.43669439678199" lon="11.679849781903123"><ele>504.0</ele><time>2026-03-22T10:10:41.968Z</time></trkpt><trkpt lat="43.43675732945283" lon="11.679897546521014"><ele>503.0</ele><time>2026-03-22T10:10:42.968Z</time></trkpt><trkpt lat="43.436828094137745" lon="11.679977586886448"><ele>502.99999999999994</ele><time>2026-03-22T10:10:43.968Z</time></trkpt><trkpt lat="43.43689617261372" lon="11.680046291464533"><ele>503.0</ele><time>2026-03-22T10:10:44.967Z</time></trkpt><trkpt lat="43.436974632344615" lon="11.680109591178407"><ele>503.0</ele><time>2026-03-22T10:10:45.967Z</time></trkpt><trkpt lat="43.43703580035736" lon="11.680188642805069"><ele>503.0</ele><time>2026-03-22T10:10:46.967Z</time></trkpt><trkpt lat="43.437082200871906" lon="11.680266746484213"><ele>502.99999999999994</ele><time>2026-03-22T10:10:47.967Z</time></trkpt><trkpt lat="43.43710539595741" lon="11.680371453219323"><ele>503.0</ele><time>2026-03-22T10:10:48.967Z</time></trkpt><trkpt lat="43.43714041048355" lon="11.68047966673257"><ele>501.99999999999994</ele><time>2026-03-22T10:10:49.967Z</time></trkpt><trkpt lat="43.43715973235801" lon="11.680578738848952"><ele>501.0</ele><time>2026-03-22T10:10:50.967Z</time></trkpt><trkpt lat="43.43718820417881" lon="11.680664337719124"><ele>500.0</ele><time>2026-03-22T10:10:51.967Z</time></trkpt><trkpt lat="43.43722429474481" lon="11.680745574206382"><ele>499.0</ele><time>2026-03-22T10:10:52.967Z</time></trkpt><trkpt lat="43.437280714095166" lon="11.680824304034823"><ele>497.99999999999994</ele><time>2026-03-22T10:10:53.967Z</time></trkpt><trkpt lat="43.43738221989867" lon="11.680964686887293"><ele>497.0</ele><time>2026-03-22T10:10:55.967Z</time></trkpt><trkpt lat="43.43746715507722" lon="11.681027103478506"><ele>496.99999999999994</ele><time>2026-03-22T10:10:56.967Z</time></trkpt><trkpt lat="43.43754748807978" lon="11.681084026935277"><ele>497.0</ele><time>2026-03-22T10:10:57.967Z</time></trkpt><trkpt lat="43.43762385379432" lon="11.681136814314549"><ele>497.0</ele><time>2026-03-22T10:10:58.967Z</time></trkpt><trkpt lat="43.43769587289873" lon="11.681177610298484"><ele>497.0</ele><time>2026-03-22T10:10:59.967Z</time></trkpt><trkpt lat="43.437763428707306" lon="11.681217204498664"><ele>496.99999999999994</ele><time>2026-03-22T10:11:00.967Z</time></trkpt><trkpt lat="43.437835481850016" lon="11.68126761641115"><ele>497.0</ele><time>2026-03-22T10:11:01.967Z</time></trkpt><trkpt lat="43.437904693222485" lon="11.681323429453355"><ele>494.16666666666663</ele><time>2026-03-22T10:11:02.967Z</time></trkpt><trkpt lat="43.437966117160485" lon="11.681401916088802"><ele>491.3333333333333</ele><time>2026-03-22T10:11:03.967Z</time></trkpt><trkpt lat="43.43803344190235" lon="11.681466189056446"><ele>488.5</ele><time>2026-03-22T10:11:04.967Z</time></trkpt><trkpt lat="43.438109737599596" lon="11.681523315885793"><ele>485.66666666666663</ele><time>2026-03-22T10:11:05.967Z</time></trkpt><trkpt lat="43.43819026111761" lon="11.68156859019737"><ele>482.8333333333333</ele><time>2026-03-22T10:11:06.967Z</time></trkpt><trkpt lat="43.43826318314721" lon="11.681591093503412"><ele>480.0</ele><time>2026-03-22T10:11:07.967Z</time></trkpt><trkpt lat="43.43833364786141" lon="11.681621981835741"><ele>480.0</ele><time>2026-03-22T10:11:08.967Z</time></trkpt><trkpt lat="43.438416320131196" lon="11.681665465933316"><ele>480.0</ele><time>2026-03-22T10:11:09.967Z</time></trkpt><trkpt lat="43.438500655755405" lon="11.681728456079567"><ele>480.0</ele><time>2026-03-22T10:11:10.967Z</time></trkpt><trkpt lat="43.43857579863109" lon="11.681800336511923"><ele>480.0</ele><time>2026-03-22T10:11:11.967Z</time></trkpt><trkpt lat="43.438645318746495" lon="11.681883609165208"><ele>480.0</ele><time>2026-03-22T10:11:12.967Z</time></trkpt><trkpt lat="43.438723065955024" lon="11.681971607391535"><ele>480.3333333333333</ele><time>2026-03-22T10:11:13.967Z</time></trkpt><trkpt lat="43.43878063462031" lon="11.68205182016466"><ele>480.66666666666663</ele><time>2026-03-22T10:11:14.967Z</time></trkpt><trkpt lat="43.43885616071673" lon="11.682143206613397"><ele>481.0</ele><time>2026-03-22T10:11:15.967Z</time></trkpt><trkpt lat="43.43891838255539" lon="11.682211813240533"><ele>481.3333333333333</ele><time>2026-03-22T10:11:16.967Z</time></trkpt><trkpt lat="43.43898076335179" lon="11.682298629711228"><ele>481.66666666666663</ele><time>2026-03-22T10:11:17.966Z</time></trkpt><trkpt lat="43.43904224330104" lon="11.682371224137377"><ele>482.0</ele><time>2026-03-22T10:11:18.966Z</time></trkpt><trkpt lat="43.439100200234996" lon="11.682447172748054"><ele>481.99999999999994</ele><time>2026-03-22T10:11:19.966Z</time></trkpt><trkpt lat="43.439155149329466" lon="11.682512220507277"><ele>482.0</ele><time>2026-03-22T10:11:20.966Z</time></trkpt><trkpt lat="43.439188440815094" lon="11.682588116471718"><ele>482.0</ele><time>2026-03-22T10:11:21.966Z</time></trkpt><trkpt lat="43.43920903840905" lon="11.682672205607703"><ele>482.0</ele><time>2026-03-22T10:11:22.966Z</time></trkpt><trkpt lat="43.43919758320944" lon="11.682869568976816"><ele>481.99999999999994</ele><time>2026-03-22T10:11:24.966Z</time></trkpt><trkpt lat="43.43917057787116" lon="11.682961531089509"><ele>482.0</ele><time>2026-03-22T10:11:25.966Z</time></trkpt><trkpt lat="43.439157102877424" lon="11.68305577362485"><ele>482.66666666666663</ele><time>2026-03-22T10:11:26.966Z</time></trkpt><trkpt lat="43.439166468197826" lon="11.683141614733692"><ele>483.3333333333333</ele><time>2026-03-22T10:11:27.966Z</time></trkpt><trkpt lat="43.439182603674176" lon="11.683254205787165"><ele>484.0</ele><time>2026-03-22T10:11:28.966Z</time></trkpt><trkpt lat="43.43921325003608" lon="11.6833901101991"><ele>484.66666666666663</ele><time>2026-03-22T10:11:29.966Z</time></trkpt><trkpt lat="43.439231466172856" lon="11.683505007714977"><ele>485.3333333333333</ele><time>2026-03-22T10:11:30.966Z</time></trkpt><trkpt lat="43.439231151752686" lon="11.683625155181417"><ele>486.0</ele><time>2026-03-22T10:11:31.968Z</time></trkpt><trkpt lat="43.439237302105084" lon="11.683742707384216"><ele>486.0</ele><time>2026-03-22T10:11:32.968Z</time></trkpt><trkpt lat="43.43926652825949" lon="11.683853886497609"><ele>486.0</ele><time>2026-03-22T10:11:33.968Z</time></trkpt><trkpt lat="43.43930469441957" lon="11.683957842553061"><ele>486.0</ele><time>2026-03-22T10:11:34.968Z</time></trkpt><trkpt lat="43.43934781563344" lon="11.684040535816157"><ele>486.0</ele><time>2026-03-22T10:11:35.967Z</time></trkpt><trkpt lat="43.43940572430264" lon="11.684113263588092"><ele>486.0</ele><time>2026-03-22T10:11:36.967Z</time></trkpt><trkpt lat="43.43946862266136" lon="11.684164575125072"><ele>486.0</ele><time>2026-03-22T10:11:37.968Z</time></trkpt><trkpt lat="43.439538861119686" lon="11.684218110692667"><ele>486.0</ele><time>2026-03-22T10:11:38.968Z</time></trkpt><trkpt lat="43.43960729979865" lon="11.68430032801269"><ele>486.0</ele><time>2026-03-22T10:11:39.968Z</time></trkpt><trkpt lat="43.43966588420666" lon="11.68439542677264"><ele>486.0</ele><time>2026-03-22T10:11:40.968Z</time></trkpt><trkpt lat="43.43971965457285" lon="11.684507502905394"><ele>486.0</ele><time>2026-03-22T10:11:42.967Z</time></trkpt><trkpt lat="43.439704344255084" lon="11.684628175798878"><ele>486.0</ele><time>2026-03-22T10:11:44.967Z</time></trkpt><trkpt lat="43.439633381569436" lon="11.684731815283097"><ele>484.8333333333333</ele><time>2026-03-22T10:11:45.967Z</time></trkpt><trkpt lat="43.43958360963539" lon="11.684828208023374"><ele>483.66666666666663</ele><time>2026-03-22T10:11:46.967Z</time></trkpt><trkpt lat="43.43954269973332" lon="11.684925468285256"><ele>482.5</ele><time>2026-03-22T10:11:47.967Z</time></trkpt><trkpt lat="43.43949283569414" lon="11.685039696822384"><ele>481.3333333333333</ele><time>2026-03-22T10:11:48.967Z</time></trkpt><trkpt lat="43.43944590753908" lon="11.685145436618537"><ele>480.16666666666663</ele><time>2026-03-22T10:11:49.967Z</time></trkpt><trkpt lat="43.439405219453086" lon="11.685235610582408"><ele>479.0</ele><time>2026-03-22T10:11:50.967Z</time></trkpt><trkpt lat="43.439346619070015" lon="11.685466602080647"><ele>478.79999999999995</ele><time>2026-03-22T10:11:52.967Z</time></trkpt><trkpt lat="43.439327294037994" lon="11.685594483109583"><ele>478.59999999999997</ele><time>2026-03-22T10:11:53.967Z</time></trkpt><trkpt lat="43.43930214209565" lon="11.685721392067434"><ele>478.4</ele><time>2026-03-22T10:11:54.967Z</time></trkpt><trkpt lat="43.43928475290049" lon="11.685854771099399"><ele>478.2</ele><time>2026-03-22T10:11:55.967Z</time></trkpt><trkpt lat="43.439265145823185" lon="11.685985703274271"><ele>478.0</ele><time>2026-03-22T10:11:56.967Z</time></trkpt><trkpt lat="43.43926602658282" lon="11.686098831294448"><ele>478.0</ele><time>2026-03-22T10:11:57.967Z</time></trkpt><trkpt lat="43.439272066046534" lon="11.686235777613073"><ele>477.99999999999994</ele><time>2026-03-22T10:11:58.967Z</time></trkpt><trkpt lat="43.439284060493925" lon="11.68635528116099"><ele>477.99999999999994</ele><time>2026-03-22T10:11:59.967Z</time></trkpt><trkpt lat="43.439286509295485" lon="11.686490570262897"><ele>478.0</ele><time>2026-03-22T10:12:00.967Z</time></trkpt><trkpt lat="43.439290193500504" lon="11.686624992400702"><ele>478.0</ele><time>2026-03-22T10:12:01.967Z</time></trkpt><trkpt lat="43.43930813880632" lon="11.686765449109318"><ele>478.0</ele><time>2026-03-22T10:12:02.967Z</time></trkpt><trkpt lat="43.43931714769365" lon="11.686896226775087"><ele>477.99999999999994</ele><time>2026-03-22T10:12:03.967Z</time></trkpt><trkpt lat="43.43933227406128" lon="11.6870369162732"><ele>477.99999999999994</ele><time>2026-03-22T10:12:04.967Z</time></trkpt><trkpt lat="43.439338850920116" lon="11.687189864680656"><ele>478.0</ele><time>2026-03-22T10:12:05.967Z</time></trkpt><trkpt lat="43.4393374421618" lon="11.687325364044364"><ele>478.0</ele><time>2026-03-22T10:12:06.967Z</time></trkpt><trkpt lat="43.43931393413044" lon="11.687473501420813"><ele>478.0</ele><time>2026-03-22T10:12:07.967Z</time></trkpt><trkpt lat="43.439280938615354" lon="11.687618578988054"><ele>477.99999999999994</ele><time>2026-03-22T10:12:08.967Z</time></trkpt><trkpt lat="43.43926238498782" lon="11.687761432533758"><ele>477.99999999999994</ele><time>2026-03-22T10:12:09.967Z</time></trkpt><trkpt lat="43.439265339691886" lon="11.687882278404993"><ele>478.0</ele><time>2026-03-22T10:12:10.966Z</time></trkpt><trkpt lat="43.439286503575836" lon="11.688004325282735"><ele>478.0</ele><time>2026-03-22T10:12:11.966Z</time></trkpt><trkpt lat="43.43933308388047" lon="11.688123405571963"><ele>477.83333333333337</ele><time>2026-03-22T10:12:12.966Z</time></trkpt><trkpt lat="43.439374421366125" lon="11.688243291712224"><ele>477.6666666666667</ele><time>2026-03-22T10:12:13.966Z</time></trkpt><trkpt lat="43.43941183005054" lon="11.688343977108827"><ele>477.5</ele><time>2026-03-22T10:12:14.966Z</time></trkpt><trkpt lat="43.43943719782625" lon="11.688444880968891"><ele>477.33333333333337</ele><time>2026-03-22T10:12:15.966Z</time></trkpt><trkpt lat="43.43945886056843" lon="11.6885634158578"><ele>477.1666666666667</ele><time>2026-03-22T10:12:16.966Z</time></trkpt><trkpt lat="43.43947112656685" lon="11.688684748771587"><ele>477.0</ele><time>2026-03-22T10:12:17.966Z</time></trkpt><trkpt lat="43.43946368720631" lon="11.688815007152254"><ele>475.6666666666667</ele><time>2026-03-22T10:12:18.966Z</time></trkpt><trkpt lat="43.43943913050282" lon="11.68895476813509"><ele>474.33333333333337</ele><time>2026-03-22T10:12:19.966Z</time></trkpt><trkpt lat="43.43940683409277" lon="11.68904821137254"><ele>473.0</ele><time>2026-03-22T10:12:20.966Z</time></trkpt><trkpt lat="43.43936403728441" lon="11.689156650824572"><ele>471.6666666666667</ele><time>2026-03-22T10:12:21.966Z</time></trkpt><trkpt lat="43.43930282169653" lon="11.689258846440007"><ele>470.33333333333337</ele><time>2026-03-22T10:12:22.966Z</time></trkpt><trkpt lat="43.43926479259568" lon="11.689361439551178"><ele>469.0</ele><time>2026-03-22T10:12:23.966Z</time></trkpt><trkpt lat="43.43919215261262" lon="11.689462337067017"><ele>467.33333333333337</ele><time>2026-03-22T10:12:24.966Z</time></trkpt><trkpt lat="43.43913176657228" lon="11.689574535644518"><ele>465.6666666666667</ele><time>2026-03-22T10:12:25.966Z</time></trkpt><trkpt lat="43.43906858124315" lon="11.689654779664837"><ele>464.0</ele><time>2026-03-22T10:12:26.966Z</time></trkpt><trkpt lat="43.439010120772934" lon="11.689755433534552"><ele>462.33333333333337</ele><time>2026-03-22T10:12:27.966Z</time></trkpt><trkpt lat="43.43894655008159" lon="11.68984399530238"><ele>460.6666666666667</ele><time>2026-03-22T10:12:28.966Z</time></trkpt><trkpt lat="43.438899944180925" lon="11.689925542388126"><ele>459.0</ele><time>2026-03-22T10:12:29.966Z</time></trkpt><trkpt lat="43.438865373229056" lon="11.69001527711973"><ele>459.0</ele><time>2026-03-22T10:12:30.966Z</time></trkpt><trkpt lat="43.43884643298574" lon="11.690148445944066"><ele>459.0</ele><time>2026-03-22T10:12:31.966Z</time></trkpt><trkpt lat="43.438832297443355" lon="11.690277201387818"><ele>459.0</ele><time>2026-03-22T10:12:32.966Z</time></trkpt><trkpt lat="43.43881311324362" lon="11.690405632642822"><ele>459.0</ele><time>2026-03-22T10:12:33.966Z</time></trkpt><trkpt lat="43.438796186963536" lon="11.690532779864423"><ele>459.0</ele><time>2026-03-22T10:12:34.966Z</time></trkpt><trkpt lat="43.4387772056314" lon="11.690650442324882"><ele>459.3333333333333</ele><time>2026-03-22T10:12:35.966Z</time></trkpt><trkpt lat="43.43874875102324" lon="11.690737940920224"><ele>459.66666666666663</ele><time>2026-03-22T10:12:36.966Z</time></trkpt><trkpt lat="43.43872611173128" lon="11.690831847358886"><ele>460.0</ele><time>2026-03-22T10:12:37.966Z</time></trkpt><trkpt lat="43.43871605682347" lon="11.690928599371416"><ele>460.3333333333333</ele><time>2026-03-22T10:12:38.966Z</time></trkpt><trkpt lat="43.43871649490277" lon="11.691047128933059"><ele>460.66666666666663</ele><time>2026-03-22T10:12:39.966Z</time></trkpt><trkpt lat="43.43874239049426" lon="11.691173371211125"><ele>461.0</ele><time>2026-03-22T10:12:40.966Z</time></trkpt><trkpt lat="43.43877193333872" lon="11.691302366295279"><ele>460.20000000000005</ele><time>2026-03-22T10:12:41.966Z</time></trkpt><trkpt lat="43.43880342657986" lon="11.691446696192932"><ele>459.40000000000003</ele><time>2026-03-22T10:12:42.966Z</time></trkpt><trkpt lat="43.4388264667942" lon="11.69157077845346"><ele>458.6</ele><time>2026-03-22T10:12:43.965Z</time></trkpt><trkpt lat="43.438835981167365" lon="11.691702874278493"><ele>457.8</ele><time>2026-03-22T10:12:44.965Z</time></trkpt><trkpt lat="43.438847905367936" lon="11.691848307802305"><ele>457.0</ele><time>2026-03-22T10:12:45.965Z</time></trkpt><trkpt lat="43.43886073167969" lon="11.691978526339131"><ele>457.0</ele><time>2026-03-22T10:12:46.965Z</time></trkpt><trkpt lat="43.438884532568835" lon="11.692154916732534"><ele>457.0</ele><time>2026-03-22T10:12:47.965Z</time></trkpt><trkpt lat="43.43890165876442" lon="11.692317142460862"><ele>457.0</ele><time>2026-03-22T10:12:48.965Z</time></trkpt><trkpt lat="43.43891369249946" lon="11.692458961362044"><ele>457.0</ele><time>2026-03-22T10:12:49.965Z</time></trkpt><trkpt lat="43.43894791745192" lon="11.692591972700493"><ele>457.0</ele><time>2026-03-22T10:12:50.965Z</time></trkpt><trkpt lat="43.4389911106983" lon="11.692714341475071"><ele>457.00000000000006</ele><time>2026-03-22T10:12:51.965Z</time></trkpt><trkpt lat="43.43901878821918" lon="11.692828547999238"><ele>457.00000000000006</ele><time>2026-03-22T10:12:52.965Z</time></trkpt><trkpt lat="43.43903537396707" lon="11.692929716575106"><ele>457.0</ele><time>2026-03-22T10:12:53.965Z</time></trkpt><trkpt lat="43.43907190747924" lon="11.69304993298453"><ele>457.0</ele><time>2026-03-22T10:12:54.965Z</time></trkpt><trkpt lat="43.43912859446051" lon="11.693180351955037"><ele>458.6666666666667</ele><time>2026-03-22T10:12:55.965Z</time></trkpt><trkpt lat="43.4391671121236" lon="11.693283164294114"><ele>460.33333333333337</ele><time>2026-03-22T10:12:56.965Z</time></trkpt><trkpt lat="43.43922162041411" lon="11.693388070935233"><ele>462.0</ele><time>2026-03-22T10:12:57.965Z</time></trkpt><trkpt lat="43.43926976887246" lon="11.693485431408902"><ele>463.66666666666663</ele><time>2026-03-22T10:12:58.965Z</time></trkpt><trkpt lat="43.43932899625673" lon="11.69357561422645"><ele>465.3333333333333</ele><time>2026-03-22T10:12:59.965Z</time></trkpt><trkpt lat="43.43937764720693" lon="11.69363348788835"><ele>467.0</ele><time>2026-03-22T10:13:00.965Z</time></trkpt><trkpt lat="43.43946469988569" lon="11.693716572095314"><ele>468.8</ele><time>2026-03-22T10:13:02.965Z</time></trkpt><trkpt lat="43.439495383258155" lon="11.693860820997296"><ele>470.6</ele><time>2026-03-22T10:13:04.965Z</time></trkpt><trkpt lat="43.43952361844181" lon="11.693984316474568"><ele>472.40000000000003</ele><time>2026-03-22T10:13:05.965Z</time></trkpt><trkpt lat="43.43956432334078" lon="11.69410976320453"><ele>474.20000000000005</ele><time>2026-03-22T10:13:06.965Z</time></trkpt><trkpt lat="43.4396224826643" lon="11.694271890983433"><ele>476.0</ele><time>2026-03-22T10:13:07.965Z</time></trkpt><trkpt lat="43.439671498089666" lon="11.694439775388545"><ele>479.3333333333333</ele><time>2026-03-22T10:13:08.965Z</time></trkpt><trkpt lat="43.439714791573834" lon="11.69456221949445"><ele>482.66666666666663</ele><time>2026-03-22T10:13:09.965Z</time></trkpt><trkpt lat="43.43973345357189" lon="11.69469310888802"><ele>486.0</ele><time>2026-03-22T10:13:10.965Z</time></trkpt><trkpt lat="43.439745602818846" lon="11.694799555253503"><ele>489.33333333333337</ele><time>2026-03-22T10:13:11.965Z</time></trkpt><trkpt lat="43.439738677957095" lon="11.694889316949507"><ele>492.6666666666667</ele><time>2026-03-22T10:13:12.965Z</time></trkpt><trkpt lat="43.43970845542908" lon="11.694989020239275"><ele>496.0</ele><time>2026-03-22T10:13:13.965Z</time></trkpt><trkpt lat="43.43968401726928" lon="11.695101359403184"><ele>496.00000000000006</ele><time>2026-03-22T10:13:14.965Z</time></trkpt><trkpt lat="43.439682247077705" lon="11.695201067048076"><ele>496.0</ele><time>2026-03-22T10:13:15.965Z</time></trkpt><trkpt lat="43.43969330141227" lon="11.695327812172772"><ele>496.0</ele><time>2026-03-22T10:13:16.965Z</time></trkpt><trkpt lat="43.43970657390584" lon="11.695450702112389"><ele>496.0</ele><time>2026-03-22T10:13:17.964Z</time></trkpt><trkpt lat="43.43970722912435" lon="11.695581834909918"><ele>496.00000000000006</ele><time>2026-03-22T10:13:18.964Z</time></trkpt><trkpt lat="43.43970979512327" lon="11.695709882848506"><ele>496.0</ele><time>2026-03-22T10:13:19.964Z</time></trkpt><trkpt lat="43.43972137610452" lon="11.69584416629596"><ele>499.0</ele><time>2026-03-22T10:13:20.964Z</time></trkpt><trkpt lat="43.43973319254066" lon="11.695984796461874"><ele>502.0</ele><time>2026-03-22T10:13:21.964Z</time></trkpt><trkpt lat="43.439732679835494" lon="11.696091389549515"><ele>505.0</ele><time>2026-03-22T10:13:22.964Z</time></trkpt><trkpt lat="43.439699266190885" lon="11.696262184590978"><ele>508.0</ele><time>2026-03-22T10:13:24.964Z</time></trkpt><trkpt lat="43.439690501901154" lon="11.696354807669548"><ele>511.0</ele><time>2026-03-22T10:13:25.964Z</time></trkpt><trkpt lat="43.43970278360394" lon="11.696490917932008"><ele>511.8</ele><time>2026-03-22T10:13:26.964Z</time></trkpt><trkpt lat="43.43973797982513" lon="11.696633325934956"><ele>512.6</ele><time>2026-03-22T10:13:27.964Z</time></trkpt><trkpt lat="43.43976760908223" lon="11.696774255680133"><ele>513.4</ele><time>2026-03-22T10:13:28.964Z</time></trkpt><trkpt lat="43.43978328125649" lon="11.696914904710606"><ele>514.2</ele><time>2026-03-22T10:13:29.964Z</time></trkpt><trkpt lat="43.43977974978867" lon="11.697038248812769"><ele>515.0</ele><time>2026-03-22T10:13:30.964Z</time></trkpt><trkpt lat="43.43977287314467" lon="11.697158757202804"><ele>516.2</ele><time>2026-03-22T10:13:31.964Z</time></trkpt><trkpt lat="43.43975505096511" lon="11.697268052088663"><ele>517.4</ele><time>2026-03-22T10:13:32.964Z</time></trkpt><trkpt lat="43.43973072657017" lon="11.69738427526411"><ele>518.6</ele><time>2026-03-22T10:13:33.964Z</time></trkpt><trkpt lat="43.43971321254849" lon="11.697569962466037"><ele>519.8</ele><time>2026-03-22T10:13:35.964Z</time></trkpt><trkpt lat="43.43969033165064" lon="11.697750810364944"><ele>521.0</ele><time>2026-03-22T10:13:36.966Z</time></trkpt><trkpt lat="43.43965948351747" lon="11.697896481806682"><ele>521.6666666666666</ele><time>2026-03-22T10:13:37.966Z</time></trkpt><trkpt lat="43.43963835583992" lon="11.697988038875788"><ele>522.3333333333333</ele><time>2026-03-22T10:13:38.966Z</time></trkpt><trkpt lat="43.43963790223782" lon="11.698096880878694"><ele>523.0</ele><time>2026-03-22T10:13:39.966Z</time></trkpt><trkpt lat="43.43965423922001" lon="11.698208881031881"><ele>523.6666666666666</ele><time>2026-03-22T10:13:40.967Z</time></trkpt><trkpt lat="43.439663001053034" lon="11.698311041290284"><ele>524.3333333333334</ele><time>2026-03-22T10:13:41.966Z</time></trkpt><trkpt lat="43.43962216110367" lon="11.698471643336795"><ele>525.0</ele><time>2026-03-22T10:13:43.966Z</time></trkpt><trkpt lat="43.43957353720598" lon="11.69857298466091"><ele>527.2</ele><time>2026-03-22T10:13:44.966Z</time></trkpt><trkpt lat="43.439519838631306" lon="11.698698271887332"><ele>529.4</ele><time>2026-03-22T10:13:45.966Z</time></trkpt><trkpt lat="43.43948576718233" lon="11.698816641678128"><ele>531.6</ele><time>2026-03-22T10:13:46.966Z</time></trkpt><trkpt lat="43.43945491637166" lon="11.698944116359987"><ele>533.8</ele><time>2026-03-22T10:13:47.966Z</time></trkpt><trkpt lat="43.439430459472135" lon="11.699080789713962"><ele>536.0</ele><time>2026-03-22T10:13:48.966Z</time></trkpt><trkpt lat="43.43941430158173" lon="11.699207844610882"><ele>536.0</ele><time>2026-03-22T10:13:49.966Z</time></trkpt><trkpt lat="43.43939686638221" lon="11.699324173864756"><ele>536.0</ele><time>2026-03-22T10:13:50.966Z</time></trkpt><trkpt lat="43.43935484011622" lon="11.699409494529288"><ele>536.0</ele><time>2026-03-22T10:13:51.966Z</time></trkpt><trkpt lat="43.43930157075591" lon="11.699472739059212"><ele>536.0</ele><time>2026-03-22T10:13:52.966Z</time></trkpt><trkpt lat="43.43921635264004" lon="11.69953539974751"><ele>536.0</ele><time>2026-03-22T10:13:54.966Z</time></trkpt><trkpt lat="43.43921053109795" lon="11.699690674473322"><ele>536.0</ele><time>2026-03-22T10:13:56.966Z</time></trkpt><trkpt lat="43.4392567454108" lon="11.699842063244484"><ele>537.6</ele><time>2026-03-22T10:13:57.966Z</time></trkpt><trkpt lat="43.439285507894844" lon="11.699993303825835"><ele>539.2</ele><time>2026-03-22T10:13:58.966Z</time></trkpt><trkpt lat="43.43929226293828" lon="11.70008420420465"><ele>540.8</ele><time>2026-03-22T10:13:59.966Z</time></trkpt><trkpt lat="43.43925898459041" lon="11.700232218268903"><ele>542.4</ele><time>2026-03-22T10:14:01.966Z</time></trkpt><trkpt lat="43.43918866601889" lon="11.700315129664517"><ele>544.0</ele><time>2026-03-22T10:14:02.966Z</time></trkpt><trkpt lat="43.43909797953021" lon="11.700434918520232"><ele>544.0</ele><time>2026-03-22T10:14:03.966Z</time></trkpt><trkpt lat="43.439046152165204" lon="11.700505835431771"><ele>544.0</ele><time>2026-03-22T10:14:04.966Z</time></trkpt><trkpt lat="43.43900235619365" lon="11.700582646846344"><ele>544.0</ele><time>2026-03-22T10:14:05.966Z</time></trkpt><trkpt lat="43.43897416317825" lon="11.700669083351045"><ele>544.0</ele><time>2026-03-22T10:14:06.966Z</time></trkpt><trkpt lat="43.43895484327156" lon="11.7007667525704"><ele>544.0</ele><time>2026-03-22T10:14:07.966Z</time></trkpt><trkpt lat="43.438939008329285" lon="11.700902381578212"><ele>544.0</ele><time>2026-03-22T10:14:08.966Z</time></trkpt><trkpt lat="43.43892054792192" lon="11.701083837358802"><ele>544.2</ele><time>2026-03-22T10:14:09.966Z</time></trkpt><trkpt lat="43.438873340143175" lon="11.701250796856293"><ele>544.4</ele><time>2026-03-22T10:14:10.966Z</time></trkpt><trkpt lat="43.438821999025194" lon="11.701381106424977"><ele>544.6</ele><time>2026-03-22T10:14:11.966Z</time></trkpt><trkpt lat="43.43877504632437" lon="11.701469236002028"><ele>544.8</ele><time>2026-03-22T10:14:12.966Z</time></trkpt><trkpt lat="43.438744172005876" lon="11.701553343773824"><ele>545.0</ele><time>2026-03-22T10:14:13.966Z</time></trkpt><trkpt lat="43.438738841933244" lon="11.70174870431818"><ele>547.6</ele><time>2026-03-22T10:14:15.966Z</time></trkpt><trkpt lat="43.43872745163093" lon="11.701865891710462"><ele>550.2</ele><time>2026-03-22T10:14:16.965Z</time></trkpt><trkpt lat="43.438703272933594" lon="11.70201441921881"><ele>552.8</ele><time>2026-03-22T10:14:17.965Z</time></trkpt><trkpt lat="43.43868421834463" lon="11.702181030750431"><ele>555.4</ele><time>2026-03-22T10:14:18.965Z</time></trkpt><trkpt lat="43.438683373324565" lon="11.702305106145355"><ele>558.0</ele><time>2026-03-22T10:14:19.965Z</time></trkpt><trkpt lat="43.438699204236435" lon="11.702436601433163"><ele>561.1999999999999</ele><time>2026-03-22T10:14:20.965Z</time></trkpt><trkpt lat="43.438727617800204" lon="11.702553298121755"><ele>564.4</ele><time>2026-03-22T10:14:21.965Z</time></trkpt><trkpt lat="43.43875581798937" lon="11.702686076159628"><ele>567.5999999999999</ele><time>2026-03-22T10:14:22.965Z</time></trkpt><trkpt lat="43.438770424630356" lon="11.702811789909957"><ele>570.8</ele><time>2026-03-22T10:14:23.965Z</time></trkpt><trkpt lat="43.43878176430415" lon="11.702932434446922"><ele>574.0</ele><time>2026-03-22T10:14:24.965Z</time></trkpt><trkpt lat="43.43879175093623" lon="11.703043174353473"><ele>575.6</ele><time>2026-03-22T10:14:25.965Z</time></trkpt><trkpt lat="43.43880519852639" lon="11.703262731571925"><ele>577.2</ele><time>2026-03-22T10:14:27.965Z</time></trkpt><trkpt lat="43.43881100285731" lon="11.703357479493173"><ele>578.8000000000001</ele><time>2026-03-22T10:14:28.965Z</time></trkpt><trkpt lat="43.43887078733113" lon="11.703487281875411"><ele>580.4</ele><time>2026-03-22T10:14:30.965Z</time></trkpt><trkpt lat="43.43895295661249" lon="11.703554234706425"><ele>582.0</ele><time>2026-03-22T10:14:31.965Z</time></trkpt><trkpt lat="43.439022591945935" lon="11.703645035106092"><ele>582.0</ele><time>2026-03-22T10:14:32.965Z</time></trkpt><trkpt lat="43.43906878055454" lon="11.703822059183333"><ele>582.0</ele><time>2026-03-22T10:14:33.965Z</time></trkpt><trkpt lat="43.43912732369695" lon="11.70394733466127"><ele>582.0</ele><time>2026-03-22T10:14:34.965Z</time></trkpt><trkpt lat="43.439197395777406" lon="11.704047408731604"><ele>582.0</ele><time>2026-03-22T10:14:35.965Z</time></trkpt><trkpt lat="43.43927416115405" lon="11.704141864460611"><ele>582.0</ele><time>2026-03-22T10:14:36.965Z</time></trkpt><trkpt lat="43.439340956855006" lon="11.704211838062227"><ele>582.0</ele><time>2026-03-22T10:14:37.965Z</time></trkpt><trkpt lat="43.439446791077884" lon="11.704339576349078"><ele>582.0</ele><time>2026-03-22T10:14:39.965Z</time></trkpt><trkpt lat="43.43952097520795" lon="11.704430409879505"><ele>582.0</ele><time>2026-03-22T10:14:40.965Z</time></trkpt><trkpt lat="43.439607363622336" lon="11.704512609171164"><ele>582.0</ele><time>2026-03-22T10:14:41.965Z</time></trkpt><trkpt lat="43.43968831158489" lon="11.704600882951768"><ele>582.0</ele><time>2026-03-22T10:14:42.965Z</time></trkpt><trkpt lat="43.43974346753253" lon="11.70468069646186"><ele>581.2</ele><time>2026-03-22T10:14:43.965Z</time></trkpt><trkpt lat="43.439797500708146" lon="11.704760955815393"><ele>580.4000000000001</ele><time>2026-03-22T10:14:44.965Z</time></trkpt><trkpt lat="43.439876773712925" lon="11.704853536444503"><ele>579.5999999999999</ele><time>2026-03-22T10:14:46.965Z</time></trkpt><trkpt lat="43.439928229704144" lon="11.704938200255665"><ele>578.8</ele><time>2026-03-22T10:14:48.965Z</time></trkpt><trkpt lat="43.43993326972261" lon="11.705045008753668"><ele>578.0</ele><time>2026-03-22T10:14:50.964Z</time></trkpt><trkpt lat="43.43991349393581" lon="11.705245958752327"><ele>578.0</ele><time>2026-03-22T10:14:52.964Z</time></trkpt><trkpt lat="43.43990633296776" lon="11.705372886018962"><ele>578.0</ele><time>2026-03-22T10:14:53.964Z</time></trkpt><trkpt lat="43.439897288520086" lon="11.705474461855022"><ele>578.0</ele><time>2026-03-22T10:14:54.964Z</time></trkpt><trkpt lat="43.439899142372454" lon="11.705619616873228"><ele>578.0</ele><time>2026-03-22T10:14:56.964Z</time></trkpt><trkpt lat="43.439935962334516" lon="11.705720464399901"><ele>578.0</ele><time>2026-03-22T10:14:58.964Z</time></trkpt><trkpt lat="43.44004128306885" lon="11.705801886434688"><ele>578.0</ele><time>2026-03-22T10:15:00.964Z</time></trkpt><trkpt lat="43.44011072227445" lon="11.705841478742434"><ele>578.0</ele><time>2026-03-22T10:15:01.964Z</time></trkpt><trkpt lat="43.440175295314106" lon="11.705885896527471"><ele>578.0</ele><time>2026-03-22T10:15:02.964Z</time></trkpt><trkpt lat="43.44025000514788" lon="11.705943588953934"><ele>578.0</ele><time>2026-03-22T10:15:03.964Z</time></trkpt><trkpt lat="43.440313284544764" lon="11.705991073642767"><ele>578.0</ele><time>2026-03-22T10:15:04.964Z</time></trkpt><trkpt lat="43.44037520152096" lon="11.706032630100028"><ele>578.0</ele><time>2026-03-22T10:15:05.964Z</time></trkpt><trkpt lat="43.44045763404189" lon="11.706095401838954"><ele>578.0</ele><time>2026-03-22T10:15:07.964Z</time></trkpt><trkpt lat="43.44050259656897" lon="11.706162997093815"><ele>578.0</ele><time>2026-03-22T10:15:09.964Z</time></trkpt><trkpt lat="43.44051380612794" lon="11.706279825704156"><ele>578.0</ele><time>2026-03-22T10:15:11.964Z</time></trkpt><trkpt lat="43.440496130849745" lon="11.706428955065359"><ele>578.0</ele><time>2026-03-22T10:15:13.964Z</time></trkpt><trkpt lat="43.44047234493498" lon="11.706518733146652"><ele>578.0</ele><time>2026-03-22T10:15:14.964Z</time></trkpt><trkpt lat="43.44044112400656" lon="11.706597882933803"><ele>578.0</ele><time>2026-03-22T10:15:15.964Z</time></trkpt><trkpt lat="43.440403730912074" lon="11.706749889073155"><ele>578.0</ele><time>2026-03-22T10:15:17.964Z</time></trkpt><trkpt lat="43.44039384033292" lon="11.706846831027931"><ele>578.0</ele><time>2026-03-22T10:15:18.964Z</time></trkpt><trkpt lat="43.44040149089181" lon="11.70696443278501"><ele>578.0</ele><time>2026-03-22T10:15:20.964Z</time></trkpt><trkpt lat="43.44045014981456" lon="11.707052853370103"><ele>578.0</ele><time>2026-03-22T10:15:22.963Z</time></trkpt><trkpt lat="43.44053239368626" lon="11.70703639519795"><ele>578.0</ele><time>2026-03-22T10:15:24.963Z</time></trkpt><trkpt lat="43.44064903925261" lon="11.706990130601463"><ele>578.0</ele><time>2026-03-22T10:15:26.963Z</time></trkpt><trkpt lat="43.440722960794815" lon="11.70697915713567"><ele>576.5</ele><time>2026-03-22T10:15:27.963Z</time></trkpt><trkpt lat="43.440786068541456" lon="11.706994083040735"><ele>575.0</ele><time>2026-03-22T10:15:28.963Z</time></trkpt><trkpt lat="43.440853476165216" lon="11.707033984736386"><ele>573.5</ele><time>2026-03-22T10:15:29.963Z</time></trkpt><trkpt lat="43.440968688540885" lon="11.707084627508157"><ele>572.0</ele><time>2026-03-22T10:15:31.963Z</time></trkpt><trkpt lat="43.44103680816487" lon="11.707106287920558"><ele>570.5</ele><time>2026-03-22T10:15:32.963Z</time></trkpt><trkpt lat="43.44112078166505" lon="11.707103119607613"><ele>569.0</ele><time>2026-03-22T10:15:33.963Z</time></trkpt><trkpt lat="43.441205214214435" lon="11.707074915780078"><ele>569.0</ele><time>2026-03-22T10:15:34.963Z</time></trkpt><trkpt lat="43.44128572076799" lon="11.707054232396672"><ele>569.0</ele><time>2026-03-22T10:15:35.963Z</time></trkpt><trkpt lat="43.44135964613608" lon="11.707034394284143"><ele>569.0</ele><time>2026-03-22T10:15:36.963Z</time></trkpt><trkpt lat="43.44144308296927" lon="11.707006145050604"><ele>569.0</ele><time>2026-03-22T10:15:37.963Z</time></trkpt><trkpt lat="43.441534372111185" lon="11.707008206870059"><ele>569.0</ele><time>2026-03-22T10:15:38.963Z</time></trkpt><trkpt lat="43.44166722526764" lon="11.707020684028464"><ele>567.0</ele><time>2026-03-22T10:15:39.963Z</time></trkpt><trkpt lat="43.44178253280301" lon="11.707053837139762"><ele>565.0</ele><time>2026-03-22T10:15:40.963Z</time></trkpt><trkpt lat="43.44188459750965" lon="11.707080516879367"><ele>563.0</ele><time>2026-03-22T10:15:41.963Z</time></trkpt><trkpt lat="43.44197040217131" lon="11.707105038722442"><ele>561.0</ele><time>2026-03-22T10:15:42.965Z</time></trkpt><trkpt lat="43.442037676441586" lon="11.707136216100709"><ele>559.0</ele><time>2026-03-22T10:15:43.965Z</time></trkpt><trkpt lat="43.44210409975187" lon="11.707262401107945"><ele>559.0</ele><time>2026-03-22T10:15:45.965Z</time></trkpt><trkpt lat="43.44213122039585" lon="11.707347996896804"><ele>559.0</ele><time>2026-03-22T10:15:46.965Z</time></trkpt><trkpt lat="43.44217874212624" lon="11.707425362794359"><ele>559.0</ele><time>2026-03-22T10:15:47.965Z</time></trkpt><trkpt lat="43.44222711208547" lon="11.70748621492038"><ele>559.0</ele><time>2026-03-22T10:15:48.965Z</time></trkpt><trkpt lat="43.44228733872883" lon="11.707541417993804"><ele>559.0</ele><time>2026-03-22T10:15:49.965Z</time></trkpt><trkpt lat="43.44234453700444" lon="11.707596174107294"><ele>559.0</ele><time>2026-03-22T10:15:50.965Z</time></trkpt><trkpt lat="43.44242923040802" lon="11.70765026538826"><ele>559.0</ele><time>2026-03-22T10:15:52.965Z</time></trkpt><trkpt lat="43.442550274945695" lon="11.70762876181918"><ele>556.5</ele><time>2026-03-22T10:15:54.965Z</time></trkpt><trkpt lat="43.44263570602118" lon="11.70758299102464"><ele>554.0</ele><time>2026-03-22T10:15:55.965Z</time></trkpt><trkpt lat="43.44269991248059" lon="11.707545118102459"><ele>551.5</ele><time>2026-03-22T10:15:56.965Z</time></trkpt><trkpt lat="43.44277377916419" lon="11.70752797548085"><ele>549.0</ele><time>2026-03-22T10:15:57.965Z</time></trkpt><trkpt lat="43.44284110949077" lon="11.707532374031896"><ele>546.5</ele><time>2026-03-22T10:15:58.965Z</time></trkpt><trkpt lat="43.44293198437481" lon="11.7076221650796"><ele>544.0</ele><time>2026-03-22T10:16:00.965Z</time></trkpt><trkpt lat="43.44299472300018" lon="11.707717815322326"><ele>544.0</ele><time>2026-03-22T10:16:01.965Z</time></trkpt><trkpt lat="43.44306942762964" lon="11.707801170296841"><ele>544.0</ele><time>2026-03-22T10:16:02.965Z</time></trkpt><trkpt lat="43.44312697490773" lon="11.707857223507771"><ele>544.0</ele><time>2026-03-22T10:16:03.965Z</time></trkpt><trkpt lat="43.44320128694711" lon="11.707900536476085"><ele>544.0</ele><time>2026-03-22T10:16:04.965Z</time></trkpt><trkpt lat="43.44327859923748" lon="11.707913471502964"><ele>544.0</ele><time>2026-03-22T10:16:05.965Z</time></trkpt><trkpt lat="43.44336989546501" lon="11.707931668295194"><ele>544.0</ele><time>2026-03-22T10:16:06.965Z</time></trkpt><trkpt lat="43.44346588277366" lon="11.707943755350245"><ele>544.0</ele><time>2026-03-22T10:16:07.965Z</time></trkpt><trkpt lat="43.443560079867154" lon="11.707949151703938"><ele>544.0</ele><time>2026-03-22T10:16:08.965Z</time></trkpt><trkpt lat="43.443665362990465" lon="11.707944130406931"><ele>544.0</ele><time>2026-03-22T10:16:09.965Z</time></trkpt><trkpt lat="43.44377220701715" lon="11.707932583792832"><ele>544.0</ele><time>2026-03-22T10:16:10.965Z</time></trkpt><trkpt lat="43.44388547723316" lon="11.707931694314658"><ele>544.0</ele><time>2026-03-22T10:16:11.965Z</time></trkpt><trkpt lat="43.44399501380653" lon="11.70794678602625"><ele>543.6</ele><time>2026-03-22T10:16:12.965Z</time></trkpt><trkpt lat="43.444099171601835" lon="11.70796485625677"><ele>543.2</ele><time>2026-03-22T10:16:13.965Z</time></trkpt><trkpt lat="43.444189332722836" lon="11.707978134505787"><ele>542.8000000000001</ele><time>2026-03-22T10:16:14.965Z</time></trkpt><trkpt lat="43.44428474769788" lon="11.707983138435255"><ele>542.4</ele><time>2026-03-22T10:16:15.965Z</time></trkpt><trkpt lat="43.44437870328347" lon="11.707992505552223"><ele>542.0</ele><time>2026-03-22T10:16:16.964Z</time></trkpt><trkpt lat="43.44446313825623" lon="11.707990418704117"><ele>542.0</ele><time>2026-03-22T10:16:17.964Z</time></trkpt><trkpt lat="43.444536897442816" lon="11.707988560527653"><ele>542.0</ele><time>2026-03-22T10:16:18.964Z</time></trkpt><trkpt lat="43.444603164379615" lon="11.70798893934916"><ele>542.0</ele><time>2026-03-22T10:16:19.964Z</time></trkpt><trkpt lat="43.44470697140945" lon="11.707990384634746"><ele>542.0</ele><time>2026-03-22T10:16:21.964Z</time></trkpt><trkpt lat="43.444798159884385" lon="11.70797456099509"><ele>542.0</ele><time>2026-03-22T10:16:23.964Z</time></trkpt><trkpt lat="43.44486710511787" lon="11.707909827421975"><ele>542.0</ele><time>2026-03-22T10:16:24.964Z</time></trkpt><trkpt lat="43.44493986314064" lon="11.707821870674925"><ele>541.2</ele><time>2026-03-22T10:16:25.964Z</time></trkpt><trkpt lat="43.4449985704847" lon="11.707749659295171"><ele>540.4000000000001</ele><time>2026-03-22T10:16:26.964Z</time></trkpt><trkpt lat="43.44506885019786" lon="11.707666521728612"><ele>539.5999999999999</ele><time>2026-03-22T10:16:27.964Z</time></trkpt><trkpt lat="43.44513720957238" lon="11.707592824897853"><ele>538.8</ele><time>2026-03-22T10:16:28.964Z</time></trkpt><trkpt lat="43.44521346263526" lon="11.707507994622437"><ele>538.0</ele><time>2026-03-22T10:16:29.964Z</time></trkpt><trkpt lat="43.44528659938281" lon="11.707427656457835"><ele>538.0</ele><time>2026-03-22T10:16:30.964Z</time></trkpt><trkpt lat="43.44536263712349" lon="11.707343857224007"><ele>538.0</ele><time>2026-03-22T10:16:31.964Z</time></trkpt><trkpt lat="43.445425620189646" lon="11.707255796760748"><ele>538.0</ele><time>2026-03-22T10:16:32.964Z</time></trkpt><trkpt lat="43.44549360301904" lon="11.707164132159857"><ele>538.0</ele><time>2026-03-22T10:16:33.964Z</time></trkpt><trkpt lat="43.4455628836746" lon="11.70707749636667"><ele>538.0</ele><time>2026-03-22T10:16:34.964Z</time></trkpt><trkpt lat="43.44563883462324" lon="11.706963204584238"><ele>536.8</ele><time>2026-03-22T10:16:35.964Z</time></trkpt><trkpt lat="43.445700628934304" lon="11.70684822181166"><ele>535.5999999999999</ele><time>2026-03-22T10:16:36.964Z</time></trkpt><trkpt lat="43.44574863895895" lon="11.706733647512253"><ele>534.4000000000001</ele><time>2026-03-22T10:16:37.964Z</time></trkpt><trkpt lat="43.44580575540665" lon="11.706621122645032"><ele>533.2</ele><time>2026-03-22T10:16:38.964Z</time></trkpt><trkpt lat="43.44585495809903" lon="11.706508796023606"><ele>532.0</ele><time>2026-03-22T10:16:39.964Z</time></trkpt><trkpt lat="43.445918571792006" lon="11.70640010571814"><ele>532.0</ele><time>2026-03-22T10:16:40.964Z</time></trkpt><trkpt lat="43.44598763863949" lon="11.706283399762881"><ele>532.0</ele><time>2026-03-22T10:16:41.964Z</time></trkpt><trkpt lat="43.446072592441865" lon="11.706177366189811"><ele>532.0</ele><time>2026-03-22T10:16:42.964Z</time></trkpt><trkpt lat="43.44617262600042" lon="11.70607987674395"><ele>532.0</ele><time>2026-03-22T10:16:43.964Z</time></trkpt><trkpt lat="43.44627629322457" lon="11.705990913891098"><ele>530.0</ele><time>2026-03-22T10:16:44.964Z</time></trkpt><trkpt lat="43.44639538273354" lon="11.705916562040324"><ele>528.0</ele><time>2026-03-22T10:16:45.964Z</time></trkpt><trkpt lat="43.446514444840496" lon="11.705843240159304"><ele>526.0</ele><time>2026-03-22T10:16:46.964Z</time></trkpt><trkpt lat="43.446628804882195" lon="11.705797158342694"><ele>524.0</ele><time>2026-03-22T10:16:47.964Z</time></trkpt><trkpt lat="43.44675324995946" lon="11.70578384492952"><ele>524.0</ele><time>2026-03-22T10:16:48.964Z</time></trkpt><trkpt lat="43.446884554882054" lon="11.705778062345873"><ele>524.0</ele><time>2026-03-22T10:16:49.963Z</time></trkpt><trkpt lat="43.44700447605598" lon="11.70578835658426"><ele>524.0</ele><time>2026-03-22T10:16:50.963Z</time></trkpt><trkpt lat="43.447128326642854" lon="11.705811649433226"><ele>524.0</ele><time>2026-03-22T10:16:51.963Z</time></trkpt><trkpt lat="43.44725431205772" lon="11.705854972217754"><ele>522.25</ele><time>2026-03-22T10:16:52.963Z</time></trkpt><trkpt lat="43.44738589359839" lon="11.70589143244616"><ele>520.5</ele><time>2026-03-22T10:16:53.963Z</time></trkpt><trkpt lat="43.44751313192654" lon="11.705904624993915"><ele>518.75</ele><time>2026-03-22T10:16:54.963Z</time></trkpt><trkpt lat="43.44763480830544" lon="11.70589611068455"><ele>517.0</ele><time>2026-03-22T10:16:55.963Z</time></trkpt><trkpt lat="43.44774300895623" lon="11.705873455888918"><ele>517.0</ele><time>2026-03-22T10:16:56.963Z</time></trkpt><trkpt lat="43.44783785737424" lon="11.705831068847523"><ele>517.0</ele><time>2026-03-22T10:16:57.963Z</time></trkpt><trkpt lat="43.447917140736905" lon="11.705793487341658"><ele>517.0</ele><time>2026-03-22T10:16:58.963Z</time></trkpt><trkpt lat="43.44799051467472" lon="11.70578171417115"><ele>517.0</ele><time>2026-03-22T10:16:59.963Z</time></trkpt><trkpt lat="43.4480787052194" lon="11.705758792389865"><ele>517.0</ele><time>2026-03-22T10:17:01.963Z</time></trkpt><trkpt lat="43.4481361857042" lon="11.70579813704685"><ele>517.0</ele><time>2026-03-22T10:17:06.963Z</time></trkpt><trkpt lat="43.44821791477067" lon="11.705785062302263"><ele>515.0</ele><time>2026-03-22T10:20:15.961Z</time></trkpt><trkpt lat="43.44830188730388" lon="11.70573172292124"><ele>513.0</ele><time>2026-03-22T10:20:18.961Z</time></trkpt><trkpt lat="43.44840316101817" lon="11.705682812846185"><ele>511.00000000000006</ele><time>2026-03-22T10:20:20.961Z</time></trkpt><trkpt lat="43.44848121829126" lon="11.705630910232713"><ele>509.0</ele><time>2026-03-22T10:20:21.961Z</time></trkpt><trkpt lat="43.44857505871393" lon="11.705595374829256"><ele>507.0</ele><time>2026-03-22T10:20:22.961Z</time></trkpt><trkpt lat="43.448645956894055" lon="11.705528058462882"><ele>507.0</ele><time>2026-03-22T10:20:23.961Z</time></trkpt><trkpt lat="43.44871536540521" lon="11.705476399062114"><ele>507.0</ele><time>2026-03-22T10:20:24.961Z</time></trkpt><trkpt lat="43.44877635188824" lon="11.705413916479591"><ele>507.0</ele><time>2026-03-22T10:20:25.961Z</time></trkpt><trkpt lat="43.44882445330346" lon="11.705337098296518"><ele>507.0</ele><time>2026-03-22T10:20:26.961Z</time></trkpt><trkpt lat="43.44887371259213" lon="11.70524989767523"><ele>507.0</ele><time>2026-03-22T10:20:27.961Z</time></trkpt><trkpt lat="43.44892107293254" lon="11.705117484292106"><ele>507.0</ele><time>2026-03-22T10:20:28.961Z</time></trkpt><trkpt lat="43.44896372005251" lon="11.704985217059265"><ele>505.75</ele><time>2026-03-22T10:20:29.961Z</time></trkpt><trkpt lat="43.44902790454671" lon="11.704831162646117"><ele>504.5</ele><time>2026-03-22T10:20:30.961Z</time></trkpt><trkpt lat="43.44909214853472" lon="11.704662469685564"><ele>503.25</ele><time>2026-03-22T10:20:31.961Z</time></trkpt><trkpt lat="43.44916564577612" lon="11.704495734591646"><ele>502.0</ele><time>2026-03-22T10:20:32.961Z</time></trkpt><trkpt lat="43.44924030685726" lon="11.704322112373939"><ele>501.75</ele><time>2026-03-22T10:20:33.961Z</time></trkpt><trkpt lat="43.44931332852598" lon="11.70416147269489"><ele>501.5</ele><time>2026-03-22T10:20:34.961Z</time></trkpt><trkpt lat="43.44939074030549" lon="11.704010678271752"><ele>501.25</ele><time>2026-03-22T10:20:35.961Z</time></trkpt><trkpt lat="43.44946612191549" lon="11.703877480089801"><ele>501.0</ele><time>2026-03-22T10:20:36.961Z</time></trkpt><trkpt lat="43.449543868372444" lon="11.703754034103723"><ele>501.0</ele><time>2026-03-22T10:20:37.961Z</time></trkpt><trkpt lat="43.4496171430119" lon="11.703635211842546"><ele>501.0</ele><time>2026-03-22T10:20:38.961Z</time></trkpt><trkpt lat="43.44969174719266" lon="11.70351341207274"><ele>501.0</ele><time>2026-03-22T10:20:39.96Z</time></trkpt><trkpt lat="43.44976947245464" lon="11.703397056576346"><ele>501.0</ele><time>2026-03-22T10:20:40.96Z</time></trkpt><trkpt lat="43.449848305851965" lon="11.703278232281518"><ele>499.5</ele><time>2026-03-22T10:20:41.96Z</time></trkpt><trkpt lat="43.44993038588705" lon="11.703157922257512"><ele>498.0</ele><time>2026-03-22T10:20:42.96Z</time></trkpt><trkpt lat="43.45001082363418" lon="11.703037797000983"><ele>496.5</ele><time>2026-03-22T10:20:43.96Z</time></trkpt><trkpt lat="43.45010000768908" lon="11.702906555151907"><ele>495.0</ele><time>2026-03-22T10:20:44.96Z</time></trkpt><trkpt lat="43.45020172886616" lon="11.702776510268675"><ele>494.75</ele><time>2026-03-22T10:20:45.96Z</time></trkpt><trkpt lat="43.450305068858775" lon="11.702655600945635"><ele>494.5</ele><time>2026-03-22T10:20:46.96Z</time></trkpt><trkpt lat="43.450400538013966" lon="11.702537806392336"><ele>494.25</ele><time>2026-03-22T10:20:47.96Z</time></trkpt><trkpt lat="43.450499017575694" lon="11.702427684917124"><ele>494.0</ele><time>2026-03-22T10:20:48.96Z</time></trkpt><trkpt lat="43.45057795300544" lon="11.702325115477656"><ele>493.0</ele><time>2026-03-22T10:20:49.96Z</time></trkpt><trkpt lat="43.45065898000174" lon="11.702229175121882"><ele>492.0</ele><time>2026-03-22T10:20:50.96Z</time></trkpt><trkpt lat="43.450732140498914" lon="11.70214841299295"><ele>491.0</ele><time>2026-03-22T10:20:51.96Z</time></trkpt><trkpt lat="43.450813396933626" lon="11.702082720087557"><ele>490.0</ele><time>2026-03-22T10:20:52.96Z</time></trkpt><trkpt lat="43.45090434604024" lon="11.702041448674956"><ele>489.0</ele><time>2026-03-22T10:20:53.96Z</time></trkpt><trkpt lat="43.45096330988888" lon="11.701970986299921"><ele>490.0</ele><time>2026-03-22T10:20:54.96Z</time></trkpt><trkpt lat="43.45101913837334" lon="11.70186962705713"><ele>491.0</ele><time>2026-03-22T10:20:55.96Z</time></trkpt><trkpt lat="43.451070968559144" lon="11.70172529197726"><ele>492.0</ele><time>2026-03-22T10:20:56.96Z</time></trkpt><trkpt lat="43.45113117786072" lon="11.701582779538262"><ele>493.0</ele><time>2026-03-22T10:20:57.96Z</time></trkpt><trkpt lat="43.45120539933492" lon="11.701417531548863"><ele>493.0</ele><time>2026-03-22T10:20:58.96Z</time></trkpt><trkpt lat="43.45128435191462" lon="11.701231585771055"><ele>493.0</ele><time>2026-03-22T10:20:59.96Z</time></trkpt><trkpt lat="43.45137762738715" lon="11.701031930410178"><ele>493.0</ele><time>2026-03-22T10:21:00.96Z</time></trkpt><trkpt lat="43.45145685658929" lon="11.700851799214446"><ele>495.25</ele><time>2026-03-22T10:21:01.96Z</time></trkpt><trkpt lat="43.4515264962549" lon="11.70071567079074"><ele>497.5</ele><time>2026-03-22T10:21:02.96Z</time></trkpt><trkpt lat="43.45159105955126" lon="11.700597982392512"><ele>499.75</ele><time>2026-03-22T10:21:03.96Z</time></trkpt><trkpt lat="43.45166467641778" lon="11.70049162861285"><ele>502.0</ele><time>2026-03-22T10:21:04.96Z</time></trkpt><trkpt lat="43.45175594354353" lon="11.700393261478153"><ele>502.0</ele><time>2026-03-22T10:21:05.96Z</time></trkpt><trkpt lat="43.45189250282526" lon="11.700294209460468"><ele>502.0</ele><time>2026-03-22T10:21:06.96Z</time></trkpt><trkpt lat="43.452028292949024" lon="11.700169600972139"><ele>502.0</ele><time>2026-03-22T10:21:07.96Z</time></trkpt><trkpt lat="43.452144304943054" lon="11.700052614295748"><ele>505.0</ele><time>2026-03-22T10:21:08.96Z</time></trkpt><trkpt lat="43.45223569016487" lon="11.699962638321546"><ele>508.0</ele><time>2026-03-22T10:21:09.96Z</time></trkpt><trkpt lat="43.45232724592389" lon="11.699885911342358"><ele>511.0</ele><time>2026-03-22T10:21:10.96Z</time></trkpt><trkpt lat="43.45241123436721" lon="11.699780441709999"><ele>514.0</ele><time>2026-03-22T10:21:11.96Z</time></trkpt><trkpt lat="43.452504257633024" lon="11.699664471045558"><ele>514.0</ele><time>2026-03-22T10:21:12.959Z</time></trkpt><trkpt lat="43.452593511863306" lon="11.699570487347216"><ele>514.0</ele><time>2026-03-22T10:21:13.959Z</time></trkpt><trkpt lat="43.4526884351118" lon="11.699481916658778"><ele>514.0</ele><time>2026-03-22T10:21:14.959Z</time></trkpt><trkpt lat="43.45276137633688" lon="11.699386773674657"><ele>514.0</ele><time>2026-03-22T10:21:15.959Z</time></trkpt><trkpt lat="43.45280671120667" lon="11.699313032352233"><ele>514.0</ele><time>2026-03-22T10:21:16.959Z</time></trkpt><trkpt lat="43.45283726614277" lon="11.699227717352272"><ele>515.6</ele><time>2026-03-22T10:21:17.959Z</time></trkpt><trkpt lat="43.4528511820297" lon="11.699121764212634"><ele>517.2</ele><time>2026-03-22T10:21:18.959Z</time></trkpt><trkpt lat="43.45284733918082" lon="11.699006752800686"><ele>518.8000000000001</ele><time>2026-03-22T10:21:19.959Z</time></trkpt><trkpt lat="43.45281556210202" lon="11.698894022839118"><ele>520.4</ele><time>2026-03-22T10:21:20.959Z</time></trkpt><trkpt lat="43.45275996447016" lon="11.698758886067774"><ele>522.0</ele><time>2026-03-22T10:21:21.959Z</time></trkpt><trkpt lat="43.45271651157924" lon="11.69858615677801"><ele>523.75</ele><time>2026-03-22T10:21:22.959Z</time></trkpt><trkpt lat="43.45266867022179" lon="11.698405909722043"><ele>525.5</ele><time>2026-03-22T10:21:23.959Z</time></trkpt><trkpt lat="43.452637908340854" lon="11.698260706059404"><ele>527.25</ele><time>2026-03-22T10:21:24.959Z</time></trkpt><trkpt lat="43.45259239239834" lon="11.69811117131818"><ele>529.0</ele><time>2026-03-22T10:21:25.959Z</time></trkpt><trkpt lat="43.45256717069245" lon="11.69794697686485"><ele>529.0</ele><time>2026-03-22T10:21:26.959Z</time></trkpt><trkpt lat="43.45255690946002" lon="11.697757876604607"><ele>529.0</ele><time>2026-03-22T10:21:27.959Z</time></trkpt><trkpt lat="43.45254510672658" lon="11.697616749280707"><ele>529.0</ele><time>2026-03-22T10:21:28.959Z</time></trkpt><trkpt lat="43.452542289582404" lon="11.697500221238256"><ele>529.0</ele><time>2026-03-22T10:21:29.959Z</time></trkpt><trkpt lat="43.45255361184588" lon="11.69734499336852"><ele>529.0</ele><time>2026-03-22T10:21:30.959Z</time></trkpt><trkpt lat="43.45256655389965" lon="11.697211272866388"><ele>529.2</ele><time>2026-03-22T10:21:31.959Z</time></trkpt><trkpt lat="43.452587027485365" lon="11.69707144692287"><ele>529.4</ele><time>2026-03-22T10:21:32.959Z</time></trkpt><trkpt lat="43.452624206305764" lon="11.696929124988491"><ele>529.6</ele><time>2026-03-22T10:21:33.959Z</time></trkpt><trkpt lat="43.452661138037335" lon="11.69681388676338"><ele>529.8</ele><time>2026-03-22T10:21:34.959Z</time></trkpt><trkpt lat="43.45273251932301" lon="11.696717555335278"><ele>530.0</ele><time>2026-03-22T10:21:35.959Z</time></trkpt><trkpt lat="43.45279082592124" lon="11.696651734373624"><ele>530.0</ele><time>2026-03-22T10:21:36.959Z</time></trkpt><trkpt lat="43.45282404234352" lon="11.696557347605658"><ele>530.0</ele><time>2026-03-22T10:21:37.959Z</time></trkpt><trkpt lat="43.452840019955495" lon="11.69644295137335"><ele>530.0</ele><time>2026-03-22T10:21:38.959Z</time></trkpt><trkpt lat="43.45283926960553" lon="11.696320341850674"><ele>530.0</ele><time>2026-03-22T10:21:39.959Z</time></trkpt><trkpt lat="43.45281925426586" lon="11.696214056485287"><ele>530.0</ele><time>2026-03-22T10:21:40.959Z</time></trkpt><trkpt lat="43.45280471166877" lon="11.696090812607535"><ele>530.0</ele><time>2026-03-22T10:21:41.959Z</time></trkpt><trkpt lat="43.452802391122404" lon="11.695960944901104"><ele>529.75</ele><time>2026-03-22T10:21:42.959Z</time></trkpt><trkpt lat="43.45283510673913" lon="11.695793055208263"><ele>529.5</ele><time>2026-03-22T10:21:43.959Z</time></trkpt><trkpt lat="43.452883024273646" lon="11.69561238271281"><ele>529.25</ele><time>2026-03-22T10:21:44.959Z</time></trkpt><trkpt lat="43.45292749653372" lon="11.695421466358624"><ele>529.0</ele><time>2026-03-22T10:21:45.958Z</time></trkpt><trkpt lat="43.45294922794755" lon="11.695241645335917"><ele>529.0</ele><time>2026-03-22T10:21:46.958Z</time></trkpt><trkpt lat="43.45293475992171" lon="11.695076185095738"><ele>529.0</ele><time>2026-03-22T10:21:47.958Z</time></trkpt><trkpt lat="43.45290163234926" lon="11.69493140121811"><ele>529.0</ele><time>2026-03-22T10:21:48.958Z</time></trkpt><trkpt lat="43.45288220020773" lon="11.694792422383284"><ele>529.0</ele><time>2026-03-22T10:21:49.958Z</time></trkpt><trkpt lat="43.45289194030359" lon="11.69465656638333"><ele>529.0</ele><time>2026-03-22T10:21:50.958Z</time></trkpt><trkpt lat="43.45292749945066" lon="11.694495439646442"><ele>530.0</ele><time>2026-03-22T10:21:51.958Z</time></trkpt><trkpt lat="43.4530063535941" lon="11.694339593404527"><ele>531.0</ele><time>2026-03-22T10:21:52.958Z</time></trkpt><trkpt lat="43.453081892265764" lon="11.694156113243416"><ele>532.0</ele><time>2026-03-22T10:21:53.958Z</time></trkpt><trkpt lat="43.45313544457004" lon="11.693990242626729"><ele>533.0</ele><time>2026-03-22T10:21:54.958Z</time></trkpt><trkpt lat="43.45316835945903" lon="11.6938333052352"><ele>533.0</ele><time>2026-03-22T10:21:55.958Z</time></trkpt><trkpt lat="43.4532011866245" lon="11.693677409030087"><ele>533.0</ele><time>2026-03-22T10:21:56.958Z</time></trkpt><trkpt lat="43.45321266650716" lon="11.693524229219138"><ele>533.0</ele><time>2026-03-22T10:21:57.958Z</time></trkpt><trkpt lat="43.453199702626456" lon="11.693379825854931"><ele>533.0</ele><time>2026-03-22T10:21:58.958Z</time></trkpt><trkpt lat="43.453200733952634" lon="11.693231720445059"><ele>533.0</ele><time>2026-03-22T10:21:59.958Z</time></trkpt><trkpt lat="43.45320576391923" lon="11.693096080925523"><ele>532.1999999999999</ele><time>2026-03-22T10:22:00.961Z</time></trkpt><trkpt lat="43.45321643133306" lon="11.692951589944771"><ele>531.4</ele><time>2026-03-22T10:22:01.961Z</time></trkpt><trkpt lat="43.45324529832255" lon="11.69283321152786"><ele>530.5999999999999</ele><time>2026-03-22T10:22:02.961Z</time></trkpt><trkpt lat="43.45328691515558" lon="11.6927123252176"><ele>529.8</ele><time>2026-03-22T10:22:03.961Z</time></trkpt><trkpt lat="43.453337354046276" lon="11.692597878209384"><ele>529.0</ele><time>2026-03-22T10:22:04.961Z</time></trkpt><trkpt lat="43.45341681919821" lon="11.692470582751309"><ele>527.5</ele><time>2026-03-22T10:22:05.96Z</time></trkpt><trkpt lat="43.45351486097335" lon="11.69234313565171"><ele>526.0</ele><time>2026-03-22T10:22:06.961Z</time></trkpt><trkpt lat="43.453606013715714" lon="11.692215609343265"><ele>524.5</ele><time>2026-03-22T10:22:07.961Z</time></trkpt><trkpt lat="43.45370206560325" lon="11.692093109753777"><ele>523.0</ele><time>2026-03-22T10:22:08.961Z</time></trkpt><trkpt lat="43.45378952674392" lon="11.69197588790594"><ele>521.25</ele><time>2026-03-22T10:22:09.96Z</time></trkpt><trkpt lat="43.45387235230893" lon="11.69185214705383"><ele>519.5</ele><time>2026-03-22T10:22:10.961Z</time></trkpt><trkpt lat="43.453954398784234" lon="11.691732536710461"><ele>517.75</ele><time>2026-03-22T10:22:11.961Z</time></trkpt><trkpt lat="43.45404187238163" lon="11.691613706183844"><ele>516.0</ele><time>2026-03-22T10:22:12.96Z</time></trkpt><trkpt lat="43.454129102577454" lon="11.691496989586726"><ele>516.0</ele><time>2026-03-22T10:22:13.96Z</time></trkpt><trkpt lat="43.45421235286838" lon="11.69137687631098"><ele>516.0</ele><time>2026-03-22T10:22:14.96Z</time></trkpt><trkpt lat="43.45429799599014" lon="11.691250410297968"><ele>516.0</ele><time>2026-03-22T10:22:15.96Z</time></trkpt><trkpt lat="43.454374381124175" lon="11.691132169257278"><ele>516.0</ele><time>2026-03-22T10:22:16.96Z</time></trkpt><trkpt lat="43.45446006042062" lon="11.691015406468006"><ele>515.4</ele><time>2026-03-22T10:22:17.96Z</time></trkpt><trkpt lat="43.45453662846881" lon="11.690894803163493"><ele>514.8</ele><time>2026-03-22T10:22:18.96Z</time></trkpt><trkpt lat="43.45461487048458" lon="11.69078303124394"><ele>514.1999999999999</ele><time>2026-03-22T10:22:19.96Z</time></trkpt><trkpt lat="43.45469183752777" lon="11.69067277542392"><ele>513.6</ele><time>2026-03-22T10:22:20.96Z</time></trkpt><trkpt lat="43.454762735312364" lon="11.690569859536998"><ele>513.0</ele><time>2026-03-22T10:22:21.96Z</time></trkpt><trkpt lat="43.45483496098857" lon="11.69046599015959"><ele>512.0</ele><time>2026-03-22T10:22:22.96Z</time></trkpt><trkpt lat="43.45491302735358" lon="11.690378737984142"><ele>510.99999999999994</ele><time>2026-03-22T10:22:23.96Z</time></trkpt><trkpt lat="43.45498632203969" lon="11.690294101236796"><ele>509.99999999999994</ele><time>2026-03-22T10:22:24.96Z</time></trkpt><trkpt lat="43.45505525366621" lon="11.690216014025575"><ele>509.0</ele><time>2026-03-22T10:22:25.96Z</time></trkpt><trkpt lat="43.45512981552308" lon="11.690135302800293"><ele>508.0</ele><time>2026-03-22T10:22:26.959Z</time></trkpt><trkpt lat="43.45519472527902" lon="11.690050607028164"><ele>507.6666666666667</ele><time>2026-03-22T10:22:27.959Z</time></trkpt><trkpt lat="43.45524487445714" lon="11.689952602091351"><ele>507.33333333333337</ele><time>2026-03-22T10:22:28.959Z</time></trkpt><trkpt lat="43.45528208068483" lon="11.689854946791721"><ele>507.0</ele><time>2026-03-22T10:22:29.959Z</time></trkpt><trkpt lat="43.45532257180375" lon="11.689740153069666"><ele>506.66666666666663</ele><time>2026-03-22T10:22:30.959Z</time></trkpt><trkpt lat="43.4553501413854" lon="11.689630141336123"><ele>506.3333333333333</ele><time>2026-03-22T10:22:31.959Z</time></trkpt><trkpt lat="43.455379670486415" lon="11.689517611612073"><ele>506.0</ele><time>2026-03-22T10:22:32.959Z</time></trkpt><trkpt lat="43.45542687047872" lon="11.689409350587528"><ele>503.66666666666663</ele><time>2026-03-22T10:22:33.959Z</time></trkpt><trkpt lat="43.45547810676496" lon="11.689302162799075"><ele>501.3333333333333</ele><time>2026-03-22T10:22:34.959Z</time></trkpt><trkpt lat="43.45553816213808" lon="11.689186676406361"><ele>499.0</ele><time>2026-03-22T10:22:35.959Z</time></trkpt><trkpt lat="43.455574556164834" lon="11.68909193893867"><ele>496.66666666666663</ele><time>2026-03-22T10:22:36.959Z</time></trkpt><trkpt lat="43.455623287911706" lon="11.689010555538985"><ele>494.3333333333333</ele><time>2026-03-22T10:22:37.959Z</time></trkpt><trkpt lat="43.45567726179925" lon="11.688942750968117"><ele>492.0</ele><time>2026-03-22T10:22:38.959Z</time></trkpt><trkpt lat="43.45573890950454" lon="11.688882321011468"><ele>492.0</ele><time>2026-03-22T10:22:39.959Z</time></trkpt><trkpt lat="43.45579424091221" lon="11.68880527458757"><ele>492.0</ele><time>2026-03-22T10:22:40.959Z</time></trkpt><trkpt lat="43.45585934536447" lon="11.688730599531183"><ele>492.0</ele><time>2026-03-22T10:22:41.959Z</time></trkpt><trkpt lat="43.45592472725668" lon="11.688674222274402"><ele>492.0</ele><time>2026-03-22T10:22:42.959Z</time></trkpt><trkpt lat="43.45599784185289" lon="11.688619527240622"><ele>492.0</ele><time>2026-03-22T10:22:43.959Z</time></trkpt><trkpt lat="43.45607451367873" lon="11.688570599404912"><ele>492.0</ele><time>2026-03-22T10:22:44.959Z</time></trkpt><trkpt lat="43.456146594728104" lon="11.688532464106533"><ele>492.3333333333333</ele><time>2026-03-22T10:22:45.959Z</time></trkpt><trkpt lat="43.45620857385024" lon="11.688495800436149"><ele>492.66666666666663</ele><time>2026-03-22T10:22:46.959Z</time></trkpt><trkpt lat="43.45628936794853" lon="11.68845981098164"><ele>493.0</ele><time>2026-03-22T10:22:47.959Z</time></trkpt><trkpt lat="43.45636983018757" lon="11.688384800779108"><ele>493.3333333333333</ele><time>2026-03-22T10:22:48.959Z</time></trkpt><trkpt lat="43.45644240676498" lon="11.688300339147787"><ele>493.66666666666663</ele><time>2026-03-22T10:22:49.959Z</time></trkpt><trkpt lat="43.456510894107495" lon="11.688214039931193"><ele>494.0</ele><time>2026-03-22T10:22:50.959Z</time></trkpt><trkpt lat="43.45658774133804" lon="11.688131848246519"><ele>492.4</ele><time>2026-03-22T10:22:51.959Z</time></trkpt><trkpt lat="43.4566637134905" lon="11.688063731958064"><ele>490.79999999999995</ele><time>2026-03-22T10:22:52.959Z</time></trkpt><trkpt lat="43.45673740407712" lon="11.687992979542985"><ele>489.20000000000005</ele><time>2026-03-22T10:22:53.959Z</time></trkpt><trkpt lat="43.456822378483295" lon="11.687921871687479"><ele>487.6</ele><time>2026-03-22T10:22:54.959Z</time></trkpt><trkpt lat="43.456906432662834" lon="11.687837936148192"><ele>486.0</ele><time>2026-03-22T10:22:55.959Z</time></trkpt><trkpt lat="43.45699397245282" lon="11.687747734028289"><ele>486.0</ele><time>2026-03-22T10:22:56.959Z</time></trkpt><trkpt lat="43.45708341822503" lon="11.687652806304456"><ele>486.0</ele><time>2026-03-22T10:22:57.959Z</time></trkpt><trkpt lat="43.457164764797305" lon="11.687573234527326"><ele>486.0</ele><time>2026-03-22T10:22:58.959Z</time></trkpt><trkpt lat="43.457242634702894" lon="11.687494401138608"><ele>486.0</ele><time>2026-03-22T10:22:59.958Z</time></trkpt><trkpt lat="43.457313748602644" lon="11.687447335178705"><ele>486.0</ele><time>2026-03-22T10:23:00.958Z</time></trkpt><trkpt lat="43.45739948169913" lon="11.687405061700554"><ele>482.6</ele><time>2026-03-22T10:23:01.958Z</time></trkpt><trkpt lat="43.457500847773346" lon="11.687378014142954"><ele>479.20000000000005</ele><time>2026-03-22T10:23:02.958Z</time></trkpt><trkpt lat="43.45760628365907" lon="11.687372147412722"><ele>475.79999999999995</ele><time>2026-03-22T10:23:03.958Z</time></trkpt><trkpt lat="43.45770149409698" lon="11.687355373828167"><ele>472.4</ele><time>2026-03-22T10:23:04.958Z</time></trkpt><trkpt lat="43.45778674705906" lon="11.68731830101597"><ele>469.0</ele><time>2026-03-22T10:23:05.958Z</time></trkpt><trkpt lat="43.45787182173833" lon="11.687280124295928"><ele>466.6666666666667</ele><time>2026-03-22T10:23:06.958Z</time></trkpt><trkpt lat="43.457960284025496" lon="11.68725664986056"><ele>464.33333333333337</ele><time>2026-03-22T10:23:07.958Z</time></trkpt><trkpt lat="43.4580589528576" lon="11.687251894996738"><ele>462.0</ele><time>2026-03-22T10:23:08.958Z</time></trkpt><trkpt lat="43.458155531246774" lon="11.687272282526498"><ele>459.66666666666663</ele><time>2026-03-22T10:23:09.958Z</time></trkpt><trkpt lat="43.45824615597067" lon="11.687272305919212"><ele>457.3333333333333</ele><time>2026-03-22T10:23:10.958Z</time></trkpt><trkpt lat="43.4583176335003" lon="11.687263651334908"><ele>455.0</ele><time>2026-03-22T10:23:11.958Z</time></trkpt><trkpt lat="43.45844476778662" lon="11.68717827712608"><ele>454.99999999999994</ele><time>2026-03-22T10:23:13.958Z</time></trkpt><trkpt lat="43.45850189143802" lon="11.68708375439576"><ele>455.0</ele><time>2026-03-22T10:23:14.958Z</time></trkpt><trkpt lat="43.45854109698272" lon="11.686993814771393"><ele>455.0</ele><time>2026-03-22T10:23:15.958Z</time></trkpt><trkpt lat="43.458544029285015" lon="11.686901466249276"><ele>455.0</ele><time>2026-03-22T10:23:16.958Z</time></trkpt><trkpt lat="43.45857422808093" lon="11.686801835624546"><ele>454.99999999999994</ele><time>2026-03-22T10:23:18.958Z</time></trkpt><trkpt lat="43.45865953007114" lon="11.686854619942947"><ele>455.0</ele><time>2026-03-22T10:23:21.958Z</time></trkpt><trkpt lat="43.45871678329619" lon="11.686942309684598"><ele>455.0</ele><time>2026-03-22T10:23:23.958Z</time></trkpt><trkpt lat="43.45875318053837" lon="11.687095747016294"><ele>455.0</ele><time>2026-03-22T10:23:25.958Z</time></trkpt><trkpt lat="43.458827876443614" lon="11.68722131996207"><ele>455.0</ele><time>2026-03-22T10:23:27.958Z</time></trkpt><trkpt lat="43.45889587750679" lon="11.68720719379004"><ele>455.0</ele><time>2026-03-22T10:23:29.958Z</time></trkpt><trkpt lat="43.45895679328298" lon="11.687104579709555"><ele>455.0</ele><time>2026-03-22T10:23:31.958Z</time></trkpt><trkpt lat="43.458971841568996" lon="11.686959877422467"><ele>452.16666666666663</ele><time>2026-03-22T10:23:33.957Z</time></trkpt><trkpt lat="43.459014003425224" lon="11.686867678582713"><ele>449.3333333333333</ele><time>2026-03-22T10:23:34.957Z</time></trkpt><trkpt lat="43.45911978049038" lon="11.68682424761838"><ele>446.5</ele><time>2026-03-22T10:23:36.957Z</time></trkpt><trkpt lat="43.45917856787442" lon="11.686864515173735"><ele>443.66666666666663</ele><time>2026-03-22T10:23:37.957Z</time></trkpt><trkpt lat="43.459230819073305" lon="11.686916666387928"><ele>440.8333333333333</ele><time>2026-03-22T10:23:38.957Z</time></trkpt><trkpt lat="43.459282397401715" lon="11.686972789215725"><ele>438.0</ele><time>2026-03-22T10:23:39.957Z</time></trkpt><trkpt lat="43.45933363359104" lon="11.687042038720039"><ele>437.8333333333333</ele><time>2026-03-22T10:23:40.957Z</time></trkpt><trkpt lat="43.4593894649236" lon="11.687106481123639"><ele>437.66666666666663</ele><time>2026-03-22T10:23:41.957Z</time></trkpt><trkpt lat="43.459460244962564" lon="11.687163920056637"><ele>437.5</ele><time>2026-03-22T10:23:42.957Z</time></trkpt><trkpt lat="43.45953525335091" lon="11.687211480658751"><ele>437.3333333333333</ele><time>2026-03-22T10:23:43.957Z</time></trkpt><trkpt lat="43.45962235195883" lon="11.687225042048704"><ele>437.16666666666663</ele><time>2026-03-22T10:23:44.957Z</time></trkpt><trkpt lat="43.45971732687579" lon="11.687237767965751"><ele>437.0</ele><time>2026-03-22T10:23:45.957Z</time></trkpt><trkpt lat="43.45981854496863" lon="11.687262553282993"><ele>434.0</ele><time>2026-03-22T10:23:46.957Z</time></trkpt><trkpt lat="43.45991937939195" lon="11.687308652382816"><ele>431.00000000000006</ele><time>2026-03-22T10:23:47.957Z</time></trkpt><trkpt lat="43.46001449399458" lon="11.687365765222404"><ele>428.0</ele><time>2026-03-22T10:23:48.957Z</time></trkpt><trkpt lat="43.460115397392826" lon="11.687400926081063"><ele>425.0</ele><time>2026-03-22T10:23:49.957Z</time></trkpt><trkpt lat="43.460206776717264" lon="11.687401005176492"><ele>422.0</ele><time>2026-03-22T10:23:50.957Z</time></trkpt><trkpt lat="43.46029244887466" lon="11.68739398007773"><ele>421.99999999999994</ele><time>2026-03-22T10:23:51.957Z</time></trkpt><trkpt lat="43.460370801859554" lon="11.687362932093155"><ele>422.0</ele><time>2026-03-22T10:23:52.957Z</time></trkpt><trkpt lat="43.460437594276264" lon="11.687315831320468"><ele>422.0</ele><time>2026-03-22T10:23:53.957Z</time></trkpt><trkpt lat="43.460498399676204" lon="11.687255010828236"><ele>422.0</ele><time>2026-03-22T10:23:54.957Z</time></trkpt><trkpt lat="43.460549417028616" lon="11.687168193382995"><ele>421.99999999999994</ele><time>2026-03-22T10:23:55.957Z</time></trkpt><trkpt lat="43.460572994196355" lon="11.687069380957398"><ele>422.0</ele><time>2026-03-22T10:23:56.957Z</time></trkpt><trkpt lat="43.46056860122508" lon="11.68695079670929"><ele>421.66666666666663</ele><time>2026-03-22T10:23:57.957Z</time></trkpt><trkpt lat="43.460536796084945" lon="11.686846060485003"><ele>421.3333333333333</ele><time>2026-03-22T10:23:58.957Z</time></trkpt><trkpt lat="43.46048696140731" lon="11.686766354622641"><ele>421.0</ele><time>2026-03-22T10:23:59.957Z</time></trkpt><trkpt lat="43.460434426660996" lon="11.686660380166892"><ele>420.66666666666663</ele><time>2026-03-22T10:24:01.957Z</time></trkpt><trkpt lat="43.46042092243076" lon="11.686558518434987"><ele>420.3333333333333</ele><time>2026-03-22T10:24:02.957Z</time></trkpt><trkpt lat="43.46040823709139" lon="11.686461684975198"><ele>420.0</ele><time>2026-03-22T10:24:03.957Z</time></trkpt><trkpt lat="43.460371772791795" lon="11.686386710847104"><ele>420.0</ele><time>2026-03-22T10:24:04.957Z</time></trkpt><trkpt lat="43.46024322681348" lon="11.686353203549185"><ele>420.0</ele><time>2026-03-22T10:24:06.959Z</time></trkpt><trkpt lat="43.46013539247313" lon="11.686366993161235"><ele>420.0</ele><time>2026-03-22T10:24:07.958Z</time></trkpt><trkpt lat="43.46004938219997" lon="11.686399824961573"><ele>420.0</ele><time>2026-03-22T10:24:08.958Z</time></trkpt><trkpt lat="43.459978588576455" lon="11.686422171097254"><ele>420.0</ele><time>2026-03-22T10:24:09.959Z</time></trkpt><trkpt lat="43.45985646937313" lon="11.686396868456354"><ele>420.0</ele><time>2026-03-22T10:24:11.959Z</time></trkpt><trkpt lat="43.459804785173915" lon="11.686303958495214"><ele>420.0</ele><time>2026-03-22T10:24:12.959Z</time></trkpt><trkpt lat="43.4597342801256" lon="11.68615833089789"><ele>420.0</ele><time>2026-03-22T10:24:13.959Z</time></trkpt><trkpt lat="43.45967136250508" lon="11.686002177179187"><ele>420.0</ele><time>2026-03-22T10:24:14.959Z</time></trkpt><trkpt lat="43.45963089372028" lon="11.68589997744104"><ele>420.0</ele><time>2026-03-22T10:24:15.959Z</time></trkpt><trkpt lat="43.459521728133126" lon="11.685814910273521"><ele>420.6</ele><time>2026-03-22T10:24:17.959Z</time></trkpt><trkpt lat="43.45941699669515" lon="11.68571075953593"><ele>421.2</ele><time>2026-03-22T10:24:19.959Z</time></trkpt><trkpt lat="43.459365966133646" lon="11.685648807467867"><ele>421.79999999999995</ele><time>2026-03-22T10:24:20.959Z</time></trkpt><trkpt lat="43.459259153670345" lon="11.685535546816855"><ele>422.4</ele><time>2026-03-22T10:24:22.959Z</time></trkpt><trkpt lat="43.45919302417025" lon="11.68548107321301"><ele>423.0</ele><time>2026-03-22T10:24:23.958Z</time></trkpt><trkpt lat="43.459123665543345" lon="11.6854320941964"><ele>423.0</ele><time>2026-03-22T10:24:24.958Z</time></trkpt><trkpt lat="43.45902008914253" lon="11.685359182070307"><ele>423.0</ele><time>2026-03-22T10:24:26.958Z</time></trkpt><trkpt lat="43.458970892243265" lon="11.685298538374285"><ele>423.0</ele><time>2026-03-22T10:24:44.958Z</time></trkpt><trkpt lat="43.458895131456195" lon="11.685254298786461"><ele>423.0</ele><time>2026-03-22T10:24:49.958Z</time></trkpt><trkpt lat="43.45879984785871" lon="11.685225680716918"><ele>423.0</ele><time>2026-03-22T10:24:51.958Z</time></trkpt><trkpt lat="43.458711201626386" lon="11.685216319121594"><ele>423.0</ele><time>2026-03-22T10:24:52.958Z</time></trkpt><trkpt lat="43.45860291120226" lon="11.685161974573626"><ele>423.0</ele><time>2026-03-22T10:24:53.958Z</time></trkpt><trkpt lat="43.4585057369552" lon="11.685090831032271"><ele>423.0</ele><time>2026-03-22T10:24:54.958Z</time></trkpt><trkpt lat="43.45844144192113" lon="11.685029221029904"><ele>423.0</ele><time>2026-03-22T10:24:55.958Z</time></trkpt><trkpt lat="43.45839834610976" lon="11.684960299735893"><ele>423.0</ele><time>2026-03-22T10:24:56.958Z</time></trkpt><trkpt lat="43.45833721437196" lon="11.68492666352333"><ele>423.0</ele><time>2026-03-22T10:24:57.957Z</time></trkpt><trkpt lat="43.45827022467208" lon="11.684899718412769"><ele>423.0</ele><time>2026-03-22T10:24:58.957Z</time></trkpt><trkpt lat="43.458181748803504" lon="11.68484723042698"><ele>423.0</ele><time>2026-03-22T10:24:59.957Z</time></trkpt><trkpt lat="43.45812568704764" lon="11.684772162616362"><ele>423.0</ele><time>2026-03-22T10:25:00.957Z</time></trkpt><trkpt lat="43.45802823208155" lon="11.684635675818878"><ele>423.0</ele><time>2026-03-22T10:25:01.957Z</time></trkpt><trkpt lat="43.45797891694246" lon="11.684510983773674"><ele>423.0</ele><time>2026-03-22T10:25:02.957Z</time></trkpt><trkpt lat="43.457934239728274" lon="11.684417920686204"><ele>426.25</ele><time>2026-03-22T10:25:03.957Z</time></trkpt><trkpt lat="43.45786533660195" lon="11.684327200534707"><ele>429.5</ele><time>2026-03-22T10:25:04.957Z</time></trkpt><trkpt lat="43.45776641114054" lon="11.684190749261973"><ele>432.75</ele><time>2026-03-22T10:25:05.957Z</time></trkpt><trkpt lat="43.45770032313382" lon="11.684017235914535"><ele>436.0</ele><time>2026-03-22T10:25:06.957Z</time></trkpt><trkpt lat="43.45764886700697" lon="11.683886095348115"><ele>436.0</ele><time>2026-03-22T10:25:07.957Z</time></trkpt><trkpt lat="43.45761111099686" lon="11.683771273369539"><ele>436.0</ele><time>2026-03-22T10:25:08.957Z</time></trkpt><trkpt lat="43.45757739693036" lon="11.6836875803946"><ele>436.0</ele><time>2026-03-22T10:25:09.957Z</time></trkpt><trkpt lat="43.4575871804139" lon="11.683600067217021"><ele>436.0</ele><time>2026-03-22T10:25:10.957Z</time></trkpt><trkpt lat="43.45763351133725" lon="11.683520391515529"><ele>436.0</ele><time>2026-03-22T10:25:11.957Z</time></trkpt><trkpt lat="43.457684075845" lon="11.683448899983786"><ele>436.0</ele><time>2026-03-22T10:25:12.957Z</time></trkpt><trkpt lat="43.45771945193121" lon="11.683356828385834"><ele>436.0</ele><time>2026-03-22T10:25:13.957Z</time></trkpt><trkpt lat="43.45773324862372" lon="11.68327002394203"><ele>434.6666666666667</ele><time>2026-03-22T10:25:14.957Z</time></trkpt><trkpt lat="43.45771732858828" lon="11.683180146529123"><ele>433.33333333333337</ele><time>2026-03-22T10:25:15.957Z</time></trkpt><trkpt lat="43.457685215585784" lon="11.683089665169454"><ele>432.0</ele><time>2026-03-22T10:25:16.957Z</time></trkpt><trkpt lat="43.45766966749455" lon="11.682976313809842"><ele>430.66666666666663</ele><time>2026-03-22T10:25:17.957Z</time></trkpt><trkpt lat="43.45765490421671" lon="11.682890925714773"><ele>429.3333333333333</ele><time>2026-03-22T10:25:18.957Z</time></trkpt><trkpt lat="43.45761969489539" lon="11.68273840062871"><ele>428.0</ele><time>2026-03-22T10:25:20.957Z</time></trkpt><trkpt lat="43.4575855231454" lon="11.68266034506489"><ele>427.49999999999994</ele><time>2026-03-22T10:25:21.957Z</time></trkpt><trkpt lat="43.45754506601782" lon="11.682582605419139"><ele>427.0</ele><time>2026-03-22T10:25:22.957Z</time></trkpt><trkpt lat="43.45751536407584" lon="11.682470268239621"><ele>426.5</ele><time>2026-03-22T10:25:23.957Z</time></trkpt><trkpt lat="43.45750769977546" lon="11.682342720444506"><ele>426.0</ele><time>2026-03-22T10:25:24.957Z</time></trkpt><trkpt lat="43.45749943197696" lon="11.68219589423912"><ele>425.49999999999994</ele><time>2026-03-22T10:25:25.957Z</time></trkpt><trkpt lat="43.45748630932923" lon="11.682083948432062"><ele>425.0</ele><time>2026-03-22T10:25:26.957Z</time></trkpt><trkpt lat="43.45745935605922" lon="11.681988877251944"><ele>423.75</ele><time>2026-03-22T10:25:27.957Z</time></trkpt><trkpt lat="43.457367412157616" lon="11.681871583634821"><ele>422.5</ele><time>2026-03-22T10:25:29.957Z</time></trkpt><trkpt lat="43.4572652650516" lon="11.681784837109994"><ele>421.25</ele><time>2026-03-22T10:25:31.956Z</time></trkpt><trkpt lat="43.45714227187782" lon="11.681730246070597"><ele>420.0</ele><time>2026-03-22T10:25:33.956Z</time></trkpt><trkpt lat="43.4570563287271" lon="11.681718516084793"><ele>419.2</ele><time>2026-03-22T10:25:34.956Z</time></trkpt><trkpt lat="43.45698042356127" lon="11.681715793031143"><ele>418.4</ele><time>2026-03-22T10:25:35.956Z</time></trkpt><trkpt lat="43.456909443043024" lon="11.68171194463455"><ele>417.6</ele><time>2026-03-22T10:25:36.956Z</time></trkpt><trkpt lat="43.45678799879535" lon="11.681725655214212"><ele>416.8</ele><time>2026-03-22T10:25:38.956Z</time></trkpt><trkpt lat="43.45668219011913" lon="11.681788724570767"><ele>416.0</ele><time>2026-03-22T10:25:40.956Z</time></trkpt><trkpt lat="43.45658921487231" lon="11.68183423158798"><ele>416.0</ele><time>2026-03-22T10:25:42.956Z</time></trkpt><trkpt lat="43.45652354775969" lon="11.681810256244992"><ele>416.0</ele><time>2026-03-22T10:25:43.956Z</time></trkpt><trkpt lat="43.45640288215492" lon="11.681788599794444"><ele>416.0</ele><time>2026-03-22T10:25:45.956Z</time></trkpt><trkpt lat="43.456284817558576" lon="11.681793651272766"><ele>416.0</ele><time>2026-03-22T10:25:47.956Z</time></trkpt><trkpt lat="43.45616468317655" lon="11.681777681613356"><ele>416.0</ele><time>2026-03-22T10:25:49.956Z</time></trkpt><trkpt lat="43.45605197340757" lon="11.681712341933423"><ele>415.66666666666663</ele><time>2026-03-22T10:25:51.956Z</time></trkpt><trkpt lat="43.45599541343052" lon="11.68166697123821"><ele>415.3333333333333</ele><time>2026-03-22T10:25:52.956Z</time></trkpt><trkpt lat="43.45593453826274" lon="11.68163139700512"><ele>415.0</ele><time>2026-03-22T10:25:53.956Z</time></trkpt><trkpt lat="43.45582673572961" lon="11.6815703754656"><ele>414.66666666666663</ele><time>2026-03-22T10:25:55.956Z</time></trkpt><trkpt lat="43.455737415366876" lon="11.681536607302192"><ele>414.3333333333333</ele><time>2026-03-22T10:25:57.956Z</time></trkpt><trkpt lat="43.455641980434386" lon="11.681494475761426"><ele>414.0</ele><time>2026-03-22T10:25:59.956Z</time></trkpt><trkpt lat="43.45556476575017" lon="11.681428023409824"><ele>414.0</ele><time>2026-03-22T10:26:01.956Z</time></trkpt><trkpt lat="43.455499107758385" lon="11.681365772204366"><ele>414.0</ele><time>2026-03-22T10:26:03.955Z</time></trkpt><trkpt lat="43.45541984464358" lon="11.681286867638121"><ele>414.0</ele><time>2026-03-22T10:26:05.955Z</time></trkpt><trkpt lat="43.45536602012482" lon="11.68122066306948"><ele>414.0</ele><time>2026-03-22T10:26:07.955Z</time></trkpt><trkpt lat="43.45527868297363" lon="11.681172271611015"><ele>414.0</ele><time>2026-03-22T10:26:10.955Z</time></trkpt><trkpt lat="43.45520867830281" lon="11.68114557720964"><ele>414.0</ele><time>2026-03-22T10:26:12.957Z</time></trkpt><trkpt lat="43.45513122839702" lon="11.68107229633857"><ele>411.0</ele><time>2026-03-22T10:26:14.958Z</time></trkpt><trkpt lat="43.45505789803762" lon="11.68096594743685"><ele>408.0</ele><time>2026-03-22T10:26:16.957Z</time></trkpt><trkpt lat="43.454982026991516" lon="11.680889419457648"><ele>405.0</ele><time>2026-03-22T10:26:18.958Z</time></trkpt><trkpt lat="43.454895451362205" lon="11.680835279329523"><ele>402.0</ele><time>2026-03-22T10:26:20.957Z</time></trkpt><trkpt lat="43.4548403852545" lon="11.680792318850797"><ele>399.0</ele><time>2026-03-22T10:26:21.958Z</time></trkpt><trkpt lat="43.45474180853707" lon="11.680722185614158"><ele>399.0</ele><time>2026-03-22T10:26:23.957Z</time></trkpt><trkpt lat="43.4546688037871" lon="11.680667376469916"><ele>399.0</ele><time>2026-03-22T10:26:25.958Z</time></trkpt><trkpt lat="43.45456495267351" lon="11.680582091931713"><ele>399.0</ele><time>2026-03-22T10:26:27.958Z</time></trkpt><trkpt lat="43.45448478438182" lon="11.680509515298766"><ele>399.0</ele><time>2026-03-22T10:26:28.958Z</time></trkpt><trkpt lat="43.45440073185165" lon="11.680435267276875"><ele>399.0</ele><time>2026-03-22T10:26:29.957Z</time></trkpt><trkpt lat="43.45432020450227" lon="11.680339379261294"><ele>397.6666666666667</ele><time>2026-03-22T10:26:30.957Z</time></trkpt><trkpt lat="43.45423557976436" lon="11.680240887661888"><ele>396.33333333333337</ele><time>2026-03-22T10:26:31.957Z</time></trkpt><trkpt lat="43.45417036004151" lon="11.680164895256437"><ele>395.0</ele><time>2026-03-22T10:26:32.957Z</time></trkpt><trkpt lat="43.45410561676629" lon="11.680089907405808"><ele>393.6666666666667</ele><time>2026-03-22T10:26:33.957Z</time></trkpt><trkpt lat="43.454030534922495" lon="11.680030867734175"><ele>392.33333333333337</ele><time>2026-03-22T10:26:34.957Z</time></trkpt><trkpt lat="43.45397477411043" lon="11.679947841811625"><ele>391.0</ele><time>2026-03-22T10:26:35.957Z</time></trkpt><trkpt lat="43.453929567867625" lon="11.679855231782273"><ele>391.0</ele><time>2026-03-22T10:26:36.957Z</time></trkpt><trkpt lat="43.45389453912195" lon="11.679754216497404"><ele>391.0</ele><time>2026-03-22T10:26:37.957Z</time></trkpt><trkpt lat="43.4538600886076" lon="11.679638265534797"><ele>391.0</ele><time>2026-03-22T10:26:38.957Z</time></trkpt><trkpt lat="43.45380711975338" lon="11.67949249293218"><ele>391.0</ele><time>2026-03-22T10:26:39.957Z</time></trkpt><trkpt lat="43.45374707244128" lon="11.679366421815358"><ele>391.0</ele><time>2026-03-22T10:26:40.957Z</time></trkpt><trkpt lat="43.45370620728781" lon="11.679254666326354"><ele>391.0</ele><time>2026-03-22T10:26:41.957Z</time></trkpt><trkpt lat="43.45366399444133" lon="11.679144274861962"><ele>391.0</ele><time>2026-03-22T10:26:42.957Z</time></trkpt><trkpt lat="43.453622169169265" lon="11.67902161302965"><ele>391.0</ele><time>2026-03-22T10:26:43.957Z</time></trkpt><trkpt lat="43.45357991853999" lon="11.678900620380876"><ele>391.0</ele><time>2026-03-22T10:26:44.957Z</time></trkpt><trkpt lat="43.45354771780297" lon="11.678782947103388"><ele>391.0</ele><time>2026-03-22T10:26:45.957Z</time></trkpt><trkpt lat="43.453517787548144" lon="11.678669107362122"><ele>389.6</ele><time>2026-03-22T10:26:46.957Z</time></trkpt><trkpt lat="43.45348062315643" lon="11.678531622868888"><ele>388.20000000000005</ele><time>2026-03-22T10:26:47.957Z</time></trkpt><trkpt lat="43.45344134785547" lon="11.678382629585709"><ele>386.79999999999995</ele><time>2026-03-22T10:26:48.957Z</time></trkpt><trkpt lat="43.453393764199454" lon="11.678241830883934"><ele>385.4</ele><time>2026-03-22T10:26:49.957Z</time></trkpt><trkpt lat="43.45335445354029" lon="11.678109804651621"><ele>384.0</ele><time>2026-03-22T10:26:50.957Z</time></trkpt><trkpt lat="43.453325828794895" lon="11.677980147634536"><ele>384.0</ele><time>2026-03-22T10:26:51.957Z</time></trkpt><trkpt lat="43.453301462430474" lon="11.67783434342687"><ele>384.0</ele><time>2026-03-22T10:26:52.957Z</time></trkpt><trkpt lat="43.453270130773355" lon="11.677685958325963"><ele>384.0</ele><time>2026-03-22T10:26:53.957Z</time></trkpt><trkpt lat="43.45324279766936" lon="11.677544438034134"><ele>384.0</ele><time>2026-03-22T10:26:54.957Z</time></trkpt><trkpt lat="43.45322052134773" lon="11.677395435239406"><ele>384.0</ele><time>2026-03-22T10:26:55.957Z</time></trkpt><trkpt lat="43.4531949669179" lon="11.677248914438053"><ele>382.6</ele><time>2026-03-22T10:26:56.957Z</time></trkpt><trkpt lat="43.453157265653815" lon="11.677111542126518"><ele>381.2</ele><time>2026-03-22T10:26:57.957Z</time></trkpt><trkpt lat="43.45312550789327" lon="11.676974990237587"><ele>379.8</ele><time>2026-03-22T10:26:58.957Z</time></trkpt><trkpt lat="43.45308618040814" lon="11.676832051525786"><ele>378.40000000000003</ele><time>2026-03-22T10:26:59.957Z</time></trkpt><trkpt lat="43.45305376541125" lon="11.676666471632629"><ele>377.0</ele><time>2026-03-22T10:27:00.957Z</time></trkpt><trkpt lat="43.453020953440294" lon="11.676487607224711"><ele>375.25</ele><time>2026-03-22T10:27:01.957Z</time></trkpt><trkpt lat="43.45298599555158" lon="11.676330066970952"><ele>373.5</ele><time>2026-03-22T10:27:02.957Z</time></trkpt><trkpt lat="43.452951206063865" lon="11.676178456673105"><ele>371.75</ele><time>2026-03-22T10:27:03.956Z</time></trkpt><trkpt lat="43.45292355612406" lon="11.676031581479782"><ele>370.0</ele><time>2026-03-22T10:27:04.956Z</time></trkpt><trkpt lat="43.45289551250412" lon="11.675873458332296"><ele>368.25</ele><time>2026-03-22T10:27:05.956Z</time></trkpt><trkpt lat="43.45287403327131" lon="11.675735847871335"><ele>366.5</ele><time>2026-03-22T10:27:06.956Z</time></trkpt><trkpt lat="43.45286093362856" lon="11.675571667683473"><ele>364.75</ele><time>2026-03-22T10:27:07.956Z</time></trkpt><trkpt lat="43.452848087661245" lon="11.675410130174697"><ele>363.0</ele><time>2026-03-22T10:27:08.956Z</time></trkpt><trkpt lat="43.452842206831065" lon="11.675253841418415"><ele>362.0</ele><time>2026-03-22T10:27:09.956Z</time></trkpt><trkpt lat="43.4528386532242" lon="11.675134960075674"><ele>361.0</ele><time>2026-03-22T10:27:10.956Z</time></trkpt><trkpt lat="43.45283071880131" lon="11.675030213911953"><ele>360.0</ele><time>2026-03-22T10:27:11.956Z</time></trkpt><trkpt lat="43.45281739112813" lon="11.674907353488196"><ele>359.0</ele><time>2026-03-22T10:27:12.956Z</time></trkpt><trkpt lat="43.45281116655918" lon="11.674801138054852"><ele>358.0</ele><time>2026-03-22T10:27:13.956Z</time></trkpt><trkpt lat="43.452802598294944" lon="11.67469188736868"><ele>357.0</ele><time>2026-03-22T10:27:14.956Z</time></trkpt><trkpt lat="43.452795961545085" lon="11.674592772571236"><ele>357.0</ele><time>2026-03-22T10:27:15.956Z</time></trkpt><trkpt lat="43.45278377279915" lon="11.674497231304173"><ele>357.0</ele><time>2026-03-22T10:27:16.956Z</time></trkpt><trkpt lat="43.4527721019275" lon="11.674383959626283"><ele>357.0</ele><time>2026-03-22T10:27:17.956Z</time></trkpt><trkpt lat="43.45276254267036" lon="11.674263294193926"><ele>357.0</ele><time>2026-03-22T10:27:18.956Z</time></trkpt><trkpt lat="43.45274630289215" lon="11.67414505587918"><ele>357.0</ele><time>2026-03-22T10:27:19.956Z</time></trkpt><trkpt lat="43.45272764374397" lon="11.67402707864962"><ele>357.0</ele><time>2026-03-22T10:27:20.956Z</time></trkpt><trkpt lat="43.45268069021436" lon="11.673859674967288"><ele>356.0</ele><time>2026-03-22T10:27:22.956Z</time></trkpt><trkpt lat="43.452659260031176" lon="11.673761860616866"><ele>355.0</ele><time>2026-03-22T10:27:23.956Z</time></trkpt><trkpt lat="43.45265924409505" lon="11.673636695668124"><ele>354.0</ele><time>2026-03-22T10:27:24.956Z</time></trkpt><trkpt lat="43.45266637289667" lon="11.673498089143367"><ele>353.0</ele><time>2026-03-22T10:27:25.956Z</time></trkpt><trkpt lat="43.45267260799055" lon="11.673364448454318"><ele>352.0</ele><time>2026-03-22T10:27:26.956Z</time></trkpt><trkpt lat="43.452674083121956" lon="11.673242434849362"><ele>350.20000000000005</ele><time>2026-03-22T10:27:27.956Z</time></trkpt><trkpt lat="43.4526738078414" lon="11.673119957497821"><ele>348.4</ele><time>2026-03-22T10:27:28.956Z</time></trkpt><trkpt lat="43.45267203447274" lon="11.672991771281128"><ele>346.6</ele><time>2026-03-22T10:27:29.956Z</time></trkpt><trkpt lat="43.45268747602734" lon="11.67288876365191"><ele>344.79999999999995</ele><time>2026-03-22T10:27:30.956Z</time></trkpt><trkpt lat="43.452695873158184" lon="11.672722837855249"><ele>343.0</ele><time>2026-03-22T10:27:32.954Z</time></trkpt><trkpt lat="43.45264204528976" lon="11.672588397084185"><ele>341.0</ele><time>2026-03-22T10:27:34.948Z</time></trkpt><trkpt lat="43.45255661659461" lon="11.672496787008681"><ele>339.0</ele><time>2026-03-22T10:27:36.943Z</time></trkpt><trkpt lat="43.452471874013405" lon="11.672405028740217"><ele>337.0</ele><time>2026-03-22T10:27:38.939Z</time></trkpt><trkpt lat="43.45240249791299" lon="11.672289576502767"><ele>335.0</ele><time>2026-03-22T10:27:40.935Z</time></trkpt><trkpt lat="43.45255471204712" lon="11.672295921341359"><ele>335.0</ele><time>2026-03-22T10:27:46.925Z</time></trkpt><trkpt lat="43.45263082940677" lon="11.672349725066264"><ele>335.0</ele><time>2026-03-22T10:27:48.923Z</time></trkpt><trkpt lat="43.45274148468642" lon="11.672425969993473"><ele>335.0</ele><time>2026-03-22T10:27:50.921Z</time></trkpt><trkpt lat="43.452817286711685" lon="11.672468459668243"><ele>335.0</ele><time>2026-03-22T10:27:52.919Z</time></trkpt><trkpt lat="43.45289498838292" lon="11.672480320283439"><ele>335.0</ele><time>2026-03-22T10:27:56.915Z</time></trkpt><trkpt lat="43.45281337933476" lon="11.672380933885137"><ele>335.0</ele><time>2026-03-22T10:35:27.895Z</time></trkpt><trkpt lat="43.45272819372904" lon="11.672320301562966"><ele>335.0</ele><time>2026-03-22T10:35:29.895Z</time></trkpt><trkpt lat="43.45261314448327" lon="11.672267656033457"><ele>335.0</ele><time>2026-03-22T10:35:31.895Z</time></trkpt><trkpt lat="43.45254446278673" lon="11.672232818786123"><ele>335.0</ele><time>2026-03-22T10:35:32.895Z</time></trkpt><trkpt lat="43.452476533720336" lon="11.672151327536845"><ele>335.0</ele><time>2026-03-22T10:35:34.895Z</time></trkpt><trkpt lat="43.45239663077677" lon="11.672106763942475"><ele>335.0</ele><time>2026-03-22T10:35:38.895Z</time></trkpt><trkpt lat="43.45233078770847" lon="11.672064219841321"><ele>335.0</ele><time>2026-03-22T10:35:39.895Z</time></trkpt><trkpt lat="43.4522230021423" lon="11.672031760266755"><ele>335.0</ele><time>2026-03-22T10:35:40.895Z</time></trkpt><trkpt lat="43.45214600887306" lon="11.671989013994853"><ele>335.0</ele><time>2026-03-22T10:35:41.895Z</time></trkpt><trkpt lat="43.452052109164775" lon="11.671946110760091"><ele>335.0</ele><time>2026-03-22T10:35:43.895Z</time></trkpt><trkpt lat="43.45196095137015" lon="11.671976585543538"><ele>334.6666666666667</ele><time>2026-03-22T10:35:45.895Z</time></trkpt><trkpt lat="43.451914286115006" lon="11.672073640644413"><ele>334.33333333333337</ele><time>2026-03-22T10:35:46.895Z</time></trkpt><trkpt lat="43.451874928172955" lon="11.672157780536338"><ele>334.0</ele><time>2026-03-22T10:35:47.894Z</time></trkpt><trkpt lat="43.45183490115413" lon="11.672238839911198"><ele>333.6666666666667</ele><time>2026-03-22T10:35:48.894Z</time></trkpt><trkpt lat="43.45174590858946" lon="11.672243894536436"><ele>333.3333333333333</ele><time>2026-03-22T10:35:49.894Z</time></trkpt><trkpt lat="43.451637356576136" lon="11.672336398139029"><ele>333.0</ele><time>2026-03-22T10:35:51.894Z</time></trkpt><trkpt lat="43.45158167056176" lon="11.672432751753206"><ele>333.0</ele><time>2026-03-22T10:35:52.894Z</time></trkpt><trkpt lat="43.451504869088815" lon="11.67247499954943"><ele>333.0</ele><time>2026-03-22T10:35:53.894Z</time></trkpt><trkpt lat="43.451437548268444" lon="11.672513869972372"><ele>333.0</ele><time>2026-03-22T10:35:54.894Z</time></trkpt><trkpt lat="43.45136857819193" lon="11.672545985835749"><ele>333.0</ele><time>2026-03-22T10:35:55.894Z</time></trkpt><trkpt lat="43.4513086937417" lon="11.672584025671044"><ele>333.0</ele><time>2026-03-22T10:35:56.894Z</time></trkpt><trkpt lat="43.45124739889016" lon="11.672621533529293"><ele>333.0</ele><time>2026-03-22T10:35:57.894Z</time></trkpt><trkpt lat="43.451179745052116" lon="11.672662450452467"><ele>333.0</ele><time>2026-03-22T10:35:58.894Z</time></trkpt><trkpt lat="43.4511192995544" lon="11.672696773224837"><ele>331.8333333333333</ele><time>2026-03-22T10:35:59.894Z</time></trkpt><trkpt lat="43.45105137128876" lon="11.672730074232444"><ele>330.6666666666667</ele><time>2026-03-22T10:36:00.894Z</time></trkpt><trkpt lat="43.45098636354182" lon="11.672768898797996"><ele>329.5</ele><time>2026-03-22T10:36:01.894Z</time></trkpt><trkpt lat="43.45091081613992" lon="11.672767620247155"><ele>328.33333333333337</ele><time>2026-03-22T10:36:02.894Z</time></trkpt><trkpt lat="43.450837062392914" lon="11.672740342072707"><ele>327.1666666666667</ele><time>2026-03-22T10:36:03.894Z</time></trkpt><trkpt lat="43.45076357981467" lon="11.672683736636616"><ele>326.0</ele><time>2026-03-22T10:36:04.894Z</time></trkpt><trkpt lat="43.45069004304191" lon="11.672621244907424"><ele>326.0</ele><time>2026-03-22T10:36:05.894Z</time></trkpt><trkpt lat="43.45060502911402" lon="11.672571535335543"><ele>326.0</ele><time>2026-03-22T10:36:06.894Z</time></trkpt><trkpt lat="43.450516725466706" lon="11.672517972746649"><ele>326.0</ele><time>2026-03-22T10:36:07.894Z</time></trkpt><trkpt lat="43.45043118057813" lon="11.67246317278317"><ele>326.0</ele><time>2026-03-22T10:36:08.894Z</time></trkpt><trkpt lat="43.450345417564" lon="11.672411826284145"><ele>326.0</ele><time>2026-03-22T10:36:09.894Z</time></trkpt><trkpt lat="43.45026490048641" lon="11.672352709566665"><ele>324.2</ele><time>2026-03-22T10:36:10.893Z</time></trkpt><trkpt lat="43.45018010195109" lon="11.672298332515412"><ele>322.40000000000003</ele><time>2026-03-22T10:36:11.893Z</time></trkpt><trkpt lat="43.450098644605845" lon="11.67223671339428"><ele>320.6</ele><time>2026-03-22T10:36:12.893Z</time></trkpt><trkpt lat="43.45001505653674" lon="11.672173771916654"><ele>318.8</ele><time>2026-03-22T10:36:13.893Z</time></trkpt><trkpt lat="43.4499333736082" lon="11.672116205293117"><ele>317.0</ele><time>2026-03-22T10:36:14.893Z</time></trkpt><trkpt lat="43.44985465408745" lon="11.67206560006018"><ele>317.0</ele><time>2026-03-22T10:36:15.893Z</time></trkpt><trkpt lat="43.44978087837016" lon="11.672021275933679"><ele>317.0</ele><time>2026-03-22T10:36:16.893Z</time></trkpt><trkpt lat="43.44970680944285" lon="11.671989435666944"><ele>317.0</ele><time>2026-03-22T10:36:17.893Z</time></trkpt><trkpt lat="43.44963318497308" lon="11.671964667220164"><ele>317.0</ele><time>2026-03-22T10:36:18.893Z</time></trkpt><trkpt lat="43.449569533865066" lon="11.671944292803417"><ele>317.0</ele><time>2026-03-22T10:36:19.893Z</time></trkpt><trkpt lat="43.44947579687331" lon="11.671908382431704"><ele>317.0</ele><time>2026-03-22T10:36:21.893Z</time></trkpt><trkpt lat="43.4494029184337" lon="11.671873602367"><ele>316.0</ele><time>2026-03-22T10:37:05.893Z</time></trkpt><trkpt lat="43.44934742521966" lon="11.671760160589226"><ele>315.0</ele><time>2026-03-22T10:37:07.893Z</time></trkpt><trkpt lat="43.449341013725245" lon="11.671656230049045"><ele>314.0</ele><time>2026-03-22T10:37:08.893Z</time></trkpt><trkpt lat="43.44935147471286" lon="11.671528125203896"><ele>313.0</ele><time>2026-03-22T10:37:09.893Z</time></trkpt><trkpt lat="43.44931334794622" lon="11.671392490617627"><ele>312.0</ele><time>2026-03-22T10:37:10.893Z</time></trkpt><trkpt lat="43.449293719016694" lon="11.67126661338235"><ele>312.0</ele><time>2026-03-22T10:37:11.893Z</time></trkpt><trkpt lat="43.44926393663918" lon="11.671122925073773"><ele>312.0</ele><time>2026-03-22T10:37:12.893Z</time></trkpt><trkpt lat="43.44923233204737" lon="11.670980669364843"><ele>312.0</ele><time>2026-03-22T10:37:13.892Z</time></trkpt><trkpt lat="43.44920219297844" lon="11.67084501013921"><ele>312.0</ele><time>2026-03-22T10:37:14.892Z</time></trkpt><trkpt lat="43.449171030699176" lon="11.670704745270204"><ele>312.0</ele><time>2026-03-22T10:37:15.892Z</time></trkpt><trkpt lat="43.44914207546382" lon="11.670574672060049"><ele>312.0</ele><time>2026-03-22T10:37:16.892Z</time></trkpt><trkpt lat="43.44912359251313" lon="11.670430274351595"><ele>312.0</ele><time>2026-03-22T10:37:17.892Z</time></trkpt><trkpt lat="43.44909261736645" lon="11.670299690884212"><ele>312.0</ele><time>2026-03-22T10:37:18.892Z</time></trkpt><trkpt lat="43.44906556423752" lon="11.670173392738729"><ele>312.0</ele><time>2026-03-22T10:37:19.892Z</time></trkpt><trkpt lat="43.44903237256623" lon="11.670047195658778"><ele>312.0</ele><time>2026-03-22T10:37:20.892Z</time></trkpt><trkpt lat="43.448978803672716" lon="11.6699228149029"><ele>310.4</ele><time>2026-03-22T10:37:21.892Z</time></trkpt><trkpt lat="43.448893838363375" lon="11.66983352449896"><ele>308.79999999999995</ele><time>2026-03-22T10:37:22.892Z</time></trkpt><trkpt lat="43.448793048250224" lon="11.669772756918094"><ele>307.2</ele><time>2026-03-22T10:37:23.892Z</time></trkpt><trkpt lat="43.44869657688064" lon="11.669727964837318"><ele>305.59999999999997</ele><time>2026-03-22T10:37:24.892Z</time></trkpt><trkpt lat="43.44860420154166" lon="11.669679148109886"><ele>304.0</ele><time>2026-03-22T10:37:25.892Z</time></trkpt><trkpt lat="43.44851215397351" lon="11.66963494198751"><ele>301.75</ele><time>2026-03-22T10:37:26.892Z</time></trkpt><trkpt lat="43.44841444818659" lon="11.669569609727843"><ele>299.5</ele><time>2026-03-22T10:37:27.892Z</time></trkpt><trkpt lat="43.44831799370228" lon="11.669461008812808"><ele>297.25</ele><time>2026-03-22T10:37:28.892Z</time></trkpt><trkpt lat="43.44823008613541" lon="11.669330799317294"><ele>295.0</ele><time>2026-03-22T10:37:29.892Z</time></trkpt><trkpt lat="43.4481423115259" lon="11.66921286876578"><ele>294.0</ele><time>2026-03-22T10:37:30.892Z</time></trkpt><trkpt lat="43.448054097159485" lon="11.669107861729174"><ele>293.0</ele><time>2026-03-22T10:37:31.892Z</time></trkpt><trkpt lat="43.44796857177611" lon="11.66899556144224"><ele>292.0</ele><time>2026-03-22T10:37:32.892Z</time></trkpt><trkpt lat="43.44788329354431" lon="11.668888790064672"><ele>291.0</ele><time>2026-03-22T10:37:33.892Z</time></trkpt><trkpt lat="43.44779938338246" lon="11.668779669250062"><ele>290.6</ele><time>2026-03-22T10:37:34.892Z</time></trkpt><trkpt lat="43.447723677546186" lon="11.668665640373655"><ele>290.20000000000005</ele><time>2026-03-22T10:37:35.892Z</time></trkpt><trkpt lat="43.447646729990616" lon="11.668559124660064"><ele>289.79999999999995</ele><time>2026-03-22T10:37:36.891Z</time></trkpt><trkpt lat="43.44756425513606" lon="11.668465337069234"><ele>289.4</ele><time>2026-03-22T10:37:37.891Z</time></trkpt><trkpt lat="43.447477087808466" lon="11.668378956636046"><ele>289.0</ele><time>2026-03-22T10:37:38.891Z</time></trkpt><trkpt lat="43.44738459366239" lon="11.668298089722336"><ele>288.59999999999997</ele><time>2026-03-22T10:37:39.891Z</time></trkpt><trkpt lat="43.44729517205592" lon="11.668212088599692"><ele>288.2</ele><time>2026-03-22T10:37:40.891Z</time></trkpt><trkpt lat="43.44720808504601" lon="11.66813082858725"><ele>287.79999999999995</ele><time>2026-03-22T10:37:41.891Z</time></trkpt><trkpt lat="43.44712553273298" lon="11.668062110204774"><ele>287.4</ele><time>2026-03-22T10:37:42.891Z</time></trkpt><trkpt lat="43.447045055526665" lon="11.667989853674179"><ele>287.0</ele><time>2026-03-22T10:37:43.891Z</time></trkpt><trkpt lat="43.446977937307544" lon="11.667927486694756"><ele>286.2</ele><time>2026-03-22T10:37:44.891Z</time></trkpt><trkpt lat="43.446921075092604" lon="11.667869490720658"><ele>285.4</ele><time>2026-03-22T10:37:45.891Z</time></trkpt><trkpt lat="43.44686363183867" lon="11.667771055511043"><ele>284.6</ele><time>2026-03-22T10:37:47.891Z</time></trkpt><trkpt lat="43.44680392174811" lon="11.667668319523196"><ele>283.8</ele><time>2026-03-22T10:37:49.891Z</time></trkpt><trkpt lat="43.446705432956236" lon="11.667634768984435"><ele>283.0</ele><time>2026-03-22T10:37:50.891Z</time></trkpt><trkpt lat="43.446596269392806" lon="11.66762163102683"><ele>282.8</ele><time>2026-03-22T10:37:51.891Z</time></trkpt><trkpt lat="43.44649283596748" lon="11.667611352421211"><ele>282.6</ele><time>2026-03-22T10:37:52.891Z</time></trkpt><trkpt lat="43.44638525327978" lon="11.667593432683102"><ele>282.4</ele><time>2026-03-22T10:37:53.891Z</time></trkpt><trkpt lat="43.446277697209645" lon="11.667601676227484"><ele>282.2</ele><time>2026-03-22T10:37:54.891Z</time></trkpt><trkpt lat="43.44616165169333" lon="11.667579711883446"><ele>282.0</ele><time>2026-03-22T10:37:55.891Z</time></trkpt><trkpt lat="43.4460446759924" lon="11.667564022424397"><ele>281.5</ele><time>2026-03-22T10:37:56.891Z</time></trkpt><trkpt lat="43.445923892852434" lon="11.667551363981588"><ele>281.0</ele><time>2026-03-22T10:37:57.891Z</time></trkpt><trkpt lat="43.445811790975654" lon="11.667538071315231"><ele>280.5</ele><time>2026-03-22T10:37:58.891Z</time></trkpt><trkpt lat="43.44570126412389" lon="11.667523997306798"><ele>280.0</ele><time>2026-03-22T10:37:59.89Z</time></trkpt><trkpt lat="43.44559395499062" lon="11.66750582714584"><ele>280.0</ele><time>2026-03-22T10:38:00.89Z</time></trkpt><trkpt lat="43.445489588857804" lon="11.66748525145249"><ele>280.0</ele><time>2026-03-22T10:38:01.89Z</time></trkpt><trkpt lat="43.445384594750564" lon="11.667458061914227"><ele>280.0</ele><time>2026-03-22T10:38:02.89Z</time></trkpt><trkpt lat="43.44528042134035" lon="11.667420860607402"><ele>280.0</ele><time>2026-03-22T10:38:03.89Z</time></trkpt><trkpt lat="43.44517888315784" lon="11.667374754444307"><ele>280.0</ele><time>2026-03-22T10:38:04.89Z</time></trkpt><trkpt lat="43.44507888431953" lon="11.667322514473875"><ele>280.0</ele><time>2026-03-22T10:38:05.89Z</time></trkpt><trkpt lat="43.444979835181826" lon="11.667262405000452"><ele>280.0</ele><time>2026-03-22T10:38:06.89Z</time></trkpt><trkpt lat="43.44488384172282" lon="11.667191660721722"><ele>280.0</ele><time>2026-03-22T10:38:07.89Z</time></trkpt><trkpt lat="43.44479046715333" lon="11.667109817635414"><ele>280.0</ele><time>2026-03-22T10:38:08.89Z</time></trkpt><trkpt lat="43.444694514111" lon="11.667021879392902"><ele>280.0</ele><time>2026-03-22T10:38:09.89Z</time></trkpt><trkpt lat="43.444592763823" lon="11.666928144056953"><ele>280.0</ele><time>2026-03-22T10:38:10.89Z</time></trkpt><trkpt lat="43.44448559335439" lon="11.666823206491255"><ele>280.0</ele><time>2026-03-22T10:38:11.89Z</time></trkpt><trkpt lat="43.44437671634852" lon="11.666712108640073"><ele>280.0</ele><time>2026-03-22T10:38:12.89Z</time></trkpt><trkpt lat="43.44426302082958" lon="11.666597919635551"><ele>280.0</ele><time>2026-03-22T10:38:13.89Z</time></trkpt><trkpt lat="43.44414339688929" lon="11.666481238279836"><ele>280.0</ele><time>2026-03-22T10:38:14.89Z</time></trkpt><trkpt lat="43.44402530508252" lon="11.666362218272033"><ele>280.0</ele><time>2026-03-22T10:38:15.89Z</time></trkpt><trkpt lat="43.44391489497062" lon="11.666251499159499"><ele>280.0</ele><time>2026-03-22T10:38:16.89Z</time></trkpt><trkpt lat="43.443818009978074" lon="11.666146961127692"><ele>280.0</ele><time>2026-03-22T10:38:17.89Z</time></trkpt><trkpt lat="43.44372578988629" lon="11.666044250302477"><ele>280.6</ele><time>2026-03-22T10:38:18.89Z</time></trkpt><trkpt lat="43.44364300070807" lon="11.665939980059571"><ele>281.2</ele><time>2026-03-22T10:38:19.89Z</time></trkpt><trkpt lat="43.443574937836175" lon="11.66583886666468"><ele>281.8</ele><time>2026-03-22T10:38:20.89Z</time></trkpt><trkpt lat="43.443509813694455" lon="11.665752890619876"><ele>282.4</ele><time>2026-03-22T10:38:21.89Z</time></trkpt><trkpt lat="43.44345035638753" lon="11.665669671700005"><ele>283.0</ele><time>2026-03-22T10:38:22.89Z</time></trkpt><trkpt lat="43.44338842478917" lon="11.665610152115947"><ele>283.0</ele><time>2026-03-22T10:38:23.889Z</time></trkpt><trkpt lat="43.44334752068856" lon="11.665522086720078"><ele>283.0</ele><time>2026-03-22T10:38:25.889Z</time></trkpt><trkpt lat="43.44312822609067" lon="11.665661793972124"><ele>283.0</ele><time>2026-03-22T10:38:30.889Z</time></trkpt><trkpt lat="43.44305358976875" lon="11.665720692176127"><ele>283.0</ele><time>2026-03-22T10:38:33.889Z</time></trkpt><trkpt lat="43.44302651684024" lon="11.665821054095618"><ele>283.0</ele><time>2026-03-22T10:38:35.889Z</time></trkpt><trkpt lat="43.44299785289161" lon="11.665946499153186"><ele>283.0</ele><time>2026-03-22T10:38:37.889Z</time></trkpt><trkpt lat="43.44298758414399" lon="11.66608021565353"><ele>283.0</ele><time>2026-03-22T10:38:39.889Z</time></trkpt><trkpt lat="43.44292374860468" lon="11.666158988061218"><ele>283.0</ele><time>2026-03-22T10:38:41.889Z</time></trkpt><trkpt lat="43.44281979306873" lon="11.666262501297945"><ele>283.0</ele><time>2026-03-22T10:38:43.889Z</time></trkpt><trkpt lat="43.442757466880536" lon="11.666347684883974"><ele>286.3333333333333</ele><time>2026-03-22T10:38:44.889Z</time></trkpt><trkpt lat="43.44270372128917" lon="11.666402542743498"><ele>289.66666666666663</ele><time>2026-03-22T10:38:45.889Z</time></trkpt><trkpt lat="43.44258278808779" lon="11.666465077549029"><ele>293.0</ele><time>2026-03-22T10:38:47.888Z</time></trkpt><trkpt lat="43.4424997006553" lon="11.666517782454694"><ele>296.3333333333333</ele><time>2026-03-22T10:38:49.89Z</time></trkpt><trkpt lat="43.44243788282634" lon="11.666536677018032"><ele>299.6666666666667</ele><time>2026-03-22T10:38:50.89Z</time></trkpt><trkpt lat="43.442367270649314" lon="11.666600093574043"><ele>303.0</ele><time>2026-03-22T10:38:51.891Z</time></trkpt><trkpt lat="43.44230157157854" lon="11.666650210637991"><ele>303.0</ele><time>2026-03-22T10:38:52.891Z</time></trkpt><trkpt lat="43.442187265499975" lon="11.666677410509227"><ele>303.0</ele><time>2026-03-22T10:38:54.891Z</time></trkpt><trkpt lat="43.442086658359536" lon="11.666732178221427"><ele>303.0</ele><time>2026-03-22T10:38:56.891Z</time></trkpt><trkpt lat="43.441962423559765" lon="11.666660614597054"><ele>303.0</ele><time>2026-03-22T10:38:58.891Z</time></trkpt><trkpt lat="43.441884774917746" lon="11.666572695014306"><ele>307.2</ele><time>2026-03-22T10:38:59.891Z</time></trkpt><trkpt lat="43.44176643112656" lon="11.666691401499232"><ele>311.4</ele><time>2026-03-22T10:39:01.891Z</time></trkpt><trkpt lat="43.44172374267927" lon="11.666760795691932"><ele>315.59999999999997</ele><time>2026-03-22T10:39:02.891Z</time></trkpt><trkpt lat="43.4416478133527" lon="11.66680939156944"><ele>319.8</ele><time>2026-03-22T10:39:04.891Z</time></trkpt><trkpt lat="43.44158008344191" lon="11.666835067280479"><ele>324.0</ele><time>2026-03-22T10:39:05.89Z</time></trkpt><trkpt lat="43.441503503403744" lon="11.666945576308585"><ele>324.6666666666667</ele><time>2026-03-22T10:39:07.89Z</time></trkpt><trkpt lat="43.441477506250926" lon="11.667044695816351"><ele>325.3333333333333</ele><time>2026-03-22T10:39:08.89Z</time></trkpt><trkpt lat="43.441444999899424" lon="11.667149016310132"><ele>326.0</ele><time>2026-03-22T10:39:09.89Z</time></trkpt><trkpt lat="43.44142375587783" lon="11.667269433308409"><ele>326.66666666666663</ele><time>2026-03-22T10:39:10.89Z</time></trkpt><trkpt lat="43.44137110597172" lon="11.667364268788647"><ele>327.3333333333333</ele><time>2026-03-22T10:39:11.89Z</time></trkpt><trkpt lat="43.44129897979583" lon="11.667457456817512"><ele>328.0</ele><time>2026-03-22T10:39:12.89Z</time></trkpt><trkpt lat="43.441246533464756" lon="11.667543356549004"><ele>332.2</ele><time>2026-03-22T10:39:13.89Z</time></trkpt><trkpt lat="43.441186269971226" lon="11.667583097699604"><ele>336.4</ele><time>2026-03-22T10:39:14.89Z</time></trkpt><trkpt lat="43.44108817968895" lon="11.667582132701053"><ele>340.59999999999997</ele><time>2026-03-22T10:39:15.89Z</time></trkpt><trkpt lat="43.440982039190146" lon="11.667573247252077"><ele>344.79999999999995</ele><time>2026-03-22T10:39:16.89Z</time></trkpt><trkpt lat="43.4408775969358" lon="11.667569752739167"><ele>349.0</ele><time>2026-03-22T10:39:17.89Z</time></trkpt><trkpt lat="43.440772869075886" lon="11.667614556362603"><ele>349.0</ele><time>2026-03-22T10:39:18.89Z</time></trkpt><trkpt lat="43.44068528518373" lon="11.66768238131095"><ele>349.0</ele><time>2026-03-22T10:39:19.89Z</time></trkpt><trkpt lat="43.44060003053796" lon="11.66777405818764"><ele>349.0</ele><time>2026-03-22T10:39:20.89Z</time></trkpt><trkpt lat="43.44052540163163" lon="11.667869684421317"><ele>349.0</ele><time>2026-03-22T10:39:21.89Z</time></trkpt><trkpt lat="43.44046839372097" lon="11.667999448281785"><ele>349.0</ele><time>2026-03-22T10:39:22.89Z</time></trkpt><trkpt lat="43.44043072073272" lon="11.668152778218758"><ele>351.2</ele><time>2026-03-22T10:39:23.89Z</time></trkpt><trkpt lat="43.440396430951004" lon="11.668269911689844"><ele>353.4</ele><time>2026-03-22T10:39:24.89Z</time></trkpt><trkpt lat="43.440366317351604" lon="11.668353836916687"><ele>355.6</ele><time>2026-03-22T10:39:25.89Z</time></trkpt><trkpt lat="43.440355327064424" lon="11.668475897854341"><ele>357.8</ele><time>2026-03-22T10:39:26.89Z</time></trkpt><trkpt lat="43.44033491678844" lon="11.668650412503444"><ele>360.0</ele><time>2026-03-22T10:39:27.89Z</time></trkpt><trkpt lat="43.44024403200858" lon="11.66881878922775"><ele>360.6666666666667</ele><time>2026-03-22T10:39:28.889Z</time></trkpt><trkpt lat="43.44016653079602" lon="11.66894101909682"><ele>361.3333333333333</ele><time>2026-03-22T10:39:29.889Z</time></trkpt><trkpt lat="43.44012697940076" lon="11.669020811542236"><ele>362.0</ele><time>2026-03-22T10:39:30.889Z</time></trkpt><trkpt lat="43.44002947853569" lon="11.669093416495116"><ele>362.66666666666663</ele><time>2026-03-22T10:39:32.889Z</time></trkpt><trkpt lat="43.43996693060971" lon="11.669111754358731"><ele>363.3333333333333</ele><time>2026-03-22T10:39:33.889Z</time></trkpt><trkpt lat="43.439900851767916" lon="11.669160493742327"><ele>364.0</ele><time>2026-03-22T10:39:35.889Z</time></trkpt><trkpt lat="43.43989259162374" lon="11.669277770931915"><ele>364.0</ele><time>2026-03-22T10:39:38.889Z</time></trkpt><trkpt lat="43.4398363837509" lon="11.669388521789523"><ele>364.0</ele><time>2026-03-22T10:39:41.889Z</time></trkpt><trkpt lat="43.43981745210663" lon="11.66949699646155"><ele>364.0</ele><time>2026-03-22T10:39:45.889Z</time></trkpt><trkpt lat="43.439805703950796" lon="11.669652170032938"><ele>364.0</ele><time>2026-03-22T10:39:47.889Z</time></trkpt><trkpt lat="43.439794487145974" lon="11.669759178583462"><ele>364.0</ele><time>2026-03-22T10:39:48.889Z</time></trkpt><trkpt lat="43.43978424003377" lon="11.669860228109727"><ele>364.0</ele><time>2026-03-22T10:39:49.889Z</time></trkpt><trkpt lat="43.43980588484982" lon="11.66999792792048"><ele>365.0</ele><time>2026-03-22T10:39:50.889Z</time></trkpt><trkpt lat="43.43979993142662" lon="11.670138269469835"><ele>366.0</ele><time>2026-03-22T10:39:51.888Z</time></trkpt><trkpt lat="43.43979813998333" lon="11.670309451353384"><ele>367.0</ele><time>2026-03-22T10:39:52.888Z</time></trkpt><trkpt lat="43.439805340831505" lon="11.670458448543682"><ele>368.0</ele><time>2026-03-22T10:39:53.888Z</time></trkpt><trkpt lat="43.43980440963772" lon="11.67061023386015"><ele>369.0</ele><time>2026-03-22T10:39:54.888Z</time></trkpt><trkpt lat="43.43980177805691" lon="11.670730732622124"><ele>370.79999999999995</ele><time>2026-03-22T10:39:55.888Z</time></trkpt><trkpt lat="43.4398018380259" lon="11.670851166816254"><ele>372.59999999999997</ele><time>2026-03-22T10:39:56.888Z</time></trkpt><trkpt lat="43.43978416694653" lon="11.671000157081847"><ele>374.4</ele><time>2026-03-22T10:39:57.888Z</time></trkpt><trkpt lat="43.439756710866256" lon="11.671162406097663"><ele>376.2</ele><time>2026-03-22T10:39:58.888Z</time></trkpt><trkpt lat="43.43973206839544" lon="11.671329616237783"><ele>378.0</ele><time>2026-03-22T10:39:59.888Z</time></trkpt><trkpt lat="43.43972748236897" lon="11.671434188316441"><ele>378.75</ele><time>2026-03-22T10:40:00.888Z</time></trkpt><trkpt lat="43.43978062491614" lon="11.671568038857904"><ele>379.5</ele><time>2026-03-22T10:40:02.888Z</time></trkpt><trkpt lat="43.43982499291455" lon="11.671709009982447"><ele>380.25</ele><time>2026-03-22T10:40:03.888Z</time></trkpt><trkpt lat="43.439885043881866" lon="11.671845803469944"><ele>381.0</ele><time>2026-03-22T10:40:04.888Z</time></trkpt><trkpt lat="43.439942269742694" lon="11.672014197377958"><ele>383.4</ele><time>2026-03-22T10:40:05.888Z</time></trkpt><trkpt lat="43.4399853863317" lon="11.672146312343743"><ele>385.8</ele><time>2026-03-22T10:40:06.888Z</time></trkpt><trkpt lat="43.440017088822145" lon="11.67225492542825"><ele>388.2</ele><time>2026-03-22T10:40:07.888Z</time></trkpt><trkpt lat="43.4400595199509" lon="11.672384820143893"><ele>390.59999999999997</ele><time>2026-03-22T10:40:09.888Z</time></trkpt><trkpt lat="43.44010774739238" lon="11.672455066406963"><ele>393.0</ele><time>2026-03-22T10:40:10.888Z</time></trkpt><trkpt lat="43.44017459184134" lon="11.672547307200643"><ele>393.0</ele><time>2026-03-22T10:40:11.888Z</time></trkpt><trkpt lat="43.44025459122423" lon="11.672621636505632"><ele>393.0</ele><time>2026-03-22T10:40:12.888Z</time></trkpt><trkpt lat="43.440308138057055" lon="11.672696828704245"><ele>393.0</ele><time>2026-03-22T10:40:13.888Z</time></trkpt><trkpt lat="43.44033089794915" lon="11.67278048870299"><ele>393.0</ele><time>2026-03-22T10:40:14.888Z</time></trkpt><trkpt lat="43.44042124395131" lon="11.672847843778671"><ele>393.0</ele><time>2026-03-22T10:40:16.887Z</time></trkpt><trkpt lat="43.44049255306979" lon="11.672891810707632"><ele>393.0</ele><time>2026-03-22T10:40:18.887Z</time></trkpt><trkpt lat="43.44055135327012" lon="11.672951703662022"><ele>393.4</ele><time>2026-03-22T10:40:21.887Z</time></trkpt><trkpt lat="43.44062374240716" lon="11.672994831645198"><ele>393.79999999999995</ele><time>2026-03-22T10:40:31.887Z</time></trkpt><trkpt lat="43.44071511028455" lon="11.673042688187024"><ele>394.2</ele><time>2026-03-22T10:40:33.887Z</time></trkpt><trkpt lat="43.440811912370485" lon="11.673137594266386"><ele>394.6</ele><time>2026-03-22T10:40:35.887Z</time></trkpt><trkpt lat="43.440923354183774" lon="11.673149473223402"><ele>395.0</ele><time>2026-03-22T10:40:37.887Z</time></trkpt><trkpt lat="43.44103390047828" lon="11.673119007784418"><ele>395.0</ele><time>2026-03-22T10:40:38.886Z</time></trkpt><trkpt lat="43.441128967553404" lon="11.673089576563871"><ele>395.0</ele><time>2026-03-22T10:40:39.886Z</time></trkpt><trkpt lat="43.44121344753045" lon="11.67306694121984"><ele>395.0</ele><time>2026-03-22T10:40:40.886Z</time></trkpt><trkpt lat="43.441317811966414" lon="11.673057477126997"><ele>395.0</ele><time>2026-03-22T10:40:41.886Z</time></trkpt><trkpt lat="43.44140689288053" lon="11.673065554100623"><ele>395.0</ele><time>2026-03-22T10:40:42.886Z</time></trkpt><trkpt lat="43.44150836789325" lon="11.673064199757034"><ele>393.8333333333333</ele><time>2026-03-22T10:40:43.886Z</time></trkpt><trkpt lat="43.44159452103323" lon="11.673062982093327"><ele>392.66666666666663</ele><time>2026-03-22T10:40:44.886Z</time></trkpt><trkpt lat="43.44166947625496" lon="11.67307639280462"><ele>391.5</ele><time>2026-03-22T10:40:45.886Z</time></trkpt><trkpt lat="43.44173950110315" lon="11.673082676934573"><ele>390.33333333333337</ele><time>2026-03-22T10:40:46.886Z</time></trkpt><trkpt lat="43.44180914250768" lon="11.673099289353125"><ele>389.1666666666667</ele><time>2026-03-22T10:40:47.886Z</time></trkpt><trkpt lat="43.441892241618476" lon="11.673147836284368"><ele>388.0</ele><time>2026-03-22T10:40:48.886Z</time></trkpt><trkpt lat="43.441996171091574" lon="11.673231737753046"><ele>388.00000000000006</ele><time>2026-03-22T10:40:49.886Z</time></trkpt><trkpt lat="43.4420833964569" lon="11.673294429610928"><ele>388.0</ele><time>2026-03-22T10:40:50.886Z</time></trkpt><trkpt lat="43.442145125227064" lon="11.673363110806731"><ele>388.0</ele><time>2026-03-22T10:40:51.886Z</time></trkpt><trkpt lat="43.44216336696615" lon="11.673456922889413"><ele>388.0</ele><time>2026-03-22T10:40:54.887Z</time></trkpt><trkpt lat="43.442140736033615" lon="11.673538999863279"><ele>388.00000000000006</ele><time>2026-03-22T10:41:00.888Z</time></trkpt><trkpt lat="43.44207601360131" lon="11.67360563224241"><ele>388.0</ele><time>2026-03-22T10:41:03.888Z</time></trkpt><trkpt lat="43.44196847591916" lon="11.673654714353004"><ele>388.79999999999995</ele><time>2026-03-22T10:41:05.887Z</time></trkpt><trkpt lat="43.44190372468834" lon="11.673648434404516"><ele>389.6</ele><time>2026-03-22T10:41:06.888Z</time></trkpt><trkpt lat="43.44180488478383" lon="11.67372335798715"><ele>390.4</ele><time>2026-03-22T10:41:08.887Z</time></trkpt><trkpt lat="43.44166596015046" lon="11.673823049329632"><ele>391.20000000000005</ele><time>2026-03-22T10:41:10.887Z</time></trkpt><trkpt lat="43.441591666824415" lon="11.673858848678863"><ele>392.0</ele><time>2026-03-22T10:41:11.887Z</time></trkpt><trkpt lat="43.441549673995425" lon="11.67392651658075"><ele>391.99999999999994</ele><time>2026-03-22T10:41:12.887Z</time></trkpt><trkpt lat="43.441499450846976" lon="11.673990071097402"><ele>392.0</ele><time>2026-03-22T10:41:13.887Z</time></trkpt><trkpt lat="43.44140622063927" lon="11.674018564277436"><ele>392.0</ele><time>2026-03-22T10:41:14.887Z</time></trkpt><trkpt lat="43.44131539675842" lon="11.67403411010009"><ele>392.0</ele><time>2026-03-22T10:41:15.887Z</time></trkpt><trkpt lat="43.441242186697686" lon="11.67406368236206"><ele>391.99999999999994</ele><time>2026-03-22T10:41:16.887Z</time></trkpt><trkpt lat="43.44117758275719" lon="11.674085395771964"><ele>392.0</ele><time>2026-03-22T10:41:17.887Z</time></trkpt><trkpt lat="43.441106656613414" lon="11.67413336817303"><ele>394.49999999999994</ele><time>2026-03-22T10:41:18.887Z</time></trkpt><trkpt lat="43.441055223928466" lon="11.674196818874199"><ele>397.0</ele><time>2026-03-22T10:41:19.887Z</time></trkpt><trkpt lat="43.441000754386025" lon="11.67424618201119"><ele>399.5</ele><time>2026-03-22T10:41:20.887Z</time></trkpt><trkpt lat="43.44092625909013" lon="11.67429240335747"><ele>402.0</ele><time>2026-03-22T10:41:21.887Z</time></trkpt><trkpt lat="43.44083321243451" lon="11.674325133670274"><ele>404.49999999999994</ele><time>2026-03-22T10:41:22.887Z</time></trkpt><trkpt lat="43.44076569388558" lon="11.674367593132214"><ele>407.0</ele><time>2026-03-22T10:41:23.887Z</time></trkpt><trkpt lat="43.44069801451502" lon="11.67442082550325"><ele>405.8</ele><time>2026-03-22T10:41:24.887Z</time></trkpt><trkpt lat="43.44062736487961" lon="11.674452298316153"><ele>404.6</ele><time>2026-03-22T10:41:25.887Z</time></trkpt><trkpt lat="43.44052415625737" lon="11.67445489968042"><ele>403.40000000000003</ele><time>2026-03-22T10:41:26.887Z</time></trkpt><trkpt lat="43.44042376375912" lon="11.674535759626202"><ele>402.20000000000005</ele><time>2026-03-22T10:41:28.887Z</time></trkpt><trkpt lat="43.44034470930347" lon="11.674619355651378"><ele>401.0</ele><time>2026-03-22T10:41:29.886Z</time></trkpt><trkpt lat="43.4402762461968" lon="11.674686312718126"><ele>406.6</ele><time>2026-03-22T10:41:30.886Z</time></trkpt><trkpt lat="43.4402009070002" lon="11.67479575297681"><ele>412.20000000000005</ele><time>2026-03-22T10:41:32.886Z</time></trkpt><trkpt lat="43.44017235246135" lon="11.6748753342248"><ele>417.79999999999995</ele><time>2026-03-22T10:41:34.886Z</time></trkpt><trkpt lat="43.44019386578492" lon="11.674957537542978"><ele>423.4</ele><time>2026-03-22T10:41:43.886Z</time></trkpt><trkpt lat="43.440099637160074" lon="11.674982902050864"><ele>429.0</ele><time>2026-03-22T10:41:45.886Z</time></trkpt><trkpt lat="43.43997036775566" lon="11.674941155381218"><ele>429.0</ele><time>2026-03-22T10:41:47.886Z</time></trkpt><trkpt lat="43.439888673721356" lon="11.67492033700739"><ele>429.0</ele><time>2026-03-22T10:41:48.886Z</time></trkpt><trkpt lat="43.43980473058849" lon="11.674899619263618"><ele>429.0</ele><time>2026-03-22T10:41:50.886Z</time></trkpt><trkpt lat="43.43974784588243" lon="11.674938287685144"><ele>429.0</ele><time>2026-03-22T10:41:51.886Z</time></trkpt><trkpt lat="43.439663212983206" lon="11.67498615449615"><ele>429.0</ele><time>2026-03-22T10:41:52.886Z</time></trkpt><trkpt lat="43.43954681832626" lon="11.675049687132272"><ele>429.0</ele><time>2026-03-22T10:41:53.885Z</time></trkpt><trkpt lat="43.439432906163184" lon="11.675072433189042"><ele>433.25</ele><time>2026-03-22T10:41:54.885Z</time></trkpt><trkpt lat="43.439345958482576" lon="11.675072026852636"><ele>437.5</ele><time>2026-03-22T10:41:55.885Z</time></trkpt><trkpt lat="43.43922879279085" lon="11.675159242729919"><ele>441.75</ele><time>2026-03-22T10:41:57.885Z</time></trkpt><trkpt lat="43.439133418782816" lon="11.675271120029151"><ele>446.0</ele><time>2026-03-22T10:41:58.885Z</time></trkpt><trkpt lat="43.439069223317794" lon="11.67538406663462"><ele>445.99999999999994</ele><time>2026-03-22T10:41:59.885Z</time></trkpt><trkpt lat="43.43900364460176" lon="11.675477067362207"><ele>446.0</ele><time>2026-03-22T10:42:00.885Z</time></trkpt><trkpt lat="43.4389585215859" lon="11.67554713840467"><ele>446.0</ele><time>2026-03-22T10:42:01.885Z</time></trkpt><trkpt lat="43.43889477747799" lon="11.675571093785056"><ele>446.0</ele><time>2026-03-22T10:42:02.885Z</time></trkpt><trkpt lat="43.438804387575615" lon="11.675573157448687"><ele>445.99999999999994</ele><time>2026-03-22T10:42:03.885Z</time></trkpt><trkpt lat="43.438728417898886" lon="11.675539356382094"><ele>446.0</ele><time>2026-03-22T10:42:04.885Z</time></trkpt><trkpt lat="43.43865473504173" lon="11.675484308024993"><ele>448.6</ele><time>2026-03-22T10:42:05.885Z</time></trkpt><trkpt lat="43.438560519570416" lon="11.675403107937193"><ele>451.20000000000005</ele><time>2026-03-22T10:42:06.885Z</time></trkpt><trkpt lat="43.438471888865095" lon="11.675297336703043"><ele>453.79999999999995</ele><time>2026-03-22T10:42:07.885Z</time></trkpt><trkpt lat="43.43843010791997" lon="11.675227107182298"><ele>456.4</ele><time>2026-03-22T10:42:08.885Z</time></trkpt><trkpt lat="43.43833273756642" lon="11.67519224766019"><ele>459.0</ele><time>2026-03-22T10:42:10.885Z</time></trkpt><trkpt lat="43.438250025616725" lon="11.67516841269383"><ele>459.0</ele><time>2026-03-22T10:42:11.885Z</time></trkpt><trkpt lat="43.43819085978561" lon="11.675207772921212"><ele>459.0</ele><time>2026-03-22T10:42:12.885Z</time></trkpt><trkpt lat="43.43812317920254" lon="11.67529357138061"><ele>459.0</ele><time>2026-03-22T10:42:13.885Z</time></trkpt><trkpt lat="43.438067612311144" lon="11.67538944208774"><ele>459.0</ele><time>2026-03-22T10:42:14.885Z</time></trkpt><trkpt lat="43.43799260748583" lon="11.675522546826809"><ele>459.0</ele><time>2026-03-22T10:42:16.884Z</time></trkpt><trkpt lat="43.43790658747879" lon="11.675570123110417"><ele>461.6</ele><time>2026-03-22T10:42:18.884Z</time></trkpt><trkpt lat="43.43791706407835" lon="11.675738393936719"><ele>464.2</ele><time>2026-03-22T10:42:20.884Z</time></trkpt><trkpt lat="43.437931694353836" lon="11.675864991554224"><ele>466.80000000000007</ele><time>2026-03-22T10:42:21.884Z</time></trkpt><trkpt lat="43.437971202199506" lon="11.6759851298586"><ele>469.40000000000003</ele><time>2026-03-22T10:42:22.884Z</time></trkpt><trkpt lat="43.438020071311556" lon="11.676086361137319"><ele>472.0</ele><time>2026-03-22T10:42:23.884Z</time></trkpt><trkpt lat="43.43800624368815" lon="11.676244362153767"><ele>476.1666666666667</ele><time>2026-03-22T10:42:25.884Z</time></trkpt><trkpt lat="43.43796382428322" lon="11.676322352783846"><ele>480.33333333333337</ele><time>2026-03-22T10:42:26.884Z</time></trkpt><trkpt lat="43.437867543920255" lon="11.676287681816659"><ele>484.5</ele><time>2026-03-22T10:42:28.884Z</time></trkpt><trkpt lat="43.43779575913138" lon="11.676246421330458"><ele>488.66666666666663</ele><time>2026-03-22T10:42:29.884Z</time></trkpt><trkpt lat="43.437721415248355" lon="11.676235046338586"><ele>492.8333333333333</ele><time>2026-03-22T10:42:30.884Z</time></trkpt><trkpt lat="43.43762622797425" lon="11.676286490170208"><ele>497.0</ele><time>2026-03-22T10:42:31.884Z</time></trkpt><trkpt lat="43.43754568010031" lon="11.676345186033684"><ele>497.0</ele><time>2026-03-22T10:42:32.884Z</time></trkpt><trkpt lat="43.437525782890106" lon="11.676467745823043"><ele>497.00000000000006</ele><time>2026-03-22T10:42:34.884Z</time></trkpt><trkpt lat="43.43751681997591" lon="11.676630042269213"><ele>497.00000000000006</ele><time>2026-03-22T10:42:36.884Z</time></trkpt><trkpt lat="43.43747552687186" lon="11.67673937563345"><ele>497.0</ele><time>2026-03-22T10:42:37.884Z</time></trkpt><trkpt lat="43.437419308153665" lon="11.676886197895291"><ele>497.0</ele><time>2026-03-22T10:42:39.883Z</time></trkpt><trkpt lat="43.43736764670748" lon="11.676984069624476"><ele>499.20000000000005</ele><time>2026-03-22T10:42:41.883Z</time></trkpt><trkpt lat="43.43734926098197" lon="11.677105340890844"><ele>501.40000000000003</ele><time>2026-03-22T10:42:43.883Z</time></trkpt><trkpt lat="43.43730502472591" lon="11.677241379824038"><ele>503.59999999999997</ele><time>2026-03-22T10:42:45.883Z</time></trkpt><trkpt lat="43.43724896097617" lon="11.677350960490882"><ele>505.79999999999995</ele><time>2026-03-22T10:42:46.883Z</time></trkpt><trkpt lat="43.43717755366963" lon="11.677471925125571"><ele>508.0</ele><time>2026-03-22T10:42:47.883Z</time></trkpt><trkpt lat="43.4371172699051" lon="11.677559159275736"><ele>508.1666666666667</ele><time>2026-03-22T10:42:48.883Z</time></trkpt><trkpt lat="43.437048352630974" lon="11.677644095544581"><ele>508.33333333333337</ele><time>2026-03-22T10:42:49.883Z</time></trkpt><trkpt lat="43.43699667005093" lon="11.677698932351927"><ele>508.5</ele><time>2026-03-22T10:42:50.883Z</time></trkpt><trkpt lat="43.436962941062646" lon="11.677780467473838"><ele>508.66666666666663</ele><time>2026-03-22T10:42:51.883Z</time></trkpt><trkpt lat="43.43690602539086" lon="11.677895641821056"><ele>508.8333333333333</ele><time>2026-03-22T10:42:52.883Z</time></trkpt><trkpt lat="43.436853110518356" lon="11.677993546391418"><ele>509.0</ele><time>2026-03-22T10:42:53.883Z</time></trkpt><trkpt lat="43.4368126633365" lon="11.678089088574554"><ele>510.0</ele><time>2026-03-22T10:42:54.883Z</time></trkpt><trkpt lat="43.43678138692787" lon="11.678199818441035"><ele>511.0</ele><time>2026-03-22T10:42:55.883Z</time></trkpt><trkpt lat="43.4367493338583" lon="11.678345432228399"><ele>512.0</ele><time>2026-03-22T10:42:56.883Z</time></trkpt><trkpt lat="43.43674020862533" lon="11.67848354022879"><ele>513.0</ele><time>2026-03-22T10:42:57.883Z</time></trkpt><trkpt lat="43.43672156447144" lon="11.678576651391007"><ele>514.0</ele><time>2026-03-22T10:42:58.883Z</time></trkpt><trkpt lat="43.43665960306631" lon="11.67865582849911"><ele>514.0</ele><time>2026-03-22T10:42:59.883Z</time></trkpt><trkpt lat="43.436580748363816" lon="11.678739911838164"><ele>514.0</ele><time>2026-03-22T10:43:00.885Z</time></trkpt><trkpt lat="43.43649964980657" lon="11.678817786705459"><ele>514.0</ele><time>2026-03-22T10:43:01.885Z</time></trkpt><trkpt lat="43.43642184207136" lon="11.678907798841067"><ele>514.0</ele><time>2026-03-22T10:43:02.885Z</time></trkpt><trkpt lat="43.43633665734395" lon="11.678957264974915"><ele>514.0</ele><time>2026-03-22T10:43:03.884Z</time></trkpt><trkpt lat="43.43623015274666" lon="11.679021924241853"><ele>513.3333333333334</ele><time>2026-03-22T10:43:04.884Z</time></trkpt><trkpt lat="43.43614047380813" lon="11.679101407165229"><ele>512.6666666666667</ele><time>2026-03-22T10:43:05.884Z</time></trkpt><trkpt lat="43.43607943550442" lon="11.679183633521117"><ele>512.0</ele><time>2026-03-22T10:43:06.884Z</time></trkpt><trkpt lat="43.436041639711256" lon="11.679269842593479"><ele>511.33333333333337</ele><time>2026-03-22T10:43:07.884Z</time></trkpt><trkpt lat="43.435995581831094" lon="11.679355692718522"><ele>510.6666666666667</ele><time>2026-03-22T10:43:09.885Z</time></trkpt><trkpt lat="43.435915961534796" lon="11.679323963452548"><ele>510.0</ele><time>2026-03-22T10:43:12.884Z</time></trkpt><trkpt lat="43.43581574352771" lon="11.679230988837867"><ele>510.0</ele><time>2026-03-22T10:43:14.884Z</time></trkpt><trkpt lat="43.43575873579881" lon="11.679171676602252"><ele>510.0</ele><time>2026-03-22T10:43:15.884Z</time></trkpt><trkpt lat="43.435657336286496" lon="11.67911217599317"><ele>510.0</ele><time>2026-03-22T10:43:17.884Z</time></trkpt><trkpt lat="43.43556617041461" lon="11.67909117605941"><ele>510.0</ele><time>2026-03-22T10:43:19.884Z</time></trkpt><trkpt lat="43.435467308172505" lon="11.679118056063277"><ele>510.0</ele><time>2026-03-22T10:43:21.884Z</time></trkpt><trkpt lat="43.43539263197306" lon="11.679186182606855"><ele>510.0</ele><time>2026-03-22T10:43:23.884Z</time></trkpt><trkpt lat="43.4353646083388" lon="11.679264205856423"><ele>510.0</ele><time>2026-03-22T10:43:25.884Z</time></trkpt><trkpt lat="43.43533353616033" lon="11.679371503514481"><ele>510.0</ele><time>2026-03-22T10:44:19.882Z</time></trkpt><trkpt lat="43.43523752499131" lon="11.679503760684327"><ele>510.0</ele><time>2026-03-22T10:44:21.881Z</time></trkpt><trkpt lat="43.43519187959005" lon="11.679563715001548"><ele>510.0</ele><time>2026-03-22T10:44:22.881Z</time></trkpt><trkpt lat="43.43513594732173" lon="11.67968245664484"><ele>510.0</ele><time>2026-03-22T10:44:24.881Z</time></trkpt><trkpt lat="43.43503035061835" lon="11.679761469512524"><ele>510.0</ele><time>2026-03-22T10:44:26.881Z</time></trkpt><trkpt lat="43.434954637349364" lon="11.679759392840365"><ele>510.0</ele><time>2026-03-22T10:44:27.881Z</time></trkpt><trkpt lat="43.43486202269222" lon="11.679781181846334"><ele>510.0</ele><time>2026-03-22T10:44:29.881Z</time></trkpt><trkpt lat="43.43483567094895" lon="11.679866183499822"><ele>510.0</ele><time>2026-03-22T10:44:31.882Z</time></trkpt><trkpt lat="43.43483085766279" lon="11.67997570093406"><ele>510.0</ele><time>2026-03-22T10:44:33.884Z</time></trkpt><trkpt lat="43.43479936763048" lon="11.680081474608095"><ele>510.0</ele><time>2026-03-22T10:44:35.885Z</time></trkpt><trkpt lat="43.43473987286297" lon="11.680182484959776"><ele>510.0</ele><time>2026-03-22T10:44:37.886Z</time></trkpt><trkpt lat="43.434646327039125" lon="11.680224907871503"><ele>510.0</ele><time>2026-03-22T10:44:39.887Z</time></trkpt><trkpt lat="43.43460280171149" lon="11.680337181550621"><ele>510.0</ele><time>2026-03-22T10:44:41.888Z</time></trkpt><trkpt lat="43.4345942317349" lon="11.680464378697492"><ele>510.0</ele><time>2026-03-22T10:44:43.889Z</time></trkpt><trkpt lat="43.43458420616813" lon="11.680598565092168"><ele>510.0</ele><time>2026-03-22T10:44:45.89Z</time></trkpt><trkpt lat="43.43452389964821" lon="11.680637209255751"><ele>510.0</ele><time>2026-03-22T10:44:47.89Z</time></trkpt><trkpt lat="43.43444529592068" lon="11.680680025330476"><ele>506.5</ele><time>2026-03-22T10:44:49.891Z</time></trkpt><trkpt lat="43.43434388653446" lon="11.680721508801682"><ele>503.0</ele><time>2026-03-22T10:44:51.891Z</time></trkpt><trkpt lat="43.43424019214748" lon="11.680764397345325"><ele>499.5</ele><time>2026-03-22T10:44:53.891Z</time></trkpt><trkpt lat="43.43416311464337" lon="11.680773862254087"><ele>496.0</ele><time>2026-03-22T10:44:56.892Z</time></trkpt><trkpt lat="43.43410933737129" lon="11.680728575751486"><ele>492.5</ele><time>2026-03-22T10:44:58.892Z</time></trkpt><trkpt lat="43.43401574519298" lon="11.680706753386268"><ele>489.0</ele><time>2026-03-22T10:45:00.892Z</time></trkpt><trkpt lat="43.43391981060436" lon="11.680818963497668"><ele>489.0</ele><time>2026-03-22T10:45:02.892Z</time></trkpt><trkpt lat="43.43387819139856" lon="11.680900125324435"><ele>489.0</ele><time>2026-03-22T10:45:03.893Z</time></trkpt><trkpt lat="43.433787516525825" lon="11.681001077158626"><ele>489.0</ele><time>2026-03-22T10:45:05.893Z</time></trkpt><trkpt lat="43.43372673120151" lon="11.681101939492919"><ele>489.0</ele><time>2026-03-22T10:45:07.895Z</time></trkpt><trkpt lat="43.4336351254161" lon="11.681157532853108"><ele>489.0</ele><time>2026-03-22T10:45:09.895Z</time></trkpt><trkpt lat="43.433539105560776" lon="11.681138632608501"><ele>484.79999999999995</ele><time>2026-03-22T10:45:11.895Z</time></trkpt><trkpt lat="43.4334475185889" lon="11.681084486868663"><ele>480.59999999999997</ele><time>2026-03-22T10:45:13.895Z</time></trkpt><trkpt lat="43.43338366975105" lon="11.681087003658808"><ele>476.4</ele><time>2026-03-22T10:45:14.895Z</time></trkpt><trkpt lat="43.4332629495289" lon="11.681109790857931"><ele>472.2</ele><time>2026-03-22T10:45:16.895Z</time></trkpt><trkpt lat="43.433154903437845" lon="11.681108199260347"><ele>468.0</ele><time>2026-03-22T10:45:18.896Z</time></trkpt><trkpt lat="43.433031735541284" lon="11.681149683070755"><ele>463.4</ele><time>2026-03-22T10:45:20.896Z</time></trkpt><trkpt lat="43.43296475706509" lon="11.681168179586237"><ele>458.79999999999995</ele><time>2026-03-22T10:45:21.896Z</time></trkpt><trkpt lat="43.4328527414424" lon="11.681182559627352"><ele>454.2</ele><time>2026-03-22T10:45:23.896Z</time></trkpt><trkpt lat="43.43275661658372" lon="11.681124524509231"><ele>449.6</ele><time>2026-03-22T10:45:25.896Z</time></trkpt><trkpt lat="43.432669927741145" lon="11.681026091946293"><ele>445.0</ele><time>2026-03-22T10:45:27.895Z</time></trkpt><trkpt lat="43.432569262621726" lon="11.680948778549773"><ele>445.0</ele><time>2026-03-22T10:45:29.895Z</time></trkpt><trkpt lat="43.432464372042354" lon="11.680937476133552"><ele>445.0</ele><time>2026-03-22T10:45:31.895Z</time></trkpt><trkpt lat="43.432402700573476" lon="11.680871756309593"><ele>445.0</ele><time>2026-03-22T10:45:33.895Z</time></trkpt><trkpt lat="43.432309860847376" lon="11.680846927098699"><ele>445.0</ele><time>2026-03-22T10:45:35.895Z</time></trkpt><trkpt lat="43.43218715150847" lon="11.68083435565849"><ele>445.0</ele><time>2026-03-22T10:45:37.895Z</time></trkpt><trkpt lat="43.43206497639031" lon="11.680788042724467"><ele>442.50000000000006</ele><time>2026-03-22T10:45:39.895Z</time></trkpt><trkpt lat="43.43200262703587" lon="11.680768527547402"><ele>440.0</ele><time>2026-03-22T10:45:40.895Z</time></trkpt><trkpt lat="43.43193436707264" lon="11.680750991188457"><ele>437.5</ele><time>2026-03-22T10:45:41.895Z</time></trkpt><trkpt lat="43.43187240216431" lon="11.680733287124662"><ele>435.0</ele><time>2026-03-22T10:45:42.895Z</time></trkpt><trkpt lat="43.431812655394424" lon="11.680704407495858"><ele>432.50000000000006</ele><time>2026-03-22T10:45:43.895Z</time></trkpt><trkpt lat="43.431691793652114" lon="11.68063405784928"><ele>430.0</ele><time>2026-03-22T10:45:45.895Z</time></trkpt><trkpt lat="43.43158001212946" lon="11.680570312880278"><ele>430.0</ele><time>2026-03-22T10:45:47.895Z</time></trkpt><trkpt lat="43.43145979009249" lon="11.680549321375867"><ele>430.0</ele><time>2026-03-22T10:45:49.895Z</time></trkpt><trkpt lat="43.43139921354626" lon="11.680576873053127"><ele>430.0</ele><time>2026-03-22T10:45:50.895Z</time></trkpt><trkpt lat="43.43128399413035" lon="11.68061463219794"><ele>430.0</ele><time>2026-03-22T10:45:52.895Z</time></trkpt><trkpt lat="43.43122370957595" lon="11.680661688764376"><ele>430.0</ele><time>2026-03-22T10:45:53.895Z</time></trkpt><trkpt lat="43.43113399715508" lon="11.680637101376599"><ele>426.0</ele><time>2026-03-22T10:45:55.895Z</time></trkpt><trkpt lat="43.431040492093054" lon="11.680579625259986"><ele>422.0</ele><time>2026-03-22T10:45:57.895Z</time></trkpt><trkpt lat="43.43094034566165" lon="11.68055021216895"><ele>418.0</ele><time>2026-03-22T10:45:59.895Z</time></trkpt><trkpt lat="43.43086922405224" lon="11.68053415767769"><ele>414.0</ele><time>2026-03-22T10:46:01.894Z</time></trkpt><trkpt lat="43.430800974050506" lon="11.680546052128488"><ele>410.0</ele><time>2026-03-22T10:46:03.894Z</time></trkpt><trkpt lat="43.43069607218287" lon="11.680543568737551"><ele>410.0</ele><time>2026-03-22T10:46:05.894Z</time></trkpt><trkpt lat="43.43059311997099" lon="11.680542696552592"><ele>410.0</ele><time>2026-03-22T10:46:07.894Z</time></trkpt><trkpt lat="43.430498044902926" lon="11.680589233852281"><ele>410.0</ele><time>2026-03-22T10:46:09.894Z</time></trkpt><trkpt lat="43.43043785044754" lon="11.6806252675082"><ele>410.0</ele><time>2026-03-22T10:46:10.894Z</time></trkpt><trkpt lat="43.430360799112776" lon="11.680696541126354"><ele>410.0</ele><time>2026-03-22T10:46:12.894Z</time></trkpt><trkpt lat="43.43026055744551" lon="11.680759372506506"><ele>406.5714285714286</ele><time>2026-03-22T10:46:14.894Z</time></trkpt><trkpt lat="43.43019184460424" lon="11.68076184354628"><ele>403.1428571428571</ele><time>2026-03-22T10:46:15.894Z</time></trkpt><trkpt lat="43.430121397489216" lon="11.680753332194508"><ele>399.7142857142857</ele><time>2026-03-22T10:46:16.894Z</time></trkpt><trkpt lat="43.430056737638985" lon="11.680751714768665"><ele>396.28571428571433</ele><time>2026-03-22T10:46:17.894Z</time></trkpt><trkpt lat="43.429991693394015" lon="11.680744749812968"><ele>392.8571428571429</ele><time>2026-03-22T10:46:18.894Z</time></trkpt><trkpt lat="43.429897107954886" lon="11.680729868083544"><ele>389.42857142857144</ele><time>2026-03-22T10:46:20.894Z</time></trkpt><trkpt lat="43.4298187231795" lon="11.68069850734398"><ele>386.0</ele><time>2026-03-22T10:46:22.894Z</time></trkpt><trkpt lat="43.42972574073654" lon="11.68065714719158"><ele>383.16666666666663</ele><time>2026-03-22T10:46:24.894Z</time></trkpt><trkpt lat="43.42963571441165" lon="11.68058231618179"><ele>380.3333333333333</ele><time>2026-03-22T10:46:26.894Z</time></trkpt><trkpt lat="43.42950436451822" lon="11.680607578584164"><ele>377.5</ele><time>2026-03-22T10:46:28.893Z</time></trkpt><trkpt lat="43.42943629759744" lon="11.68061136434635"><ele>374.66666666666663</ele><time>2026-03-22T10:46:29.893Z</time></trkpt><trkpt lat="43.429381889764464" lon="11.680562136729277"><ele>371.8333333333333</ele><time>2026-03-22T10:46:30.893Z</time></trkpt><trkpt lat="43.42931605269137" lon="11.680503971018247"><ele>369.0</ele><time>2026-03-22T10:46:31.893Z</time></trkpt><trkpt lat="43.429248388078065" lon="11.680467260480716"><ele>369.0</ele><time>2026-03-22T10:46:32.893Z</time></trkpt><trkpt lat="43.429160021095385" lon="11.680450142843684"><ele>369.0</ele><time>2026-03-22T10:46:33.893Z</time></trkpt><trkpt lat="43.42906527589443" lon="11.680473268373163"><ele>369.0</ele><time>2026-03-22T10:46:34.893Z</time></trkpt><trkpt lat="43.42897997404734" lon="11.680535909520064"><ele>369.0</ele><time>2026-03-22T10:46:35.893Z</time></trkpt><trkpt lat="43.428905777399144" lon="11.680586487735996"><ele>369.0</ele><time>2026-03-22T10:46:36.893Z</time></trkpt><trkpt lat="43.428835303085954" lon="11.680623744917478"><ele>369.0</ele><time>2026-03-22T10:46:37.893Z</time></trkpt><trkpt lat="43.428749337982936" lon="11.680645835137534"><ele>367.85714285714283</ele><time>2026-03-22T10:46:38.893Z</time></trkpt><trkpt lat="43.428662603011404" lon="11.680656463826422"><ele>366.71428571428567</ele><time>2026-03-22T10:46:39.893Z</time></trkpt><trkpt lat="43.428587168879794" lon="11.680656879099462"><ele>365.57142857142856</ele><time>2026-03-22T10:46:40.893Z</time></trkpt><trkpt lat="43.4285134328566" lon="11.680649487763208"><ele>364.42857142857144</ele><time>2026-03-22T10:46:41.893Z</time></trkpt><trkpt lat="43.42844183894583" lon="11.680638121956461"><ele>363.2857142857143</ele><time>2026-03-22T10:46:42.893Z</time></trkpt><trkpt lat="43.428371835739206" lon="11.68063060637621"><ele>362.14285714285717</ele><time>2026-03-22T10:46:43.893Z</time></trkpt><trkpt lat="43.428305866015094" lon="11.680627834512185"><ele>361.0</ele><time>2026-03-22T10:46:44.893Z</time></trkpt><trkpt lat="43.42819282137296" lon="11.680642166519965"><ele>361.0</ele><time>2026-03-22T10:46:46.893Z</time></trkpt><trkpt lat="43.428099307417256" lon="11.680634314481699"><ele>361.0</ele><time>2026-03-22T10:46:48.893Z</time></trkpt><trkpt lat="43.42802724983277" lon="11.680628155237699"><ele>361.0</ele><time>2026-03-22T10:46:50.893Z</time></trkpt><trkpt lat="43.42794690667237" lon="11.680659877581288"><ele>361.0</ele><time>2026-03-22T10:46:53.892Z</time></trkpt><trkpt lat="43.42788720798003" lon="11.68063155226005"><ele>361.0</ele><time>2026-03-22T10:46:57.892Z</time></trkpt><trkpt lat="43.42776464745369" lon="11.680723217468442"><ele>360.16666666666663</ele><time>2026-03-22T10:47:25.893Z</time></trkpt><trkpt lat="43.427695222765195" lon="11.68078346718137"><ele>359.3333333333333</ele><time>2026-03-22T10:47:26.893Z</time></trkpt><trkpt lat="43.427631536803226" lon="11.680831514533766"><ele>358.5</ele><time>2026-03-22T10:47:27.893Z</time></trkpt><trkpt lat="43.427552082975126" lon="11.680813293324784"><ele>357.6666666666667</ele><time>2026-03-22T10:47:28.893Z</time></trkpt><trkpt lat="43.427487266577224" lon="11.680824373391765"><ele>356.83333333333337</ele><time>2026-03-22T10:47:29.893Z</time></trkpt><trkpt lat="43.42740678033064" lon="11.680834801641439"><ele>356.0</ele><time>2026-03-22T10:47:30.893Z</time></trkpt><trkpt lat="43.427337158792" lon="11.680847262628221"><ele>356.0</ele><time>2026-03-22T10:47:31.893Z</time></trkpt><trkpt lat="43.42725326947356" lon="11.680872489874744"><ele>356.0</ele><time>2026-03-22T10:47:32.893Z</time></trkpt><trkpt lat="43.427183318332524" lon="11.680927069359464"><ele>356.0</ele><time>2026-03-22T10:47:33.893Z</time></trkpt><trkpt lat="43.427085859533385" lon="11.680965959335822"><ele>356.0</ele><time>2026-03-22T10:47:34.893Z</time></trkpt><trkpt lat="43.427008489967996" lon="11.681007820791319"><ele>356.0</ele><time>2026-03-22T10:47:35.893Z</time></trkpt><trkpt lat="43.4269389669644" lon="11.681049943841355"><ele>356.0</ele><time>2026-03-22T10:47:36.893Z</time></trkpt><trkpt lat="43.42686878268322" lon="11.681085034664667"><ele>352.8</ele><time>2026-03-22T10:47:37.893Z</time></trkpt><trkpt lat="43.42672343819682" lon="11.68110613877464"><ele>349.6</ele><time>2026-03-22T10:47:39.893Z</time></trkpt><trkpt lat="43.42664596606862" lon="11.681111029733604"><ele>346.4</ele><time>2026-03-22T10:47:40.893Z</time></trkpt><trkpt lat="43.42655686982508" lon="11.681132443928515"><ele>343.2</ele><time>2026-03-22T10:47:41.893Z</time></trkpt><trkpt lat="43.426475422782644" lon="11.681157362089328"><ele>340.0</ele><time>2026-03-22T10:47:42.893Z</time></trkpt><trkpt lat="43.426386529304246" lon="11.681189566397475"><ele>338.5</ele><time>2026-03-22T10:47:43.893Z</time></trkpt><trkpt lat="43.42631010003969" lon="11.68122386366775"><ele>337.0</ele><time>2026-03-22T10:47:44.893Z</time></trkpt><trkpt lat="43.42622974446584" lon="11.681243204722945"><ele>335.5</ele><time>2026-03-22T10:47:45.893Z</time></trkpt><trkpt lat="43.42615286626716" lon="11.68125120225996"><ele>334.0</ele><time>2026-03-22T10:47:46.893Z</time></trkpt><trkpt lat="43.42607339249902" lon="11.68126848006811"><ele>332.5</ele><time>2026-03-22T10:47:47.893Z</time></trkpt><trkpt lat="43.4259944511521" lon="11.681293277791797"><ele>331.0</ele><time>2026-03-22T10:47:48.893Z</time></trkpt><trkpt lat="43.425919385423136" lon="11.681341524258103"><ele>331.0</ele><time>2026-03-22T10:47:49.892Z</time></trkpt><trkpt lat="43.425850444284286" lon="11.68140393837432"><ele>331.0</ele><time>2026-03-22T10:47:50.892Z</time></trkpt><trkpt lat="43.42578595721611" lon="11.681475141465146"><ele>331.0</ele><time>2026-03-22T10:47:51.892Z</time></trkpt><trkpt lat="43.42573918300256" lon="11.681542637838138"><ele>331.0</ele><time>2026-03-22T10:47:52.892Z</time></trkpt><trkpt lat="43.425653489923704" lon="11.681586233009796"><ele>331.0</ele><time>2026-03-22T10:47:54.892Z</time></trkpt><trkpt lat="43.42554194066698" lon="11.681559230958134"><ele>331.0</ele><time>2026-03-22T10:47:56.892Z</time></trkpt><trkpt lat="43.425460467092265" lon="11.68155230029977"><ele>329.0</ele><time>2026-03-22T10:47:57.892Z</time></trkpt><trkpt lat="43.42537072979927" lon="11.681562246344354"><ele>327.0</ele><time>2026-03-22T10:47:58.892Z</time></trkpt><trkpt lat="43.425281804598185" lon="11.681577339196705"><ele>325.0</ele><time>2026-03-22T10:47:59.892Z</time></trkpt><trkpt lat="43.4251994989216" lon="11.68160411866103"><ele>323.0</ele><time>2026-03-22T10:48:00.892Z</time></trkpt><trkpt lat="43.42512032350435" lon="11.681635661188764"><ele>321.0</ele><time>2026-03-22T10:48:01.892Z</time></trkpt><trkpt lat="43.4250184130346" lon="11.6816541764102"><ele>319.0</ele><time>2026-03-22T10:48:03.892Z</time></trkpt><trkpt lat="43.4249326675905" lon="11.681557944027572"><ele>319.0</ele><time>2026-03-22T10:48:05.892Z</time></trkpt><trkpt lat="43.424877980756676" lon="11.681390396443899"><ele>319.0</ele><time>2026-03-22T10:48:07.892Z</time></trkpt><trkpt lat="43.4248462873651" lon="11.681304616988816"><ele>319.0</ele><time>2026-03-22T10:48:08.892Z</time></trkpt><trkpt lat="43.424821768982" lon="11.681223816513823"><ele>319.0</ele><time>2026-03-22T10:48:09.892Z</time></trkpt><trkpt lat="43.42479694744324" lon="11.681138896394796"><ele>319.0</ele><time>2026-03-22T10:48:10.892Z</time></trkpt><trkpt lat="43.42474565413862" lon="11.680989516062008"><ele>317.3333333333333</ele><time>2026-03-22T10:48:12.892Z</time></trkpt><trkpt lat="43.42463791758324" lon="11.680958322598347"><ele>315.66666666666663</ele><time>2026-03-22T10:48:14.891Z</time></trkpt><trkpt lat="43.424521261631085" lon="11.680965299113113"><ele>314.0</ele><time>2026-03-22T10:48:16.891Z</time></trkpt><trkpt lat="43.424446201519416" lon="11.680971780238858"><ele>312.3333333333333</ele><time>2026-03-22T10:48:17.891Z</time></trkpt><trkpt lat="43.42436869269251" lon="11.680974183531157"><ele>310.6666666666667</ele><time>2026-03-22T10:48:18.891Z</time></trkpt><trkpt lat="43.424303021952774" lon="11.680965372775477"><ele>309.0</ele><time>2026-03-22T10:48:19.891Z</time></trkpt><trkpt lat="43.424181514414386" lon="11.680938912367617"><ele>309.0</ele><time>2026-03-22T10:48:21.891Z</time></trkpt><trkpt lat="43.424110838197244" lon="11.680922915813886"><ele>309.0</ele><time>2026-03-22T10:48:22.891Z</time></trkpt><trkpt lat="43.4240366449598" lon="11.680913600024644"><ele>309.0</ele><time>2026-03-22T10:48:23.891Z</time></trkpt><trkpt lat="43.42396010567818" lon="11.680906468415326"><ele>309.0</ele><time>2026-03-22T10:48:24.891Z</time></trkpt><trkpt lat="43.423876720781756" lon="11.680908241198939"><ele>309.0</ele><time>2026-03-22T10:48:25.891Z</time></trkpt><trkpt lat="43.42379456076259" lon="11.68091093352071"><ele>309.0</ele><time>2026-03-22T10:48:26.891Z</time></trkpt><trkpt lat="43.42371321868705" lon="11.680909842457647"><ele>307.5</ele><time>2026-03-22T10:48:27.891Z</time></trkpt><trkpt lat="43.42363559087403" lon="11.680898396024222"><ele>306.0</ele><time>2026-03-22T10:48:28.891Z</time></trkpt><trkpt lat="43.42355666277551" lon="11.680875620521958"><ele>304.5</ele><time>2026-03-22T10:48:29.891Z</time></trkpt><trkpt lat="43.42347628243934" lon="11.680855630308741"><ele>303.0</ele><time>2026-03-22T10:48:30.891Z</time></trkpt><trkpt lat="43.42339199336176" lon="11.680831155657174"><ele>301.5</ele><time>2026-03-22T10:48:31.891Z</time></trkpt><trkpt lat="43.42330423577385" lon="11.680816893412096"><ele>300.0</ele><time>2026-03-22T10:48:32.891Z</time></trkpt><trkpt lat="43.42322519723356" lon="11.680794986266314"><ele>300.0</ele><time>2026-03-22T10:48:33.891Z</time></trkpt><trkpt lat="43.42313717661801" lon="11.68077666598973"><ele>300.0</ele><time>2026-03-22T10:48:34.891Z</time></trkpt><trkpt lat="43.42304456700365" lon="11.680750185530819"><ele>300.0</ele><time>2026-03-22T10:48:35.891Z</time></trkpt><trkpt lat="43.422951470373086" lon="11.680723898540892"><ele>300.0</ele><time>2026-03-22T10:48:36.891Z</time></trkpt><trkpt lat="43.42287049641992" lon="11.680681095461752"><ele>300.0</ele><time>2026-03-22T10:48:37.891Z</time></trkpt><trkpt lat="43.422800836979384" lon="11.68061968916944"><ele>300.0</ele><time>2026-03-22T10:48:38.891Z</time></trkpt><trkpt lat="43.42274266183564" lon="11.680540656385233"><ele>299.0</ele><time>2026-03-22T10:48:39.89Z</time></trkpt><trkpt lat="43.422677850992955" lon="11.680447711255663"><ele>298.0</ele><time>2026-03-22T10:48:40.89Z</time></trkpt><trkpt lat="43.42262486366069" lon="11.680362665791387"><ele>297.0</ele><time>2026-03-22T10:48:41.89Z</time></trkpt><trkpt lat="43.42256746021069" lon="11.680278419929175"><ele>296.0</ele><time>2026-03-22T10:48:42.89Z</time></trkpt><trkpt lat="43.422515409099184" lon="11.680197250413451"><ele>295.0</ele><time>2026-03-22T10:48:43.89Z</time></trkpt><trkpt lat="43.42246875940453" lon="11.680119490060845"><ele>294.0</ele><time>2026-03-22T10:48:44.89Z</time></trkpt><trkpt lat="43.42239967655543" lon="11.680034457083654"><ele>294.0</ele><time>2026-03-22T10:48:46.89Z</time></trkpt><trkpt lat="43.422313487681926" lon="11.680040857694063"><ele>294.0</ele><time>2026-03-22T10:48:48.89Z</time></trkpt><trkpt lat="43.42223857235607" lon="11.680060769563202"><ele>294.0</ele><time>2026-03-22T10:48:50.89Z</time></trkpt><trkpt lat="43.422247196700994" lon="11.680268010873245"><ele>294.0</ele><time>2026-03-22T10:49:18.891Z</time></trkpt><trkpt lat="43.42231747320279" lon="11.680391972050565"><ele>294.0</ele><time>2026-03-22T10:49:19.89Z</time></trkpt><trkpt lat="43.42238987831593" lon="11.680509979934154"><ele>293.25</ele><time>2026-03-22T10:49:20.89Z</time></trkpt><trkpt lat="43.422431877873294" lon="11.68064892064558"><ele>292.5</ele><time>2026-03-22T10:49:21.891Z</time></trkpt><trkpt lat="43.42250440447164" lon="11.6807778790793"><ele>291.75</ele><time>2026-03-22T10:49:22.891Z</time></trkpt><trkpt lat="43.422594222420294" lon="11.68093851601144"><ele>291.0</ele><time>2026-03-22T10:49:23.891Z</time></trkpt><trkpt lat="43.42269379876386" lon="11.681117134609329"><ele>291.0</ele><time>2026-03-22T10:49:24.891Z</time></trkpt><trkpt lat="43.42277099395004" lon="11.68126157484657"><ele>291.0</ele><time>2026-03-22T10:49:25.891Z</time></trkpt><trkpt lat="43.42284529183532" lon="11.681413228010934"><ele>291.0</ele><time>2026-03-22T10:49:26.891Z</time></trkpt><trkpt lat="43.422920728744074" lon="11.68156720597771"><ele>291.0</ele><time>2026-03-22T10:49:27.891Z</time></trkpt><trkpt lat="43.42298872914984" lon="11.681704750290855"><ele>291.40000000000003</ele><time>2026-03-22T10:49:28.891Z</time></trkpt><trkpt lat="43.423065638700564" lon="11.681819199304053"><ele>291.8</ele><time>2026-03-22T10:49:29.891Z</time></trkpt><trkpt lat="43.42311554153692" lon="11.681960186296106"><ele>292.20000000000005</ele><time>2026-03-22T10:49:30.891Z</time></trkpt><trkpt lat="43.42317812419522" lon="11.682080759915296"><ele>292.6</ele><time>2026-03-22T10:49:31.89Z</time></trkpt><trkpt lat="43.42323318297665" lon="11.682214156363413"><ele>293.0</ele><time>2026-03-22T10:49:32.89Z</time></trkpt><trkpt lat="43.42326810684114" lon="11.682363859066168"><ele>293.0</ele><time>2026-03-22T10:49:33.89Z</time></trkpt><trkpt lat="43.42331898606443" lon="11.682511943392498"><ele>293.0</ele><time>2026-03-22T10:49:34.89Z</time></trkpt><trkpt lat="43.42336763216535" lon="11.682660642970065"><ele>293.0</ele><time>2026-03-22T10:49:35.89Z</time></trkpt><trkpt lat="43.42341808220552" lon="11.68281479321288"><ele>293.0</ele><time>2026-03-22T10:49:36.89Z</time></trkpt><trkpt lat="43.423467103762995" lon="11.682968731249508"><ele>293.0</ele><time>2026-03-22T10:49:37.89Z</time></trkpt><trkpt lat="43.42351228260614" lon="11.683128532462383"><ele>293.0</ele><time>2026-03-22T10:49:38.89Z</time></trkpt><trkpt lat="43.423529881106674" lon="11.683294298673895"><ele>293.0</ele><time>2026-03-22T10:49:39.89Z</time></trkpt><trkpt lat="43.42354466332651" lon="11.683460396808805"><ele>293.0</ele><time>2026-03-22T10:49:40.89Z</time></trkpt><trkpt lat="43.423547046326064" lon="11.683626537780448"><ele>293.0</ele><time>2026-03-22T10:49:41.89Z</time></trkpt><trkpt lat="43.4235537861548" lon="11.683804551551322"><ele>293.0</ele><time>2026-03-22T10:49:42.89Z</time></trkpt><trkpt lat="43.4235653610534" lon="11.683987775916002"><ele>293.0</ele><time>2026-03-22T10:49:43.89Z</time></trkpt><trkpt lat="43.423591681530084" lon="11.684167426655131"><ele>293.0</ele><time>2026-03-22T10:49:44.89Z</time></trkpt><trkpt lat="43.423620094417345" lon="11.684337981495801"><ele>293.5</ele><time>2026-03-22T10:49:45.89Z</time></trkpt><trkpt lat="43.42366270907251" lon="11.684509032590954"><ele>294.0</ele><time>2026-03-22T10:49:46.889Z</time></trkpt><trkpt lat="43.42370900768679" lon="11.684680664650317"><ele>294.5</ele><time>2026-03-22T10:49:47.889Z</time></trkpt><trkpt lat="43.42376752142821" lon="11.684858907765653"><ele>295.0</ele><time>2026-03-22T10:49:48.889Z</time></trkpt><trkpt lat="43.42381583064301" lon="11.685028117407887"><ele>296.25</ele><time>2026-03-22T10:49:49.889Z</time></trkpt><trkpt lat="43.42387208800755" lon="11.685204721943013"><ele>297.5</ele><time>2026-03-22T10:49:50.889Z</time></trkpt><trkpt lat="43.4239237493859" lon="11.685383911255613"><ele>298.75</ele><time>2026-03-22T10:49:51.889Z</time></trkpt><trkpt lat="43.42397091254827" lon="11.685557773586693"><ele>300.0</ele><time>2026-03-22T10:49:52.889Z</time></trkpt><trkpt lat="43.424017757507094" lon="11.685725069715499"><ele>300.0</ele><time>2026-03-22T10:49:53.889Z</time></trkpt><trkpt lat="43.424061021210534" lon="11.685877960406618"><ele>300.0</ele><time>2026-03-22T10:49:54.889Z</time></trkpt><trkpt lat="43.42410322956627" lon="11.686020411450542"><ele>300.0</ele><time>2026-03-22T10:49:55.889Z</time></trkpt><trkpt lat="43.424149140545815" lon="11.686166861339341"><ele>300.0</ele><time>2026-03-22T10:49:56.889Z</time></trkpt><trkpt lat="43.424190514120944" lon="11.686316620248617"><ele>300.0</ele><time>2026-03-22T10:49:57.889Z</time></trkpt><trkpt lat="43.42423795596867" lon="11.686470081850382"><ele>300.0</ele><time>2026-03-22T10:49:58.889Z</time></trkpt><trkpt lat="43.42429728209659" lon="11.686632745813013"><ele>300.0</ele><time>2026-03-22T10:49:59.889Z</time></trkpt><trkpt lat="43.42432304713642" lon="11.686806776210055"><ele>300.0</ele><time>2026-03-22T10:50:00.889Z</time></trkpt><trkpt lat="43.4243673232369" lon="11.686956513110932"><ele>299.75</ele><time>2026-03-22T10:50:01.889Z</time></trkpt><trkpt lat="43.42440979720777" lon="11.687104891173007"><ele>299.5</ele><time>2026-03-22T10:50:02.889Z</time></trkpt><trkpt lat="43.42445656694592" lon="11.687254092419327"><ele>299.25</ele><time>2026-03-22T10:50:03.889Z</time></trkpt><trkpt lat="43.424503502431975" lon="11.687422972834831"><ele>299.0</ele><time>2026-03-22T10:50:04.889Z</time></trkpt><trkpt lat="43.424540107943464" lon="11.687585795508944"><ele>299.0</ele><time>2026-03-22T10:50:05.889Z</time></trkpt><trkpt lat="43.42455747795949" lon="11.6877376084096"><ele>299.0</ele><time>2026-03-22T10:50:06.889Z</time></trkpt><trkpt lat="43.42456270965733" lon="11.687881091144096"><ele>299.0</ele><time>2026-03-22T10:50:07.889Z</time></trkpt><trkpt lat="43.42455134540049" lon="11.688011835935592"><ele>299.0</ele><time>2026-03-22T10:50:08.889Z</time></trkpt><trkpt lat="43.42453550501316" lon="11.68815656100254"><ele>299.0</ele><time>2026-03-22T10:50:09.889Z</time></trkpt><trkpt lat="43.424503146143714" lon="11.688312445886519"><ele>299.5</ele><time>2026-03-22T10:50:10.889Z</time></trkpt><trkpt lat="43.4244625746301" lon="11.688478711214215"><ele>300.0</ele><time>2026-03-22T10:50:11.888Z</time></trkpt><trkpt lat="43.424416982529124" lon="11.688630242973025"><ele>300.5</ele><time>2026-03-22T10:50:12.888Z</time></trkpt><trkpt lat="43.42437923440565" lon="11.68878259295513"><ele>301.0</ele><time>2026-03-22T10:50:13.888Z</time></trkpt><trkpt lat="43.42435563971359" lon="11.688947186194692"><ele>301.5</ele><time>2026-03-22T10:50:14.888Z</time></trkpt><trkpt lat="43.424355670905165" lon="11.689111335312013"><ele>302.0</ele><time>2026-03-22T10:50:15.888Z</time></trkpt><trkpt lat="43.424361658317096" lon="11.689287423094727"><ele>302.5</ele><time>2026-03-22T10:50:16.888Z</time></trkpt><trkpt lat="43.42438857701738" lon="11.689463467944318"><ele>303.0</ele><time>2026-03-22T10:50:17.888Z</time></trkpt><trkpt lat="43.42443725117301" lon="11.689642337201652"><ele>303.5</ele><time>2026-03-22T10:50:18.888Z</time></trkpt><trkpt lat="43.424504868088" lon="11.689825723868035"><ele>304.0</ele><time>2026-03-22T10:50:19.888Z</time></trkpt><trkpt lat="43.42458339344878" lon="11.690002221190706"><ele>304.5</ele><time>2026-03-22T10:50:20.888Z</time></trkpt><trkpt lat="43.42465332026625" lon="11.690181174360848"><ele>305.0</ele><time>2026-03-22T10:50:21.888Z</time></trkpt><trkpt lat="43.424711265129574" lon="11.690360981036788"><ele>306.0</ele><time>2026-03-22T10:50:22.888Z</time></trkpt><trkpt lat="43.42474461097877" lon="11.690549617261372"><ele>307.0</ele><time>2026-03-22T10:50:23.888Z</time></trkpt><trkpt lat="43.424756267521204" lon="11.690739725097462"><ele>308.0</ele><time>2026-03-22T10:50:24.888Z</time></trkpt><trkpt lat="43.42475313016321" lon="11.690927798095926"><ele>309.0</ele><time>2026-03-22T10:50:25.888Z</time></trkpt><trkpt lat="43.424707643922616" lon="11.691103257818792"><ele>309.75</ele><time>2026-03-22T10:50:26.888Z</time></trkpt><trkpt lat="43.42465853928367" lon="11.691271819383507"><ele>310.5</ele><time>2026-03-22T10:50:27.888Z</time></trkpt><trkpt lat="43.424597192260656" lon="11.691450406263383"><ele>311.25</ele><time>2026-03-22T10:50:28.888Z</time></trkpt><trkpt lat="43.42454965844812" lon="11.691640995010216"><ele>312.0</ele><time>2026-03-22T10:50:29.888Z</time></trkpt><trkpt lat="43.42447138305981" lon="11.691808992722141"><ele>310.6666666666667</ele><time>2026-03-22T10:50:30.888Z</time></trkpt><trkpt lat="43.42441045160245" lon="11.691995112223195"><ele>309.33333333333337</ele><time>2026-03-22T10:50:31.888Z</time></trkpt><trkpt lat="43.424341012511086" lon="11.69218437982754"><ele>308.0</ele><time>2026-03-22T10:50:32.888Z</time></trkpt><trkpt lat="43.42426341147681" lon="11.69237783445095"><ele>308.0</ele><time>2026-03-22T10:50:33.888Z</time></trkpt><trkpt lat="43.424176783561585" lon="11.692562997165696"><ele>308.0</ele><time>2026-03-22T10:50:34.888Z</time></trkpt><trkpt lat="43.42407754570912" lon="11.692736127371319"><ele>308.0</ele><time>2026-03-22T10:50:35.888Z</time></trkpt><trkpt lat="43.42397465162156" lon="11.692902717759484"><ele>307.33333333333337</ele><time>2026-03-22T10:50:36.888Z</time></trkpt><trkpt lat="43.423869387580154" lon="11.69306539520979"><ele>306.6666666666667</ele><time>2026-03-22T10:50:37.887Z</time></trkpt><trkpt lat="43.423765991851354" lon="11.69323232624704"><ele>306.0</ele><time>2026-03-22T10:50:38.887Z</time></trkpt><trkpt lat="43.423664958730285" lon="11.693404607371793"><ele>306.0</ele><time>2026-03-22T10:50:39.887Z</time></trkpt><trkpt lat="43.42355880438331" lon="11.693582561912514"><ele>306.0</ele><time>2026-03-22T10:50:40.887Z</time></trkpt><trkpt lat="43.42348646915204" lon="11.693785508074651"><ele>306.0</ele><time>2026-03-22T10:50:41.887Z</time></trkpt><trkpt lat="43.423433410564854" lon="11.694006041991786"><ele>307.0</ele><time>2026-03-22T10:50:42.887Z</time></trkpt><trkpt lat="43.42338411365305" lon="11.694226190970697"><ele>308.0</ele><time>2026-03-22T10:50:43.887Z</time></trkpt><trkpt lat="43.42333504225845" lon="11.694445332840196"><ele>309.0</ele><time>2026-03-22T10:50:44.887Z</time></trkpt><trkpt lat="43.42328610453719" lon="11.69466395475477"><ele>310.3333333333333</ele><time>2026-03-22T10:50:45.887Z</time></trkpt><trkpt lat="43.42323627560984" lon="11.694882264683594"><ele>311.66666666666663</ele><time>2026-03-22T10:50:46.887Z</time></trkpt><trkpt lat="43.42318579266119" lon="11.695103440315988"><ele>313.0</ele><time>2026-03-22T10:50:47.887Z</time></trkpt><trkpt lat="43.42313538428841" lon="11.695322863032965"><ele>314.66666666666663</ele><time>2026-03-22T10:50:48.887Z</time></trkpt><trkpt lat="43.42308500229001" lon="11.695545038276201"><ele>316.3333333333333</ele><time>2026-03-22T10:50:49.887Z</time></trkpt><trkpt lat="43.42304850732669" lon="11.695754918567413"><ele>318.0</ele><time>2026-03-22T10:50:50.887Z</time></trkpt><trkpt lat="43.42303066140165" lon="11.695970000244108"><ele>318.6666666666667</ele><time>2026-03-22T10:50:51.887Z</time></trkpt><trkpt lat="43.423037274479015" lon="11.696193613191046"><ele>319.33333333333337</ele><time>2026-03-22T10:50:52.887Z</time></trkpt><trkpt lat="43.42306357734867" lon="11.696412995810572"><ele>320.0</ele><time>2026-03-22T10:50:53.887Z</time></trkpt><trkpt lat="43.423095497945546" lon="11.69663574230161"><ele>320.0</ele><time>2026-03-22T10:50:54.887Z</time></trkpt><trkpt lat="43.4231335844013" lon="11.696864629092905"><ele>320.0</ele><time>2026-03-22T10:50:55.887Z</time></trkpt><trkpt lat="43.42317230451988" lon="11.697096892656676"><ele>320.0</ele><time>2026-03-22T10:50:56.887Z</time></trkpt><trkpt lat="43.42321361293188" lon="11.697332566505763"><ele>320.0</ele><time>2026-03-22T10:50:57.887Z</time></trkpt><trkpt lat="43.42324655047262" lon="11.697546026688585"><ele>320.0</ele><time>2026-03-22T10:50:58.887Z</time></trkpt><trkpt lat="43.42326804399984" lon="11.697742736819503"><ele>320.0</ele><time>2026-03-22T10:50:59.887Z</time></trkpt><trkpt lat="43.423281110203156" lon="11.697937643297248"><ele>320.0</ele><time>2026-03-22T10:51:00.887Z</time></trkpt><trkpt lat="43.42328836623302" lon="11.698145529848514"><ele>320.0</ele><time>2026-03-22T10:51:01.887Z</time></trkpt><trkpt lat="43.423291971353635" lon="11.698361232769104"><ele>320.0</ele><time>2026-03-22T10:51:02.886Z</time></trkpt><trkpt lat="43.42329558569057" lon="11.698571667885787"><ele>320.0</ele><time>2026-03-22T10:51:03.886Z</time></trkpt><trkpt lat="43.42329983913312" lon="11.69877083210561"><ele>319.75</ele><time>2026-03-22T10:51:04.886Z</time></trkpt><trkpt lat="43.423304003159814" lon="11.69896580937675"><ele>319.5</ele><time>2026-03-22T10:51:05.886Z</time></trkpt><trkpt lat="43.42330783548268" lon="11.699145254890256"><ele>319.25</ele><time>2026-03-22T10:51:06.886Z</time></trkpt><trkpt lat="43.42331167912826" lon="11.699325491832635"><ele>319.0</ele><time>2026-03-22T10:51:07.886Z</time></trkpt><trkpt lat="43.423313162141646" lon="11.699518505850241"><ele>319.5</ele><time>2026-03-22T10:51:08.886Z</time></trkpt><trkpt lat="43.423309105532624" lon="11.699693512392258"><ele>320.0</ele><time>2026-03-22T10:51:09.886Z</time></trkpt><trkpt lat="43.423302713926695" lon="11.699875329372754"><ele>320.5</ele><time>2026-03-22T10:51:10.886Z</time></trkpt><trkpt lat="43.423287870622" lon="11.70006568651491"><ele>321.0</ele><time>2026-03-22T10:51:11.886Z</time></trkpt><trkpt lat="43.42327723170269" lon="11.700244404626961"><ele>321.25</ele><time>2026-03-22T10:51:12.886Z</time></trkpt><trkpt lat="43.42327016522702" lon="11.700420785693527"><ele>321.5</ele><time>2026-03-22T10:51:13.886Z</time></trkpt><trkpt lat="43.42326090748408" lon="11.700592104395588"><ele>321.75</ele><time>2026-03-22T10:51:14.886Z</time></trkpt><trkpt lat="43.42325515400821" lon="11.700762730188096"><ele>322.0</ele><time>2026-03-22T10:51:15.886Z</time></trkpt><trkpt lat="43.42324906533517" lon="11.700928205576112"><ele>322.75</ele><time>2026-03-22T10:51:16.886Z</time></trkpt><trkpt lat="43.423250064873756" lon="11.701101325449967"><ele>323.5</ele><time>2026-03-22T10:51:17.886Z</time></trkpt><trkpt lat="43.42326021590891" lon="11.70126814243626"><ele>324.25</ele><time>2026-03-22T10:51:18.886Z</time></trkpt><trkpt lat="43.42327286622054" lon="11.701439063121116"><ele>325.0</ele><time>2026-03-22T10:51:19.886Z</time></trkpt><trkpt lat="43.42330553410179" lon="11.701624987992124"><ele>325.0</ele><time>2026-03-22T10:51:20.886Z</time></trkpt><trkpt lat="43.42334819898374" lon="11.701820225723345"><ele>325.0</ele><time>2026-03-22T10:51:21.886Z</time></trkpt><trkpt lat="43.4233933520724" lon="11.70201136604765"><ele>325.0</ele><time>2026-03-22T10:51:22.886Z</time></trkpt><trkpt lat="43.423442163506046" lon="11.702209751291932"><ele>325.0</ele><time>2026-03-22T10:51:23.886Z</time></trkpt><trkpt lat="43.42347608396901" lon="11.702412725152644"><ele>324.75</ele><time>2026-03-22T10:51:24.888Z</time></trkpt><trkpt lat="43.42350956845858" lon="11.70260981069415"><ele>324.5</ele><time>2026-03-22T10:51:25.888Z</time></trkpt><trkpt lat="43.4235297985831" lon="11.702804666863734"><ele>324.25</ele><time>2026-03-22T10:51:26.888Z</time></trkpt><trkpt lat="43.423534316485515" lon="11.702995178325217"><ele>324.0</ele><time>2026-03-22T10:51:27.888Z</time></trkpt><trkpt lat="43.42352356352742" lon="11.703182120130323"><ele>324.5</ele><time>2026-03-22T10:51:28.888Z</time></trkpt><trkpt lat="43.4235097321132" lon="11.703364069282266"><ele>325.0</ele><time>2026-03-22T10:51:29.888Z</time></trkpt><trkpt lat="43.42349059489252" lon="11.703544974336483"><ele>325.5</ele><time>2026-03-22T10:51:30.888Z</time></trkpt><trkpt lat="43.42346791049964" lon="11.703726603716865"><ele>326.0</ele><time>2026-03-22T10:51:31.889Z</time></trkpt><trkpt lat="43.42344491610711" lon="11.703909580033724"><ele>326.25</ele><time>2026-03-22T10:51:32.889Z</time></trkpt><trkpt lat="43.42342559798309" lon="11.704087420563763"><ele>326.5</ele><time>2026-03-22T10:51:33.889Z</time></trkpt><trkpt lat="43.42340605447451" lon="11.704254270333541"><ele>326.75</ele><time>2026-03-22T10:51:34.888Z</time></trkpt><trkpt lat="43.42338681510674" lon="11.70441893024045"><ele>327.0</ele><time>2026-03-22T10:51:35.888Z</time></trkpt><trkpt lat="43.423354013286996" lon="11.704581598702896"><ele>327.75</ele><time>2026-03-22T10:51:36.889Z</time></trkpt><trkpt lat="43.42333260569153" lon="11.704753221811435"><ele>328.5</ele><time>2026-03-22T10:51:37.887Z</time></trkpt><trkpt lat="43.42331111944101" lon="11.704934318878285"><ele>329.25</ele><time>2026-03-22T10:51:38.887Z</time></trkpt><trkpt lat="43.42329047068699" lon="11.70512292532049"><ele>330.0</ele><time>2026-03-22T10:51:39.887Z</time></trkpt><trkpt lat="43.42327231095795" lon="11.70530835816433"><ele>330.25</ele><time>2026-03-22T10:51:40.887Z</time></trkpt><trkpt lat="43.423258628741394" lon="11.705494722170119"><ele>330.5</ele><time>2026-03-22T10:51:41.887Z</time></trkpt><trkpt lat="43.42324620804003" lon="11.705669097291729"><ele>330.75</ele><time>2026-03-22T10:51:42.887Z</time></trkpt><trkpt lat="43.42325000198385" lon="11.70584039449008"><ele>331.0</ele><time>2026-03-22T10:51:43.887Z</time></trkpt><trkpt lat="43.42325570459829" lon="11.70602018385255"><ele>330.5</ele><time>2026-03-22T10:51:44.887Z</time></trkpt><trkpt lat="43.42326127000199" lon="11.706196364839299"><ele>330.0</ele><time>2026-03-22T10:51:45.887Z</time></trkpt><trkpt lat="43.4232648254862" lon="11.706377593593054"><ele>329.5</ele><time>2026-03-22T10:51:46.887Z</time></trkpt><trkpt lat="43.42326003784198" lon="11.706561784405535"><ele>329.0</ele><time>2026-03-22T10:51:47.887Z</time></trkpt><trkpt lat="43.42325502684427" lon="11.706759050952133"><ele>330.5</ele><time>2026-03-22T10:51:48.887Z</time></trkpt><trkpt lat="43.423238160617736" lon="11.706961067251754"><ele>332.0</ele><time>2026-03-22T10:51:49.887Z</time></trkpt><trkpt lat="43.42320508748983" lon="11.707144335899402"><ele>333.5</ele><time>2026-03-22T10:51:50.887Z</time></trkpt><trkpt lat="43.42317337916348" lon="11.707331037058148"><ele>335.0</ele><time>2026-03-22T10:51:51.887Z</time></trkpt><trkpt lat="43.423138285415824" lon="11.707504959420879"><ele>335.0</ele><time>2026-03-22T10:51:52.887Z</time></trkpt><trkpt lat="43.42309347713576" lon="11.70766947555254"><ele>335.0</ele><time>2026-03-22T10:51:53.887Z</time></trkpt><trkpt lat="43.4230617629603" lon="11.707841288891096"><ele>335.0</ele><time>2026-03-22T10:51:54.887Z</time></trkpt><trkpt lat="43.42302913126434" lon="11.708021632756616"><ele>335.0</ele><time>2026-03-22T10:51:55.887Z</time></trkpt><trkpt lat="43.4229936084554" lon="11.708203025408803"><ele>334.75</ele><time>2026-03-22T10:51:56.887Z</time></trkpt><trkpt lat="43.42295854402945" lon="11.708389136604723"><ele>334.5</ele><time>2026-03-22T10:51:57.886Z</time></trkpt><trkpt lat="43.422921869146315" lon="11.708576217664945"><ele>334.25</ele><time>2026-03-22T10:51:58.886Z</time></trkpt><trkpt lat="43.422875804871474" lon="11.708758547903296"><ele>334.0</ele><time>2026-03-22T10:51:59.886Z</time></trkpt><trkpt lat="43.422840337719606" lon="11.708952011696626"><ele>334.0</ele><time>2026-03-22T10:52:00.886Z</time></trkpt><trkpt lat="43.42280602705879" lon="11.709145169497853"><ele>334.0</ele><time>2026-03-22T10:52:01.886Z</time></trkpt><trkpt lat="43.42277701129738" lon="11.709330172001456"><ele>334.0</ele><time>2026-03-22T10:52:02.886Z</time></trkpt><trkpt lat="43.422744364321886" lon="11.709510667560785"><ele>334.0</ele><time>2026-03-22T10:52:03.886Z</time></trkpt><trkpt lat="43.42272107237573" lon="11.709699486093234"><ele>334.75</ele><time>2026-03-22T10:52:04.886Z</time></trkpt><trkpt lat="43.42269841662648" lon="11.709881287172683"><ele>335.5</ele><time>2026-03-22T10:52:05.886Z</time></trkpt><trkpt lat="43.422676313143086" lon="11.710073735932298"><ele>336.25</ele><time>2026-03-22T10:52:06.886Z</time></trkpt><trkpt lat="43.422655737123996" lon="11.710265155535529"><ele>337.0</ele><time>2026-03-22T10:52:07.886Z</time></trkpt><trkpt lat="43.42263778493719" lon="11.710450065347366"><ele>337.75</ele><time>2026-03-22T10:52:08.886Z</time></trkpt><trkpt lat="43.42262199334568" lon="11.710628784795135"><ele>338.5</ele><time>2026-03-22T10:52:09.886Z</time></trkpt><trkpt lat="43.422605982981615" lon="11.710799838443648"><ele>339.25</ele><time>2026-03-22T10:52:10.886Z</time></trkpt><trkpt lat="43.422585151891965" lon="11.710964552845489"><ele>340.0</ele><time>2026-03-22T10:52:11.886Z</time></trkpt><trkpt lat="43.42258223396751" lon="11.711149126838837"><ele>341.0</ele><time>2026-03-22T10:52:12.886Z</time></trkpt><trkpt lat="43.42258326792344" lon="11.711341738551202"><ele>342.0</ele><time>2026-03-22T10:52:13.886Z</time></trkpt><trkpt lat="43.42258820279767" lon="11.711542385616703"><ele>343.0</ele><time>2026-03-22T10:52:14.886Z</time></trkpt><trkpt lat="43.42259551766484" lon="11.711737870136858"><ele>344.0</ele><time>2026-03-22T10:52:15.886Z</time></trkpt><trkpt lat="43.42260215860113" lon="11.711928770082972"><ele>344.0</ele><time>2026-03-22T10:52:16.886Z</time></trkpt><trkpt lat="43.422605034597005" lon="11.7121243500052"><ele>344.0</ele><time>2026-03-22T10:52:17.886Z</time></trkpt><trkpt lat="43.42259482961972" lon="11.712311123187774"><ele>344.0</ele><time>2026-03-22T10:52:18.886Z</time></trkpt><trkpt lat="43.42258801599686" lon="11.71250601549656"><ele>344.0</ele><time>2026-03-22T10:52:19.886Z</time></trkpt><trkpt lat="43.42255988146772" lon="11.712695646892197"><ele>344.25</ele><time>2026-03-22T10:52:20.886Z</time></trkpt><trkpt lat="43.42251136615126" lon="11.712870975865954"><ele>344.5</ele><time>2026-03-22T10:52:21.886Z</time></trkpt><trkpt lat="43.42244961881581" lon="11.713042448526357"><ele>344.75</ele><time>2026-03-22T10:52:22.886Z</time></trkpt><trkpt lat="43.42237653693334" lon="11.713205238785916"><ele>345.0</ele><time>2026-03-22T10:52:23.885Z</time></trkpt><trkpt lat="43.42229360772605" lon="11.713364874139868"><ele>345.0</ele><time>2026-03-22T10:52:24.885Z</time></trkpt><trkpt lat="43.42221251878857" lon="11.713508839198727"><ele>345.0</ele><time>2026-03-22T10:52:25.885Z</time></trkpt><trkpt lat="43.42213022091062" lon="11.713646594160258"><ele>345.0</ele><time>2026-03-22T10:52:26.885Z</time></trkpt><trkpt lat="43.42204303891055" lon="11.713784996739163"><ele>345.0</ele><time>2026-03-22T10:52:27.885Z</time></trkpt><trkpt lat="43.42196358616478" lon="11.713938314639261"><ele>344.75</ele><time>2026-03-22T10:52:28.885Z</time></trkpt><trkpt lat="43.42187924936945" lon="11.714095155579358"><ele>344.5</ele><time>2026-03-22T10:52:29.885Z</time></trkpt><trkpt lat="43.42179884530141" lon="11.714241694403176"><ele>344.25</ele><time>2026-03-22T10:52:30.885Z</time></trkpt><trkpt lat="43.42172863204019" lon="11.714385679396365"><ele>344.0</ele><time>2026-03-22T10:52:31.885Z</time></trkpt><trkpt lat="43.42166204885137" lon="11.714527864917713"><ele>344.0</ele><time>2026-03-22T10:52:32.885Z</time></trkpt><trkpt lat="43.42161935011669" lon="11.714688670128485"><ele>344.0</ele><time>2026-03-22T10:52:33.885Z</time></trkpt><trkpt lat="43.42159792782067" lon="11.71485927168827"><ele>344.0</ele><time>2026-03-22T10:52:34.885Z</time></trkpt><trkpt lat="43.42158880813435" lon="11.71503032562951"><ele>344.0</ele><time>2026-03-22T10:52:35.885Z</time></trkpt><trkpt lat="43.421603982123806" lon="11.715208022217846"><ele>344.0</ele><time>2026-03-22T10:52:36.885Z</time></trkpt><trkpt lat="43.4216331768856" lon="11.715390722905978"><ele>344.0</ele><time>2026-03-22T10:52:37.885Z</time></trkpt><trkpt lat="43.42168588875185" lon="11.715565986537362"><ele>344.0</ele><time>2026-03-22T10:52:38.885Z</time></trkpt><trkpt lat="43.42176010963596" lon="11.71573782486763"><ele>344.0</ele><time>2026-03-22T10:52:39.885Z</time></trkpt><trkpt lat="43.42184141197501" lon="11.715902378816939"><ele>344.25</ele><time>2026-03-22T10:52:40.885Z</time></trkpt><trkpt lat="43.4219303919171" lon="11.716070574466254"><ele>344.5</ele><time>2026-03-22T10:52:41.885Z</time></trkpt><trkpt lat="43.422022028663434" lon="11.716233791793542"><ele>344.75</ele><time>2026-03-22T10:52:42.885Z</time></trkpt><trkpt lat="43.42210782205026" lon="11.7163974638895"><ele>345.0</ele><time>2026-03-22T10:52:43.885Z</time></trkpt><trkpt lat="43.42218758115488" lon="11.716554960734578"><ele>346.0</ele><time>2026-03-22T10:52:44.885Z</time></trkpt><trkpt lat="43.42224578179818" lon="11.71673449523238"><ele>347.0</ele><time>2026-03-22T10:52:45.885Z</time></trkpt><trkpt lat="43.422316484167276" lon="11.716906054554936"><ele>348.0</ele><time>2026-03-22T10:52:46.885Z</time></trkpt><trkpt lat="43.42238656628027" lon="11.717076109243035"><ele>349.0</ele><time>2026-03-22T10:52:47.885Z</time></trkpt><trkpt lat="43.42245028235704" lon="11.71723111906421"><ele>349.0</ele><time>2026-03-22T10:52:48.884Z</time></trkpt><trkpt lat="43.42250896864357" lon="11.717377203963764"><ele>349.0</ele><time>2026-03-22T10:52:49.884Z</time></trkpt><trkpt lat="43.42256528513865" lon="11.717517389677697"><ele>349.0</ele><time>2026-03-22T10:52:50.884Z</time></trkpt><trkpt lat="43.42261490424169" lon="11.717647034057151"><ele>349.0</ele><time>2026-03-22T10:52:51.884Z</time></trkpt><trkpt lat="43.42265193602018" lon="11.717765082558955"><ele>349.0</ele><time>2026-03-22T10:52:52.884Z</time></trkpt><trkpt lat="43.422677087920846" lon="11.717896533731174"><ele>349.3333333333333</ele><time>2026-03-22T10:52:53.884Z</time></trkpt><trkpt lat="43.422688455076255" lon="11.718013336568786"><ele>349.66666666666663</ele><time>2026-03-22T10:52:54.884Z</time></trkpt><trkpt lat="43.42269288790554" lon="11.718121174510062"><ele>350.0</ele><time>2026-03-22T10:52:55.884Z</time></trkpt><trkpt lat="43.42269247601077" lon="11.718208350622467"><ele>350.3333333333333</ele><time>2026-03-22T10:52:56.884Z</time></trkpt><trkpt lat="43.422685854666184" lon="11.718348292260883"><ele>350.6666666666667</ele><time>2026-03-22T10:52:58.884Z</time></trkpt><trkpt lat="43.42267333642167" lon="11.718435127638855"><ele>351.0</ele><time>2026-03-22T10:53:01.884Z</time></trkpt><trkpt lat="43.4228364168751" lon="11.718407821771725"><ele>351.0</ele><time>2026-03-22T10:53:03.884Z</time></trkpt><trkpt lat="43.42292255735803" lon="11.718363616907554"><ele>351.0</ele><time>2026-03-22T10:53:04.884Z</time></trkpt><trkpt lat="43.423016513600594" lon="11.718313404692"><ele>351.0</ele><time>2026-03-22T10:53:05.884Z</time></trkpt><trkpt lat="43.42310457245153" lon="11.718271841030932"><ele>351.0</ele><time>2026-03-22T10:53:06.884Z</time></trkpt><trkpt lat="43.42317777776308" lon="11.718236603025908"><ele>351.0</ele><time>2026-03-22T10:53:07.884Z</time></trkpt><trkpt lat="43.423242109072284" lon="11.718187458778361"><ele>351.0</ele><time>2026-03-22T10:53:11.884Z</time></trkpt><trkpt lat="43.423198457605245" lon="11.717857252955898"><ele>352.0</ele><time>2026-03-22T10:53:12.884Z</time></trkpt><trkpt lat="43.42331022768872" lon="11.717811127961651"><ele>353.0</ele><time>2026-03-22T10:53:15.883Z</time></trkpt><trkpt lat="43.42337299189223" lon="11.717832008331206"><ele>354.0</ele><time>2026-03-22T10:53:16.883Z</time></trkpt><trkpt lat="43.4234672845935" lon="11.717812837863045"><ele>355.0</ele><time>2026-03-22T10:53:18.883Z</time></trkpt><trkpt lat="43.42358937396704" lon="11.71778126819423"><ele>356.0</ele><time>2026-03-22T10:53:20.883Z</time></trkpt><trkpt lat="43.423651602025565" lon="11.7177520142889"><ele>355.4</ele><time>2026-03-22T10:53:21.883Z</time></trkpt><trkpt lat="43.42376034186556" lon="11.717702165232993"><ele>354.8</ele><time>2026-03-22T10:53:23.883Z</time></trkpt><trkpt lat="43.42389386223336" lon="11.717688373048718"><ele>354.2</ele><time>2026-03-22T10:53:25.883Z</time></trkpt><trkpt lat="43.42397706694997" lon="11.717689262994243"><ele>353.59999999999997</ele><time>2026-03-22T10:53:26.883Z</time></trkpt><trkpt lat="43.42408555716053" lon="11.71765400602591"><ele>353.0</ele><time>2026-03-22T10:53:28.883Z</time></trkpt><trkpt lat="43.42415301093269" lon="11.717640364658537"><ele>355.0</ele><time>2026-03-22T10:53:29.883Z</time></trkpt><trkpt lat="43.424221314146344" lon="11.71765963979725"><ele>357.0</ele><time>2026-03-22T10:53:30.885Z</time></trkpt><trkpt lat="43.42430517259878" lon="11.717678806225104"><ele>359.0</ele><time>2026-03-22T10:53:31.886Z</time></trkpt><trkpt lat="43.424418395970065" lon="11.717672289293812"><ele>361.0</ele><time>2026-03-22T10:53:32.886Z</time></trkpt><trkpt lat="43.42455340834334" lon="11.71763799408636"><ele>363.0</ele><time>2026-03-22T10:53:33.886Z</time></trkpt><trkpt lat="43.424673371958654" lon="11.717566004177145"><ele>363.0</ele><time>2026-03-22T10:53:34.886Z</time></trkpt><trkpt lat="43.42473886992846" lon="11.717535832888785"><ele>363.0</ele><time>2026-03-22T10:53:35.886Z</time></trkpt><trkpt lat="43.424762480903404" lon="11.717417031362722"><ele>363.0</ele><time>2026-03-22T10:53:37.885Z</time></trkpt><trkpt lat="43.42471543264857" lon="11.717348915791336"><ele>363.0</ele><time>2026-03-22T10:53:38.885Z</time></trkpt><trkpt lat="43.424644024749355" lon="11.717297505839214"><ele>363.0</ele><time>2026-03-22T10:53:39.886Z</time></trkpt><trkpt lat="43.42456752081247" lon="11.717269360520818"><ele>363.0</ele><time>2026-03-22T10:53:40.885Z</time></trkpt><trkpt lat="43.424519927444486" lon="11.717144125739887"><ele>363.0</ele><time>2026-03-22T10:53:42.886Z</time></trkpt><trkpt lat="43.42464467164781" lon="11.7171066701155"><ele>363.0</ele><time>2026-03-22T10:53:44.886Z</time></trkpt><trkpt lat="43.42471259898283" lon="11.717112273564286"><ele>363.0</ele><time>2026-03-22T10:53:45.886Z</time></trkpt><trkpt lat="43.42481785718249" lon="11.717056894317851"><ele>363.0</ele><time>2026-03-22T10:53:47.886Z</time></trkpt><trkpt lat="43.42485540537666" lon="11.716975830840106"><ele>363.0</ele><time>2026-03-22T10:53:48.886Z</time></trkpt><trkpt lat="43.42490731576428" lon="11.716900180249281"><ele>366.0</ele><time>2026-03-22T10:53:49.886Z</time></trkpt><trkpt lat="43.424965734983694" lon="11.716805401226921"><ele>369.0</ele><time>2026-03-22T10:53:50.886Z</time></trkpt><trkpt lat="43.42503300679226" lon="11.716723442853324"><ele>372.0</ele><time>2026-03-22T10:53:52.886Z</time></trkpt><trkpt lat="43.425090156906386" lon="11.71665199562139"><ele>375.0</ele><time>2026-03-22T10:53:53.886Z</time></trkpt><trkpt lat="43.42516108746119" lon="11.716599393473986"><ele>378.0</ele><time>2026-03-22T10:53:54.885Z</time></trkpt><trkpt lat="43.425240375713344" lon="11.716532933653754"><ele>381.0</ele><time>2026-03-22T10:53:55.885Z</time></trkpt><trkpt lat="43.42532293656426" lon="11.716448366091006"><ele>381.0</ele><time>2026-03-22T10:53:56.885Z</time></trkpt><trkpt lat="43.42538718948048" lon="11.716385200290867"><ele>381.0</ele><time>2026-03-22T10:53:57.885Z</time></trkpt><trkpt lat="43.42550108852136" lon="11.716370332870802"><ele>381.0</ele><time>2026-03-22T10:53:59.885Z</time></trkpt><trkpt lat="43.42556762607851" lon="11.71637406381483"><ele>381.0</ele><time>2026-03-22T10:54:00.885Z</time></trkpt><trkpt lat="43.42563573922404" lon="11.716313518250425"><ele>381.0</ele><time>2026-03-22T10:54:02.885Z</time></trkpt><trkpt lat="43.42562594064864" lon="11.716185477127325"><ele>381.0</ele><time>2026-03-22T10:54:04.885Z</time></trkpt><trkpt lat="43.42567477895784" lon="11.716121673437273"><ele>383.0</ele><time>2026-03-22T10:54:06.885Z</time></trkpt><trkpt lat="43.42574445233704" lon="11.716106904172923"><ele>385.0</ele><time>2026-03-22T10:54:08.885Z</time></trkpt><trkpt lat="43.4257570201048" lon="11.716017761959773"><ele>387.0</ele><time>2026-03-22T10:55:58.882Z</time></trkpt><trkpt lat="43.425873263239644" lon="11.716012443676924"><ele>389.0</ele><time>2026-03-22T10:56:08.882Z</time></trkpt><trkpt lat="43.425954271301975" lon="11.7160063108812"><ele>391.0</ele><time>2026-03-22T10:56:10.882Z</time></trkpt><trkpt lat="43.42602642538861" lon="11.715982172037426"><ele>393.0</ele><time>2026-03-22T10:56:12.882Z</time></trkpt><trkpt lat="43.42610295888944" lon="11.715975300529225"><ele>394.0</ele><time>2026-03-22T10:56:13.882Z</time></trkpt><trkpt lat="43.42619853729841" lon="11.715961041756577"><ele>395.0</ele><time>2026-03-22T10:56:14.882Z</time></trkpt><trkpt lat="43.426277471089804" lon="11.715961729121751"><ele>396.0</ele><time>2026-03-22T10:56:15.882Z</time></trkpt><trkpt lat="43.42637418223575" lon="11.715931142997002"><ele>397.0</ele><time>2026-03-22T10:56:17.882Z</time></trkpt><trkpt lat="43.4264563168818" lon="11.715903817233476"><ele>398.0</ele><time>2026-03-22T10:56:18.882Z</time></trkpt><trkpt lat="43.42653320769416" lon="11.715886531558978"><ele>399.0</ele><time>2026-03-22T10:56:19.881Z</time></trkpt><trkpt lat="43.42665467820155" lon="11.715900075957485"><ele>401.1666666666667</ele><time>2026-03-22T10:56:21.881Z</time></trkpt><trkpt lat="43.42676259833471" lon="11.715892681928528"><ele>403.33333333333337</ele><time>2026-03-22T10:56:23.881Z</time></trkpt><trkpt lat="43.42686475317152" lon="11.715838120017597"><ele>405.5</ele><time>2026-03-22T10:56:25.881Z</time></trkpt><trkpt lat="43.42693137610893" lon="11.715823610350798"><ele>407.6666666666667</ele><time>2026-03-22T10:56:26.881Z</time></trkpt><trkpt lat="43.42699722341306" lon="11.715820914485732"><ele>409.83333333333337</ele><time>2026-03-22T10:56:27.881Z</time></trkpt><trkpt lat="43.42707480894032" lon="11.715828145749477"><ele>412.0</ele><time>2026-03-22T10:56:28.881Z</time></trkpt><trkpt lat="43.427160127434085" lon="11.715829467773306"><ele>415.00000000000006</ele><time>2026-03-22T10:56:29.881Z</time></trkpt><trkpt lat="43.42724260121322" lon="11.715831785444678"><ele>418.0</ele><time>2026-03-22T10:56:30.881Z</time></trkpt><trkpt lat="43.427314769179546" lon="11.715779562929265"><ele>421.0</ele><time>2026-03-22T10:56:33.881Z</time></trkpt><trkpt lat="43.42735841839857" lon="11.715694859930112"><ele>424.0</ele><time>2026-03-22T10:56:35.881Z</time></trkpt><trkpt lat="43.427433788499314" lon="11.715653281695355"><ele>427.00000000000006</ele><time>2026-03-22T10:56:37.881Z</time></trkpt><trkpt lat="43.427524081760524" lon="11.715625453926643"><ele>430.0</ele><time>2026-03-22T10:56:39.881Z</time></trkpt><trkpt lat="43.427612332075704" lon="11.71559102191978"><ele>430.0</ele><time>2026-03-22T10:56:41.881Z</time></trkpt><trkpt lat="43.42772659475685" lon="11.715549887470749"><ele>430.0</ele><time>2026-03-22T10:56:43.881Z</time></trkpt><trkpt lat="43.427845491687904" lon="11.715547158755136"><ele>430.0</ele><time>2026-03-22T10:56:45.88Z</time></trkpt><trkpt lat="43.42793415135139" lon="11.715528322686286"><ele>430.0</ele><time>2026-03-22T10:56:46.88Z</time></trkpt><trkpt lat="43.42804291821622" lon="11.715460028412407"><ele>430.0</ele><time>2026-03-22T10:56:48.88Z</time></trkpt><trkpt lat="43.42810112879694" lon="11.715401172934834"><ele>431.8</ele><time>2026-03-22T10:56:49.88Z</time></trkpt><trkpt lat="43.42817692119469" lon="11.715335740217197"><ele>433.6</ele><time>2026-03-22T10:56:50.88Z</time></trkpt><trkpt lat="43.42825120772194" lon="11.715244010107805"><ele>435.4</ele><time>2026-03-22T10:56:51.88Z</time></trkpt><trkpt lat="43.4283274222159" lon="11.715134295678883"><ele>437.2</ele><time>2026-03-22T10:56:52.88Z</time></trkpt><trkpt lat="43.42840557657787" lon="11.71501284040334"><ele>439.0</ele><time>2026-03-22T10:56:53.88Z</time></trkpt><trkpt lat="43.42849946983296" lon="11.7148951623887"><ele>440.6</ele><time>2026-03-22T10:56:54.88Z</time></trkpt><trkpt lat="43.42858192968748" lon="11.714786036858106"><ele>442.2</ele><time>2026-03-22T10:56:55.88Z</time></trkpt><trkpt lat="43.42864952504437" lon="11.714663808460367"><ele>443.80000000000007</ele><time>2026-03-22T10:56:56.88Z</time></trkpt><trkpt lat="43.42870561147181" lon="11.714569750572343"><ele>445.40000000000003</ele><time>2026-03-22T10:56:57.88Z</time></trkpt><trkpt lat="43.428749033647975" lon="11.714487642491097"><ele>447.0</ele><time>2026-03-22T10:56:58.88Z</time></trkpt><trkpt lat="43.428799997545184" lon="11.71443070124992"><ele>449.0</ele><time>2026-03-22T10:56:59.88Z</time></trkpt><trkpt lat="43.428854113608715" lon="11.714351887944899"><ele>451.0</ele><time>2026-03-22T10:57:00.88Z</time></trkpt><trkpt lat="43.42891398873055" lon="11.714298915089596"><ele>453.0</ele><time>2026-03-22T10:57:01.88Z</time></trkpt><trkpt lat="43.42898652487274" lon="11.714227369407194"><ele>455.0</ele><time>2026-03-22T10:57:02.88Z</time></trkpt><trkpt lat="43.4290636463111" lon="11.714139258107526"><ele>457.0</ele><time>2026-03-22T10:57:03.88Z</time></trkpt><trkpt lat="43.42913413566135" lon="11.714074279480487"><ele>459.0</ele><time>2026-03-22T10:57:04.88Z</time></trkpt><trkpt lat="43.429207926182045" lon="11.714006471895338"><ele>459.0</ele><time>2026-03-22T10:57:05.88Z</time></trkpt><trkpt lat="43.42928022515434" lon="11.713933634368544"><ele>459.0</ele><time>2026-03-22T10:57:06.88Z</time></trkpt><trkpt lat="43.42935224099459" lon="11.713871173462131"><ele>459.0</ele><time>2026-03-22T10:57:07.88Z</time></trkpt><trkpt lat="43.42942751063923" lon="11.713800951673722"><ele>459.0</ele><time>2026-03-22T10:57:08.88Z</time></trkpt><trkpt lat="43.429489338726" lon="11.713761248833213"><ele>459.0</ele><time>2026-03-22T10:57:09.879Z</time></trkpt><trkpt lat="43.42955600239293" lon="11.713724951768764"><ele>459.0</ele><time>2026-03-22T10:57:10.879Z</time></trkpt><trkpt lat="43.42965363618562" lon="11.713666966783629"><ele>457.79999999999995</ele><time>2026-03-22T10:57:12.879Z</time></trkpt><trkpt lat="43.4297432890624" lon="11.713586848581157"><ele>456.59999999999997</ele><time>2026-03-22T10:57:14.879Z</time></trkpt><trkpt lat="43.42980456580243" lon="11.713495298683522"><ele>455.4</ele><time>2026-03-22T10:57:15.879Z</time></trkpt><trkpt lat="43.42986892315843" lon="11.713380047985085"><ele>454.2</ele><time>2026-03-22T10:57:16.879Z</time></trkpt><trkpt lat="43.42992868246383" lon="11.71324661264553"><ele>453.0</ele><time>2026-03-22T10:57:17.879Z</time></trkpt><trkpt lat="43.42998129462204" lon="11.713161117764859"><ele>456.3333333333333</ele><time>2026-03-22T10:57:18.879Z</time></trkpt><trkpt lat="43.43003506020702" lon="11.713112832561723"><ele>459.66666666666663</ele><time>2026-03-22T10:57:19.879Z</time></trkpt><trkpt lat="43.430089792501775" lon="11.713048193965868"><ele>463.0</ele><time>2026-03-22T10:57:20.879Z</time></trkpt><trkpt lat="43.43018353880015" lon="11.712911100520483"><ele>466.3333333333333</ele><time>2026-03-22T10:57:22.879Z</time></trkpt><trkpt lat="43.43022931551314" lon="11.71284456959096"><ele>469.66666666666663</ele><time>2026-03-22T10:57:23.879Z</time></trkpt><trkpt lat="43.43028077229991" lon="11.712774712589004"><ele>473.0</ele><time>2026-03-22T10:57:24.879Z</time></trkpt><trkpt lat="43.430335697194536" lon="11.712705440055752"><ele>473.66666666666663</ele><time>2026-03-22T10:57:25.879Z</time></trkpt><trkpt lat="43.43039132201254" lon="11.712636673828982"><ele>474.3333333333333</ele><time>2026-03-22T10:57:26.879Z</time></trkpt><trkpt lat="43.4304428112549" lon="11.7125527269087"><ele>475.0</ele><time>2026-03-22T10:57:27.879Z</time></trkpt><trkpt lat="43.430513054118414" lon="11.712481500231252"><ele>475.66666666666663</ele><time>2026-03-22T10:57:28.879Z</time></trkpt><trkpt lat="43.4305638939412" lon="11.712391940260122"><ele>476.3333333333333</ele><time>2026-03-22T10:57:29.879Z</time></trkpt><trkpt lat="43.430623678683304" lon="11.71233272509408"><ele>477.0</ele><time>2026-03-22T10:57:30.879Z</time></trkpt><trkpt lat="43.43069605851601" lon="11.712271883427055"><ele>477.0</ele><time>2026-03-22T10:57:32.879Z</time></trkpt><trkpt lat="43.43077919822308" lon="11.712249397493904"><ele>477.0</ele><time>2026-03-22T10:57:34.879Z</time></trkpt><trkpt lat="43.43083344228595" lon="11.712173240166283"><ele>477.0</ele><time>2026-03-22T10:57:36.878Z</time></trkpt><trkpt lat="43.43088866854293" lon="11.71212370575153"><ele>477.0</ele><time>2026-03-22T10:57:39.878Z</time></trkpt><trkpt lat="43.43094449763286" lon="11.712055037007273"><ele>477.0</ele><time>2026-03-22T10:57:44.88Z</time></trkpt><trkpt lat="43.4310460624489" lon="11.71194492105153"><ele>477.0</ele><time>2026-03-22T10:57:46.88Z</time></trkpt><trkpt lat="43.43112064307523" lon="11.711833110806895"><ele>477.0</ele><time>2026-03-22T10:57:47.88Z</time></trkpt><trkpt lat="43.43116948454227" lon="11.711750899861311"><ele>477.00000000000006</ele><time>2026-03-22T10:57:48.88Z</time></trkpt><trkpt lat="43.43122607875685" lon="11.711576577484188"><ele>477.00000000000006</ele><time>2026-03-22T10:57:50.88Z</time></trkpt><trkpt lat="43.43123915590923" lon="11.711460204840254"><ele>477.0</ele><time>2026-03-22T10:57:51.88Z</time></trkpt><trkpt lat="43.43126340892252" lon="11.711375239436274"><ele>477.0</ele><time>2026-03-22T10:57:52.88Z</time></trkpt><trkpt lat="43.431315267224626" lon="11.711278016176902"><ele>477.0</ele><time>2026-03-22T10:57:53.88Z</time></trkpt><trkpt lat="43.43138089574325" lon="11.711161454749343"><ele>477.00000000000006</ele><time>2026-03-22T10:57:54.88Z</time></trkpt><trkpt lat="43.4314504140288" lon="11.711036627786994"><ele>477.00000000000006</ele><time>2026-03-22T10:57:55.88Z</time></trkpt><trkpt lat="43.43151877643496" lon="11.71092351872692"><ele>477.0</ele><time>2026-03-22T10:57:56.88Z</time></trkpt><trkpt lat="43.431587238226136" lon="11.71081372240152"><ele>477.0</ele><time>2026-03-22T10:57:57.88Z</time></trkpt><trkpt lat="43.43165932653068" lon="11.710729421125984"><ele>479.8</ele><time>2026-03-22T10:57:58.88Z</time></trkpt><trkpt lat="43.43174045087224" lon="11.710654651665793"><ele>482.6</ele><time>2026-03-22T10:57:59.88Z</time></trkpt><trkpt lat="43.43180314973123" lon="11.710589532650038"><ele>485.40000000000003</ele><time>2026-03-22T10:58:00.88Z</time></trkpt><trkpt lat="43.43186095271711" lon="11.71052943549603"><ele>488.20000000000005</ele><time>2026-03-22T10:58:01.88Z</time></trkpt><trkpt lat="43.431972395281115" lon="11.710502240341105"><ele>491.0</ele><time>2026-03-22T10:58:03.88Z</time></trkpt><trkpt lat="43.432083364663704" lon="11.710464872417543"><ele>491.16666666666663</ele><time>2026-03-22T10:58:05.88Z</time></trkpt><trkpt lat="43.43214609502469" lon="11.710438651454634"><ele>491.3333333333333</ele><time>2026-03-22T10:58:06.88Z</time></trkpt><trkpt lat="43.43226821063363" lon="11.71039573290718"><ele>491.5</ele><time>2026-03-22T10:58:08.88Z</time></trkpt><trkpt lat="43.43232895253307" lon="11.710362962057921"><ele>491.66666666666663</ele><time>2026-03-22T10:58:09.88Z</time></trkpt><trkpt lat="43.432395822939874" lon="11.710327193796346"><ele>491.8333333333333</ele><time>2026-03-22T10:58:11.88Z</time></trkpt><trkpt lat="43.432468919602165" lon="11.710388969414579"><ele>492.0</ele><time>2026-03-22T10:58:14.88Z</time></trkpt><trkpt lat="43.43257722257323" lon="11.710427237582797"><ele>492.0</ele><time>2026-03-22T10:58:16.88Z</time></trkpt><trkpt lat="43.43265801870865" lon="11.71041161182529"><ele>492.00000000000006</ele><time>2026-03-22T10:58:17.88Z</time></trkpt><trkpt lat="43.43275231720816" lon="11.710387902727744"><ele>492.00000000000006</ele><time>2026-03-22T10:58:18.879Z</time></trkpt><trkpt lat="43.43285074984436" lon="11.710368311525933"><ele>492.0</ele><time>2026-03-22T10:58:19.879Z</time></trkpt><trkpt lat="43.432947513655215" lon="11.710344858536788"><ele>492.0</ele><time>2026-03-22T10:58:20.879Z</time></trkpt><trkpt lat="43.433043715286864" lon="11.710319611673658"><ele>491.8</ele><time>2026-03-22T10:58:21.879Z</time></trkpt><trkpt lat="43.433139007279465" lon="11.710288649952124"><ele>491.6</ele><time>2026-03-22T10:58:22.879Z</time></trkpt><trkpt lat="43.43323766853438" lon="11.710252940759345"><ele>491.40000000000003</ele><time>2026-03-22T10:58:23.879Z</time></trkpt><trkpt lat="43.43333347157291" lon="11.710238439763003"><ele>491.20000000000005</ele><time>2026-03-22T10:58:24.879Z</time></trkpt><trkpt lat="43.43343208265045" lon="11.710200196912512"><ele>491.0</ele><time>2026-03-22T10:58:25.879Z</time></trkpt><trkpt lat="43.43352787843289" lon="11.71016581182607"><ele>493.16666666666663</ele><time>2026-03-22T10:58:26.879Z</time></trkpt><trkpt lat="43.43360918027658" lon="11.710130811245628"><ele>495.3333333333333</ele><time>2026-03-22T10:58:27.879Z</time></trkpt><trkpt lat="43.43368333474356" lon="11.710081829480362"><ele>497.5</ele><time>2026-03-22T10:58:28.879Z</time></trkpt><trkpt lat="43.43375229671047" lon="11.71003172891282"><ele>499.66666666666663</ele><time>2026-03-22T10:58:29.879Z</time></trkpt><trkpt lat="43.43384270533439" lon="11.7099838974808"><ele>501.8333333333333</ele><time>2026-03-22T10:58:30.879Z</time></trkpt><trkpt lat="43.43392963796053" lon="11.709941024003772"><ele>504.0</ele><time>2026-03-22T10:58:31.879Z</time></trkpt><trkpt lat="43.43401438809684" lon="11.709915661565597"><ele>504.8333333333333</ele><time>2026-03-22T10:58:32.879Z</time></trkpt><trkpt lat="43.43409024192335" lon="11.709888025868436"><ele>505.66666666666663</ele><time>2026-03-22T10:58:33.879Z</time></trkpt><trkpt lat="43.434176819003916" lon="11.709866429054172"><ele>506.5</ele><time>2026-03-22T10:58:34.879Z</time></trkpt><trkpt lat="43.43426551058624" lon="11.709816399027378"><ele>507.3333333333333</ele><time>2026-03-22T10:58:35.879Z</time></trkpt><trkpt lat="43.434347456846126" lon="11.70978148969814"><ele>508.16666666666663</ele><time>2026-03-22T10:58:36.879Z</time></trkpt><trkpt lat="43.43443088143509" lon="11.709754888854155"><ele>509.0</ele><time>2026-03-22T10:58:37.879Z</time></trkpt><trkpt lat="43.434527665939726" lon="11.709691904848583"><ele>509.0</ele><time>2026-03-22T10:58:38.879Z</time></trkpt><trkpt lat="43.43461102195743" lon="11.7096456432262"><ele>509.0</ele><time>2026-03-22T10:58:39.879Z</time></trkpt><trkpt lat="43.434701048623545" lon="11.709605530120959"><ele>509.0</ele><time>2026-03-22T10:58:40.879Z</time></trkpt><trkpt lat="43.43480248502018" lon="11.709577863022302"><ele>509.0</ele><time>2026-03-22T10:58:41.879Z</time></trkpt><trkpt lat="43.43490137369146" lon="11.709573737876175"><ele>509.0</ele><time>2026-03-22T10:58:42.879Z</time></trkpt><trkpt lat="43.43499501818806" lon="11.709563421455522"><ele>509.3333333333333</ele><time>2026-03-22T10:58:43.879Z</time></trkpt><trkpt lat="43.43508772561982" lon="11.709559206158842"><ele>509.66666666666663</ele><time>2026-03-22T10:58:44.878Z</time></trkpt><trkpt lat="43.435171222665275" lon="11.709556690377896"><ele>510.0</ele><time>2026-03-22T10:58:45.878Z</time></trkpt><trkpt lat="43.435260805446276" lon="11.709545092062971"><ele>510.33333333333337</ele><time>2026-03-22T10:58:46.878Z</time></trkpt><trkpt lat="43.43534905962469" lon="11.709529783573723"><ele>510.6666666666667</ele><time>2026-03-22T10:58:47.878Z</time></trkpt><trkpt lat="43.43543793662592" lon="11.709521270380417"><ele>511.0</ele><time>2026-03-22T10:58:48.878Z</time></trkpt><trkpt lat="43.4355188245753" lon="11.709486599342874"><ele>513.2</ele><time>2026-03-22T10:58:49.878Z</time></trkpt><trkpt lat="43.4355941141028" lon="11.709448487366659"><ele>515.4000000000001</ele><time>2026-03-22T10:58:50.878Z</time></trkpt><trkpt lat="43.43569746550834" lon="11.70942021143815"><ele>517.6</ele><time>2026-03-22T10:58:52.878Z</time></trkpt><trkpt lat="43.43582954251123" lon="11.7094442787008"><ele>519.8000000000001</ele><time>2026-03-22T10:58:54.878Z</time></trkpt><trkpt lat="43.43590633312113" lon="11.709502558539286"><ele>522.0</ele><time>2026-03-22T10:58:55.878Z</time></trkpt><trkpt lat="43.43599084627489" lon="11.709595895516708"><ele>522.0</ele><time>2026-03-22T10:58:56.878Z</time></trkpt><trkpt lat="43.43607424377075" lon="11.709669133495813"><ele>522.0</ele><time>2026-03-22T10:58:57.878Z</time></trkpt><trkpt lat="43.43614716829058" lon="11.709738198311278"><ele>522.0</ele><time>2026-03-22T10:58:58.878Z</time></trkpt><trkpt lat="43.43622366630252" lon="11.709805734636634"><ele>522.0</ele><time>2026-03-22T10:58:59.878Z</time></trkpt><trkpt lat="43.43630131213143" lon="11.709878757675172"><ele>522.0</ele><time>2026-03-22T10:59:00.878Z</time></trkpt><trkpt lat="43.43638436905628" lon="11.709950951713362"><ele>526.6</ele><time>2026-03-22T10:59:01.878Z</time></trkpt><trkpt lat="43.43647251479351" lon="11.71001359678026"><ele>531.2</ele><time>2026-03-22T10:59:02.878Z</time></trkpt><trkpt lat="43.43656917242921" lon="11.7100754975271"><ele>535.8</ele><time>2026-03-22T10:59:03.878Z</time></trkpt><trkpt lat="43.4366571009103" lon="11.710135075442704"><ele>540.4</ele><time>2026-03-22T10:59:04.878Z</time></trkpt><trkpt lat="43.436736394215465" lon="11.710183426874401"><ele>545.0</ele><time>2026-03-22T10:59:05.878Z</time></trkpt><trkpt lat="43.43682299733213" lon="11.71022609666706"><ele>542.6</ele><time>2026-03-22T10:59:06.878Z</time></trkpt><trkpt lat="43.43690201150719" lon="11.710270024641817"><ele>540.2</ele><time>2026-03-22T10:59:07.878Z</time></trkpt><trkpt lat="43.43698618695637" lon="11.71031088483969"><ele>537.8</ele><time>2026-03-22T10:59:08.878Z</time></trkpt><trkpt lat="43.43704895598602" lon="11.710362077470286"><ele>535.4</ele><time>2026-03-22T10:59:09.877Z</time></trkpt><trkpt lat="43.43711494124339" lon="11.710519454453957"><ele>533.0</ele><time>2026-03-22T10:59:11.877Z</time></trkpt><trkpt lat="43.43714438432753" lon="11.710641479987437"><ele>537.1999999999999</ele><time>2026-03-22T10:59:12.877Z</time></trkpt><trkpt lat="43.43716132172501" lon="11.710781065925536"><ele>541.4</ele><time>2026-03-22T10:59:13.877Z</time></trkpt><trkpt lat="43.43717430139955" lon="11.710929304263903"><ele>545.5999999999999</ele><time>2026-03-22T10:59:14.877Z</time></trkpt><trkpt lat="43.437207493379724" lon="11.711061519368895"><ele>549.8</ele><time>2026-03-22T10:59:15.877Z</time></trkpt><trkpt lat="43.4372476108406" lon="11.711187654705103"><ele>554.0</ele><time>2026-03-22T10:59:16.877Z</time></trkpt><trkpt lat="43.43729963415273" lon="11.711330431782558"><ele>554.0</ele><time>2026-03-22T10:59:17.877Z</time></trkpt><trkpt lat="43.43735016008378" lon="11.711465427785752"><ele>554.0</ele><time>2026-03-22T10:59:18.877Z</time></trkpt><trkpt lat="43.437384983415456" lon="11.711607303764824"><ele>554.0</ele><time>2026-03-22T10:59:19.877Z</time></trkpt><trkpt lat="43.437390474172645" lon="11.711751117340548"><ele>554.0</ele><time>2026-03-22T10:59:20.877Z</time></trkpt><trkpt lat="43.43737928446805" lon="11.711891306617158"><ele>554.0</ele><time>2026-03-22T10:59:21.877Z</time></trkpt><trkpt lat="43.437364310988016" lon="11.71201716613362"><ele>552.8</ele><time>2026-03-22T10:59:22.877Z</time></trkpt><trkpt lat="43.43735444012679" lon="11.712151070153755"><ele>551.5999999999999</ele><time>2026-03-22T10:59:23.877Z</time></trkpt><trkpt lat="43.43736341432269" lon="11.712288312984231"><ele>550.4</ele><time>2026-03-22T10:59:24.877Z</time></trkpt><trkpt lat="43.43738550205544" lon="11.712402819703408"><ele>549.1999999999999</ele><time>2026-03-22T10:59:25.877Z</time></trkpt><trkpt lat="43.43743874549593" lon="11.71250373375916"><ele>548.0</ele><time>2026-03-22T10:59:26.877Z</time></trkpt><trkpt lat="43.437503177380975" lon="11.712590109428188"><ele>548.0</ele><time>2026-03-22T10:59:27.877Z</time></trkpt><trkpt lat="43.43757721855191" lon="11.712665482714476"><ele>548.0</ele><time>2026-03-22T10:59:28.877Z</time></trkpt><trkpt lat="43.437674359688216" lon="11.712760392424455"><ele>548.0</ele><time>2026-03-22T10:59:29.877Z</time></trkpt><trkpt lat="43.437784252937256" lon="11.712842575757762"><ele>548.0</ele><time>2026-03-22T10:59:30.877Z</time></trkpt><trkpt lat="43.43789482147142" lon="11.71293267788036"><ele>548.4</ele><time>2026-03-22T10:59:31.877Z</time></trkpt><trkpt lat="43.43799352244903" lon="11.713008265087058"><ele>548.8</ele><time>2026-03-22T10:59:32.877Z</time></trkpt><trkpt lat="43.43808161593792" lon="11.713082895649311"><ele>549.2</ele><time>2026-03-22T10:59:33.877Z</time></trkpt><trkpt lat="43.438182792990446" lon="11.71310320624869"><ele>549.6</ele><time>2026-03-22T10:59:34.876Z</time></trkpt><trkpt lat="43.438290857793696" lon="11.713108368810559"><ele>550.0</ele><time>2026-03-22T10:59:35.876Z</time></trkpt><trkpt lat="43.43840081933422" lon="11.713128378112696"><ele>550.0</ele><time>2026-03-22T10:59:36.876Z</time></trkpt><trkpt lat="43.43847986204834" lon="11.713175924943272"><ele>550.0</ele><time>2026-03-22T10:59:37.876Z</time></trkpt><trkpt lat="43.43855334056925" lon="11.713257713276553"><ele>550.0</ele><time>2026-03-22T10:59:38.876Z</time></trkpt><trkpt lat="43.438625121326574" lon="11.71342185039268"><ele>550.0</ele><time>2026-03-22T10:59:39.876Z</time></trkpt><trkpt lat="43.43870555494351" lon="11.713565446517457"><ele>551.2</ele><time>2026-03-22T10:59:40.876Z</time></trkpt><trkpt lat="43.438755772575945" lon="11.713715681202158"><ele>552.4</ele><time>2026-03-22T10:59:41.876Z</time></trkpt><trkpt lat="43.43879369359539" lon="11.713842418651518"><ele>553.6</ele><time>2026-03-22T10:59:42.876Z</time></trkpt><trkpt lat="43.438822996440074" lon="11.713952290654591"><ele>554.8</ele><time>2026-03-22T10:59:43.876Z</time></trkpt><trkpt lat="43.438890649095214" lon="11.714040224890578"><ele>556.0</ele><time>2026-03-22T10:59:44.876Z</time></trkpt><trkpt lat="43.43896354708666" lon="11.714096044338675"><ele>556.0</ele><time>2026-03-22T10:59:45.876Z</time></trkpt><trkpt lat="43.439055763154215" lon="11.714130139321501"><ele>556.0</ele><time>2026-03-22T10:59:46.876Z</time></trkpt><trkpt lat="43.43916740926412" lon="11.714140220341413"><ele>556.0</ele><time>2026-03-22T10:59:47.876Z</time></trkpt><trkpt lat="43.439266012066994" lon="11.714166408679661"><ele>556.0</ele><time>2026-03-22T10:59:48.878Z</time></trkpt><trkpt lat="43.43936209391548" lon="11.714207831835258"><ele>556.0</ele><time>2026-03-22T10:59:49.877Z</time></trkpt><trkpt lat="43.439454086496745" lon="11.7142668792052"><ele>556.0</ele><time>2026-03-22T10:59:50.877Z</time></trkpt><trkpt lat="43.43953261358666" lon="11.714318412910051"><ele>556.0</ele><time>2026-03-22T10:59:51.878Z</time></trkpt><trkpt lat="43.43963219740636" lon="11.714329285047263"><ele>556.0</ele><time>2026-03-22T10:59:52.877Z</time></trkpt><trkpt lat="43.4397289805736" lon="11.71431925054904"><ele>556.0</ele><time>2026-03-22T10:59:53.877Z</time></trkpt><trkpt lat="43.43983083219569" lon="11.714325479562925"><ele>556.0</ele><time>2026-03-22T10:59:54.878Z</time></trkpt><trkpt lat="43.439933949071204" lon="11.714374546390655"><ele>553.75</ele><time>2026-03-22T10:59:55.877Z</time></trkpt><trkpt lat="43.440049199221875" lon="11.714466082604368"><ele>551.5</ele><time>2026-03-22T10:59:56.877Z</time></trkpt><trkpt lat="43.44014796223339" lon="11.714540732546574"><ele>549.25</ele><time>2026-03-22T10:59:57.878Z</time></trkpt><trkpt lat="43.440253052433626" lon="11.71460973482863"><ele>547.0</ele><time>2026-03-22T10:59:58.877Z</time></trkpt><trkpt lat="43.44034349107693" lon="11.714664673216085"><ele>547.0</ele><time>2026-03-22T10:59:59.877Z</time></trkpt><trkpt lat="43.44040573907076" lon="11.714766730492721"><ele>547.0</ele><time>2026-03-22T11:00:00.877Z</time></trkpt><trkpt lat="43.440465265103256" lon="11.714933389864903"><ele>547.0</ele><time>2026-03-22T11:00:01.877Z</time></trkpt><trkpt lat="43.44052550532403" lon="11.715090217663597"><ele>547.0</ele><time>2026-03-22T11:00:02.877Z</time></trkpt><trkpt lat="43.440600117083875" lon="11.715231834998097"><ele>548.75</ele><time>2026-03-22T11:00:03.877Z</time></trkpt><trkpt lat="43.44068698087491" lon="11.71539519948254"><ele>550.5</ele><time>2026-03-22T11:00:04.877Z</time></trkpt><trkpt lat="43.440768326138205" lon="11.71553299115523"><ele>552.25</ele><time>2026-03-22T11:00:05.877Z</time></trkpt><trkpt lat="43.44083390851417" lon="11.715671558542844"><ele>554.0</ele><time>2026-03-22T11:00:06.877Z</time></trkpt><trkpt lat="43.440875075485565" lon="11.715816738121465"><ele>554.0</ele><time>2026-03-22T11:00:07.877Z</time></trkpt><trkpt lat="43.440890096096425" lon="11.715943508184239"><ele>554.0</ele><time>2026-03-22T11:00:08.877Z</time></trkpt><trkpt lat="43.440891695666444" lon="11.716070697973917"><ele>554.0</ele><time>2026-03-22T11:00:09.877Z</time></trkpt><trkpt lat="43.44090296860822" lon="11.71620312919815"><ele>554.0</ele><time>2026-03-22T11:00:10.877Z</time></trkpt><trkpt lat="43.440910674064334" lon="11.716346551043882"><ele>554.0</ele><time>2026-03-22T11:00:11.877Z</time></trkpt><trkpt lat="43.44091383478434" lon="11.71649242231363"><ele>554.0</ele><time>2026-03-22T11:00:12.877Z</time></trkpt><trkpt lat="43.440899870783305" lon="11.716653729817262"><ele>554.0</ele><time>2026-03-22T11:00:13.877Z</time></trkpt><trkpt lat="43.440870909368805" lon="11.71681388797721"><ele>554.0</ele><time>2026-03-22T11:00:14.877Z</time></trkpt><trkpt lat="43.44082122159693" lon="11.71697905921816"><ele>554.0</ele><time>2026-03-22T11:00:15.877Z</time></trkpt><trkpt lat="43.44076461817435" lon="11.717153420537572"><ele>553.75</ele><time>2026-03-22T11:00:16.877Z</time></trkpt><trkpt lat="43.44069907265818" lon="11.717329642010153"><ele>553.5</ele><time>2026-03-22T11:00:17.877Z</time></trkpt><trkpt lat="43.440643784928085" lon="11.717506439350819"><ele>553.25</ele><time>2026-03-22T11:00:18.877Z</time></trkpt><trkpt lat="43.44058559063155" lon="11.717682469785416"><ele>553.0</ele><time>2026-03-22T11:00:19.877Z</time></trkpt><trkpt lat="43.44052804616297" lon="11.71786740149134"><ele>553.0</ele><time>2026-03-22T11:00:20.877Z</time></trkpt><trkpt lat="43.440473244835324" lon="11.718027617484507"><ele>553.0</ele><time>2026-03-22T11:00:21.877Z</time></trkpt><trkpt lat="43.44043151042378" lon="11.71817247820302"><ele>553.0</ele><time>2026-03-22T11:00:22.877Z</time></trkpt><trkpt lat="43.440394563595405" lon="11.718302956089463"><ele>553.0</ele><time>2026-03-22T11:00:23.877Z</time></trkpt><trkpt lat="43.4403728310623" lon="11.718436968457128"><ele>553.0</ele><time>2026-03-22T11:00:24.877Z</time></trkpt><trkpt lat="43.44036502811882" lon="11.718556175345256"><ele>552.4</ele><time>2026-03-22T11:00:25.877Z</time></trkpt><trkpt lat="43.44037906989832" lon="11.718705094847467"><ele>551.8</ele><time>2026-03-22T11:00:26.876Z</time></trkpt><trkpt lat="43.44039148258856" lon="11.71885884767009"><ele>551.2</ele><time>2026-03-22T11:00:27.876Z</time></trkpt><trkpt lat="43.44039778385121" lon="11.71901217030689"><ele>550.6</ele><time>2026-03-22T11:00:28.876Z</time></trkpt><trkpt lat="43.44039055194662" lon="11.719160125979002"><ele>550.0</ele><time>2026-03-22T11:00:29.876Z</time></trkpt><trkpt lat="43.440388141065476" lon="11.719308606048132"><ele>549.25</ele><time>2026-03-22T11:00:30.876Z</time></trkpt><trkpt lat="43.44040077869571" lon="11.71945661402473"><ele>548.5</ele><time>2026-03-22T11:00:31.876Z</time></trkpt><trkpt lat="43.44041464881879" lon="11.719621187284183"><ele>547.75</ele><time>2026-03-22T11:00:32.876Z</time></trkpt><trkpt lat="43.4404334140937" lon="11.719780144068787"><ele>547.0</ele><time>2026-03-22T11:00:33.876Z</time></trkpt><trkpt lat="43.440449123195506" lon="11.719943522082174"><ele>547.0</ele><time>2026-03-22T11:00:34.876Z</time></trkpt><trkpt lat="43.440460126200385" lon="11.720101467913745"><ele>547.0</ele><time>2026-03-22T11:00:35.876Z</time></trkpt><trkpt lat="43.44046938955641" lon="11.720261438391189"><ele>547.0</ele><time>2026-03-22T11:00:36.876Z</time></trkpt><trkpt lat="43.44045984982558" lon="11.72041156721685"><ele>547.0</ele><time>2026-03-22T11:00:37.876Z</time></trkpt><trkpt lat="43.44045251932239" lon="11.720565748109866"><ele>547.0</ele><time>2026-03-22T11:00:38.876Z</time></trkpt><trkpt lat="43.440428549910294" lon="11.720729571852408"><ele>547.0</ele><time>2026-03-22T11:00:39.876Z</time></trkpt><trkpt lat="43.440396607131994" lon="11.720876429132106"><ele>547.0</ele><time>2026-03-22T11:00:40.876Z</time></trkpt><trkpt lat="43.44036583074417" lon="11.721027679442312"><ele>547.0</ele><time>2026-03-22T11:00:41.876Z</time></trkpt><trkpt lat="43.440329443683765" lon="11.72118048965742"><ele>547.0</ele><time>2026-03-22T11:00:42.876Z</time></trkpt><trkpt lat="43.440287406919865" lon="11.721332835217622"><ele>547.0</ele><time>2026-03-22T11:00:43.876Z</time></trkpt><trkpt lat="43.44022963190164" lon="11.721478014655647"><ele>547.0</ele><time>2026-03-22T11:00:44.876Z</time></trkpt><trkpt lat="43.4401704975779" lon="11.721620768508572"><ele>547.0</ele><time>2026-03-22T11:00:45.876Z</time></trkpt><trkpt lat="43.44011046374419" lon="11.721760239032514"><ele>547.0</ele><time>2026-03-22T11:00:46.876Z</time></trkpt><trkpt lat="43.440049874376456" lon="11.721894225917088"><ele>547.0</ele><time>2026-03-22T11:00:47.876Z</time></trkpt><trkpt lat="43.43999851156771" lon="11.722021878797012"><ele>547.0</ele><time>2026-03-22T11:00:48.876Z</time></trkpt><trkpt lat="43.43996130534848" lon="11.722151004146589"><ele>547.0</ele><time>2026-03-22T11:00:49.876Z</time></trkpt><trkpt lat="43.439936031161714" lon="11.722276756496264"><ele>547.0</ele><time>2026-03-22T11:00:50.876Z</time></trkpt><trkpt lat="43.439914894702966" lon="11.722404889724402"><ele>546.8000000000001</ele><time>2026-03-22T11:00:51.875Z</time></trkpt><trkpt lat="43.439889504199776" lon="11.722540638601748"><ele>546.6</ele><time>2026-03-22T11:00:52.875Z</time></trkpt><trkpt lat="43.43984762066498" lon="11.72267182282088"><ele>546.4000000000001</ele><time>2026-03-22T11:00:53.875Z</time></trkpt><trkpt lat="43.439781148848226" lon="11.722803654274827"><ele>546.2</ele><time>2026-03-22T11:00:54.875Z</time></trkpt><trkpt lat="43.439710926404246" lon="11.72292995811822"><ele>546.0</ele><time>2026-03-22T11:00:55.875Z</time></trkpt><trkpt lat="43.43964240085294" lon="11.723055048517757"><ele>544.0</ele><time>2026-03-22T11:00:56.875Z</time></trkpt><trkpt lat="43.4395741644946" lon="11.723185128342404"><ele>542.0</ele><time>2026-03-22T11:00:57.875Z</time></trkpt><trkpt lat="43.43950574368526" lon="11.72331547544585"><ele>540.0</ele><time>2026-03-22T11:00:58.875Z</time></trkpt><trkpt lat="43.43943304429446" lon="11.723445750701314"><ele>538.0</ele><time>2026-03-22T11:00:59.875Z</time></trkpt><trkpt lat="43.43935500199686" lon="11.723543432691763"><ele>537.1999999999999</ele><time>2026-03-22T11:01:00.875Z</time></trkpt><trkpt lat="43.43926034470876" lon="11.723610054827727"><ele>536.4</ele><time>2026-03-22T11:01:01.875Z</time></trkpt><trkpt lat="43.4391753947193" lon="11.723699862829045"><ele>535.5999999999999</ele><time>2026-03-22T11:01:02.875Z</time></trkpt><trkpt lat="43.43909112524694" lon="11.723788079269287"><ele>534.8</ele><time>2026-03-22T11:01:03.875Z</time></trkpt><trkpt lat="43.43901927036422" lon="11.723891584193458"><ele>534.0</ele><time>2026-03-22T11:01:04.875Z</time></trkpt><trkpt lat="43.43894192959619" lon="11.724010979587094"><ele>534.0</ele><time>2026-03-22T11:01:05.875Z</time></trkpt><trkpt lat="43.43886699470997" lon="11.724129472914695"><ele>534.0</ele><time>2026-03-22T11:01:06.875Z</time></trkpt><trkpt lat="43.43878949855185" lon="11.724240066403905"><ele>534.0</ele><time>2026-03-22T11:01:07.875Z</time></trkpt><trkpt lat="43.43870904523846" lon="11.72435106871936"><ele>534.0</ele><time>2026-03-22T11:01:08.875Z</time></trkpt><trkpt lat="43.438628873842376" lon="11.724479516697073"><ele>533.75</ele><time>2026-03-22T11:01:09.875Z</time></trkpt><trkpt lat="43.43854713177526" lon="11.724589325019377"><ele>533.5</ele><time>2026-03-22T11:01:10.875Z</time></trkpt><trkpt lat="43.4384878535085" lon="11.724701397668053"><ele>533.25</ele><time>2026-03-22T11:01:11.875Z</time></trkpt><trkpt lat="43.43843032558487" lon="11.724832544962805"><ele>533.0</ele><time>2026-03-22T11:01:12.875Z</time></trkpt><trkpt lat="43.438399027373094" lon="11.724997882833154"><ele>533.0</ele><time>2026-03-22T11:01:13.875Z</time></trkpt><trkpt lat="43.43837615308821" lon="11.725148520896115"><ele>533.0</ele><time>2026-03-22T11:01:14.875Z</time></trkpt><trkpt lat="43.43838386785053" lon="11.725304221552095"><ele>533.0</ele><time>2026-03-22T11:01:15.875Z</time></trkpt><trkpt lat="43.43837533553461" lon="11.725456608354412"><ele>533.0</ele><time>2026-03-22T11:01:16.874Z</time></trkpt><trkpt lat="43.43834768390469" lon="11.725575547996618"><ele>533.0</ele><time>2026-03-22T11:01:17.874Z</time></trkpt><trkpt lat="43.438303406750066" lon="11.725666107772355"><ele>532.1999999999999</ele><time>2026-03-22T11:01:18.874Z</time></trkpt><trkpt lat="43.43824595473291" lon="11.72573202054192"><ele>531.4</ele><time>2026-03-22T11:01:19.874Z</time></trkpt><trkpt lat="43.438159699613614" lon="11.725780528063837"><ele>530.5999999999999</ele><time>2026-03-22T11:01:20.874Z</time></trkpt><trkpt lat="43.43808882551186" lon="11.72586306227669"><ele>529.8</ele><time>2026-03-22T11:01:21.874Z</time></trkpt><trkpt lat="43.43802816733332" lon="11.725966890823068"><ele>529.0</ele><time>2026-03-22T11:01:22.874Z</time></trkpt><trkpt lat="43.437963277913" lon="11.726086301893634"><ele>528.2</ele><time>2026-03-22T11:01:23.874Z</time></trkpt><trkpt lat="43.437893569339195" lon="11.726186388027745"><ele>527.4</ele><time>2026-03-22T11:01:24.874Z</time></trkpt><trkpt lat="43.43781211774916" lon="11.726261889166146"><ele>526.6</ele><time>2026-03-22T11:01:25.874Z</time></trkpt><trkpt lat="43.43773786375273" lon="11.726322728505808"><ele>525.8</ele><time>2026-03-22T11:01:26.874Z</time></trkpt><trkpt lat="43.437661676101456" lon="11.726380361306648"><ele>525.0</ele><time>2026-03-22T11:01:27.874Z</time></trkpt><trkpt lat="43.43757726909984" lon="11.726411772933158"><ele>525.0</ele><time>2026-03-22T11:01:28.874Z</time></trkpt><trkpt lat="43.43749038096871" lon="11.726436761901233"><ele>525.0</ele><time>2026-03-22T11:01:29.874Z</time></trkpt><trkpt lat="43.437391711886825" lon="11.726447533330319"><ele>525.0</ele><time>2026-03-22T11:01:30.874Z</time></trkpt><trkpt lat="43.437299287864974" lon="11.726437691100521"><ele>525.0</ele><time>2026-03-22T11:01:31.874Z</time></trkpt><trkpt lat="43.43720666268861" lon="11.72641373150154"><ele>525.0</ele><time>2026-03-22T11:01:32.874Z</time></trkpt><trkpt lat="43.43709869176331" lon="11.726413115833914"><ele>523.4</ele><time>2026-03-22T11:01:33.874Z</time></trkpt><trkpt lat="43.436989499598006" lon="11.726405561033445"><ele>521.8</ele><time>2026-03-22T11:01:34.874Z</time></trkpt><trkpt lat="43.43688369712837" lon="11.726418251649035"><ele>520.2</ele><time>2026-03-22T11:01:35.874Z</time></trkpt><trkpt lat="43.436765168039784" lon="11.726417891585355"><ele>518.6</ele><time>2026-03-22T11:01:36.874Z</time></trkpt><trkpt lat="43.43665468265494" lon="11.726429171032258"><ele>517.0</ele><time>2026-03-22T11:01:37.874Z</time></trkpt><trkpt lat="43.43654452641105" lon="11.7264413366067"><ele>517.0</ele><time>2026-03-22T11:01:38.874Z</time></trkpt><trkpt lat="43.43643357691051" lon="11.726447953622758"><ele>517.0</ele><time>2026-03-22T11:01:39.874Z</time></trkpt><trkpt lat="43.436322617603324" lon="11.726459891293443"><ele>517.0</ele><time>2026-03-22T11:01:40.874Z</time></trkpt><trkpt lat="43.43620755693994" lon="11.726477007824895"><ele>517.0</ele><time>2026-03-22T11:01:41.873Z</time></trkpt><trkpt lat="43.43610085667696" lon="11.72649443345374"><ele>517.0</ele><time>2026-03-22T11:01:42.872Z</time></trkpt><trkpt lat="43.435997769677265" lon="11.726535722160893"><ele>515.25</ele><time>2026-03-22T11:01:43.871Z</time></trkpt><trkpt lat="43.43589017021557" lon="11.72658939019028"><ele>513.5</ele><time>2026-03-22T11:01:44.87Z</time></trkpt><trkpt lat="43.43578172409644" lon="11.726638668954038"><ele>511.75</ele><time>2026-03-22T11:01:45.869Z</time></trkpt><trkpt lat="43.43566724084019" lon="11.726691355153525"><ele>510.0</ele><time>2026-03-22T11:01:46.868Z</time></trkpt><trkpt lat="43.43555875722284" lon="11.726725414763807"><ele>509.4</ele><time>2026-03-22T11:01:47.867Z</time></trkpt><trkpt lat="43.435457538404044" lon="11.726760272697781"><ele>508.8</ele><time>2026-03-22T11:01:48.866Z</time></trkpt><trkpt lat="43.43536086875656" lon="11.726789552928045"><ele>508.20000000000005</ele><time>2026-03-22T11:01:49.865Z</time></trkpt><trkpt lat="43.435263548100835" lon="11.726834522401234"><ele>507.6</ele><time>2026-03-22T11:01:50.865Z</time></trkpt><trkpt lat="43.43516807121721" lon="11.726878223367326"><ele>507.0</ele><time>2026-03-22T11:01:51.864Z</time></trkpt><trkpt lat="43.43506713469823" lon="11.726933302243408"><ele>506.40000000000003</ele><time>2026-03-22T11:01:52.864Z</time></trkpt><trkpt lat="43.43496924198433" lon="11.726998795729871"><ele>505.80000000000007</ele><time>2026-03-22T11:01:53.863Z</time></trkpt><trkpt lat="43.43488089760688" lon="11.727078301558484"><ele>505.2</ele><time>2026-03-22T11:01:54.864Z</time></trkpt><trkpt lat="43.434793880785726" lon="11.727175788128012"><ele>504.6</ele><time>2026-03-22T11:01:55.863Z</time></trkpt><trkpt lat="43.43470450626375" lon="11.72728839606692"><ele>504.0</ele><time>2026-03-22T11:01:56.863Z</time></trkpt><trkpt lat="43.43461302028681" lon="11.727418926822642"><ele>504.25</ele><time>2026-03-22T11:01:57.863Z</time></trkpt><trkpt lat="43.43451819848348" lon="11.727548295032971"><ele>504.5</ele><time>2026-03-22T11:01:58.862Z</time></trkpt><trkpt lat="43.434424240167246" lon="11.72766837385479"><ele>504.75</ele><time>2026-03-22T11:01:59.862Z</time></trkpt><trkpt lat="43.434335875415755" lon="11.727772067685757"><ele>505.0</ele><time>2026-03-22T11:02:00.862Z</time></trkpt><trkpt lat="43.434251251027426" lon="11.727877973724949"><ele>505.0</ele><time>2026-03-22T11:02:01.862Z</time></trkpt><trkpt lat="43.43417545382629" lon="11.72797911652089"><ele>505.0</ele><time>2026-03-22T11:02:02.861Z</time></trkpt><trkpt lat="43.43410648797844" lon="11.728093529422305"><ele>505.0</ele><time>2026-03-22T11:02:03.861Z</time></trkpt><trkpt lat="43.43404104403447" lon="11.728226789525394"><ele>505.0</ele><time>2026-03-22T11:02:04.86Z</time></trkpt><trkpt lat="43.43398047034196" lon="11.728355506337607"><ele>505.0</ele><time>2026-03-22T11:02:05.86Z</time></trkpt><trkpt lat="43.433902765906836" lon="11.728491188801616"><ele>506.25</ele><time>2026-03-22T11:02:06.86Z</time></trkpt><trkpt lat="43.43381422466987" lon="11.728612815292358"><ele>507.5</ele><time>2026-03-22T11:02:07.86Z</time></trkpt><trkpt lat="43.43373262133645" lon="11.728734648791358"><ele>508.75</ele><time>2026-03-22T11:02:08.859Z</time></trkpt><trkpt lat="43.43364868030063" lon="11.728857253304707"><ele>510.0</ele><time>2026-03-22T11:02:09.859Z</time></trkpt><trkpt lat="43.43357712341285" lon="11.728973756726582"><ele>510.0</ele><time>2026-03-22T11:02:10.859Z</time></trkpt><trkpt lat="43.433499860980405" lon="11.729082289362376"><ele>510.0</ele><time>2026-03-22T11:02:11.859Z</time></trkpt><trkpt lat="43.43343276071141" lon="11.729191273942762"><ele>510.0</ele><time>2026-03-22T11:02:12.858Z</time></trkpt><trkpt lat="43.433383269418876" lon="11.729314445448246"><ele>510.0</ele><time>2026-03-22T11:02:13.858Z</time></trkpt><trkpt lat="43.43333806409825" lon="11.729458094686612"><ele>510.0</ele><time>2026-03-22T11:02:14.858Z</time></trkpt><trkpt lat="43.43330085701573" lon="11.729606386328236"><ele>509.0</ele><time>2026-03-22T11:02:15.858Z</time></trkpt><trkpt lat="43.433262687256665" lon="11.729751630467296"><ele>508.0</ele><time>2026-03-22T11:02:16.858Z</time></trkpt><trkpt lat="43.43322586209059" lon="11.729906570208945"><ele>507.0</ele><time>2026-03-22T11:02:17.858Z</time></trkpt><trkpt lat="43.4331899011002" lon="11.730064084231172"><ele>506.0</ele><time>2026-03-22T11:02:18.857Z</time></trkpt><trkpt lat="43.433157652173875" lon="11.730208709481156"><ele>505.20000000000005</ele><time>2026-03-22T11:02:19.857Z</time></trkpt><trkpt lat="43.43312895775681" lon="11.730360625375424"><ele>504.40000000000003</ele><time>2026-03-22T11:02:20.857Z</time></trkpt><trkpt lat="43.433099763007945" lon="11.730506549973738"><ele>503.6</ele><time>2026-03-22T11:02:21.857Z</time></trkpt><trkpt lat="43.43307062766031" lon="11.730649145859815"><ele>502.8</ele><time>2026-03-22T11:02:22.857Z</time></trkpt><trkpt lat="43.43303341305236" lon="11.730787820506402"><ele>502.0</ele><time>2026-03-22T11:02:23.857Z</time></trkpt><trkpt lat="43.432996054735504" lon="11.730922261068525"><ele>503.20000000000005</ele><time>2026-03-22T11:02:24.857Z</time></trkpt><trkpt lat="43.43294303686087" lon="11.731045200817489"><ele>504.40000000000003</ele><time>2026-03-22T11:02:25.856Z</time></trkpt><trkpt lat="43.43288268244994" lon="11.731164187886517"><ele>505.59999999999997</ele><time>2026-03-22T11:02:26.856Z</time></trkpt><trkpt lat="43.432807934633466" lon="11.731276260340376"><ele>506.79999999999995</ele><time>2026-03-22T11:02:27.856Z</time></trkpt><trkpt lat="43.43273204228042" lon="11.731396915099161"><ele>508.0</ele><time>2026-03-22T11:02:28.856Z</time></trkpt><trkpt lat="43.43264530899486" lon="11.731501213473006"><ele>508.0</ele><time>2026-03-22T11:02:29.856Z</time></trkpt><trkpt lat="43.4325389362554" lon="11.731600732892092"><ele>508.0</ele><time>2026-03-22T11:02:30.856Z</time></trkpt><trkpt lat="43.43243589677563" lon="11.731677186049938"><ele>508.0</ele><time>2026-03-22T11:02:31.856Z</time></trkpt><trkpt lat="43.43232869977649" lon="11.73176180855588"><ele>508.0</ele><time>2026-03-22T11:02:32.856Z</time></trkpt><trkpt lat="43.43221838028161" lon="11.73184222922355"><ele>506.5</ele><time>2026-03-22T11:02:33.856Z</time></trkpt><trkpt lat="43.43211083106986" lon="11.731935817115755"><ele>505.0</ele><time>2026-03-22T11:02:34.856Z</time></trkpt><trkpt lat="43.43201038649127" lon="11.732025922150408"><ele>503.5</ele><time>2026-03-22T11:02:35.856Z</time></trkpt><trkpt lat="43.43191346679362" lon="11.732136213792995"><ele>502.0</ele><time>2026-03-22T11:02:36.855Z</time></trkpt><trkpt lat="43.431846154453325" lon="11.732266543103027"><ele>502.0</ele><time>2026-03-22T11:02:37.855Z</time></trkpt><trkpt lat="43.43179081079634" lon="11.732415000404954"><ele>502.0</ele><time>2026-03-22T11:02:38.855Z</time></trkpt><trkpt lat="43.4317478475105" lon="11.732584706106898"><ele>502.0</ele><time>2026-03-22T11:02:39.855Z</time></trkpt><trkpt lat="43.43169751616849" lon="11.732767259320672"><ele>502.0</ele><time>2026-03-22T11:02:40.855Z</time></trkpt><trkpt lat="43.431643380999695" lon="11.73292905486163"><ele>503.75</ele><time>2026-03-22T11:02:41.855Z</time></trkpt><trkpt lat="43.43158044601623" lon="11.73308439107886"><ele>505.5</ele><time>2026-03-22T11:02:42.855Z</time></trkpt><trkpt lat="43.43151887982589" lon="11.733237648799165"><ele>507.25</ele><time>2026-03-22T11:02:43.855Z</time></trkpt><trkpt lat="43.43146563112518" lon="11.733388196974346"><ele>509.0</ele><time>2026-03-22T11:02:44.855Z</time></trkpt><trkpt lat="43.431416585604254" lon="11.733528380891942"><ele>509.4</ele><time>2026-03-22T11:02:45.855Z</time></trkpt><trkpt lat="43.43137120882452" lon="11.733661609291795"><ele>509.79999999999995</ele><time>2026-03-22T11:02:46.855Z</time></trkpt><trkpt lat="43.43132279083789" lon="11.733777127926908"><ele>510.20000000000005</ele><time>2026-03-22T11:02:47.855Z</time></trkpt><trkpt lat="43.43128384657746" lon="11.733890630902097"><ele>510.6</ele><time>2026-03-22T11:02:48.855Z</time></trkpt><trkpt lat="43.43122591477238" lon="11.734017028228621"><ele>511.0</ele><time>2026-03-22T11:02:49.855Z</time></trkpt><trkpt lat="43.4311613823613" lon="11.734159545447142"><ele>511.25</ele><time>2026-03-22T11:02:50.855Z</time></trkpt><trkpt lat="43.43110050361702" lon="11.73430814780717"><ele>511.5</ele><time>2026-03-22T11:02:51.854Z</time></trkpt><trkpt lat="43.43104012626287" lon="11.734456277308295"><ele>511.75</ele><time>2026-03-22T11:02:52.854Z</time></trkpt><trkpt lat="43.43098123625438" lon="11.734602732908458"><ele>512.0</ele><time>2026-03-22T11:02:53.854Z</time></trkpt><trkpt lat="43.43092514370442" lon="11.73474994608423"><ele>512.4</ele><time>2026-03-22T11:02:54.854Z</time></trkpt><trkpt lat="43.4308727520206" lon="11.734885671235853"><ele>512.8000000000001</ele><time>2026-03-22T11:02:55.854Z</time></trkpt><trkpt lat="43.43082165307146" lon="11.735015107584728"><ele>513.2</ele><time>2026-03-22T11:02:56.854Z</time></trkpt><trkpt lat="43.43077713677253" lon="11.735142672298041"><ele>513.6</ele><time>2026-03-22T11:02:57.854Z</time></trkpt><trkpt lat="43.43073328762947" lon="11.735267998170094"><ele>514.0</ele><time>2026-03-22T11:02:58.854Z</time></trkpt><trkpt lat="43.430688380080845" lon="11.735398285099254"><ele>514.0</ele><time>2026-03-22T11:02:59.854Z</time></trkpt><trkpt lat="43.43063165608243" lon="11.735528789595145"><ele>514.0</ele><time>2026-03-22T11:03:00.854Z</time></trkpt><trkpt lat="43.430563054309275" lon="11.735652007074796"><ele>514.0</ele><time>2026-03-22T11:03:01.854Z</time></trkpt><trkpt lat="43.43048236366087" lon="11.735762261292548"><ele>514.0</ele><time>2026-03-22T11:03:02.854Z</time></trkpt><trkpt lat="43.43039121705184" lon="11.7358610839236"><ele>514.0</ele><time>2026-03-22T11:03:03.854Z</time></trkpt><trkpt lat="43.430303082103805" lon="11.735953902162798"><ele>514.0</ele><time>2026-03-22T11:03:04.854Z</time></trkpt><trkpt lat="43.4302131009196" lon="11.736026815349314"><ele>514.0</ele><time>2026-03-22T11:03:05.854Z</time></trkpt><trkpt lat="43.43012693019071" lon="11.736088769227601"><ele>514.0</ele><time>2026-03-22T11:03:06.854Z</time></trkpt><trkpt lat="43.43003907953922" lon="11.73614649034675"><ele>514.0</ele><time>2026-03-22T11:03:07.854Z</time></trkpt><trkpt lat="43.429947190998526" lon="11.73619470414507"><ele>514.8</ele><time>2026-03-22T11:03:08.854Z</time></trkpt><trkpt lat="43.4298495780178" lon="11.736216503909274"><ele>515.5999999999999</ele><time>2026-03-22T11:03:09.854Z</time></trkpt><trkpt lat="43.429749473905225" lon="11.73622501803533"><ele>516.4</ele><time>2026-03-22T11:03:10.854Z</time></trkpt><trkpt lat="43.429646119514814" lon="11.7361967991389"><ele>517.1999999999999</ele><time>2026-03-22T11:03:11.853Z</time></trkpt><trkpt lat="43.429537190078" lon="11.73613750649664"><ele>518.0</ele><time>2026-03-22T11:03:12.853Z</time></trkpt><trkpt lat="43.42942755354538" lon="11.736065111449198"><ele>518.25</ele><time>2026-03-22T11:03:13.853Z</time></trkpt><trkpt lat="43.42930899975811" lon="11.735991914118534"><ele>518.5</ele><time>2026-03-22T11:03:14.853Z</time></trkpt><trkpt lat="43.42919407703141" lon="11.735926113220486"><ele>518.75</ele><time>2026-03-22T11:03:15.853Z</time></trkpt><trkpt lat="43.42908574005109" lon="11.735863370403314"><ele>519.0</ele><time>2026-03-22T11:03:16.853Z</time></trkpt><trkpt lat="43.42898903646222" lon="11.73580119222989"><ele>519.0</ele><time>2026-03-22T11:03:17.853Z</time></trkpt><trkpt lat="43.428905898405446" lon="11.73573054104919"><ele>519.0</ele><time>2026-03-22T11:03:18.853Z</time></trkpt><trkpt lat="43.42883968995138" lon="11.735663672985849"><ele>519.0</ele><time>2026-03-22T11:03:19.853Z</time></trkpt><trkpt lat="43.42878267386191" lon="11.735607576487892"><ele>519.0</ele><time>2026-03-22T11:03:20.853Z</time></trkpt><trkpt lat="43.42873467597903" lon="11.735549827165256"><ele>519.0</ele><time>2026-03-22T11:03:21.853Z</time></trkpt><trkpt lat="43.42863657795258" lon="11.735467141441632"><ele>519.0</ele><time>2026-03-22T11:03:23.853Z</time></trkpt><trkpt lat="43.42850447665382" lon="11.735501539448276"><ele>520.0</ele><time>2026-03-22T11:03:25.853Z</time></trkpt><trkpt lat="43.428417156244684" lon="11.735554702344787"><ele>521.0</ele><time>2026-03-22T11:03:26.853Z</time></trkpt><trkpt lat="43.428334118579905" lon="11.735624681233329"><ele>522.0</ele><time>2026-03-22T11:03:27.853Z</time></trkpt><trkpt lat="43.428244303511455" lon="11.735695889223775"><ele>523.0</ele><time>2026-03-22T11:03:28.853Z</time></trkpt><trkpt lat="43.428168228777935" lon="11.735764025763693"><ele>524.0</ele><time>2026-03-22T11:03:29.853Z</time></trkpt><trkpt lat="43.428099433896676" lon="11.735838441662969"><ele>524.0</ele><time>2026-03-22T11:03:30.853Z</time></trkpt><trkpt lat="43.42802171478008" lon="11.735955047461193"><ele>524.0</ele><time>2026-03-22T11:03:31.853Z</time></trkpt><trkpt lat="43.42794233230656" lon="11.736116869710177"><ele>524.0</ele><time>2026-03-22T11:03:32.853Z</time></trkpt><trkpt lat="43.42786034931375" lon="11.736294116875035"><ele>524.0</ele><time>2026-03-22T11:03:33.852Z</time></trkpt><trkpt lat="43.42777658205091" lon="11.736459311330286"><ele>524.8</ele><time>2026-03-22T11:03:34.852Z</time></trkpt><trkpt lat="43.42769881037719" lon="11.736604403546723"><ele>525.5999999999999</ele><time>2026-03-22T11:03:35.852Z</time></trkpt><trkpt lat="43.427626396699395" lon="11.736716349400146"><ele>526.4</ele><time>2026-03-22T11:03:36.852Z</time></trkpt><trkpt lat="43.42755614465856" lon="11.736825703400633"><ele>527.1999999999999</ele><time>2026-03-22T11:03:37.852Z</time></trkpt><trkpt lat="43.42747954677867" lon="11.736921208363139"><ele>528.0</ele><time>2026-03-22T11:03:38.852Z</time></trkpt><trkpt lat="43.42740211125102" lon="11.736989534795438"><ele>529.6666666666666</ele><time>2026-03-22T11:03:39.852Z</time></trkpt><trkpt lat="43.42732501132489" lon="11.737041915127165"><ele>531.3333333333334</ele><time>2026-03-22T11:03:40.852Z</time></trkpt><trkpt lat="43.42725106765195" lon="11.737096335416217"><ele>533.0</ele><time>2026-03-22T11:03:41.852Z</time></trkpt><trkpt lat="43.42718080020967" lon="11.73715337790956"><ele>534.6666666666667</ele><time>2026-03-22T11:03:42.852Z</time></trkpt><trkpt lat="43.42712599869627" lon="11.737232707531302"><ele>536.3333333333334</ele><time>2026-03-22T11:03:43.852Z</time></trkpt><trkpt lat="43.4270888026204" lon="11.73732323669422"><ele>538.0</ele><time>2026-03-22T11:03:44.852Z</time></trkpt><trkpt lat="43.427067824158335" lon="11.7374171209706"><ele>532.8</ele><time>2026-03-22T11:03:45.852Z</time></trkpt><trkpt lat="43.427074395511404" lon="11.737544637609304"><ele>527.5999999999999</ele><time>2026-03-22T11:03:46.852Z</time></trkpt><trkpt lat="43.42708933708992" lon="11.737682042968276"><ele>522.4000000000001</ele><time>2026-03-22T11:03:47.852Z</time></trkpt><trkpt lat="43.4271003713273" lon="11.737821513536911"><ele>517.2</ele><time>2026-03-22T11:03:48.852Z</time></trkpt><trkpt lat="43.42711065198397" lon="11.737971327172742"><ele>512.0</ele><time>2026-03-22T11:03:49.852Z</time></trkpt><trkpt lat="43.42710939886242" lon="11.738115503819623"><ele>511.40000000000003</ele><time>2026-03-22T11:03:50.852Z</time></trkpt><trkpt lat="43.42709854307716" lon="11.738251292703104"><ele>510.80000000000007</ele><time>2026-03-22T11:03:51.852Z</time></trkpt><trkpt lat="43.42706778016941" lon="11.738376821628627"><ele>510.2</ele><time>2026-03-22T11:03:52.852Z</time></trkpt><trkpt lat="43.42701885760158" lon="11.738515829352126"><ele>509.6</ele><time>2026-03-22T11:03:53.852Z</time></trkpt><trkpt lat="43.426983340783536" lon="11.738671804445527"><ele>509.0</ele><time>2026-03-22T11:03:54.852Z</time></trkpt><trkpt lat="43.42695550353559" lon="11.73883452356426"><ele>511.0</ele><time>2026-03-22T11:03:55.852Z</time></trkpt><trkpt lat="43.42693234823989" lon="11.738998204874967"><ele>513.0</ele><time>2026-03-22T11:03:56.851Z</time></trkpt><trkpt lat="43.42690664258899" lon="11.739152215414501"><ele>515.0</ele><time>2026-03-22T11:03:57.851Z</time></trkpt><trkpt lat="43.42686708449687" lon="11.739294518599277"><ele>517.0</ele><time>2026-03-22T11:03:58.851Z</time></trkpt><trkpt lat="43.42681047858151" lon="11.739428294844483"><ele>519.8000000000001</ele><time>2026-03-22T11:03:59.851Z</time></trkpt><trkpt lat="43.426741809353594" lon="11.739548973956301"><ele>522.6</ele><time>2026-03-22T11:04:00.854Z</time></trkpt><trkpt lat="43.42665810269049" lon="11.739654939221547"><ele>525.4000000000001</ele><time>2026-03-22T11:04:01.854Z</time></trkpt><trkpt lat="43.426562784003714" lon="11.739738291336794"><ele>528.2</ele><time>2026-03-22T11:04:02.854Z</time></trkpt><trkpt lat="43.42647786072357" lon="11.73980939105097"><ele>531.0</ele><time>2026-03-22T11:04:03.853Z</time></trkpt><trkpt lat="43.42636682164718" lon="11.739876977816131"><ele>526.8</ele><time>2026-03-22T11:04:04.854Z</time></trkpt><trkpt lat="43.42629479899455" lon="11.739950646973577"><ele>522.6</ele><time>2026-03-22T11:04:05.854Z</time></trkpt><trkpt lat="43.42623991381863" lon="11.740063094080787"><ele>518.4</ele><time>2026-03-22T11:04:06.854Z</time></trkpt><trkpt lat="43.42620890109407" lon="11.740198064881863"><ele>514.2</ele><time>2026-03-22T11:04:07.853Z</time></trkpt><trkpt lat="43.42619216049697" lon="11.740344962763094"><ele>510.0</ele><time>2026-03-22T11:04:08.853Z</time></trkpt><trkpt lat="43.4261685179404" lon="11.740501095402491"><ele>510.0</ele><time>2026-03-22T11:04:09.854Z</time></trkpt><trkpt lat="43.42612382807508" lon="11.740657930927139"><ele>510.0</ele><time>2026-03-22T11:04:10.853Z</time></trkpt><trkpt lat="43.426065878608746" lon="11.740814041035064"><ele>510.0</ele><time>2026-03-22T11:04:11.853Z</time></trkpt><trkpt lat="43.425976495484" lon="11.740946021047412"><ele>510.0</ele><time>2026-03-22T11:04:12.853Z</time></trkpt><trkpt lat="43.425896426658916" lon="11.741068280297021"><ele>511.0</ele><time>2026-03-22T11:04:13.854Z</time></trkpt><trkpt lat="43.425823881632105" lon="11.741182259940302"><ele>512.0</ele><time>2026-03-22T11:04:14.853Z</time></trkpt><trkpt lat="43.4257599735168" lon="11.741299441844145"><ele>513.0</ele><time>2026-03-22T11:04:15.853Z</time></trkpt><trkpt lat="43.42571053297978" lon="11.741417645441631"><ele>514.0</ele><time>2026-03-22T11:04:16.853Z</time></trkpt><trkpt lat="43.42567313280244" lon="11.741558785991542"><ele>515.0</ele><time>2026-03-22T11:04:17.853Z</time></trkpt><trkpt lat="43.4256406493069" lon="11.74170387729717"><ele>515.0</ele><time>2026-03-22T11:04:18.853Z</time></trkpt><trkpt lat="43.42561042728072" lon="11.741871766244866"><ele>515.0</ele><time>2026-03-22T11:04:19.853Z</time></trkpt><trkpt lat="43.425586984360955" lon="11.742019343060612"><ele>515.0</ele><time>2026-03-22T11:04:20.853Z</time></trkpt><trkpt lat="43.42556087286029" lon="11.742154236896194"><ele>515.0</ele><time>2026-03-22T11:04:21.853Z</time></trkpt><trkpt lat="43.42553882687425" lon="11.742283791881396"><ele>515.0</ele><time>2026-03-22T11:04:22.853Z</time></trkpt><trkpt lat="43.42549524802943" lon="11.742382490197661"><ele>512.2</ele><time>2026-03-22T11:04:23.853Z</time></trkpt><trkpt lat="43.42542879865296" lon="11.742458095311564"><ele>509.4</ele><time>2026-03-22T11:04:24.853Z</time></trkpt><trkpt lat="43.42533477952415" lon="11.742493094509694"><ele>506.6</ele><time>2026-03-22T11:04:25.853Z</time></trkpt><trkpt lat="43.425241032807136" lon="11.74247041691624"><ele>503.8</ele><time>2026-03-22T11:04:26.853Z</time></trkpt><trkpt lat="43.425145008912544" lon="11.742426574357774"><ele>501.0</ele><time>2026-03-22T11:04:27.853Z</time></trkpt><trkpt lat="43.425046254488876" lon="11.74235858042101"><ele>501.0</ele><time>2026-03-22T11:04:28.853Z</time></trkpt><trkpt lat="43.424925797784546" lon="11.742305425031939"><ele>501.0</ele><time>2026-03-22T11:04:29.853Z</time></trkpt><trkpt lat="43.42482365498227" lon="11.742275518012587"><ele>501.0</ele><time>2026-03-22T11:04:30.853Z</time></trkpt><trkpt lat="43.424731019314734" lon="11.742282225978414"><ele>501.0</ele><time>2026-03-22T11:04:31.853Z</time></trkpt><trkpt lat="43.42464050612671" lon="11.742318273903201"><ele>501.0</ele><time>2026-03-22T11:04:32.853Z</time></trkpt><trkpt lat="43.42455457897289" lon="11.742359527155775"><ele>500.8571428571429</ele><time>2026-03-22T11:04:33.853Z</time></trkpt><trkpt lat="43.42448029317301" lon="11.742408411348512"><ele>500.71428571428567</ele><time>2026-03-22T11:04:34.853Z</time></trkpt><trkpt lat="43.42441234026625" lon="11.742450135586505"><ele>500.57142857142856</ele><time>2026-03-22T11:04:35.853Z</time></trkpt><trkpt lat="43.424347773582085" lon="11.74248513443106"><ele>500.42857142857144</ele><time>2026-03-22T11:04:36.853Z</time></trkpt><trkpt lat="43.42427773155242" lon="11.742520927275676"><ele>500.28571428571433</ele><time>2026-03-22T11:04:37.852Z</time></trkpt><trkpt lat="43.424214108738276" lon="11.742569400042001"><ele>500.1428571428571</ele><time>2026-03-22T11:04:38.852Z</time></trkpt><trkpt lat="43.42415405595395" lon="11.742613819907895"><ele>500.0</ele><time>2026-03-22T11:04:39.852Z</time></trkpt><trkpt lat="43.42404441611433" lon="11.742684150881542"><ele>499.99999999999994</ele><time>2026-03-22T11:04:41.852Z</time></trkpt><trkpt lat="43.42398216289644" lon="11.74270548278732"><ele>500.0</ele><time>2026-03-22T11:04:42.852Z</time></trkpt><trkpt lat="43.42388613170365" lon="11.742771548648603"><ele>500.0</ele><time>2026-03-22T11:04:44.852Z</time></trkpt><trkpt lat="43.42381162485182" lon="11.742832903429187"><ele>500.0</ele><time>2026-03-22T11:04:46.852Z</time></trkpt><trkpt lat="43.42375336296681" lon="11.742866819268844"><ele>499.99999999999994</ele><time>2026-03-22T11:04:48.852Z</time></trkpt><trkpt lat="43.4236791642645" lon="11.742917326836155"><ele>500.0</ele><time>2026-03-22T11:04:51.852Z</time></trkpt><trkpt lat="43.423625486091666" lon="11.74296336337725"><ele>498.99999999999994</ele><time>2026-03-22T11:04:53.852Z</time></trkpt><trkpt lat="43.4235669163123" lon="11.743005700762877"><ele>498.0</ele><time>2026-03-22T11:04:55.852Z</time></trkpt><trkpt lat="43.42350202100044" lon="11.743055020605405"><ele>497.0</ele><time>2026-03-22T11:04:57.852Z</time></trkpt><trkpt lat="43.423395631369566" lon="11.743118889065292"><ele>496.0</ele><time>2026-03-22T11:04:59.852Z</time></trkpt><trkpt lat="43.42333600514992" lon="11.743158971745437"><ele>494.99999999999994</ele><time>2026-03-22T11:05:00.851Z</time></trkpt><trkpt lat="43.42324843061551" lon="11.743203209070739"><ele>494.0</ele><time>2026-03-22T11:05:02.851Z</time></trkpt><trkpt lat="43.42317689571189" lon="11.743228948751334"><ele>494.0</ele><time>2026-03-22T11:05:03.851Z</time></trkpt><trkpt lat="43.42307480230089" lon="11.743287011528329"><ele>494.0</ele><time>2026-03-22T11:05:04.851Z</time></trkpt><trkpt lat="43.42298432602145" lon="11.743348094759396"><ele>494.0</ele><time>2026-03-22T11:05:05.851Z</time></trkpt><trkpt lat="43.42291188511155" lon="11.743397129454381"><ele>494.0</ele><time>2026-03-22T11:05:06.851Z</time></trkpt><trkpt lat="43.422828035683985" lon="11.743439327621106"><ele>494.0</ele><time>2026-03-22T11:05:08.851Z</time></trkpt><trkpt lat="43.42273925955952" lon="11.743374429783213"><ele>494.3333333333333</ele><time>2026-03-22T11:05:11.851Z</time></trkpt><trkpt lat="43.42269681637658" lon="11.74330150842948"><ele>494.66666666666663</ele><time>2026-03-22T11:05:12.851Z</time></trkpt><trkpt lat="43.42264883588992" lon="11.743228248558628"><ele>495.0</ele><time>2026-03-22T11:05:13.851Z</time></trkpt><trkpt lat="43.422586439012576" lon="11.743154263725136"><ele>495.33333333333337</ele><time>2026-03-22T11:05:14.851Z</time></trkpt><trkpt lat="43.42253257633625" lon="11.743074841068161"><ele>495.6666666666667</ele><time>2026-03-22T11:05:15.851Z</time></trkpt><trkpt lat="43.42247693705274" lon="11.742989718713016"><ele>496.0</ele><time>2026-03-22T11:05:16.851Z</time></trkpt><trkpt lat="43.422416680038225" lon="11.742899675763402"><ele>496.00000000000006</ele><time>2026-03-22T11:05:17.851Z</time></trkpt><trkpt lat="43.42236924456489" lon="11.742810375333367"><ele>496.0</ele><time>2026-03-22T11:05:18.851Z</time></trkpt><trkpt lat="43.422312863317025" lon="11.74274513007698"><ele>496.0</ele><time>2026-03-22T11:05:19.851Z</time></trkpt><trkpt lat="43.422251760872385" lon="11.742691515649042"><ele>496.0</ele><time>2026-03-22T11:05:20.851Z</time></trkpt><trkpt lat="43.42218898672972" lon="11.742661349423342"><ele>496.00000000000006</ele><time>2026-03-22T11:05:21.851Z</time></trkpt><trkpt lat="43.42211223838951" lon="11.742647469717415"><ele>496.0</ele><time>2026-03-22T11:05:22.851Z</time></trkpt><trkpt lat="43.422028335162" lon="11.742655690651675"><ele>495.1666666666667</ele><time>2026-03-22T11:05:23.85Z</time></trkpt><trkpt lat="43.421952652384206" lon="11.742689359362002"><ele>494.33333333333337</ele><time>2026-03-22T11:05:24.85Z</time></trkpt><trkpt lat="43.42188715454746" lon="11.742713672025053"><ele>493.5</ele><time>2026-03-22T11:05:25.85Z</time></trkpt><trkpt lat="43.421809234074495" lon="11.742718917698257"><ele>492.66666666666663</ele><time>2026-03-22T11:05:27.85Z</time></trkpt><trkpt lat="43.42178594344564" lon="11.742618822363944"><ele>491.8333333333333</ele><time>2026-03-22T11:05:29.85Z</time></trkpt><trkpt lat="43.421785243631405" lon="11.742492972873448"><ele>491.0</ele><time>2026-03-22T11:05:31.85Z</time></trkpt><trkpt lat="43.421783257669745" lon="11.742353788823726"><ele>490.0</ele><time>2026-03-22T11:05:33.85Z</time></trkpt><trkpt lat="43.421750535756686" lon="11.742265593088334"><ele>489.0</ele><time>2026-03-22T11:05:35.85Z</time></trkpt><trkpt lat="43.42165803196308" lon="11.742317660013622"><ele>488.0</ele><time>2026-03-22T11:05:38.85Z</time></trkpt><trkpt lat="43.421561703005715" lon="11.742423433608336"><ele>487.0</ele><time>2026-03-22T11:05:40.85Z</time></trkpt><trkpt lat="43.42149290338356" lon="11.74246379533162"><ele>486.0</ele><time>2026-03-22T11:05:41.85Z</time></trkpt><trkpt lat="43.42140740591548" lon="11.742498540693786"><ele>486.0</ele><time>2026-03-22T11:05:42.85Z</time></trkpt><trkpt lat="43.4213273030897" lon="11.742511485942469"><ele>486.0</ele><time>2026-03-22T11:05:43.85Z</time></trkpt><trkpt lat="43.42125296717452" lon="11.742519493072885"><ele>486.0</ele><time>2026-03-22T11:05:44.85Z</time></trkpt><trkpt lat="43.4211533741708" lon="11.742561437522262"><ele>486.0</ele><time>2026-03-22T11:05:46.849Z</time></trkpt><trkpt lat="43.42103547486207" lon="11.742649434399489"><ele>486.0</ele><time>2026-03-22T11:05:48.849Z</time></trkpt><trkpt lat="43.42097376009148" lon="11.742698976692433"><ele>482.8</ele><time>2026-03-22T11:05:50.849Z</time></trkpt><trkpt lat="43.4209018319004" lon="11.742765744316051"><ele>479.6</ele><time>2026-03-22T11:05:52.849Z</time></trkpt><trkpt lat="43.42083618400797" lon="11.742858454228982"><ele>476.4</ele><time>2026-03-22T11:05:54.849Z</time></trkpt><trkpt lat="43.42075054611419" lon="11.742995634192376"><ele>473.2</ele><time>2026-03-22T11:05:56.849Z</time></trkpt><trkpt lat="43.42067719146803" lon="11.743118981053334"><ele>470.0</ele><time>2026-03-22T11:05:58.849Z</time></trkpt><trkpt lat="43.42060430052455" lon="11.743218179541467"><ele>469.99999999999994</ele><time>2026-03-22T11:06:00.849Z</time></trkpt><trkpt lat="43.42050095976011" lon="11.743272043985336"><ele>470.0</ele><time>2026-03-22T11:06:02.849Z</time></trkpt><trkpt lat="43.42042680931266" lon="11.74327850573248"><ele>470.0</ele><time>2026-03-22T11:06:03.849Z</time></trkpt><trkpt lat="43.42035838583619" lon="11.743254558827012"><ele>470.0</ele><time>2026-03-22T11:06:04.849Z</time></trkpt><trkpt lat="43.42028302256679" lon="11.743248243115664"><ele>469.99999999999994</ele><time>2026-03-22T11:06:05.849Z</time></trkpt><trkpt lat="43.4202115534616" lon="11.743243078250599"><ele>470.0</ele><time>2026-03-22T11:06:06.851Z</time></trkpt><trkpt lat="43.42012497321115" lon="11.743222984014624"><ele>466.3333333333333</ele><time>2026-03-22T11:06:07.85Z</time></trkpt><trkpt lat="43.42004217237213" lon="11.743204104441068"><ele>462.66666666666663</ele><time>2026-03-22T11:06:08.85Z</time></trkpt><trkpt lat="43.419948203724616" lon="11.743180643875435"><ele>459.0</ele><time>2026-03-22T11:06:09.85Z</time></trkpt><trkpt lat="43.419862298098366" lon="11.743168701367855"><ele>455.33333333333337</ele><time>2026-03-22T11:06:10.85Z</time></trkpt><trkpt lat="43.41977932902955" lon="11.74315750903243"><ele>451.6666666666667</ele><time>2026-03-22T11:06:11.85Z</time></trkpt><trkpt lat="43.41969187831035" lon="11.743141028430143"><ele>448.0</ele><time>2026-03-22T11:06:12.85Z</time></trkpt><trkpt lat="43.41959233263833" lon="11.743136791903678"><ele>445.79999999999995</ele><time>2026-03-22T11:06:13.85Z</time></trkpt><trkpt lat="43.41949838192132" lon="11.743128395499857"><ele>443.59999999999997</ele><time>2026-03-22T11:06:14.85Z</time></trkpt><trkpt lat="43.41940451585864" lon="11.743122701155535"><ele>441.40000000000003</ele><time>2026-03-22T11:06:15.85Z</time></trkpt><trkpt lat="43.41931402371729" lon="11.743110320795806"><ele>439.20000000000005</ele><time>2026-03-22T11:06:16.85Z</time></trkpt><trkpt lat="43.4192243064338" lon="11.74310629319729"><ele>437.0</ele><time>2026-03-22T11:06:17.85Z</time></trkpt><trkpt lat="43.41913782439862" lon="11.743096575318178"><ele>436.99999999999994</ele><time>2026-03-22T11:06:18.85Z</time></trkpt><trkpt lat="43.41904194464799" lon="11.743096141378905"><ele>437.0</ele><time>2026-03-22T11:06:19.849Z</time></trkpt><trkpt lat="43.418955484257744" lon="11.743091754712918"><ele>437.0</ele><time>2026-03-22T11:06:20.849Z</time></trkpt><trkpt lat="43.41886942858583" lon="11.74307744373275"><ele>437.0</ele><time>2026-03-22T11:06:21.849Z</time></trkpt><trkpt lat="43.4187835566433" lon="11.743049068198143"><ele>436.99999999999994</ele><time>2026-03-22T11:06:22.849Z</time></trkpt><trkpt lat="43.41869397128729" lon="11.743020075582718"><ele>437.0</ele><time>2026-03-22T11:06:23.849Z</time></trkpt><trkpt lat="43.418608385968774" lon="11.742990656376184"><ele>435.16666666666663</ele><time>2026-03-22T11:06:24.849Z</time></trkpt><trkpt lat="43.418520413976964" lon="11.742969074840154"><ele>433.3333333333333</ele><time>2026-03-22T11:06:25.849Z</time></trkpt><trkpt lat="43.41843807152184" lon="11.742936246099658"><ele>431.5</ele><time>2026-03-22T11:06:26.849Z</time></trkpt><trkpt lat="43.4183518446896" lon="11.742908938935352"><ele>429.66666666666663</ele><time>2026-03-22T11:06:27.849Z</time></trkpt><trkpt lat="43.41827548461123" lon="11.742901310378073"><ele>427.8333333333333</ele><time>2026-03-22T11:06:28.849Z</time></trkpt><trkpt lat="43.41819273371206" lon="11.742903482669742"><ele>426.0</ele><time>2026-03-22T11:06:29.849Z</time></trkpt><trkpt lat="43.41811988910536" lon="11.742945748624795"><ele>426.0</ele><time>2026-03-22T11:06:30.849Z</time></trkpt><trkpt lat="43.41804041323307" lon="11.742983375981922"><ele>426.0</ele><time>2026-03-22T11:06:31.849Z</time></trkpt><trkpt lat="43.41796673616907" lon="11.743019603935382"><ele>426.0</ele><time>2026-03-22T11:06:32.849Z</time></trkpt><trkpt lat="43.41788391406387" lon="11.743040088673263"><ele>426.0</ele><time>2026-03-22T11:06:33.849Z</time></trkpt><trkpt lat="43.41780064186859" lon="11.743075235234512"><ele>426.0</ele><time>2026-03-22T11:06:34.849Z</time></trkpt><trkpt lat="43.41772891247719" lon="11.743094302425256"><ele>426.0</ele><time>2026-03-22T11:06:35.849Z</time></trkpt><trkpt lat="43.4176347563893" lon="11.743128389125857"><ele>424.0</ele><time>2026-03-22T11:06:37.849Z</time></trkpt><trkpt lat="43.41752991411841" lon="11.743134682026826"><ele>422.0</ele><time>2026-03-22T11:06:40.849Z</time></trkpt><trkpt lat="43.41740500233289" lon="11.743190814856916"><ele>420.0</ele><time>2026-03-22T11:06:42.848Z</time></trkpt><trkpt lat="43.41733025616266" lon="11.743217861668857"><ele>418.0</ele><time>2026-03-22T11:06:43.848Z</time></trkpt><trkpt lat="43.4172524407799" lon="11.743251133127357"><ele>416.0</ele><time>2026-03-22T11:06:44.848Z</time></trkpt><trkpt lat="43.417161959135726" lon="11.74328948948859"><ele>414.66666666666663</ele><time>2026-03-22T11:06:45.848Z</time></trkpt><trkpt lat="43.417065351810585" lon="11.743326589717567"><ele>413.3333333333333</ele><time>2026-03-22T11:06:46.848Z</time></trkpt><trkpt lat="43.41696944835892" lon="11.743348463129996"><ele>412.0</ele><time>2026-03-22T11:06:47.848Z</time></trkpt><trkpt lat="43.41688785533822" lon="11.74337054586598"><ele>410.66666666666663</ele><time>2026-03-22T11:06:48.848Z</time></trkpt><trkpt lat="43.41682490286657" lon="11.743356621702366"><ele>409.3333333333333</ele><time>2026-03-22T11:06:49.848Z</time></trkpt><trkpt lat="43.416725652586294" lon="11.74337644106186"><ele>408.0</ele><time>2026-03-22T11:06:51.848Z</time></trkpt><trkpt lat="43.416661681261225" lon="11.743407811999976"><ele>408.0</ele><time>2026-03-22T11:06:52.848Z</time></trkpt><trkpt lat="43.4165923899538" lon="11.743458953782623"><ele>408.0</ele><time>2026-03-22T11:06:53.848Z</time></trkpt><trkpt lat="43.41652408825176" lon="11.743512992257422"><ele>408.0</ele><time>2026-03-22T11:06:54.848Z</time></trkpt><trkpt lat="43.41646328591623" lon="11.743563395043997"><ele>408.0</ele><time>2026-03-22T11:06:55.848Z</time></trkpt><trkpt lat="43.41638899164909" lon="11.743606225775642"><ele>408.0</ele><time>2026-03-22T11:06:56.848Z</time></trkpt><trkpt lat="43.41631110201694" lon="11.743635940119852"><ele>408.0</ele><time>2026-03-22T11:06:57.848Z</time></trkpt><trkpt lat="43.416223207215964" lon="11.743649269396391"><ele>404.3333333333333</ele><time>2026-03-22T11:06:58.848Z</time></trkpt><trkpt lat="43.4161437779268" lon="11.743657160461185"><ele>400.66666666666663</ele><time>2026-03-22T11:06:59.848Z</time></trkpt><trkpt lat="43.416066669491116" lon="11.743674049077809"><ele>397.0</ele><time>2026-03-22T11:07:00.848Z</time></trkpt><trkpt lat="43.41599496714507" lon="11.743673066344792"><ele>393.3333333333333</ele><time>2026-03-22T11:07:01.848Z</time></trkpt><trkpt lat="43.415915510743766" lon="11.743699224455131"><ele>389.66666666666663</ele><time>2026-03-22T11:07:02.848Z</time></trkpt><trkpt lat="43.41584683531892" lon="11.743699645362108"><ele>386.0</ele><time>2026-03-22T11:07:03.848Z</time></trkpt><trkpt lat="43.415763827597196" lon="11.743663708770846"><ele>385.99999999999994</ele><time>2026-03-22T11:07:04.847Z</time></trkpt><trkpt lat="43.41570273803558" lon="11.743626619139746"><ele>386.0</ele><time>2026-03-22T11:07:05.847Z</time></trkpt><trkpt lat="43.41563436743516" lon="11.743572484803344"><ele>386.0</ele><time>2026-03-22T11:07:06.847Z</time></trkpt><trkpt lat="43.41556448601674" lon="11.743508132897073"><ele>386.0</ele><time>2026-03-22T11:07:07.847Z</time></trkpt><trkpt lat="43.41549914107971" lon="11.743441556476503"><ele>385.99999999999994</ele><time>2026-03-22T11:07:08.847Z</time></trkpt><trkpt lat="43.41543296658779" lon="11.74340710563904"><ele>386.0</ele><time>2026-03-22T11:07:09.847Z</time></trkpt><trkpt lat="43.415369387546484" lon="11.743374433326911"><ele>387.99999999999994</ele><time>2026-03-22T11:07:10.847Z</time></trkpt><trkpt lat="43.41530176222748" lon="11.743357170128002"><ele>390.0</ele><time>2026-03-22T11:07:11.847Z</time></trkpt><trkpt lat="43.41523790830978" lon="11.743374308666608"><ele>392.0</ele><time>2026-03-22T11:07:12.847Z</time></trkpt><trkpt lat="43.41512104715108" lon="11.743451007717827"><ele>394.0</ele><time>2026-03-22T11:07:14.847Z</time></trkpt><trkpt lat="43.4150432583815" lon="11.7434646148579"><ele>395.99999999999994</ele><time>2026-03-22T11:07:15.847Z</time></trkpt><trkpt lat="43.41496720861709" lon="11.743445052418787"><ele>398.0</ele><time>2026-03-22T11:07:16.847Z</time></trkpt><trkpt lat="43.41489332569546" lon="11.743418109198561"><ele>397.99999999999994</ele><time>2026-03-22T11:07:17.847Z</time></trkpt><trkpt lat="43.41481855082386" lon="11.743402121987263"><ele>398.0</ele><time>2026-03-22T11:07:18.847Z</time></trkpt><trkpt lat="43.41474463489502" lon="11.74341384330229"><ele>398.0</ele><time>2026-03-22T11:07:19.847Z</time></trkpt><trkpt lat="43.414662886859816" lon="11.743448430888112"><ele>398.0</ele><time>2026-03-22T11:07:20.847Z</time></trkpt><trkpt lat="43.41458590080842" lon="11.743491684640473"><ele>397.99999999999994</ele><time>2026-03-22T11:07:21.847Z</time></trkpt><trkpt lat="43.41451678319038" lon="11.743538247088678"><ele>398.0</ele><time>2026-03-22T11:07:22.847Z</time></trkpt><trkpt lat="43.41442797936057" lon="11.743565170836778"><ele>398.85714285714283</ele><time>2026-03-22T11:07:23.847Z</time></trkpt><trkpt lat="43.41435187155927" lon="11.7435914239922"><ele>399.7142857142857</ele><time>2026-03-22T11:07:24.847Z</time></trkpt><trkpt lat="43.41427838319852" lon="11.743613447403446"><ele>400.57142857142856</ele><time>2026-03-22T11:07:25.847Z</time></trkpt><trkpt lat="43.41420396174633" lon="11.743653010218878"><ele>401.42857142857144</ele><time>2026-03-22T11:07:26.847Z</time></trkpt><trkpt lat="43.41413193360744" lon="11.743660740412128"><ele>402.2857142857143</ele><time>2026-03-22T11:07:27.846Z</time></trkpt><trkpt lat="43.41406246329019" lon="11.743677786234612"><ele>403.1428571428571</ele><time>2026-03-22T11:07:28.846Z</time></trkpt><trkpt lat="43.41399977481306" lon="11.743725396623097"><ele>404.0</ele><time>2026-03-22T11:07:29.846Z</time></trkpt><trkpt lat="43.41393374232565" lon="11.743786456723806"><ele>403.99999999999994</ele><time>2026-03-22T11:07:30.846Z</time></trkpt><trkpt lat="43.41386286289484" lon="11.743837041417956"><ele>404.0</ele><time>2026-03-22T11:07:31.846Z</time></trkpt><trkpt lat="43.413791071630165" lon="11.743870203159513"><ele>404.0</ele><time>2026-03-22T11:07:32.846Z</time></trkpt><trkpt lat="43.41373941405575" lon="11.743937055821105"><ele>404.0</ele><time>2026-03-22T11:07:33.846Z</time></trkpt><trkpt lat="43.41368389567206" lon="11.744018682647589"><ele>403.99999999999994</ele><time>2026-03-22T11:07:34.846Z</time></trkpt><trkpt lat="43.413613226829774" lon="11.744110787724075"><ele>404.0</ele><time>2026-03-22T11:07:35.846Z</time></trkpt><trkpt lat="43.413538691464346" lon="11.744177247430114"><ele>404.2</ele><time>2026-03-22T11:07:36.846Z</time></trkpt><trkpt lat="43.41348344385886" lon="11.744237198702663"><ele>404.4</ele><time>2026-03-22T11:07:37.846Z</time></trkpt><trkpt lat="43.413385551198225" lon="11.7443385595418"><ele>404.6</ele><time>2026-03-22T11:07:39.846Z</time></trkpt><trkpt lat="43.41332359170177" lon="11.744381229123059"><ele>404.8</ele><time>2026-03-22T11:07:40.846Z</time></trkpt><trkpt lat="43.413214149565924" lon="11.74445424790505"><ele>405.0</ele><time>2026-03-22T11:07:42.846Z</time></trkpt><trkpt lat="43.413145788928226" lon="11.744486663840924"><ele>403.4</ele><time>2026-03-22T11:07:45.846Z</time></trkpt><trkpt lat="43.41308575816455" lon="11.744425862512461"><ele>401.8</ele><time>2026-03-22T11:07:48.846Z</time></trkpt><trkpt lat="43.41297182557661" lon="11.7444179839256"><ele>400.20000000000005</ele><time>2026-03-22T11:07:52.845Z</time></trkpt><trkpt lat="43.41286114828043" lon="11.744390187813506"><ele>398.6</ele><time>2026-03-22T11:07:54.845Z</time></trkpt><trkpt lat="43.412730245891574" lon="11.744389147502298"><ele>397.0</ele><time>2026-03-22T11:07:56.845Z</time></trkpt><trkpt lat="43.41263177207809" lon="11.744458817410099"><ele>394.8</ele><time>2026-03-22T11:07:58.845Z</time></trkpt><trkpt lat="43.41256042078281" lon="11.74454808096703"><ele>392.6</ele><time>2026-03-22T11:08:00.845Z</time></trkpt><trkpt lat="43.41246644451193" lon="11.744590972390064"><ele>390.40000000000003</ele><time>2026-03-22T11:08:02.845Z</time></trkpt><trkpt lat="43.412376362626425" lon="11.744618846643151"><ele>388.20000000000005</ele><time>2026-03-22T11:08:04.845Z</time></trkpt><trkpt lat="43.41231145279311" lon="11.74464189310445"><ele>386.0</ele><time>2026-03-22T11:08:06.845Z</time></trkpt><trkpt lat="43.41221597653105" lon="11.74469141338633"><ele>383.49999999999994</ele><time>2026-03-22T11:08:09.845Z</time></trkpt><trkpt lat="43.41215359557036" lon="11.744706673907723"><ele>381.0</ele><time>2026-03-22T11:08:10.845Z</time></trkpt><trkpt lat="43.41206023973506" lon="11.744674468249475"><ele>378.5</ele><time>2026-03-22T11:08:12.847Z</time></trkpt><trkpt lat="43.41199631917306" lon="11.74456371337959"><ele>376.0</ele><time>2026-03-22T11:08:16.847Z</time></trkpt><trkpt lat="43.41195612487438" lon="11.744463904489335"><ele>373.5</ele><time>2026-03-22T11:08:18.847Z</time></trkpt><trkpt lat="43.41193776633343" lon="11.744352056126024"><ele>371.0</ele><time>2026-03-22T11:08:20.847Z</time></trkpt><trkpt lat="43.41188395784956" lon="11.744257229752225"><ele>371.0</ele><time>2026-03-22T11:08:22.846Z</time></trkpt><trkpt lat="43.4117651469069" lon="11.744216228428103"><ele>371.0</ele><time>2026-03-22T11:08:24.847Z</time></trkpt><trkpt lat="43.411702185180495" lon="11.744218195719426"><ele>371.0</ele><time>2026-03-22T11:08:25.847Z</time></trkpt><trkpt lat="43.41160523305657" lon="11.744184081588825"><ele>371.0</ele><time>2026-03-22T11:08:27.847Z</time></trkpt><trkpt lat="43.41153513546495" lon="11.744125593934806"><ele>371.0</ele><time>2026-03-22T11:08:29.847Z</time></trkpt><trkpt lat="43.411468101591126" lon="11.744083191106403"><ele>371.0</ele><time>2026-03-22T11:08:32.846Z</time></trkpt><trkpt lat="43.41137995476806" lon="11.744070053624434"><ele>367.20000000000005</ele><time>2026-03-22T11:08:34.846Z</time></trkpt><trkpt lat="43.41126469130661" lon="11.744107448283856"><ele>363.40000000000003</ele><time>2026-03-22T11:08:36.846Z</time></trkpt><trkpt lat="43.41115453042381" lon="11.744152588532483"><ele>359.6</ele><time>2026-03-22T11:08:38.846Z</time></trkpt><trkpt lat="43.41109003654581" lon="11.744161250506076"><ele>355.8</ele><time>2026-03-22T11:08:39.846Z</time></trkpt><trkpt lat="43.41097959723804" lon="11.744115238309899"><ele>352.0</ele><time>2026-03-22T11:08:41.846Z</time></trkpt><trkpt lat="43.41090862075461" lon="11.744103588420188"><ele>352.0</ele><time>2026-03-22T11:08:43.846Z</time></trkpt><trkpt lat="43.41081383903509" lon="11.744095924060945"><ele>352.0</ele><time>2026-03-22T11:08:53.846Z</time></trkpt><trkpt lat="43.410699922123165" lon="11.744058885392903"><ele>352.0</ele><time>2026-03-22T11:08:55.845Z</time></trkpt><trkpt lat="43.41063152649659" lon="11.744019615383996"><ele>352.0</ele><time>2026-03-22T11:08:56.845Z</time></trkpt><trkpt lat="43.41055776415379" lon="11.743959089547817"><ele>352.0</ele><time>2026-03-22T11:08:57.845Z</time></trkpt><trkpt lat="43.41049511013028" lon="11.74390812143831"><ele>352.0</ele><time>2026-03-22T11:08:58.845Z</time></trkpt><trkpt lat="43.41046545557318" lon="11.743786175606349"><ele>352.0</ele><time>2026-03-22T11:09:00.845Z</time></trkpt><trkpt lat="43.41047469582825" lon="11.743694178388852"><ele>352.0</ele><time>2026-03-22T11:09:01.845Z</time></trkpt><trkpt lat="43.410508815771884" lon="11.74361232349825"><ele>352.0</ele><time>2026-03-22T11:09:02.845Z</time></trkpt><trkpt lat="43.41053476190851" lon="11.743519987831993"><ele>352.0</ele><time>2026-03-22T11:09:03.845Z</time></trkpt><trkpt lat="43.410566374578224" lon="11.743437168986137"><ele>352.0</ele><time>2026-03-22T11:09:04.845Z</time></trkpt><trkpt lat="43.410675216676495" lon="11.743341422443114"><ele>352.0</ele><time>2026-03-22T11:09:06.845Z</time></trkpt><trkpt lat="43.410778060519796" lon="11.743242667782141"><ele>351.0</ele><time>2026-03-22T11:09:08.845Z</time></trkpt><trkpt lat="43.41087272398679" lon="11.74313251886936"><ele>350.0</ele><time>2026-03-22T11:09:10.845Z</time></trkpt><trkpt lat="43.41091583860379" lon="11.742996585646022"><ele>349.0</ele><time>2026-03-22T11:09:12.845Z</time></trkpt><trkpt lat="43.410955519099645" lon="11.74289128199056"><ele>348.0</ele><time>2026-03-22T11:09:14.845Z</time></trkpt><trkpt lat="43.410959318730896" lon="11.742743719101158"><ele>347.0</ele><time>2026-03-22T11:09:16.844Z</time></trkpt><trkpt lat="43.41091522662779" lon="11.74267596778638"><ele>347.0</ele><time>2026-03-22T11:09:18.844Z</time></trkpt><trkpt lat="43.410872996281796" lon="11.74258973851455"><ele>347.0</ele><time>2026-03-22T11:09:22.844Z</time></trkpt><trkpt lat="43.41081394926617" lon="11.742540267959523"><ele>347.0</ele><time>2026-03-22T11:09:27.844Z</time></trkpt><trkpt lat="43.41075152345521" lon="11.742574471060363"><ele>347.0</ele><time>2026-03-22T11:09:29.844Z</time></trkpt><trkpt lat="43.41069428373558" lon="11.742626099853686"><ele>347.0</ele><time>2026-03-22T11:09:31.844Z</time></trkpt><trkpt lat="43.41062069045376" lon="11.742687168313738"><ele>347.0</ele><time>2026-03-22T11:09:45.843Z</time></trkpt><trkpt lat="43.41057065098365" lon="11.742785607432387"><ele>347.0</ele><time>2026-03-22T11:09:47.843Z</time></trkpt><trkpt lat="43.41050367761486" lon="11.742920794809848"><ele>347.0</ele><time>2026-03-22T11:09:49.843Z</time></trkpt><trkpt lat="43.41042416750586" lon="11.743082836187838"><ele>347.0</ele><time>2026-03-22T11:09:51.843Z</time></trkpt><trkpt lat="43.410371925639176" lon="11.743198369179805"><ele>347.0</ele><time>2026-03-22T11:09:52.843Z</time></trkpt><trkpt lat="43.41032546282074" lon="11.743325796995537"><ele>344.25</ele><time>2026-03-22T11:09:53.843Z</time></trkpt><trkpt lat="43.41028154440731" lon="11.743464045339646"><ele>341.5</ele><time>2026-03-22T11:09:54.843Z</time></trkpt><trkpt lat="43.4102378638329" lon="11.743613052790849"><ele>338.75</ele><time>2026-03-22T11:09:55.843Z</time></trkpt><trkpt lat="43.410198067452285" lon="11.743773150219473"><ele>336.0</ele><time>2026-03-22T11:09:56.843Z</time></trkpt><trkpt lat="43.41016036821538" lon="11.743926638978285"><ele>336.0</ele><time>2026-03-22T11:09:57.843Z</time></trkpt><trkpt lat="43.4101301273815" lon="11.74409791253665"><ele>336.0</ele><time>2026-03-22T11:09:58.843Z</time></trkpt><trkpt lat="43.41008594690407" lon="11.744275230276848"><ele>336.0</ele><time>2026-03-22T11:09:59.843Z</time></trkpt><trkpt lat="43.41006071948276" lon="11.744449149632434"><ele>336.0</ele><time>2026-03-22T11:10:00.843Z</time></trkpt><trkpt lat="43.41003749143197" lon="11.744608179559757"><ele>335.0</ele><time>2026-03-22T11:10:01.843Z</time></trkpt><trkpt lat="43.41001436832281" lon="11.74476649101481"><ele>334.0</ele><time>2026-03-22T11:10:02.842Z</time></trkpt><trkpt lat="43.41000771025766" lon="11.744918149952305"><ele>333.0</ele><time>2026-03-22T11:10:03.842Z</time></trkpt><trkpt lat="43.40998097824153" lon="11.745076134498314"><ele>332.0</ele><time>2026-03-22T11:10:04.842Z</time></trkpt><trkpt lat="43.40995610329861" lon="11.74523787453156"><ele>331.25</ele><time>2026-03-22T11:10:05.842Z</time></trkpt><trkpt lat="43.409932312100466" lon="11.745401903866993"><ele>330.5</ele><time>2026-03-22T11:10:06.842Z</time></trkpt><trkpt lat="43.40990960868545" lon="11.745578271227478"><ele>329.75</ele><time>2026-03-22T11:10:07.842Z</time></trkpt><trkpt lat="43.40987531002129" lon="11.745738373757238"><ele>329.0</ele><time>2026-03-22T11:10:08.842Z</time></trkpt><trkpt lat="43.40985021543646" lon="11.74591358467283"><ele>328.5</ele><time>2026-03-22T11:10:09.842Z</time></trkpt><trkpt lat="43.40982277470382" lon="11.746091731992331"><ele>328.0</ele><time>2026-03-22T11:10:10.842Z</time></trkpt><trkpt lat="43.409795322874515" lon="11.746271079008233"><ele>327.5</ele><time>2026-03-22T11:10:11.842Z</time></trkpt><trkpt lat="43.409767108030664" lon="11.746453056574495"><ele>327.0</ele><time>2026-03-22T11:10:12.842Z</time></trkpt><trkpt lat="43.40974089725136" lon="11.74663695979773"><ele>327.0</ele><time>2026-03-22T11:10:13.842Z</time></trkpt><trkpt lat="43.4097151151142" lon="11.74681925321737"><ele>327.0</ele><time>2026-03-22T11:10:14.842Z</time></trkpt><trkpt lat="43.40968693064075" lon="11.746990183463517"><ele>327.0</ele><time>2026-03-22T11:10:15.842Z</time></trkpt><trkpt lat="43.40966018929332" lon="11.747160672247032"><ele>327.0</ele><time>2026-03-22T11:10:16.842Z</time></trkpt><trkpt lat="43.409634407918986" lon="11.747332478491689"><ele>324.25</ele><time>2026-03-22T11:10:17.842Z</time></trkpt><trkpt lat="43.409610394402996" lon="11.747503477141175"><ele>321.5</ele><time>2026-03-22T11:10:18.844Z</time></trkpt><trkpt lat="43.409589850066396" lon="11.74767612459724"><ele>318.75</ele><time>2026-03-22T11:10:19.844Z</time></trkpt><trkpt lat="43.40957200158706" lon="11.747834674279302"><ele>316.0</ele><time>2026-03-22T11:10:20.844Z</time></trkpt><trkpt lat="43.40955777648959" lon="11.747987700028483"><ele>315.8</ele><time>2026-03-22T11:10:21.845Z</time></trkpt><trkpt lat="43.409530833197046" lon="11.74813521972658"><ele>315.6</ele><time>2026-03-22T11:10:22.844Z</time></trkpt><trkpt lat="43.40952255576827" lon="11.748287763942924"><ele>315.4</ele><time>2026-03-22T11:10:23.844Z</time></trkpt><trkpt lat="43.40953018787" lon="11.748432901380252"><ele>315.2</ele><time>2026-03-22T11:10:24.844Z</time></trkpt><trkpt lat="43.409502453492166" lon="11.74856275895016"><ele>315.0</ele><time>2026-03-22T11:10:25.843Z</time></trkpt><trkpt lat="43.40945705639437" lon="11.748676167981964"><ele>314.2</ele><time>2026-03-22T11:10:26.843Z</time></trkpt><trkpt lat="43.40940208364372" lon="11.74877967497322"><ele>313.4</ele><time>2026-03-22T11:10:27.844Z</time></trkpt><trkpt lat="43.40933007274768" lon="11.748869630469388"><ele>312.6</ele><time>2026-03-22T11:10:28.844Z</time></trkpt><trkpt lat="43.40923930215092" lon="11.748945554803637"><ele>311.8</ele><time>2026-03-22T11:10:29.844Z</time></trkpt><trkpt lat="43.40913487421552" lon="11.748986542472819"><ele>311.0</ele><time>2026-03-22T11:10:30.844Z</time></trkpt><trkpt lat="43.40903538826094" lon="11.7490546787029"><ele>311.0</ele><time>2026-03-22T11:10:31.843Z</time></trkpt><trkpt lat="43.408932681073615" lon="11.749127809656477"><ele>311.0</ele><time>2026-03-22T11:10:32.843Z</time></trkpt><trkpt lat="43.408828515161325" lon="11.749201979273682"><ele>311.0</ele><time>2026-03-22T11:10:33.843Z</time></trkpt><trkpt lat="43.40871834182808" lon="11.749280333471544"><ele>311.0</ele><time>2026-03-22T11:10:34.843Z</time></trkpt><trkpt lat="43.40860325551073" lon="11.749361179751252"><ele>310.5</ele><time>2026-03-22T11:10:35.843Z</time></trkpt><trkpt lat="43.40849723632866" lon="11.749435279695021"><ele>310.0</ele><time>2026-03-22T11:10:36.843Z</time></trkpt><trkpt lat="43.40838752798613" lon="11.749511443597058"><ele>309.5</ele><time>2026-03-22T11:10:37.843Z</time></trkpt><trkpt lat="43.40827796550612" lon="11.749587506242145"><ele>309.0</ele><time>2026-03-22T11:10:38.843Z</time></trkpt><trkpt lat="43.40818042774289" lon="11.749678035003026"><ele>309.0</ele><time>2026-03-22T11:10:39.843Z</time></trkpt><trkpt lat="43.40806906521246" lon="11.749746729103567"><ele>309.0</ele><time>2026-03-22T11:10:40.843Z</time></trkpt><trkpt lat="43.40796076742172" lon="11.749819209489416"><ele>309.0</ele><time>2026-03-22T11:10:41.843Z</time></trkpt><trkpt lat="43.40785942492065" lon="11.74989501263031"><ele>309.0</ele><time>2026-03-22T11:10:42.843Z</time></trkpt><trkpt lat="43.40775593323888" lon="11.7499572755197"><ele>308.59999999999997</ele><time>2026-03-22T11:10:43.843Z</time></trkpt><trkpt lat="43.40764923876183" lon="11.749998276591645"><ele>308.2</ele><time>2026-03-22T11:10:44.843Z</time></trkpt><trkpt lat="43.407538029027315" lon="11.750025181709391"><ele>307.79999999999995</ele><time>2026-03-22T11:10:45.843Z</time></trkpt><trkpt lat="43.40743195794429" lon="11.750008411355646"><ele>307.4</ele><time>2026-03-22T11:10:46.843Z</time></trkpt><trkpt lat="43.40732853422877" lon="11.749962304222464"><ele>307.0</ele><time>2026-03-22T11:10:47.842Z</time></trkpt><trkpt lat="43.40722603833555" lon="11.749899244371386"><ele>306.25</ele><time>2026-03-22T11:10:48.842Z</time></trkpt><trkpt lat="43.40712522880281" lon="11.749838664128843"><ele>305.5</ele><time>2026-03-22T11:10:49.842Z</time></trkpt><trkpt lat="43.40701975064328" lon="11.7497785702459"><ele>304.75</ele><time>2026-03-22T11:10:50.842Z</time></trkpt><trkpt lat="43.406904395523625" lon="11.749721761132434"><ele>304.0</ele><time>2026-03-22T11:10:51.842Z</time></trkpt><trkpt lat="43.40678634819043" lon="11.749675491864355"><ele>304.0</ele><time>2026-03-22T11:10:52.842Z</time></trkpt><trkpt lat="43.40665776399139" lon="11.749645678431278"><ele>304.0</ele><time>2026-03-22T11:10:53.842Z</time></trkpt><trkpt lat="43.40652925757484" lon="11.749629730551318"><ele>304.0</ele><time>2026-03-22T11:10:54.842Z</time></trkpt><trkpt lat="43.40639426756048" lon="11.749608819381585"><ele>304.0</ele><time>2026-03-22T11:10:55.842Z</time></trkpt><trkpt lat="43.406254683298094" lon="11.749590837259325"><ele>303.0</ele><time>2026-03-22T11:10:56.842Z</time></trkpt><trkpt lat="43.40612170348076" lon="11.749570932055073"><ele>302.0</ele><time>2026-03-22T11:10:57.842Z</time></trkpt><trkpt lat="43.405985861394164" lon="11.74955604458516"><ele>301.0</ele><time>2026-03-22T11:10:58.842Z</time></trkpt><trkpt lat="43.40585224754958" lon="11.74953795936211"><ele>300.0</ele><time>2026-03-22T11:10:59.842Z</time></trkpt><trkpt lat="43.405722638896854" lon="11.749517137817406"><ele>300.0</ele><time>2026-03-22T11:11:00.842Z</time></trkpt><trkpt lat="43.40559763774983" lon="11.74950240322754"><ele>300.0</ele><time>2026-03-22T11:11:01.842Z</time></trkpt><trkpt lat="43.405473473129526" lon="11.749490970893895"><ele>300.0</ele><time>2026-03-22T11:11:02.842Z</time></trkpt><trkpt lat="43.40534749700621" lon="11.749477977223608"><ele>300.0</ele><time>2026-03-22T11:11:03.842Z</time></trkpt><trkpt lat="43.40521872003895" lon="11.749475383521684"><ele>299.25</ele><time>2026-03-22T11:11:04.842Z</time></trkpt><trkpt lat="43.40508924553105" lon="11.749491894270804"><ele>298.5</ele><time>2026-03-22T11:11:05.842Z</time></trkpt><trkpt lat="43.40495938092954" lon="11.749501938354163"><ele>297.75</ele><time>2026-03-22T11:11:06.842Z</time></trkpt><trkpt lat="43.40483136770634" lon="11.749535490688013"><ele>297.0</ele><time>2026-03-22T11:11:07.842Z</time></trkpt><trkpt lat="43.404707010793885" lon="11.749598409623747"><ele>296.5</ele><time>2026-03-22T11:11:08.842Z</time></trkpt><trkpt lat="43.40457887412653" lon="11.749632105895824"><ele>296.0</ele><time>2026-03-22T11:11:09.842Z</time></trkpt><trkpt lat="43.40445445542166" lon="11.749668024685885"><ele>295.5</ele><time>2026-03-22T11:11:10.841Z</time></trkpt><trkpt lat="43.40433265371473" lon="11.74970331680433"><ele>295.0</ele><time>2026-03-22T11:11:11.841Z</time></trkpt><trkpt lat="43.404209555171064" lon="11.749746419408815"><ele>295.0</ele><time>2026-03-22T11:11:12.841Z</time></trkpt><trkpt lat="43.40408226924151" lon="11.749789285238327"><ele>295.0</ele><time>2026-03-22T11:11:13.841Z</time></trkpt><trkpt lat="43.40395915334111" lon="11.749831060129056"><ele>295.0</ele><time>2026-03-22T11:11:14.841Z</time></trkpt><trkpt lat="43.403834643290985" lon="11.749876368062061"><ele>295.0</ele><time>2026-03-22T11:11:15.841Z</time></trkpt><trkpt lat="43.4037066069149" lon="11.749907661823725"><ele>294.5</ele><time>2026-03-22T11:11:16.841Z</time></trkpt><trkpt lat="43.40358368348039" lon="11.749939948144567"><ele>294.0</ele><time>2026-03-22T11:11:17.841Z</time></trkpt><trkpt lat="43.40345995214534" lon="11.749973243271608"><ele>293.5</ele><time>2026-03-22T11:11:18.841Z</time></trkpt><trkpt lat="43.40333498059499" lon="11.750002536543832"><ele>293.0</ele><time>2026-03-22T11:11:19.841Z</time></trkpt><trkpt lat="43.40320854733663" lon="11.750043878904389"><ele>293.0</ele><time>2026-03-22T11:11:20.841Z</time></trkpt><trkpt lat="43.40308212573967" lon="11.750082462606779"><ele>293.0</ele><time>2026-03-22T11:11:21.841Z</time></trkpt><trkpt lat="43.40295548451496" lon="11.750129233968297"><ele>293.0</ele><time>2026-03-22T11:11:22.841Z</time></trkpt><trkpt lat="43.40282821599823" lon="11.750170840921646"><ele>293.0</ele><time>2026-03-22T11:11:23.841Z</time></trkpt><trkpt lat="43.40269726403645" lon="11.750213939238611"><ele>292.75</ele><time>2026-03-22T11:11:24.841Z</time></trkpt><trkpt lat="43.402567582837996" lon="11.750272559402806"><ele>292.5</ele><time>2026-03-22T11:11:25.841Z</time></trkpt><trkpt lat="43.40244097252764" lon="11.750326798441204"><ele>292.25</ele><time>2026-03-22T11:11:26.841Z</time></trkpt><trkpt lat="43.40231208948992" lon="11.750388183385432"><ele>292.0</ele><time>2026-03-22T11:11:27.841Z</time></trkpt><trkpt lat="43.4021830521476" lon="11.750454421517924"><ele>291.75</ele><time>2026-03-22T11:11:28.841Z</time></trkpt><trkpt lat="43.40205249052701" lon="11.75051428992276"><ele>291.5</ele><time>2026-03-22T11:11:29.841Z</time></trkpt><trkpt lat="43.40191514935089" lon="11.75056746399873"><ele>291.25</ele><time>2026-03-22T11:11:30.841Z</time></trkpt><trkpt lat="43.40177779622071" lon="11.750632641507313"><ele>291.0</ele><time>2026-03-22T11:11:31.841Z</time></trkpt><trkpt lat="43.40164083905163" lon="11.750701655519222"><ele>291.0</ele><time>2026-03-22T11:11:32.841Z</time></trkpt><trkpt lat="43.401502836691584" lon="11.750766569981831"><ele>291.0</ele><time>2026-03-22T11:11:33.84Z</time></trkpt><trkpt lat="43.401364729140184" lon="11.75083350558487"><ele>291.0</ele><time>2026-03-22T11:11:34.84Z</time></trkpt><trkpt lat="43.401223775471834" lon="11.750902437154808"><ele>291.0</ele><time>2026-03-22T11:11:35.84Z</time></trkpt><trkpt lat="43.401082678540995" lon="11.750970227940737"><ele>290.0</ele><time>2026-03-22T11:11:36.84Z</time></trkpt><trkpt lat="43.400940760724225" lon="11.75103787616541"><ele>289.0</ele><time>2026-03-22T11:11:37.84Z</time></trkpt><trkpt lat="43.40079804720883" lon="11.75110639940115"><ele>288.0</ele><time>2026-03-22T11:11:38.84Z</time></trkpt><trkpt lat="43.40065663650428" lon="11.751175114457476"><ele>287.25</ele><time>2026-03-22T11:11:39.84Z</time></trkpt><trkpt lat="43.40051702744178" lon="11.751237359998274"><ele>286.5</ele><time>2026-03-22T11:11:40.84Z</time></trkpt><trkpt lat="43.40037695147208" lon="11.751305334758912"><ele>285.75</ele><time>2026-03-22T11:11:41.84Z</time></trkpt><trkpt lat="43.40023864713562" lon="11.75136977159664"><ele>285.0</ele><time>2026-03-22T11:11:42.84Z</time></trkpt><trkpt lat="43.400100288204285" lon="11.751434827274995"><ele>285.0</ele><time>2026-03-22T11:11:43.84Z</time></trkpt><trkpt lat="43.39996196358807" lon="11.751497806203647"><ele>285.0</ele><time>2026-03-22T11:11:44.84Z</time></trkpt><trkpt lat="43.39982428009203" lon="11.75156046040229"><ele>285.0</ele><time>2026-03-22T11:11:45.84Z</time></trkpt><trkpt lat="43.39968696978834" lon="11.75162816123338"><ele>285.0</ele><time>2026-03-22T11:11:46.84Z</time></trkpt><trkpt lat="43.39955263815323" lon="11.751700186398368"><ele>285.0</ele><time>2026-03-22T11:11:47.84Z</time></trkpt><trkpt lat="43.39941925630581" lon="11.751769799222984"><ele>285.0</ele><time>2026-03-22T11:11:48.84Z</time></trkpt><trkpt lat="43.39927911134431" lon="11.751821581270809"><ele>285.0</ele><time>2026-03-22T11:11:49.84Z</time></trkpt><trkpt lat="43.39914694960313" lon="11.751900331024865"><ele>285.0</ele><time>2026-03-22T11:11:50.84Z</time></trkpt><trkpt lat="43.39888917851784" lon="11.752090239553326"><ele>285.0</ele><time>2026-03-22T11:11:52.84Z</time></trkpt><trkpt lat="43.398768737175914" lon="11.7522121393934"><ele>285.0</ele><time>2026-03-22T11:11:53.84Z</time></trkpt><trkpt lat="43.39864321774312" lon="11.7523154395493"><ele>285.0</ele><time>2026-03-22T11:11:54.84Z</time></trkpt><trkpt lat="43.398511593022825" lon="11.752403770221925"><ele>285.0</ele><time>2026-03-22T11:11:55.84Z</time></trkpt><trkpt lat="43.3983865541929" lon="11.752510128684596"><ele>285.0</ele><time>2026-03-22T11:11:56.839Z</time></trkpt><trkpt lat="43.398261792642586" lon="11.752617529681375"><ele>285.0</ele><time>2026-03-22T11:11:57.839Z</time></trkpt><trkpt lat="43.39813730597228" lon="11.752723324479454"><ele>285.0</ele><time>2026-03-22T11:11:58.839Z</time></trkpt><trkpt lat="43.398010652282146" lon="11.75282942733786"><ele>285.0</ele><time>2026-03-22T11:11:59.839Z</time></trkpt><trkpt lat="43.39788787308415" lon="11.752932803930968"><ele>283.5</ele><time>2026-03-22T11:12:00.839Z</time></trkpt><trkpt lat="43.39775929910782" lon="11.753023731552283"><ele>282.0</ele><time>2026-03-22T11:12:01.839Z</time></trkpt><trkpt lat="43.397640758352914" lon="11.753130674474068"><ele>280.5</ele><time>2026-03-22T11:12:02.839Z</time></trkpt><trkpt lat="43.397522498693654" lon="11.753227108543252"><ele>279.0</ele><time>2026-03-22T11:12:03.839Z</time></trkpt><trkpt lat="43.39740771353725" lon="11.753327725770989"><ele>279.0</ele><time>2026-03-22T11:12:04.839Z</time></trkpt><trkpt lat="43.397288578134415" lon="11.753419722073374"><ele>279.0</ele><time>2026-03-22T11:12:05.839Z</time></trkpt><trkpt lat="43.39717013447212" lon="11.753513150753676"><ele>279.0</ele><time>2026-03-22T11:12:06.839Z</time></trkpt><trkpt lat="43.39705153022546" lon="11.753611274466923"><ele>279.0</ele><time>2026-03-22T11:12:07.839Z</time></trkpt><trkpt lat="43.39692875843294" lon="11.753713649091939"><ele>280.5</ele><time>2026-03-22T11:12:08.839Z</time></trkpt><trkpt lat="43.39680457550417" lon="11.75381565988369"><ele>282.0</ele><time>2026-03-22T11:12:09.839Z</time></trkpt><trkpt lat="43.39667779761498" lon="11.753921871345812"><ele>283.5</ele><time>2026-03-22T11:12:10.839Z</time></trkpt><trkpt lat="43.39655225277688" lon="11.754025476687305"><ele>285.0</ele><time>2026-03-22T11:12:11.839Z</time></trkpt><trkpt lat="43.39642606969718" lon="11.75412671863021"><ele>285.0</ele><time>2026-03-22T11:12:12.839Z</time></trkpt><trkpt lat="43.39630265481069" lon="11.75422118194118"><ele>285.0</ele><time>2026-03-22T11:12:13.839Z</time></trkpt><trkpt lat="43.39617878752472" lon="11.754321719590491"><ele>285.0</ele><time>2026-03-22T11:12:14.839Z</time></trkpt><trkpt lat="43.39605766503068" lon="11.754420939819934"><ele>285.0</ele><time>2026-03-22T11:12:15.839Z</time></trkpt><trkpt lat="43.3959397277332" lon="11.754513040572533"><ele>285.0</ele><time>2026-03-22T11:12:16.839Z</time></trkpt><trkpt lat="43.39581858383368" lon="11.754608225386319"><ele>285.0</ele><time>2026-03-22T11:12:17.839Z</time></trkpt><trkpt lat="43.395698887527175" lon="11.754704967067624"><ele>285.0</ele><time>2026-03-22T11:12:18.839Z</time></trkpt><trkpt lat="43.3955765652642" lon="11.75480572436036"><ele>285.0</ele><time>2026-03-22T11:12:19.838Z</time></trkpt><trkpt lat="43.395455736428346" lon="11.754908716403111"><ele>285.0</ele><time>2026-03-22T11:12:20.838Z</time></trkpt><trkpt lat="43.39533337216196" lon="11.75501776622007"><ele>285.0</ele><time>2026-03-22T11:12:21.838Z</time></trkpt><trkpt lat="43.39521603167119" lon="11.755119784007722"><ele>285.0</ele><time>2026-03-22T11:12:22.838Z</time></trkpt><trkpt lat="43.395091654766766" lon="11.755222474735849"><ele>285.0</ele><time>2026-03-22T11:12:23.838Z</time></trkpt><trkpt lat="43.39497081176632" lon="11.755322637109032"><ele>285.0</ele><time>2026-03-22T11:12:24.841Z</time></trkpt><trkpt lat="43.3948483404276" lon="11.755430258707241"><ele>285.0</ele><time>2026-03-22T11:12:25.841Z</time></trkpt><trkpt lat="43.39472340442525" lon="11.755533711259316"><ele>285.0</ele><time>2026-03-22T11:12:26.841Z</time></trkpt><trkpt lat="43.39459848043781" lon="11.755638916875444"><ele>285.0</ele><time>2026-03-22T11:12:27.841Z</time></trkpt><trkpt lat="43.394473608932536" lon="11.755742974172062"><ele>285.0</ele><time>2026-03-22T11:12:28.841Z</time></trkpt><trkpt lat="43.394340929257574" lon="11.755828438204547"><ele>285.0</ele><time>2026-03-22T11:12:29.841Z</time></trkpt><trkpt lat="43.394215358089895" lon="11.755932389710878"><ele>285.0</ele><time>2026-03-22T11:12:30.841Z</time></trkpt><trkpt lat="43.39409168068481" lon="11.756034773516017"><ele>285.0</ele><time>2026-03-22T11:12:31.841Z</time></trkpt><trkpt lat="43.3939745076539" lon="11.756153504845908"><ele>285.0</ele><time>2026-03-22T11:12:32.841Z</time></trkpt><trkpt lat="43.393844519305304" lon="11.756242903932096"><ele>285.0</ele><time>2026-03-22T11:12:33.84Z</time></trkpt><trkpt lat="43.39370512219031" lon="11.75628106019048"><ele>285.0</ele><time>2026-03-22T11:12:34.841Z</time></trkpt><trkpt lat="43.39356729541293" lon="11.756309699367641"><ele>285.0</ele><time>2026-03-22T11:12:35.841Z</time></trkpt><trkpt lat="43.39342475441647" lon="11.756326387631935"><ele>285.0</ele><time>2026-03-22T11:12:36.841Z</time></trkpt><trkpt lat="43.39329119179418" lon="11.756345734452076"><ele>285.0</ele><time>2026-03-22T11:12:37.841Z</time></trkpt><trkpt lat="43.39315644072721" lon="11.756334663445775"><ele>285.0</ele><time>2026-03-22T11:12:38.841Z</time></trkpt><trkpt lat="43.39302357121053" lon="11.75631676111466"><ele>285.0</ele><time>2026-03-22T11:12:39.841Z</time></trkpt><trkpt lat="43.392886209528385" lon="11.756293701828262"><ele>284.75</ele><time>2026-03-22T11:12:40.841Z</time></trkpt><trkpt lat="43.392747931939496" lon="11.756262629036005"><ele>284.5</ele><time>2026-03-22T11:12:41.841Z</time></trkpt><trkpt lat="43.392609452282755" lon="11.75622837735451"><ele>284.25</ele><time>2026-03-22T11:12:42.841Z</time></trkpt><trkpt lat="43.39247233325759" lon="11.756195763315004"><ele>284.0</ele><time>2026-03-22T11:12:43.841Z</time></trkpt><trkpt lat="43.39232907503808" lon="11.756162322964355"><ele>284.0</ele><time>2026-03-22T11:12:44.841Z</time></trkpt><trkpt lat="43.39219035780875" lon="11.756128097281302"><ele>284.0</ele><time>2026-03-22T11:12:45.841Z</time></trkpt><trkpt lat="43.39204742046277" lon="11.756095560704846"><ele>284.0</ele><time>2026-03-22T11:12:46.841Z</time></trkpt><trkpt lat="43.39190642280725" lon="11.756066092424618"><ele>284.0</ele><time>2026-03-22T11:12:47.841Z</time></trkpt><trkpt lat="43.39176394102575" lon="11.756039239591729"><ele>284.25</ele><time>2026-03-22T11:12:48.841Z</time></trkpt><trkpt lat="43.39162335483033" lon="11.75600914363055"><ele>284.5</ele><time>2026-03-22T11:12:49.841Z</time></trkpt><trkpt lat="43.391481607386005" lon="11.75597884381567"><ele>284.75</ele><time>2026-03-22T11:12:50.841Z</time></trkpt><trkpt lat="43.39134373369059" lon="11.755943209328802"><ele>285.0</ele><time>2026-03-22T11:12:51.841Z</time></trkpt><trkpt lat="43.39120383735237" lon="11.755911783561812"><ele>285.0</ele><time>2026-03-22T11:12:52.84Z</time></trkpt><trkpt lat="43.39106581808184" lon="11.755878513835757"><ele>285.0</ele><time>2026-03-22T11:12:53.84Z</time></trkpt><trkpt lat="43.39092866245001" lon="11.755842951710704"><ele>285.0</ele><time>2026-03-22T11:12:54.84Z</time></trkpt><trkpt lat="43.39079586681353" lon="11.755806124825988"><ele>285.0</ele><time>2026-03-22T11:12:55.84Z</time></trkpt><trkpt lat="43.39065777851427" lon="11.755776970867116"><ele>285.0</ele><time>2026-03-22T11:12:56.84Z</time></trkpt><trkpt lat="43.39052156150981" lon="11.755747274933473"><ele>285.0</ele><time>2026-03-22T11:12:57.84Z</time></trkpt><trkpt lat="43.39038868145757" lon="11.755715395284984"><ele>285.0</ele><time>2026-03-22T11:12:58.84Z</time></trkpt><trkpt lat="43.390255205755615" lon="11.755686558142923"><ele>285.0</ele><time>2026-03-22T11:12:59.84Z</time></trkpt><trkpt lat="43.390125863768766" lon="11.755657591417851"><ele>285.0</ele><time>2026-03-22T11:13:00.84Z</time></trkpt><trkpt lat="43.389998572255045" lon="11.755628747911684"><ele>285.0</ele><time>2026-03-22T11:13:01.84Z</time></trkpt><trkpt lat="43.38987373661319" lon="11.75559713781528"><ele>285.0</ele><time>2026-03-22T11:13:02.84Z</time></trkpt><trkpt lat="43.389758458068414" lon="11.755568631713889"><ele>285.0</ele><time>2026-03-22T11:13:03.84Z</time></trkpt><trkpt lat="43.38964744823946" lon="11.755545517267704"><ele>285.0</ele><time>2026-03-22T11:13:04.84Z</time></trkpt><trkpt lat="43.38952724478786" lon="11.755518083594872"><ele>285.0</ele><time>2026-03-22T11:13:05.84Z</time></trkpt><trkpt lat="43.38941790119231" lon="11.755486897019324"><ele>285.0</ele><time>2026-03-22T11:13:06.84Z</time></trkpt><trkpt lat="43.38932647523475" lon="11.755453795172635"><ele>285.0</ele><time>2026-03-22T11:13:07.84Z</time></trkpt><trkpt lat="43.38924959931315" lon="11.755430835374636"><ele>285.0</ele><time>2026-03-22T11:13:08.84Z</time></trkpt><trkpt lat="43.38918742040672" lon="11.755398727356626"><ele>285.0</ele><time>2026-03-22T11:13:09.84Z</time></trkpt><trkpt lat="43.38911709954899" lon="11.755467468642902"><ele>285.0</ele><time>2026-03-22T11:13:10.84Z</time></trkpt><trkpt lat="43.3890730893536" lon="11.755536204031811"><ele>285.0</ele><time>2026-03-22T11:13:11.84Z</time></trkpt><trkpt lat="43.389024231762114" lon="11.755603057737156"><ele>285.0</ele><time>2026-03-22T11:13:12.84Z</time></trkpt><trkpt lat="43.38902951935604" lon="11.755716179477169"><ele>285.0</ele><time>2026-03-22T11:13:13.84Z</time></trkpt><trkpt lat="43.389040614187536" lon="11.755816022749325"><ele>285.0</ele><time>2026-03-22T11:13:14.84Z</time></trkpt><trkpt lat="43.38906063482082" lon="11.755912518333702"><ele>285.0</ele><time>2026-03-22T11:13:15.839Z</time></trkpt><trkpt lat="43.38907128404448" lon="11.756012801743294"><ele>285.0</ele><time>2026-03-22T11:13:16.839Z</time></trkpt><trkpt lat="43.38904372900994" lon="11.756135351439994"><ele>285.0</ele><time>2026-03-22T11:13:17.839Z</time></trkpt><trkpt lat="43.38904439086813" lon="11.75625921805538"><ele>285.0</ele><time>2026-03-22T11:13:18.839Z</time></trkpt><trkpt lat="43.38904502690246" lon="11.756388397125855"><ele>285.0</ele><time>2026-03-22T11:13:19.839Z</time></trkpt><trkpt lat="43.38904557598804" lon="11.756522556952566"><ele>285.0</ele><time>2026-03-22T11:13:20.839Z</time></trkpt><trkpt lat="43.38906233704066" lon="11.756661514539474"><ele>285.0</ele><time>2026-03-22T11:13:21.839Z</time></trkpt><trkpt lat="43.38904628857544" lon="11.756803748866687"><ele>285.0</ele><time>2026-03-22T11:13:22.839Z</time></trkpt><trkpt lat="43.38906345294954" lon="11.756945334216736"><ele>285.0</ele><time>2026-03-22T11:13:23.839Z</time></trkpt><trkpt lat="43.38904971454392" lon="11.757084066026795"><ele>285.0</ele><time>2026-03-22T11:13:24.839Z</time></trkpt><trkpt lat="43.38907144927131" lon="11.757221059173984"><ele>285.0</ele><time>2026-03-22T11:13:25.839Z</time></trkpt><trkpt lat="43.38907967054453" lon="11.757352512922786"><ele>284.8</ele><time>2026-03-22T11:13:26.839Z</time></trkpt><trkpt lat="43.38910829132663" lon="11.757493080610665"><ele>284.6</ele><time>2026-03-22T11:13:27.839Z</time></trkpt><trkpt lat="43.38914980679159" lon="11.757631220534403"><ele>284.4</ele><time>2026-03-22T11:13:28.839Z</time></trkpt><trkpt lat="43.3891985469637" lon="11.757763127525799"><ele>284.2</ele><time>2026-03-22T11:13:29.839Z</time></trkpt><trkpt lat="43.3892687370262" lon="11.757881974351216"><ele>284.0</ele><time>2026-03-22T11:13:30.839Z</time></trkpt><trkpt lat="43.38932195512093" lon="11.75802045686772"><ele>284.0</ele><time>2026-03-22T11:13:31.839Z</time></trkpt><trkpt lat="43.389385957611125" lon="11.758148886955938"><ele>284.0</ele><time>2026-03-22T11:13:32.839Z</time></trkpt><trkpt lat="43.389453263621256" lon="11.758279643824102"><ele>284.0</ele><time>2026-03-22T11:13:33.839Z</time></trkpt><trkpt lat="43.389519056675596" lon="11.758409865532387"><ele>284.0</ele><time>2026-03-22T11:13:34.839Z</time></trkpt><trkpt lat="43.38958574390702" lon="11.758540835485219"><ele>283.5</ele><time>2026-03-22T11:13:35.839Z</time></trkpt><trkpt lat="43.38965201021991" lon="11.758675027182475"><ele>283.0</ele><time>2026-03-22T11:13:36.839Z</time></trkpt><trkpt lat="43.38971497384138" lon="11.758806940792189"><ele>282.5</ele><time>2026-03-22T11:13:37.839Z</time></trkpt><trkpt lat="43.389779468125425" lon="11.75893667094324"><ele>282.0</ele><time>2026-03-22T11:13:38.838Z</time></trkpt><trkpt lat="43.38984016179099" lon="11.759058849169364"><ele>282.0</ele><time>2026-03-22T11:13:39.838Z</time></trkpt><trkpt lat="43.38989369705403" lon="11.759172969491392"><ele>282.0</ele><time>2026-03-22T11:13:40.838Z</time></trkpt><trkpt lat="43.38993653974198" lon="11.759279459668631"><ele>282.0</ele><time>2026-03-22T11:13:41.838Z</time></trkpt><trkpt lat="43.38997383855767" lon="11.759372183148797"><ele>282.0</ele><time>2026-03-22T11:13:42.838Z</time></trkpt><trkpt lat="43.389870819356204" lon="11.759593702547452"><ele>281.6</ele><time>2026-03-22T11:13:44.838Z</time></trkpt><trkpt lat="43.38980525425531" lon="11.75968910470034"><ele>281.2</ele><time>2026-03-22T11:13:45.838Z</time></trkpt><trkpt lat="43.3897336413358" lon="11.759796290723157"><ele>280.8</ele><time>2026-03-22T11:13:46.838Z</time></trkpt><trkpt lat="43.38965949824923" lon="11.75991089457219"><ele>280.4</ele><time>2026-03-22T11:13:47.838Z</time></trkpt><trkpt lat="43.38958578356473" lon="11.760035576138462"><ele>280.0</ele><time>2026-03-22T11:13:48.838Z</time></trkpt><trkpt lat="43.38950491490077" lon="11.760162914747157"><ele>280.0</ele><time>2026-03-22T11:13:49.838Z</time></trkpt><trkpt lat="43.389421264997125" lon="11.760291905303362"><ele>280.0</ele><time>2026-03-22T11:13:50.838Z</time></trkpt><trkpt lat="43.38933967254124" lon="11.760420457699313"><ele>280.0</ele><time>2026-03-22T11:13:51.838Z</time></trkpt><trkpt lat="43.38926144945714" lon="11.76054615050307"><ele>280.0</ele><time>2026-03-22T11:13:52.838Z</time></trkpt><trkpt lat="43.389181941626916" lon="11.760671521786918"><ele>280.0</ele><time>2026-03-22T11:13:53.838Z</time></trkpt><trkpt lat="43.38910358663726" lon="11.760796079834646"><ele>280.0</ele><time>2026-03-22T11:13:54.838Z</time></trkpt><trkpt lat="43.38902519020416" lon="11.760918680193482"><ele>280.0</ele><time>2026-03-22T11:13:55.838Z</time></trkpt><trkpt lat="43.388946477131185" lon="11.761041747352367"><ele>280.0</ele><time>2026-03-22T11:13:56.838Z</time></trkpt><trkpt lat="43.38886057074378" lon="11.76115598708577"><ele>279.25</ele><time>2026-03-22T11:13:57.838Z</time></trkpt><trkpt lat="43.388782508066456" lon="11.76127895366085"><ele>278.5</ele><time>2026-03-22T11:13:58.838Z</time></trkpt><trkpt lat="43.38870510205002" lon="11.76139949437693"><ele>277.75</ele><time>2026-03-22T11:13:59.838Z</time></trkpt><trkpt lat="43.388628730584365" lon="11.761521726015056"><ele>277.0</ele><time>2026-03-22T11:14:00.838Z</time></trkpt><trkpt lat="43.38855234643803" lon="11.761643514561609"><ele>277.0</ele><time>2026-03-22T11:14:01.837Z</time></trkpt><trkpt lat="43.38847644673323" lon="11.76176633695491"><ele>277.0</ele><time>2026-03-22T11:14:02.837Z</time></trkpt><trkpt lat="43.388398216550215" lon="11.761886884369392"><ele>277.0</ele><time>2026-03-22T11:14:03.837Z</time></trkpt><trkpt lat="43.38832218690659" lon="11.762009339769657"><ele>277.0</ele><time>2026-03-22T11:14:04.837Z</time></trkpt><trkpt lat="43.38824752296251" lon="11.762131007703003"><ele>276.75</ele><time>2026-03-22T11:14:05.837Z</time></trkpt><trkpt lat="43.38817220394781" lon="11.76225463169954"><ele>276.5</ele><time>2026-03-22T11:14:06.837Z</time></trkpt><trkpt lat="43.38809719828918" lon="11.76237313639886"><ele>276.25</ele><time>2026-03-22T11:14:07.837Z</time></trkpt><trkpt lat="43.388018510908346" lon="11.76249503293401"><ele>276.0</ele><time>2026-03-22T11:14:08.837Z</time></trkpt><trkpt lat="43.38794284490767" lon="11.762609227774085"><ele>276.5</ele><time>2026-03-22T11:14:09.837Z</time></trkpt><trkpt lat="43.38786459293024" lon="11.762724272646828"><ele>277.0</ele><time>2026-03-22T11:14:10.837Z</time></trkpt><trkpt lat="43.38779042623626" lon="11.76284429977314"><ele>277.5</ele><time>2026-03-22T11:14:11.837Z</time></trkpt><trkpt lat="43.38770774331436" lon="11.762951145317562"><ele>278.0</ele><time>2026-03-22T11:14:12.837Z</time></trkpt><trkpt lat="43.387640508801525" lon="11.763078663291193"><ele>278.0</ele><time>2026-03-22T11:14:13.837Z</time></trkpt><trkpt lat="43.38756577785145" lon="11.76319992712712"><ele>278.0</ele><time>2026-03-22T11:14:14.837Z</time></trkpt><trkpt lat="43.38749021046617" lon="11.763315289708151"><ele>278.0</ele><time>2026-03-22T11:14:15.837Z</time></trkpt><trkpt lat="43.38741341516281" lon="11.763430362119246"><ele>278.0</ele><time>2026-03-22T11:14:16.837Z</time></trkpt><trkpt lat="43.38733713281903" lon="11.763551438994668"><ele>277.75</ele><time>2026-03-22T11:14:17.837Z</time></trkpt><trkpt lat="43.387260692410266" lon="11.763663595945836"><ele>277.5</ele><time>2026-03-22T11:14:18.837Z</time></trkpt><trkpt lat="43.38718486189875" lon="11.763785349975342"><ele>277.25</ele><time>2026-03-22T11:14:19.837Z</time></trkpt><trkpt lat="43.38710968157019" lon="11.763905969720462"><ele>277.0</ele><time>2026-03-22T11:14:20.837Z</time></trkpt><trkpt lat="43.387032953979165" lon="11.764024175369624"><ele>277.75</ele><time>2026-03-22T11:14:21.837Z</time></trkpt><trkpt lat="43.386957859821266" lon="11.764142341503943"><ele>278.5</ele><time>2026-03-22T11:14:22.837Z</time></trkpt><trkpt lat="43.38688264422797" lon="11.764260899392047"><ele>279.25</ele><time>2026-03-22T11:14:23.837Z</time></trkpt><trkpt lat="43.38680897100849" lon="11.764378006689485"><ele>280.0</ele><time>2026-03-22T11:14:24.836Z</time></trkpt><trkpt lat="43.386733723502786" lon="11.76450187029602"><ele>280.0</ele><time>2026-03-22T11:14:25.836Z</time></trkpt><trkpt lat="43.38665956095054" lon="11.7646234691739"><ele>280.0</ele><time>2026-03-22T11:14:26.836Z</time></trkpt><trkpt lat="43.38656998547727" lon="11.764738027418211"><ele>280.0</ele><time>2026-03-22T11:14:27.836Z</time></trkpt><trkpt lat="43.38649428735608" lon="11.764860282034979"><ele>280.0</ele><time>2026-03-22T11:14:28.836Z</time></trkpt><trkpt lat="43.38641392482148" lon="11.764986095444678"><ele>280.0</ele><time>2026-03-22T11:14:29.836Z</time></trkpt><trkpt lat="43.38633685812091" lon="11.76510959480015"><ele>280.0</ele><time>2026-03-22T11:14:30.838Z</time></trkpt><trkpt lat="43.38625201598621" lon="11.765231336400047"><ele>280.0</ele><time>2026-03-22T11:14:31.838Z</time></trkpt><trkpt lat="43.38616246408452" lon="11.765346149530538"><ele>280.0</ele><time>2026-03-22T11:14:32.837Z</time></trkpt><trkpt lat="43.38606457110801" lon="11.765454045683505"><ele>279.75</ele><time>2026-03-22T11:14:33.838Z</time></trkpt><trkpt lat="43.38596271916337" lon="11.765553235203939"><ele>279.5</ele><time>2026-03-22T11:14:34.838Z</time></trkpt><trkpt lat="43.385860193535464" lon="11.765658463501508"><ele>279.25</ele><time>2026-03-22T11:14:35.838Z</time></trkpt><trkpt lat="43.38575915653213" lon="11.765766717542053"><ele>279.0</ele><time>2026-03-22T11:14:36.838Z</time></trkpt><trkpt lat="43.38565913435616" lon="11.76587545436142"><ele>279.0</ele><time>2026-03-22T11:14:37.838Z</time></trkpt><trkpt lat="43.38555892420642" lon="11.765984947639142"><ele>279.0</ele><time>2026-03-22T11:14:38.838Z</time></trkpt><trkpt lat="43.385459771053256" lon="11.766093527157825"><ele>279.0</ele><time>2026-03-22T11:14:39.838Z</time></trkpt><trkpt lat="43.38535881794939" lon="11.766203089030618"><ele>279.0</ele><time>2026-03-22T11:14:40.838Z</time></trkpt><trkpt lat="43.38525828075032" lon="11.766307860762765"><ele>279.0</ele><time>2026-03-22T11:14:41.837Z</time></trkpt><trkpt lat="43.38515933185241" lon="11.766414788231609"><ele>279.0</ele><time>2026-03-22T11:14:42.837Z</time></trkpt><trkpt lat="43.385059146394674" lon="11.766520615117237"><ele>279.0</ele><time>2026-03-22T11:14:43.837Z</time></trkpt><trkpt lat="43.384948919840426" lon="11.766609111169453"><ele>279.0</ele><time>2026-03-22T11:14:44.837Z</time></trkpt><trkpt lat="43.38484683326339" lon="11.766715808017288"><ele>279.0</ele><time>2026-03-22T11:14:45.837Z</time></trkpt><trkpt lat="43.38474188680985" lon="11.76682549388654"><ele>279.0</ele><time>2026-03-22T11:14:46.837Z</time></trkpt><trkpt lat="43.38463980171775" lon="11.76693218919714"><ele>279.0</ele><time>2026-03-22T11:14:47.837Z</time></trkpt><trkpt lat="43.384548314338765" lon="11.767056271763435"><ele>279.0</ele><time>2026-03-22T11:14:48.837Z</time></trkpt><trkpt lat="43.38444477976837" lon="11.767157635129532"><ele>279.25</ele><time>2026-03-22T11:14:49.837Z</time></trkpt><trkpt lat="43.38434391267069" lon="11.767260419012453"><ele>279.5</ele><time>2026-03-22T11:14:50.837Z</time></trkpt><trkpt lat="43.384245861694126" lon="11.76736576446477"><ele>279.75</ele><time>2026-03-22T11:14:51.837Z</time></trkpt><trkpt lat="43.38414874735847" lon="11.76746461622453"><ele>280.0</ele><time>2026-03-22T11:14:52.837Z</time></trkpt><trkpt lat="43.38405422585004" lon="11.76756285911596"><ele>280.0</ele><time>2026-03-22T11:14:53.836Z</time></trkpt><trkpt lat="43.38395877103824" lon="11.76766101909468"><ele>280.0</ele><time>2026-03-22T11:14:54.836Z</time></trkpt><trkpt lat="43.38386503555242" lon="11.767758209415014"><ele>280.0</ele><time>2026-03-22T11:14:55.836Z</time></trkpt><trkpt lat="43.383770339735186" lon="11.767855640737796"><ele>280.0</ele><time>2026-03-22T11:14:56.836Z</time></trkpt><trkpt lat="43.383668507599346" lon="11.767932295915884"><ele>280.5</ele><time>2026-03-22T11:14:57.836Z</time></trkpt><trkpt lat="43.38357347392634" lon="11.768029107975075"><ele>281.0</ele><time>2026-03-22T11:14:58.836Z</time></trkpt><trkpt lat="43.38347773246048" lon="11.768121357074609"><ele>281.5</ele><time>2026-03-22T11:14:59.836Z</time></trkpt><trkpt lat="43.383381880981155" lon="11.768222670684809"><ele>282.0</ele><time>2026-03-22T11:15:00.836Z</time></trkpt><trkpt lat="43.38328510689325" lon="11.768322196732976"><ele>282.0</ele><time>2026-03-22T11:15:01.836Z</time></trkpt><trkpt lat="43.38318912894586" lon="11.768428607491792"><ele>282.0</ele><time>2026-03-22T11:15:02.836Z</time></trkpt><trkpt lat="43.38309251943057" lon="11.768529002134805"><ele>282.0</ele><time>2026-03-22T11:15:03.836Z</time></trkpt><trkpt lat="43.38299461770301" lon="11.768625290841289"><ele>282.0</ele><time>2026-03-22T11:15:04.836Z</time></trkpt><trkpt lat="43.38289793739593" lon="11.768720892867147"><ele>281.25</ele><time>2026-03-22T11:15:05.836Z</time></trkpt><trkpt lat="43.382800576332876" lon="11.768821108208328"><ele>280.5</ele><time>2026-03-22T11:15:06.836Z</time></trkpt><trkpt lat="43.382704239238926" lon="11.768921499484865"><ele>279.75</ele><time>2026-03-22T11:15:07.836Z</time></trkpt><trkpt lat="43.382607727685965" lon="11.769024251041646"><ele>279.0</ele><time>2026-03-22T11:15:08.836Z</time></trkpt><trkpt lat="43.382510986252264" lon="11.769124878799179"><ele>279.0</ele><time>2026-03-22T11:15:09.836Z</time></trkpt><trkpt lat="43.38240389069026" lon="11.769213302714869"><ele>279.0</ele><time>2026-03-22T11:15:10.836Z</time></trkpt><trkpt lat="43.38231286409217" lon="11.769329280258185"><ele>279.0</ele><time>2026-03-22T11:15:11.836Z</time></trkpt><trkpt lat="43.38223442701133" lon="11.769464793931824"><ele>279.0</ele><time>2026-03-22T11:15:12.836Z</time></trkpt><trkpt lat="43.38216504410957" lon="11.769602751837269"><ele>278.5</ele><time>2026-03-22T11:15:13.836Z</time></trkpt><trkpt lat="43.38209912944763" lon="11.769745990148792"><ele>278.0</ele><time>2026-03-22T11:15:14.836Z</time></trkpt><trkpt lat="43.38204007691172" lon="11.769885044628206"><ele>277.5</ele><time>2026-03-22T11:15:15.836Z</time></trkpt><trkpt lat="43.381982095218554" lon="11.770024540760296"><ele>277.0</ele><time>2026-03-22T11:15:16.835Z</time></trkpt><trkpt lat="43.3819259793166" lon="11.770160661910067"><ele>277.2</ele><time>2026-03-22T11:15:17.835Z</time></trkpt><trkpt lat="43.381870815394066" lon="11.770294473830594"><ele>277.4</ele><time>2026-03-22T11:15:18.835Z</time></trkpt><trkpt lat="43.38182946488223" lon="11.770438700142458"><ele>277.6</ele><time>2026-03-22T11:15:19.835Z</time></trkpt><trkpt lat="43.38176713618808" lon="11.770568267059726"><ele>277.8</ele><time>2026-03-22T11:15:20.835Z</time></trkpt><trkpt lat="43.3817130259566" lon="11.770700871511645"><ele>278.0</ele><time>2026-03-22T11:15:21.835Z</time></trkpt><trkpt lat="43.38166005005587" lon="11.770832658619195"><ele>278.0</ele><time>2026-03-22T11:15:22.835Z</time></trkpt><trkpt lat="43.3816063188177" lon="11.770964436597234"><ele>278.0</ele><time>2026-03-22T11:15:23.835Z</time></trkpt><trkpt lat="43.381553701216305" lon="11.771095091345051"><ele>278.0</ele><time>2026-03-22T11:15:24.835Z</time></trkpt><trkpt lat="43.38150194037076" lon="11.771226179761236"><ele>278.0</ele><time>2026-03-22T11:15:25.835Z</time></trkpt><trkpt lat="43.3814478927822" lon="11.771360518367603"><ele>278.0</ele><time>2026-03-22T11:15:26.835Z</time></trkpt><trkpt lat="43.38139156150625" lon="11.771495049753723"><ele>278.5</ele><time>2026-03-22T11:15:27.835Z</time></trkpt><trkpt lat="43.381338546800364" lon="11.77163116810817"><ele>279.0</ele><time>2026-03-22T11:15:28.835Z</time></trkpt><trkpt lat="43.381272432758095" lon="11.771764726489906"><ele>279.5</ele><time>2026-03-22T11:15:29.835Z</time></trkpt><trkpt lat="43.38121813984747" lon="11.77190407032817"><ele>280.0</ele><time>2026-03-22T11:15:30.835Z</time></trkpt><trkpt lat="43.38116237841283" lon="11.772042230175865"><ele>280.2</ele><time>2026-03-22T11:15:31.835Z</time></trkpt><trkpt lat="43.38110791330756" lon="11.772180572292129"><ele>280.4</ele><time>2026-03-22T11:15:32.835Z</time></trkpt><trkpt lat="43.38105810382169" lon="11.77231399069054"><ele>280.6</ele><time>2026-03-22T11:15:33.835Z</time></trkpt><trkpt lat="43.38099681803176" lon="11.772430725507544"><ele>280.8</ele><time>2026-03-22T11:15:34.835Z</time></trkpt><trkpt lat="43.38094818713651" lon="11.772549662803666"><ele>281.0</ele><time>2026-03-22T11:15:35.835Z</time></trkpt><trkpt lat="43.38090131102284" lon="11.772660736291602"><ele>280.8</ele><time>2026-03-22T11:15:36.835Z</time></trkpt><trkpt lat="43.38085537702277" lon="11.772765189786618"><ele>280.6</ele><time>2026-03-22T11:15:37.835Z</time></trkpt><trkpt lat="43.38081044810129" lon="11.772851086687801"><ele>280.4</ele><time>2026-03-22T11:15:38.835Z</time></trkpt><trkpt lat="43.38074675803746" lon="11.772974454026548"><ele>280.2</ele><time>2026-03-22T11:15:40.834Z</time></trkpt><trkpt lat="43.38070192224397" lon="11.773081072397208"><ele>280.0</ele><time>2026-03-22T11:15:43.834Z</time></trkpt><trkpt lat="43.380670945308104" lon="11.7732188163962"><ele>280.0</ele><time>2026-03-22T11:15:45.834Z</time></trkpt><trkpt lat="43.38065442346841" lon="11.77331029080717"><ele>280.0</ele><time>2026-03-22T11:15:46.834Z</time></trkpt><trkpt lat="43.38063248715115" lon="11.773410589534762"><ele>280.0</ele><time>2026-03-22T11:15:47.834Z</time></trkpt><trkpt lat="43.3806057379616" lon="11.773509969407785"><ele>280.0</ele><time>2026-03-22T11:15:48.834Z</time></trkpt><trkpt lat="43.380553292926734" lon="11.773614182010258"><ele>280.0</ele><time>2026-03-22T11:15:49.834Z</time></trkpt><trkpt lat="43.38051117484909" lon="11.773742437309549"><ele>280.0</ele><time>2026-03-22T11:15:50.834Z</time></trkpt><trkpt lat="43.380461641702446" lon="11.773894684784526"><ele>280.0</ele><time>2026-03-22T11:15:51.834Z</time></trkpt><trkpt lat="43.380410493395644" lon="11.774052454155417"><ele>280.0</ele><time>2026-03-22T11:15:52.834Z</time></trkpt><trkpt lat="43.38036078468561" lon="11.774205782318402"><ele>280.0</ele><time>2026-03-22T11:15:53.834Z</time></trkpt><trkpt lat="43.380310189425884" lon="11.774361845315697"><ele>280.0</ele><time>2026-03-22T11:15:54.834Z</time></trkpt><trkpt lat="43.38026068696337" lon="11.774514537309486"><ele>279.5</ele><time>2026-03-22T11:15:55.834Z</time></trkpt><trkpt lat="43.38021194582117" lon="11.774665946144196"><ele>279.0</ele><time>2026-03-22T11:15:56.834Z</time></trkpt><trkpt lat="43.3801639902587" lon="11.774815288417775"><ele>278.5</ele><time>2026-03-22T11:15:57.834Z</time></trkpt><trkpt lat="43.380115426317765" lon="11.774966525422665"><ele>278.0</ele><time>2026-03-22T11:15:58.834Z</time></trkpt><trkpt lat="43.38006627330106" lon="11.77511959748939"><ele>277.75</ele><time>2026-03-22T11:15:59.834Z</time></trkpt><trkpt lat="43.38001661419961" lon="11.775274244918293"><ele>277.5</ele><time>2026-03-22T11:16:00.834Z</time></trkpt><trkpt lat="43.37996851758836" lon="11.77542402648125"><ele>277.25</ele><time>2026-03-22T11:16:01.834Z</time></trkpt><trkpt lat="43.379918382751605" lon="11.77558015542998"><ele>277.0</ele><time>2026-03-22T11:16:02.833Z</time></trkpt><trkpt lat="43.37988492647961" lon="11.775740816599882"><ele>277.0</ele><time>2026-03-22T11:16:03.833Z</time></trkpt><trkpt lat="43.37982666635948" lon="11.775890262542093"><ele>277.0</ele><time>2026-03-22T11:16:04.833Z</time></trkpt><trkpt lat="43.37977738841724" lon="11.776042352473523"><ele>277.0</ele><time>2026-03-22T11:16:05.833Z</time></trkpt><trkpt lat="43.379727348362586" lon="11.776195973877384"><ele>277.0</ele><time>2026-03-22T11:16:06.833Z</time></trkpt><trkpt lat="43.37967892929663" lon="11.776353153234991"><ele>277.0</ele><time>2026-03-22T11:16:07.833Z</time></trkpt><trkpt lat="43.379629290191055" lon="11.776509449734908"><ele>277.0</ele><time>2026-03-22T11:16:08.833Z</time></trkpt><trkpt lat="43.37958005927363" lon="11.776663519946375"><ele>277.0</ele><time>2026-03-22T11:16:09.833Z</time></trkpt><trkpt lat="43.37952983151933" lon="11.776821092612074"><ele>277.0</ele><time>2026-03-22T11:16:10.833Z</time></trkpt><trkpt lat="43.37947810407757" lon="11.776974351742432"><ele>276.75</ele><time>2026-03-22T11:16:11.833Z</time></trkpt><trkpt lat="43.37941503521957" lon="11.777126824748256"><ele>276.5</ele><time>2026-03-22T11:16:12.833Z</time></trkpt><trkpt lat="43.37936627592883" lon="11.777282385966123"><ele>276.25</ele><time>2026-03-22T11:16:13.833Z</time></trkpt><trkpt lat="43.379316125087996" lon="11.77743821764006"><ele>276.0</ele><time>2026-03-22T11:16:14.833Z</time></trkpt><trkpt lat="43.379264331901595" lon="11.777591600179973"><ele>275.5</ele><time>2026-03-22T11:16:15.833Z</time></trkpt><trkpt lat="43.37921043371843" lon="11.777747430262266"><ele>275.0</ele><time>2026-03-22T11:16:16.833Z</time></trkpt><trkpt lat="43.379159863657286" lon="11.77789687271351"><ele>274.5</ele><time>2026-03-22T11:16:17.833Z</time></trkpt><trkpt lat="43.37911392304191" lon="11.77805246813729"><ele>274.0</ele><time>2026-03-22T11:16:18.833Z</time></trkpt><trkpt lat="43.37906295968207" lon="11.778204630433741"><ele>274.0</ele><time>2026-03-22T11:16:19.833Z</time></trkpt><trkpt lat="43.37900749968714" lon="11.778362654215474"><ele>274.0</ele><time>2026-03-22T11:16:20.833Z</time></trkpt><trkpt lat="43.378957968761206" lon="11.778518070745022"><ele>274.0</ele><time>2026-03-22T11:16:21.833Z</time></trkpt><trkpt lat="43.37890589308072" lon="11.778673419427916"><ele>274.0</ele><time>2026-03-22T11:16:22.833Z</time></trkpt><trkpt lat="43.37885345355063" lon="11.778824436551398"><ele>273.0</ele><time>2026-03-22T11:16:23.833Z</time></trkpt><trkpt lat="43.37880378362613" lon="11.778974348006713"><ele>272.0</ele><time>2026-03-22T11:16:24.833Z</time></trkpt><trkpt lat="43.37875480042381" lon="11.77912493435178"><ele>271.0</ele><time>2026-03-22T11:16:25.832Z</time></trkpt><trkpt lat="43.3786898312043" lon="11.779271965430137"><ele>270.0</ele><time>2026-03-22T11:16:26.832Z</time></trkpt><trkpt lat="43.3786413080175" lon="11.779420042494792"><ele>269.5</ele><time>2026-03-22T11:16:27.832Z</time></trkpt><trkpt lat="43.37859275313629" lon="11.779565108264373"><ele>269.0</ele><time>2026-03-22T11:16:28.832Z</time></trkpt><trkpt lat="43.37854570857474" lon="11.779714783023573"><ele>268.5</ele><time>2026-03-22T11:16:29.832Z</time></trkpt><trkpt lat="43.378501598997886" lon="11.779862664368835"><ele>268.0</ele><time>2026-03-22T11:16:30.832Z</time></trkpt><trkpt lat="43.37845352425438" lon="11.780005714413527"><ele>268.0</ele><time>2026-03-22T11:16:31.832Z</time></trkpt><trkpt lat="43.37840356643356" lon="11.78015108320479"><ele>268.0</ele><time>2026-03-22T11:16:32.832Z</time></trkpt><trkpt lat="43.378354347988584" lon="11.780301850014228"><ele>268.0</ele><time>2026-03-22T11:16:33.832Z</time></trkpt><trkpt lat="43.37830474930537" lon="11.780458608251438"><ele>268.0</ele><time>2026-03-22T11:16:34.832Z</time></trkpt><trkpt lat="43.378251389126596" lon="11.780618806499126"><ele>268.0</ele><time>2026-03-22T11:16:35.832Z</time></trkpt><trkpt lat="43.378194149490994" lon="11.780781274434352"><ele>268.0</ele><time>2026-03-22T11:16:36.834Z</time></trkpt><trkpt lat="43.37813757500929" lon="11.780957204388157"><ele>268.0</ele><time>2026-03-22T11:16:37.835Z</time></trkpt><trkpt lat="43.378079677802646" lon="11.78113543683148"><ele>268.0</ele><time>2026-03-22T11:16:38.835Z</time></trkpt><trkpt lat="43.37800737292029" lon="11.781304195144081"><ele>268.0</ele><time>2026-03-22T11:16:39.835Z</time></trkpt><trkpt lat="43.377950837474216" lon="11.78148355588716"><ele>268.0</ele><time>2026-03-22T11:16:40.834Z</time></trkpt><trkpt lat="43.377892932611495" lon="11.781664959579205"><ele>268.0</ele><time>2026-03-22T11:16:41.834Z</time></trkpt><trkpt lat="43.37783463584725" lon="11.781844641256443"><ele>268.0</ele><time>2026-03-22T11:16:42.834Z</time></trkpt><trkpt lat="43.37777575545391" lon="11.782020461985773"><ele>268.25</ele><time>2026-03-22T11:16:43.835Z</time></trkpt><trkpt lat="43.377718052890934" lon="11.782193919347318"><ele>268.5</ele><time>2026-03-22T11:16:44.835Z</time></trkpt><trkpt lat="43.37766071719129" lon="11.782365574190575"><ele>268.75</ele><time>2026-03-22T11:16:45.834Z</time></trkpt><trkpt lat="43.37760554010254" lon="11.782526418121858"><ele>269.0</ele><time>2026-03-22T11:16:46.834Z</time></trkpt><trkpt lat="43.37755252198993" lon="11.782692639379748"><ele>269.5</ele><time>2026-03-22T11:16:47.834Z</time></trkpt><trkpt lat="43.37748624506865" lon="11.782851737839614"><ele>270.0</ele><time>2026-03-22T11:16:48.834Z</time></trkpt><trkpt lat="43.37743301111152" lon="11.783014042238237"><ele>270.5</ele><time>2026-03-22T11:16:49.834Z</time></trkpt><trkpt lat="43.37738006621884" lon="11.783170420548835"><ele>271.0</ele><time>2026-03-22T11:16:50.834Z</time></trkpt><trkpt lat="43.37732958318806" lon="11.783318765518798"><ele>271.0</ele><time>2026-03-22T11:16:51.834Z</time></trkpt><trkpt lat="43.37727993310169" lon="11.783471527691466"><ele>271.0</ele><time>2026-03-22T11:16:52.834Z</time></trkpt><trkpt lat="43.37723119457011" lon="11.78361871541559"><ele>271.0</ele><time>2026-03-22T11:16:53.834Z</time></trkpt><trkpt lat="43.377183578594924" lon="11.783763125695373"><ele>271.0</ele><time>2026-03-22T11:16:54.834Z</time></trkpt><trkpt lat="43.377133597610595" lon="11.783913925664898"><ele>272.25</ele><time>2026-03-22T11:16:55.834Z</time></trkpt><trkpt lat="43.377085731608375" lon="11.784060255871896"><ele>273.5</ele><time>2026-03-22T11:16:56.834Z</time></trkpt><trkpt lat="43.377020830050164" lon="11.784197489776455"><ele>274.75</ele><time>2026-03-22T11:16:57.834Z</time></trkpt><trkpt lat="43.37697117118693" lon="11.784346691576161"><ele>276.0</ele><time>2026-03-22T11:16:58.834Z</time></trkpt><trkpt lat="43.3769172781301" lon="11.784496975135182"><ele>276.25</ele><time>2026-03-22T11:16:59.834Z</time></trkpt><trkpt lat="43.376862366538454" lon="11.784651330679559"><ele>276.5</ele><time>2026-03-22T11:17:00.834Z</time></trkpt><trkpt lat="43.37679993548188" lon="11.784803189325645"><ele>276.75</ele><time>2026-03-22T11:17:01.834Z</time></trkpt><trkpt lat="43.37672927812733" lon="11.784961741834941"><ele>277.0</ele><time>2026-03-22T11:17:02.834Z</time></trkpt><trkpt lat="43.376651248982924" lon="11.78510838588896"><ele>277.25</ele><time>2026-03-22T11:17:03.834Z</time></trkpt><trkpt lat="43.37656625847704" lon="11.78525960248762"><ele>277.5</ele><time>2026-03-22T11:17:04.834Z</time></trkpt><trkpt lat="43.37647335324675" lon="11.785390552531938"><ele>277.75</ele><time>2026-03-22T11:17:05.834Z</time></trkpt><trkpt lat="43.37637803242243" lon="11.785515399002264"><ele>278.0</ele><time>2026-03-22T11:17:06.834Z</time></trkpt><trkpt lat="43.376266781873106" lon="11.785598642289555"><ele>277.25</ele><time>2026-03-22T11:17:07.834Z</time></trkpt><trkpt lat="43.37616500153494" lon="11.78571524901945"><ele>276.5</ele><time>2026-03-22T11:17:08.834Z</time></trkpt><trkpt lat="43.37606139598878" lon="11.785829178000371"><ele>275.75</ele><time>2026-03-22T11:17:09.834Z</time></trkpt><trkpt lat="43.37596293449035" lon="11.78594046436992"><ele>275.0</ele><time>2026-03-22T11:17:10.833Z</time></trkpt><trkpt lat="43.37586815319095" lon="11.786049374159798"><ele>275.2</ele><time>2026-03-22T11:17:11.833Z</time></trkpt><trkpt lat="43.37578227412384" lon="11.786151507355312"><ele>275.4</ele><time>2026-03-22T11:17:12.833Z</time></trkpt><trkpt lat="43.3757074513971" lon="11.786254405349863"><ele>275.6</ele><time>2026-03-22T11:17:13.833Z</time></trkpt><trkpt lat="43.37562807717715" lon="11.786343283143404"><ele>275.8</ele><time>2026-03-22T11:17:14.833Z</time></trkpt><trkpt lat="43.37555418499659" lon="11.786425771231286"><ele>276.0</ele><time>2026-03-22T11:17:15.833Z</time></trkpt><trkpt lat="43.37548988857442" lon="11.786506006587382"><ele>276.0</ele><time>2026-03-22T11:17:16.833Z</time></trkpt><trkpt lat="43.375421933108605" lon="11.78656851096173"><ele>276.0</ele><time>2026-03-22T11:17:17.833Z</time></trkpt><trkpt lat="43.375421524197336" lon="11.786793753721252"><ele>276.0</ele><time>2026-03-22T11:17:19.833Z</time></trkpt><trkpt lat="43.3754118610083" lon="11.78688966102898"><ele>276.0</ele><time>2026-03-22T11:17:20.833Z</time></trkpt><trkpt lat="43.375413270770416" lon="11.786981407734869"><ele>276.0</ele><time>2026-03-22T11:17:21.833Z</time></trkpt><trkpt lat="43.375415808553996" lon="11.787146565479773"><ele>275.8333333333333</ele><time>2026-03-22T11:17:23.833Z</time></trkpt><trkpt lat="43.37543393865301" lon="11.787285023212283"><ele>275.6666666666667</ele><time>2026-03-22T11:17:25.833Z</time></trkpt><trkpt lat="43.37542678956547" lon="11.787385587716559"><ele>275.5</ele><time>2026-03-22T11:17:27.833Z</time></trkpt><trkpt lat="43.375420359086824" lon="11.78747928174628"><ele>275.33333333333337</ele><time>2026-03-22T11:17:31.833Z</time></trkpt><trkpt lat="43.37542401821252" lon="11.787569252927115"><ele>275.1666666666667</ele><time>2026-03-22T11:17:33.832Z</time></trkpt><trkpt lat="43.37542230002962" lon="11.787751989812564"><ele>275.0</ele><time>2026-03-22T11:17:35.832Z</time></trkpt><trkpt lat="43.37543386252647" lon="11.787899507707353"><ele>275.0</ele><time>2026-03-22T11:17:36.832Z</time></trkpt><trkpt lat="43.37544684117705" lon="11.78808266176026"><ele>275.0</ele><time>2026-03-22T11:17:37.832Z</time></trkpt><trkpt lat="43.37548488468204" lon="11.788291736577236"><ele>275.0</ele><time>2026-03-22T11:17:38.832Z</time></trkpt><trkpt lat="43.37552451729587" lon="11.788475273819689"><ele>275.0</ele><time>2026-03-22T11:17:39.832Z</time></trkpt><trkpt lat="43.375533500495386" lon="11.788657823034743"><ele>273.75</ele><time>2026-03-22T11:17:40.832Z</time></trkpt><trkpt lat="43.375537496750866" lon="11.788835039537897"><ele>272.5</ele><time>2026-03-22T11:17:41.832Z</time></trkpt><trkpt lat="43.37553790115273" lon="11.789008027619255"><ele>271.25</ele><time>2026-03-22T11:17:42.832Z</time></trkpt><trkpt lat="43.3755403141066" lon="11.789183090737621"><ele>270.0</ele><time>2026-03-22T11:17:43.832Z</time></trkpt><trkpt lat="43.37554300207883" lon="11.789355109991407"><ele>270.0</ele><time>2026-03-22T11:17:44.832Z</time></trkpt><trkpt lat="43.37554271527201" lon="11.789523118711822"><ele>270.0</ele><time>2026-03-22T11:17:45.832Z</time></trkpt><trkpt lat="43.37552550196737" lon="11.789717121929753"><ele>270.0</ele><time>2026-03-22T11:17:46.832Z</time></trkpt><trkpt lat="43.375485927660655" lon="11.789934324341614"><ele>270.0</ele><time>2026-03-22T11:17:47.832Z</time></trkpt><trkpt lat="43.3754231475875" lon="11.790143037981457"><ele>270.0</ele><time>2026-03-22T11:17:48.832Z</time></trkpt><trkpt lat="43.37532712790614" lon="11.790366284026126"><ele>270.0</ele><time>2026-03-22T11:17:49.832Z</time></trkpt><trkpt lat="43.37520364113513" lon="11.790597305371845"><ele>270.0</ele><time>2026-03-22T11:17:50.832Z</time></trkpt><trkpt lat="43.37504280876906" lon="11.790842503629259"><ele>271.0</ele><time>2026-03-22T11:17:51.832Z</time></trkpt><trkpt lat="43.37488663224269" lon="11.791099385961092"><ele>272.0</ele><time>2026-03-22T11:17:52.832Z</time></trkpt><trkpt lat="43.37474994954846" lon="11.791327158178676"><ele>272.33333333333337</ele><time>2026-03-22T11:17:53.832Z</time></trkpt><trkpt lat="43.374635906037085" lon="11.791551492194387"><ele>272.6666666666667</ele><time>2026-03-22T11:17:54.832Z</time></trkpt><trkpt lat="43.37452122555712" lon="11.791746224451481"><ele>273.0</ele><time>2026-03-22T11:17:55.832Z</time></trkpt><trkpt lat="43.37441150241537" lon="11.791910207888895"><ele>273.25</ele><time>2026-03-22T11:17:56.831Z</time></trkpt><trkpt lat="43.3743317414046" lon="11.792038328013446"><ele>273.5</ele><time>2026-03-22T11:17:57.831Z</time></trkpt><trkpt lat="43.37427700721375" lon="11.79213294344985"><ele>273.75</ele><time>2026-03-22T11:17:58.831Z</time></trkpt><trkpt lat="43.37420138260704" lon="11.792216131744818"><ele>274.0</ele><time>2026-03-22T11:18:00.831Z</time></trkpt><trkpt lat="43.37406117538446" lon="11.792152744356496"><ele>274.0</ele><time>2026-03-22T11:18:03.831Z</time></trkpt><trkpt lat="43.37397962250846" lon="11.792013466517442"><ele>274.0</ele><time>2026-03-22T11:18:05.831Z</time></trkpt><trkpt lat="43.37392204902085" lon="11.791945332079857"><ele>274.0</ele><time>2026-03-22T11:18:06.831Z</time></trkpt><trkpt lat="43.373861530689744" lon="11.791871495750677"><ele>274.0</ele><time>2026-03-22T11:18:07.831Z</time></trkpt><trkpt lat="43.37382196432752" lon="11.791789978149367"><ele>274.0</ele><time>2026-03-22T11:18:08.831Z</time></trkpt><trkpt lat="43.37377351564762" lon="11.79173056842836"><ele>274.0</ele><time>2026-03-22T11:18:09.831Z</time></trkpt><trkpt lat="43.3736929026087" lon="11.791634311100205"><ele>275.0</ele><time>2026-03-22T11:18:11.831Z</time></trkpt><trkpt lat="43.37364309941512" lon="11.79156463118068"><ele>275.0</ele><time>2026-03-22T11:18:13.831Z</time></trkpt><trkpt lat="43.37371562425448" lon="11.791525406621616"><ele>275.0</ele><time>2026-03-22T11:20:16.866Z</time></trkpt></trkseg></trk></gpx>